<?xml version="1.0" encoding="UTF-8" standalone="no" ?>
<gpx xmlns="http://www.topografix.com/GPX/1/1" xmlns:xsi="http://www.w3.org/2001/XMLSchema-instance" xsi:schemaLocation="http://www.topografix.com/GPX/1/1 http://www.topografix.com/GPX/1/1/gpx.xsd" version="1.1" creator="VisuGPX - https://www.visugpx.com">
  <metadata>
    <name>2022-08-02_Chapelledesbois</name>
    <desc><![CDATA[Randonnée VTT de Chapelle des Bois]]></desc>
  </metadata>
  <trk>
    <name><![CDATA[2022-08-02_Chapelledesbois]]></name>
    <trkseg>
      <trkpt lat="46.60302" lon="6.11362">
        <ele>1056.1</ele>
        <time>2022-08-02T08:16:52Z</time>
      </trkpt>
      <trkpt lat="46.60302" lon="6.11362">
        <ele>1057</ele>
        <time>2022-08-02T08:16:53Z</time>
      </trkpt>
      <trkpt lat="46.60311" lon="6.11356">
        <ele>1073.7</ele>
        <time>2022-08-02T08:17:18Z</time>
      </trkpt>
      <trkpt lat="46.6032" lon="6.11356">
        <ele>1077.8</ele>
        <time>2022-08-02T08:19:21Z</time>
      </trkpt>
      <trkpt lat="46.60317" lon="6.11343">
        <ele>1077.8</ele>
        <time>2022-08-02T08:19:26Z</time>
      </trkpt>
      <trkpt lat="46.6031" lon="6.11333">
        <ele>1077.8</ele>
        <time>2022-08-02T08:19:29Z</time>
      </trkpt>
      <trkpt lat="46.60304" lon="6.1132">
        <ele>1077.6</ele>
        <time>2022-08-02T08:19:32Z</time>
      </trkpt>
      <trkpt lat="46.60297" lon="6.11307">
        <ele>1077.5</ele>
        <time>2022-08-02T08:19:35Z</time>
      </trkpt>
      <trkpt lat="46.60293" lon="6.1129">
        <ele>1077.1</ele>
        <time>2022-08-02T08:19:38Z</time>
      </trkpt>
      <trkpt lat="46.60299" lon="6.11274">
        <ele>1076.9</ele>
        <time>2022-08-02T08:19:41Z</time>
      </trkpt>
      <trkpt lat="46.60309" lon="6.11267">
        <ele>1076.6</ele>
        <time>2022-08-02T08:19:44Z</time>
      </trkpt>
      <trkpt lat="46.60318" lon="6.1126">
        <ele>1076.5</ele>
        <time>2022-08-02T08:19:47Z</time>
      </trkpt>
      <trkpt lat="46.60327" lon="6.11253">
        <ele>1076.5</ele>
        <time>2022-08-02T08:19:50Z</time>
      </trkpt>
      <trkpt lat="46.60335" lon="6.11245">
        <ele>1076.6</ele>
        <time>2022-08-02T08:19:53Z</time>
      </trkpt>
      <trkpt lat="46.60344" lon="6.11236">
        <ele>1076.8</ele>
        <time>2022-08-02T08:19:57Z</time>
      </trkpt>
      <trkpt lat="46.60354" lon="6.11229">
        <ele>1077</ele>
        <time>2022-08-02T08:20:01Z</time>
      </trkpt>
      <trkpt lat="46.60363" lon="6.1122">
        <ele>1077.2</ele>
        <time>2022-08-02T08:20:05Z</time>
      </trkpt>
      <trkpt lat="46.60372" lon="6.11211">
        <ele>1077.6</ele>
        <time>2022-08-02T08:20:09Z</time>
      </trkpt>
      <trkpt lat="46.60379" lon="6.11201">
        <ele>1077.9</ele>
        <time>2022-08-02T08:20:13Z</time>
      </trkpt>
      <trkpt lat="46.60385" lon="6.11191">
        <ele>1078.2</ele>
        <time>2022-08-02T08:20:16Z</time>
      </trkpt>
      <trkpt lat="46.60391" lon="6.11181">
        <ele>1078.4</ele>
        <time>2022-08-02T08:20:19Z</time>
      </trkpt>
      <trkpt lat="46.60398" lon="6.11172">
        <ele>1078.6</ele>
        <time>2022-08-02T08:20:22Z</time>
      </trkpt>
      <trkpt lat="46.60406" lon="6.11165">
        <ele>1078.8</ele>
        <time>2022-08-02T08:20:25Z</time>
      </trkpt>
      <trkpt lat="46.60415" lon="6.1116">
        <ele>1079.1</ele>
        <time>2022-08-02T08:20:28Z</time>
      </trkpt>
      <trkpt lat="46.60426" lon="6.11155">
        <ele>1079.3</ele>
        <time>2022-08-02T08:20:32Z</time>
      </trkpt>
      <trkpt lat="46.60435" lon="6.11152">
        <ele>1079.5</ele>
        <time>2022-08-02T08:20:35Z</time>
      </trkpt>
      <trkpt lat="46.60445" lon="6.11152">
        <ele>1079.7</ele>
        <time>2022-08-02T08:20:38Z</time>
      </trkpt>
      <trkpt lat="46.60455" lon="6.11152">
        <ele>1079.8</ele>
        <time>2022-08-02T08:20:41Z</time>
      </trkpt>
      <trkpt lat="46.60464" lon="6.11153">
        <ele>1079.9</ele>
        <time>2022-08-02T08:20:44Z</time>
      </trkpt>
      <trkpt lat="46.60474" lon="6.11153">
        <ele>1080</ele>
        <time>2022-08-02T08:20:47Z</time>
      </trkpt>
      <trkpt lat="46.60484" lon="6.11154">
        <ele>1080.1</ele>
        <time>2022-08-02T08:20:50Z</time>
      </trkpt>
      <trkpt lat="46.60493" lon="6.11156">
        <ele>1080.3</ele>
        <time>2022-08-02T08:20:53Z</time>
      </trkpt>
      <trkpt lat="46.60503" lon="6.11156">
        <ele>1080.5</ele>
        <time>2022-08-02T08:20:56Z</time>
      </trkpt>
      <trkpt lat="46.60512" lon="6.11158">
        <ele>1080.6</ele>
        <time>2022-08-02T08:20:59Z</time>
      </trkpt>
      <trkpt lat="46.60522" lon="6.11161">
        <ele>1080.7</ele>
        <time>2022-08-02T08:21:02Z</time>
      </trkpt>
      <trkpt lat="46.60531" lon="6.11165">
        <ele>1080.9</ele>
        <time>2022-08-02T08:21:05Z</time>
      </trkpt>
      <trkpt lat="46.60541" lon="6.1117">
        <ele>1081.1</ele>
        <time>2022-08-02T08:21:08Z</time>
      </trkpt>
      <trkpt lat="46.60551" lon="6.11178">
        <ele>1081.2</ele>
        <time>2022-08-02T08:21:11Z</time>
      </trkpt>
      <trkpt lat="46.6056" lon="6.11186">
        <ele>1081.4</ele>
        <time>2022-08-02T08:21:14Z</time>
      </trkpt>
      <trkpt lat="46.60571" lon="6.11192">
        <ele>1081.5</ele>
        <time>2022-08-02T08:21:17Z</time>
      </trkpt>
      <trkpt lat="46.60581" lon="6.11199">
        <ele>1081.6</ele>
        <time>2022-08-02T08:21:20Z</time>
      </trkpt>
      <trkpt lat="46.60591" lon="6.11205">
        <ele>1081.8</ele>
        <time>2022-08-02T08:21:23Z</time>
      </trkpt>
      <trkpt lat="46.60602" lon="6.11212">
        <ele>1081.9</ele>
        <time>2022-08-02T08:21:26Z</time>
      </trkpt>
      <trkpt lat="46.60612" lon="6.11218">
        <ele>1082</ele>
        <time>2022-08-02T08:21:29Z</time>
      </trkpt>
      <trkpt lat="46.60621" lon="6.11225">
        <ele>1082.2</ele>
        <time>2022-08-02T08:21:32Z</time>
      </trkpt>
      <trkpt lat="46.60631" lon="6.11231">
        <ele>1082.4</ele>
        <time>2022-08-02T08:21:35Z</time>
      </trkpt>
      <trkpt lat="46.6064" lon="6.11238">
        <ele>1082.6</ele>
        <time>2022-08-02T08:21:38Z</time>
      </trkpt>
      <trkpt lat="46.60648" lon="6.11244">
        <ele>1082.7</ele>
        <time>2022-08-02T08:21:41Z</time>
      </trkpt>
      <trkpt lat="46.60656" lon="6.11252">
        <ele>1082.8</ele>
        <time>2022-08-02T08:21:44Z</time>
      </trkpt>
      <trkpt lat="46.60664" lon="6.11259">
        <ele>1082.9</ele>
        <time>2022-08-02T08:21:47Z</time>
      </trkpt>
      <trkpt lat="46.60674" lon="6.11267">
        <ele>1083.1</ele>
        <time>2022-08-02T08:21:51Z</time>
      </trkpt>
      <trkpt lat="46.60684" lon="6.1127">
        <ele>1083.2</ele>
        <time>2022-08-02T08:21:54Z</time>
      </trkpt>
      <trkpt lat="46.60694" lon="6.11274">
        <ele>1083.4</ele>
        <time>2022-08-02T08:21:57Z</time>
      </trkpt>
      <trkpt lat="46.60704" lon="6.11276">
        <ele>1083.7</ele>
        <time>2022-08-02T08:22:00Z</time>
      </trkpt>
      <trkpt lat="46.60713" lon="6.11278">
        <ele>1084</ele>
        <time>2022-08-02T08:22:03Z</time>
      </trkpt>
      <trkpt lat="46.60722" lon="6.11281">
        <ele>1084.3</ele>
        <time>2022-08-02T08:22:06Z</time>
      </trkpt>
      <trkpt lat="46.60731" lon="6.11285">
        <ele>1084.6</ele>
        <time>2022-08-02T08:22:09Z</time>
      </trkpt>
      <trkpt lat="46.6074" lon="6.1129">
        <ele>1085</ele>
        <time>2022-08-02T08:22:12Z</time>
      </trkpt>
      <trkpt lat="46.60749" lon="6.11294">
        <ele>1085.3</ele>
        <time>2022-08-02T08:22:15Z</time>
      </trkpt>
      <trkpt lat="46.6076" lon="6.113">
        <ele>1085.9</ele>
        <time>2022-08-02T08:22:19Z</time>
      </trkpt>
      <trkpt lat="46.60769" lon="6.11307">
        <ele>1086.3</ele>
        <time>2022-08-02T08:22:22Z</time>
      </trkpt>
      <trkpt lat="46.60777" lon="6.11316">
        <ele>1086.7</ele>
        <time>2022-08-02T08:22:25Z</time>
      </trkpt>
      <trkpt lat="46.60783" lon="6.11328">
        <ele>1087.1</ele>
        <time>2022-08-02T08:22:28Z</time>
      </trkpt>
      <trkpt lat="46.60789" lon="6.1134">
        <ele>1087.4</ele>
        <time>2022-08-02T08:22:31Z</time>
      </trkpt>
      <trkpt lat="46.60793" lon="6.11353">
        <ele>1087.7</ele>
        <time>2022-08-02T08:22:35Z</time>
      </trkpt>
      <trkpt lat="46.60798" lon="6.11364">
        <ele>1088.1</ele>
        <time>2022-08-02T08:22:38Z</time>
      </trkpt>
      <trkpt lat="46.60805" lon="6.11375">
        <ele>1088.5</ele>
        <time>2022-08-02T08:22:41Z</time>
      </trkpt>
      <trkpt lat="46.60812" lon="6.11384">
        <ele>1088.8</ele>
        <time>2022-08-02T08:22:44Z</time>
      </trkpt>
      <trkpt lat="46.6082" lon="6.11392">
        <ele>1089.1</ele>
        <time>2022-08-02T08:22:47Z</time>
      </trkpt>
      <trkpt lat="46.60828" lon="6.11399">
        <ele>1089.4</ele>
        <time>2022-08-02T08:22:50Z</time>
      </trkpt>
      <trkpt lat="46.60836" lon="6.11408">
        <ele>1089.5</ele>
        <time>2022-08-02T08:22:53Z</time>
      </trkpt>
      <trkpt lat="46.60841" lon="6.11422">
        <ele>1089.6</ele>
        <time>2022-08-02T08:22:56Z</time>
      </trkpt>
      <trkpt lat="46.60845" lon="6.11434">
        <ele>1089.7</ele>
        <time>2022-08-02T08:22:58Z</time>
      </trkpt>
      <trkpt lat="46.60849" lon="6.11452">
        <ele>1089.6</ele>
        <time>2022-08-02T08:23:01Z</time>
      </trkpt>
      <trkpt lat="46.60849" lon="6.1147">
        <ele>1089.7</ele>
        <time>2022-08-02T08:23:04Z</time>
      </trkpt>
      <trkpt lat="46.60846" lon="6.11484">
        <ele>1089.8</ele>
        <time>2022-08-02T08:23:07Z</time>
      </trkpt>
      <trkpt lat="46.60839" lon="6.11498">
        <ele>1089.9</ele>
        <time>2022-08-02T08:23:11Z</time>
      </trkpt>
      <trkpt lat="46.60833" lon="6.1151">
        <ele>1090.1</ele>
        <time>2022-08-02T08:23:15Z</time>
      </trkpt>
      <trkpt lat="46.60828" lon="6.11522">
        <ele>1090.3</ele>
        <time>2022-08-02T08:23:18Z</time>
      </trkpt>
      <trkpt lat="46.60824" lon="6.11534">
        <ele>1090.5</ele>
        <time>2022-08-02T08:23:21Z</time>
      </trkpt>
      <trkpt lat="46.60819" lon="6.11551">
        <ele>1091.3</ele>
        <time>2022-08-02T08:23:25Z</time>
      </trkpt>
      <trkpt lat="46.60815" lon="6.11565">
        <ele>1091.8</ele>
        <time>2022-08-02T08:23:28Z</time>
      </trkpt>
      <trkpt lat="46.6081" lon="6.11578">
        <ele>1092.2</ele>
        <time>2022-08-02T08:23:31Z</time>
      </trkpt>
      <trkpt lat="46.60806" lon="6.1159">
        <ele>1092.6</ele>
        <time>2022-08-02T08:23:34Z</time>
      </trkpt>
      <trkpt lat="46.60801" lon="6.11601">
        <ele>1092.9</ele>
        <time>2022-08-02T08:23:37Z</time>
      </trkpt>
      <trkpt lat="46.60795" lon="6.11613">
        <ele>1093.2</ele>
        <time>2022-08-02T08:23:40Z</time>
      </trkpt>
      <trkpt lat="46.60791" lon="6.11626">
        <ele>1093.4</ele>
        <time>2022-08-02T08:23:43Z</time>
      </trkpt>
      <trkpt lat="46.6079" lon="6.11642">
        <ele>1093.6</ele>
        <time>2022-08-02T08:23:46Z</time>
      </trkpt>
      <trkpt lat="46.6079" lon="6.11658">
        <ele>1093.7</ele>
        <time>2022-08-02T08:23:49Z</time>
      </trkpt>
      <trkpt lat="46.60791" lon="6.11675">
        <ele>1094</ele>
        <time>2022-08-02T08:23:52Z</time>
      </trkpt>
      <trkpt lat="46.60793" lon="6.11691">
        <ele>1094.1</ele>
        <time>2022-08-02T08:23:55Z</time>
      </trkpt>
      <trkpt lat="46.60795" lon="6.11707">
        <ele>1094.1</ele>
        <time>2022-08-02T08:23:58Z</time>
      </trkpt>
      <trkpt lat="46.608" lon="6.11719">
        <ele>1094</ele>
        <time>2022-08-02T08:24:00Z</time>
      </trkpt>
      <trkpt lat="46.60806" lon="6.11733">
        <ele>1094.1</ele>
        <time>2022-08-02T08:24:03Z</time>
      </trkpt>
      <trkpt lat="46.6081" lon="6.11747">
        <ele>1094.2</ele>
        <time>2022-08-02T08:24:06Z</time>
      </trkpt>
      <trkpt lat="46.60814" lon="6.11761">
        <ele>1094.3</ele>
        <time>2022-08-02T08:24:09Z</time>
      </trkpt>
      <trkpt lat="46.60819" lon="6.11774">
        <ele>1094.4</ele>
        <time>2022-08-02T08:24:12Z</time>
      </trkpt>
      <trkpt lat="46.60825" lon="6.11785">
        <ele>1094.6</ele>
        <time>2022-08-02T08:24:15Z</time>
      </trkpt>
      <trkpt lat="46.6083" lon="6.11796">
        <ele>1094.8</ele>
        <time>2022-08-02T08:24:18Z</time>
      </trkpt>
      <trkpt lat="46.60836" lon="6.1181">
        <ele>1095.1</ele>
        <time>2022-08-02T08:24:22Z</time>
      </trkpt>
      <trkpt lat="46.60841" lon="6.11822">
        <ele>1095.5</ele>
        <time>2022-08-02T08:24:25Z</time>
      </trkpt>
      <trkpt lat="46.60849" lon="6.11838">
        <ele>1095.9</ele>
        <time>2022-08-02T08:24:29Z</time>
      </trkpt>
      <trkpt lat="46.60855" lon="6.11852">
        <ele>1096.3</ele>
        <time>2022-08-02T08:24:32Z</time>
      </trkpt>
      <trkpt lat="46.60859" lon="6.11864">
        <ele>1096.6</ele>
        <time>2022-08-02T08:24:35Z</time>
      </trkpt>
      <trkpt lat="46.60861" lon="6.11878">
        <ele>1096.9</ele>
        <time>2022-08-02T08:24:38Z</time>
      </trkpt>
      <trkpt lat="46.60864" lon="6.11894">
        <ele>1097.1</ele>
        <time>2022-08-02T08:24:41Z</time>
      </trkpt>
      <trkpt lat="46.60869" lon="6.11912">
        <ele>1097.3</ele>
        <time>2022-08-02T08:24:44Z</time>
      </trkpt>
      <trkpt lat="46.60877" lon="6.11926">
        <ele>1097.3</ele>
        <time>2022-08-02T08:24:47Z</time>
      </trkpt>
      <trkpt lat="46.60884" lon="6.11941">
        <ele>1097.3</ele>
        <time>2022-08-02T08:24:50Z</time>
      </trkpt>
      <trkpt lat="46.60889" lon="6.11956">
        <ele>1097.3</ele>
        <time>2022-08-02T08:24:53Z</time>
      </trkpt>
      <trkpt lat="46.60893" lon="6.11969">
        <ele>1097.3</ele>
        <time>2022-08-02T08:24:56Z</time>
      </trkpt>
      <trkpt lat="46.60898" lon="6.11981">
        <ele>1097.4</ele>
        <time>2022-08-02T08:24:59Z</time>
      </trkpt>
      <trkpt lat="46.60905" lon="6.11992">
        <ele>1097.4</ele>
        <time>2022-08-02T08:25:01Z</time>
      </trkpt>
      <trkpt lat="46.60911" lon="6.12005">
        <ele>1097.6</ele>
        <time>2022-08-02T08:25:04Z</time>
      </trkpt>
      <trkpt lat="46.60919" lon="6.12017">
        <ele>1098</ele>
        <time>2022-08-02T08:25:07Z</time>
      </trkpt>
      <trkpt lat="46.60927" lon="6.12026">
        <ele>1098.3</ele>
        <time>2022-08-02T08:25:10Z</time>
      </trkpt>
      <trkpt lat="46.60937" lon="6.12034">
        <ele>1098.6</ele>
        <time>2022-08-02T08:25:13Z</time>
      </trkpt>
      <trkpt lat="46.60948" lon="6.12038">
        <ele>1098.9</ele>
        <time>2022-08-02T08:25:16Z</time>
      </trkpt>
      <trkpt lat="46.6096" lon="6.1204">
        <ele>1099.1</ele>
        <time>2022-08-02T08:25:19Z</time>
      </trkpt>
      <trkpt lat="46.6097" lon="6.12045">
        <ele>1099.3</ele>
        <time>2022-08-02T08:25:22Z</time>
      </trkpt>
      <trkpt lat="46.60979" lon="6.12053">
        <ele>1099.4</ele>
        <time>2022-08-02T08:25:25Z</time>
      </trkpt>
      <trkpt lat="46.60988" lon="6.12065">
        <ele>1099.5</ele>
        <time>2022-08-02T08:25:29Z</time>
      </trkpt>
      <trkpt lat="46.60995" lon="6.12074">
        <ele>1099.5</ele>
        <time>2022-08-02T08:25:31Z</time>
      </trkpt>
      <trkpt lat="46.61006" lon="6.12088">
        <ele>1099.4</ele>
        <time>2022-08-02T08:25:34Z</time>
      </trkpt>
      <trkpt lat="46.61016" lon="6.12099">
        <ele>1099.4</ele>
        <time>2022-08-02T08:25:37Z</time>
      </trkpt>
      <trkpt lat="46.61024" lon="6.12111">
        <ele>1099.2</ele>
        <time>2022-08-02T08:25:40Z</time>
      </trkpt>
      <trkpt lat="46.61032" lon="6.12127">
        <ele>1099</ele>
        <time>2022-08-02T08:25:43Z</time>
      </trkpt>
      <trkpt lat="46.61039" lon="6.12139">
        <ele>1098.9</ele>
        <time>2022-08-02T08:25:45Z</time>
      </trkpt>
      <trkpt lat="46.61047" lon="6.12153">
        <ele>1098.9</ele>
        <time>2022-08-02T08:25:47Z</time>
      </trkpt>
      <trkpt lat="46.61054" lon="6.12163">
        <ele>1098.5</ele>
        <time>2022-08-02T08:25:49Z</time>
      </trkpt>
      <trkpt lat="46.61065" lon="6.12173">
        <ele>1098</ele>
        <time>2022-08-02T08:25:52Z</time>
      </trkpt>
      <trkpt lat="46.61077" lon="6.1218">
        <ele>1097.8</ele>
        <time>2022-08-02T08:25:55Z</time>
      </trkpt>
      <trkpt lat="46.6109" lon="6.12186">
        <ele>1097.7</ele>
        <time>2022-08-02T08:25:58Z</time>
      </trkpt>
      <trkpt lat="46.611" lon="6.12191">
        <ele>1097.6</ele>
        <time>2022-08-02T08:26:01Z</time>
      </trkpt>
      <trkpt lat="46.61109" lon="6.12198">
        <ele>1097.5</ele>
        <time>2022-08-02T08:26:04Z</time>
      </trkpt>
      <trkpt lat="46.61116" lon="6.12207">
        <ele>1097.5</ele>
        <time>2022-08-02T08:26:07Z</time>
      </trkpt>
      <trkpt lat="46.61123" lon="6.12219">
        <ele>1097.4</ele>
        <time>2022-08-02T08:26:10Z</time>
      </trkpt>
      <trkpt lat="46.61129" lon="6.12231">
        <ele>1097.4</ele>
        <time>2022-08-02T08:26:13Z</time>
      </trkpt>
      <trkpt lat="46.61139" lon="6.12241">
        <ele>1097.5</ele>
        <time>2022-08-02T08:26:17Z</time>
      </trkpt>
      <trkpt lat="46.61149" lon="6.12248">
        <ele>1097.7</ele>
        <time>2022-08-02T08:26:21Z</time>
      </trkpt>
      <trkpt lat="46.61159" lon="6.1225">
        <ele>1097.9</ele>
        <time>2022-08-02T08:26:24Z</time>
      </trkpt>
      <trkpt lat="46.6117" lon="6.1225">
        <ele>1098.2</ele>
        <time>2022-08-02T08:26:27Z</time>
      </trkpt>
      <trkpt lat="46.61179" lon="6.12249">
        <ele>1098.5</ele>
        <time>2022-08-02T08:26:30Z</time>
      </trkpt>
      <trkpt lat="46.61188" lon="6.12243">
        <ele>1098.8</ele>
        <time>2022-08-02T08:26:33Z</time>
      </trkpt>
      <trkpt lat="46.61196" lon="6.12236">
        <ele>1099.2</ele>
        <time>2022-08-02T08:26:36Z</time>
      </trkpt>
      <trkpt lat="46.61205" lon="6.1223">
        <ele>1099.5</ele>
        <time>2022-08-02T08:26:39Z</time>
      </trkpt>
      <trkpt lat="46.61213" lon="6.12223">
        <ele>1099.8</ele>
        <time>2022-08-02T08:26:42Z</time>
      </trkpt>
      <trkpt lat="46.61223" lon="6.12215">
        <ele>1100.1</ele>
        <time>2022-08-02T08:26:45Z</time>
      </trkpt>
      <trkpt lat="46.61234" lon="6.12207">
        <ele>1100.5</ele>
        <time>2022-08-02T08:26:48Z</time>
      </trkpt>
      <trkpt lat="46.61244" lon="6.12201">
        <ele>1100.7</ele>
        <time>2022-08-02T08:26:51Z</time>
      </trkpt>
      <trkpt lat="46.61254" lon="6.12196">
        <ele>1101.4</ele>
        <time>2022-08-02T08:26:55Z</time>
      </trkpt>
      <trkpt lat="46.61265" lon="6.12189">
        <ele>1102.4</ele>
        <time>2022-08-02T08:27:00Z</time>
      </trkpt>
      <trkpt lat="46.61276" lon="6.12186">
        <ele>1103.2</ele>
        <time>2022-08-02T08:27:04Z</time>
      </trkpt>
      <trkpt lat="46.61285" lon="6.12184">
        <ele>1103.8</ele>
        <time>2022-08-02T08:27:07Z</time>
      </trkpt>
      <trkpt lat="46.61298" lon="6.12183">
        <ele>1104.5</ele>
        <time>2022-08-02T08:27:11Z</time>
      </trkpt>
      <trkpt lat="46.61306" lon="6.12179">
        <ele>1105</ele>
        <time>2022-08-02T08:27:14Z</time>
      </trkpt>
      <trkpt lat="46.61313" lon="6.12169">
        <ele>1105.8</ele>
        <time>2022-08-02T08:27:18Z</time>
      </trkpt>
      <trkpt lat="46.61319" lon="6.12158">
        <ele>1106.8</ele>
        <time>2022-08-02T08:27:22Z</time>
      </trkpt>
      <trkpt lat="46.61328" lon="6.1215">
        <ele>1107.5</ele>
        <time>2022-08-02T08:27:26Z</time>
      </trkpt>
      <trkpt lat="46.61337" lon="6.1214">
        <ele>1108.2</ele>
        <time>2022-08-02T08:27:30Z</time>
      </trkpt>
      <trkpt lat="46.61347" lon="6.12132">
        <ele>1109.4</ele>
        <time>2022-08-02T08:27:35Z</time>
      </trkpt>
      <trkpt lat="46.61358" lon="6.1213">
        <ele>1110.1</ele>
        <time>2022-08-02T08:27:39Z</time>
      </trkpt>
      <trkpt lat="46.61369" lon="6.12128">
        <ele>1110.8</ele>
        <time>2022-08-02T08:27:43Z</time>
      </trkpt>
      <trkpt lat="46.61378" lon="6.12123">
        <ele>1111.3</ele>
        <time>2022-08-02T08:27:46Z</time>
      </trkpt>
      <trkpt lat="46.61386" lon="6.12115">
        <ele>1111.6</ele>
        <time>2022-08-02T08:27:49Z</time>
      </trkpt>
      <trkpt lat="46.61395" lon="6.12106">
        <ele>1112</ele>
        <time>2022-08-02T08:27:53Z</time>
      </trkpt>
      <trkpt lat="46.61403" lon="6.12095">
        <ele>1112.4</ele>
        <time>2022-08-02T08:27:57Z</time>
      </trkpt>
      <trkpt lat="46.61414" lon="6.12084">
        <ele>1112.5</ele>
        <time>2022-08-02T08:28:00Z</time>
      </trkpt>
      <trkpt lat="46.61423" lon="6.12075">
        <ele>1112.8</ele>
        <time>2022-08-02T08:28:03Z</time>
      </trkpt>
      <trkpt lat="46.61429" lon="6.12064">
        <ele>1113</ele>
        <time>2022-08-02T08:28:06Z</time>
      </trkpt>
      <trkpt lat="46.61437" lon="6.12056">
        <ele>1113.2</ele>
        <time>2022-08-02T08:28:09Z</time>
      </trkpt>
      <trkpt lat="46.61446" lon="6.12046">
        <ele>1113.3</ele>
        <time>2022-08-02T08:28:12Z</time>
      </trkpt>
      <trkpt lat="46.61456" lon="6.12037">
        <ele>1113.5</ele>
        <time>2022-08-02T08:28:15Z</time>
      </trkpt>
      <trkpt lat="46.61468" lon="6.12032">
        <ele>1113.6</ele>
        <time>2022-08-02T08:28:18Z</time>
      </trkpt>
      <trkpt lat="46.61477" lon="6.12026">
        <ele>1113.8</ele>
        <time>2022-08-02T08:28:21Z</time>
      </trkpt>
      <trkpt lat="46.61486" lon="6.12022">
        <ele>1114.1</ele>
        <time>2022-08-02T08:28:28Z</time>
      </trkpt>
      <trkpt lat="46.61495" lon="6.12019">
        <ele>1114.2</ele>
        <time>2022-08-02T08:28:31Z</time>
      </trkpt>
      <trkpt lat="46.61504" lon="6.12017">
        <ele>1114.2</ele>
        <time>2022-08-02T08:28:33Z</time>
      </trkpt>
      <trkpt lat="46.61518" lon="6.12019">
        <ele>1114.2</ele>
        <time>2022-08-02T08:28:36Z</time>
      </trkpt>
      <trkpt lat="46.61527" lon="6.12021">
        <ele>1114</ele>
        <time>2022-08-02T08:28:38Z</time>
      </trkpt>
      <trkpt lat="46.61538" lon="6.12021">
        <ele>1113.9</ele>
        <time>2022-08-02T08:28:41Z</time>
      </trkpt>
      <trkpt lat="46.61549" lon="6.12021">
        <ele>1114</ele>
        <time>2022-08-02T08:28:44Z</time>
      </trkpt>
      <trkpt lat="46.61558" lon="6.12018">
        <ele>1114.1</ele>
        <time>2022-08-02T08:28:47Z</time>
      </trkpt>
      <trkpt lat="46.61566" lon="6.1201">
        <ele>1114.4</ele>
        <time>2022-08-02T08:28:50Z</time>
      </trkpt>
      <trkpt lat="46.61576" lon="6.11999">
        <ele>1114.7</ele>
        <time>2022-08-02T08:28:54Z</time>
      </trkpt>
      <trkpt lat="46.61584" lon="6.11989">
        <ele>1114.9</ele>
        <time>2022-08-02T08:28:57Z</time>
      </trkpt>
      <trkpt lat="46.61591" lon="6.11977">
        <ele>1115</ele>
        <time>2022-08-02T08:29:00Z</time>
      </trkpt>
      <trkpt lat="46.61596" lon="6.11966">
        <ele>1115.1</ele>
        <time>2022-08-02T08:29:03Z</time>
      </trkpt>
      <trkpt lat="46.61602" lon="6.11955">
        <ele>1115.2</ele>
        <time>2022-08-02T08:29:09Z</time>
      </trkpt>
      <trkpt lat="46.6161" lon="6.11948">
        <ele>1118.3</ele>
        <time>2022-08-02T08:36:17Z</time>
      </trkpt>
      <trkpt lat="46.61621" lon="6.11945">
        <ele>1118.4</ele>
        <time>2022-08-02T08:36:20Z</time>
      </trkpt>
      <trkpt lat="46.61632" lon="6.1194">
        <ele>1118.5</ele>
        <time>2022-08-02T08:36:23Z</time>
      </trkpt>
      <trkpt lat="46.61643" lon="6.11939">
        <ele>1118.5</ele>
        <time>2022-08-02T08:36:26Z</time>
      </trkpt>
      <trkpt lat="46.61654" lon="6.11938">
        <ele>1118.6</ele>
        <time>2022-08-02T08:36:29Z</time>
      </trkpt>
      <trkpt lat="46.61663" lon="6.11938">
        <ele>1118.8</ele>
        <time>2022-08-02T08:36:32Z</time>
      </trkpt>
      <trkpt lat="46.61673" lon="6.11937">
        <ele>1118.9</ele>
        <time>2022-08-02T08:36:35Z</time>
      </trkpt>
      <trkpt lat="46.61684" lon="6.11937">
        <ele>1119.1</ele>
        <time>2022-08-02T08:36:38Z</time>
      </trkpt>
      <trkpt lat="46.61693" lon="6.11936">
        <ele>1119.3</ele>
        <time>2022-08-02T08:36:41Z</time>
      </trkpt>
      <trkpt lat="46.61704" lon="6.11934">
        <ele>1119.5</ele>
        <time>2022-08-02T08:36:44Z</time>
      </trkpt>
      <trkpt lat="46.61714" lon="6.11931">
        <ele>1119.7</ele>
        <time>2022-08-02T08:36:47Z</time>
      </trkpt>
      <trkpt lat="46.61723" lon="6.11929">
        <ele>1119.8</ele>
        <time>2022-08-02T08:36:50Z</time>
      </trkpt>
      <trkpt lat="46.61732" lon="6.11922">
        <ele>1120</ele>
        <time>2022-08-02T08:36:54Z</time>
      </trkpt>
      <trkpt lat="46.61739" lon="6.11913">
        <ele>1120.1</ele>
        <time>2022-08-02T08:36:57Z</time>
      </trkpt>
      <trkpt lat="46.61746" lon="6.11902">
        <ele>1120.5</ele>
        <time>2022-08-02T08:37:01Z</time>
      </trkpt>
      <trkpt lat="46.61751" lon="6.11888">
        <ele>1120.7</ele>
        <time>2022-08-02T08:37:04Z</time>
      </trkpt>
      <trkpt lat="46.61756" lon="6.11874">
        <ele>1120.9</ele>
        <time>2022-08-02T08:37:07Z</time>
      </trkpt>
      <trkpt lat="46.61761" lon="6.11858">
        <ele>1121.2</ele>
        <time>2022-08-02T08:37:11Z</time>
      </trkpt>
      <trkpt lat="46.61766" lon="6.11844">
        <ele>1121.4</ele>
        <time>2022-08-02T08:37:14Z</time>
      </trkpt>
      <trkpt lat="46.61772" lon="6.11828">
        <ele>1121.5</ele>
        <time>2022-08-02T08:37:17Z</time>
      </trkpt>
      <trkpt lat="46.61777" lon="6.11816">
        <ele>1121.4</ele>
        <time>2022-08-02T08:37:19Z</time>
      </trkpt>
      <trkpt lat="46.61781" lon="6.11802">
        <ele>1121.4</ele>
        <time>2022-08-02T08:37:21Z</time>
      </trkpt>
      <trkpt lat="46.61785" lon="6.1179">
        <ele>1121.3</ele>
        <time>2022-08-02T08:37:24Z</time>
      </trkpt>
      <trkpt lat="46.6179" lon="6.11778">
        <ele>1121.3</ele>
        <time>2022-08-02T08:37:27Z</time>
      </trkpt>
      <trkpt lat="46.61796" lon="6.11764">
        <ele>1121.3</ele>
        <time>2022-08-02T08:37:30Z</time>
      </trkpt>
      <trkpt lat="46.61803" lon="6.11749">
        <ele>1121.2</ele>
        <time>2022-08-02T08:37:33Z</time>
      </trkpt>
      <trkpt lat="46.61807" lon="6.11737">
        <ele>1121.2</ele>
        <time>2022-08-02T08:37:36Z</time>
      </trkpt>
      <trkpt lat="46.61811" lon="6.11725">
        <ele>1121.2</ele>
        <time>2022-08-02T08:37:39Z</time>
      </trkpt>
      <trkpt lat="46.61816" lon="6.11714">
        <ele>1121.2</ele>
        <time>2022-08-02T08:37:42Z</time>
      </trkpt>
      <trkpt lat="46.61823" lon="6.11702">
        <ele>1121.2</ele>
        <time>2022-08-02T08:37:45Z</time>
      </trkpt>
      <trkpt lat="46.61828" lon="6.1169">
        <ele>1121.3</ele>
        <time>2022-08-02T08:37:48Z</time>
      </trkpt>
      <trkpt lat="46.61831" lon="6.11678">
        <ele>1121.2</ele>
        <time>2022-08-02T08:37:51Z</time>
      </trkpt>
      <trkpt lat="46.61834" lon="6.11664">
        <ele>1121.2</ele>
        <time>2022-08-02T08:37:54Z</time>
      </trkpt>
      <trkpt lat="46.61838" lon="6.11652">
        <ele>1121.1</ele>
        <time>2022-08-02T08:37:57Z</time>
      </trkpt>
      <trkpt lat="46.61844" lon="6.11639">
        <ele>1121</ele>
        <time>2022-08-02T08:38:00Z</time>
      </trkpt>
      <trkpt lat="46.61847" lon="6.11625">
        <ele>1121</ele>
        <time>2022-08-02T08:38:03Z</time>
      </trkpt>
      <trkpt lat="46.61849" lon="6.1161">
        <ele>1120.9</ele>
        <time>2022-08-02T08:38:06Z</time>
      </trkpt>
      <trkpt lat="46.61851" lon="6.11592">
        <ele>1120.8</ele>
        <time>2022-08-02T08:38:10Z</time>
      </trkpt>
      <trkpt lat="46.61855" lon="6.11579">
        <ele>1120.7</ele>
        <time>2022-08-02T08:38:13Z</time>
      </trkpt>
      <trkpt lat="46.61858" lon="6.11567">
        <ele>1120.6</ele>
        <time>2022-08-02T08:38:16Z</time>
      </trkpt>
      <trkpt lat="46.61862" lon="6.11548">
        <ele>1120.5</ele>
        <time>2022-08-02T08:38:20Z</time>
      </trkpt>
      <trkpt lat="46.61868" lon="6.11532">
        <ele>1120.4</ele>
        <time>2022-08-02T08:38:23Z</time>
      </trkpt>
      <trkpt lat="46.61877" lon="6.1153">
        <ele>1120.4</ele>
        <time>2022-08-02T08:38:26Z</time>
      </trkpt>
      <trkpt lat="46.61886" lon="6.11534">
        <ele>1120.5</ele>
        <time>2022-08-02T08:38:29Z</time>
      </trkpt>
      <trkpt lat="46.61896" lon="6.11532">
        <ele>1120.7</ele>
        <time>2022-08-02T08:38:32Z</time>
      </trkpt>
      <trkpt lat="46.61906" lon="6.11531">
        <ele>1120.9</ele>
        <time>2022-08-02T08:38:35Z</time>
      </trkpt>
      <trkpt lat="46.61916" lon="6.11531">
        <ele>1121</ele>
        <time>2022-08-02T08:38:38Z</time>
      </trkpt>
      <trkpt lat="46.61928" lon="6.11534">
        <ele>1121.4</ele>
        <time>2022-08-02T08:38:42Z</time>
      </trkpt>
      <trkpt lat="46.61937" lon="6.1154">
        <ele>1121.7</ele>
        <time>2022-08-02T08:38:45Z</time>
      </trkpt>
      <trkpt lat="46.61947" lon="6.11541">
        <ele>1122</ele>
        <time>2022-08-02T08:38:48Z</time>
      </trkpt>
      <trkpt lat="46.61956" lon="6.11539">
        <ele>1122.2</ele>
        <time>2022-08-02T08:38:51Z</time>
      </trkpt>
      <trkpt lat="46.61966" lon="6.11537">
        <ele>1122.5</ele>
        <time>2022-08-02T08:38:54Z</time>
      </trkpt>
      <trkpt lat="46.61976" lon="6.1153">
        <ele>1123</ele>
        <time>2022-08-02T08:38:58Z</time>
      </trkpt>
      <trkpt lat="46.61985" lon="6.11525">
        <ele>1123.3</ele>
        <time>2022-08-02T08:39:01Z</time>
      </trkpt>
      <trkpt lat="46.61997" lon="6.1152">
        <ele>1123.9</ele>
        <time>2022-08-02T08:39:05Z</time>
      </trkpt>
      <trkpt lat="46.62007" lon="6.11518">
        <ele>1124.3</ele>
        <time>2022-08-02T08:39:09Z</time>
      </trkpt>
      <trkpt lat="46.62018" lon="6.11517">
        <ele>1124.8</ele>
        <time>2022-08-02T08:39:13Z</time>
      </trkpt>
      <trkpt lat="46.62027" lon="6.11516">
        <ele>1125.4</ele>
        <time>2022-08-02T08:39:17Z</time>
      </trkpt>
      <trkpt lat="46.62037" lon="6.11509">
        <ele>1126.3</ele>
        <time>2022-08-02T08:39:22Z</time>
      </trkpt>
      <trkpt lat="46.62049" lon="6.11502">
        <ele>1126.9</ele>
        <time>2022-08-02T08:39:26Z</time>
      </trkpt>
      <trkpt lat="46.6206" lon="6.11494">
        <ele>1127.2</ele>
        <time>2022-08-02T08:39:29Z</time>
      </trkpt>
      <trkpt lat="46.62068" lon="6.11488">
        <ele>1127.3</ele>
        <time>2022-08-02T08:39:31Z</time>
      </trkpt>
      <trkpt lat="46.62079" lon="6.1148">
        <ele>1127.2</ele>
        <time>2022-08-02T08:39:34Z</time>
      </trkpt>
      <trkpt lat="46.6209" lon="6.11476">
        <ele>1126.9</ele>
        <time>2022-08-02T08:39:37Z</time>
      </trkpt>
      <trkpt lat="46.62102" lon="6.11473">
        <ele>1126.7</ele>
        <time>2022-08-02T08:39:40Z</time>
      </trkpt>
      <trkpt lat="46.62113" lon="6.11468">
        <ele>1126.4</ele>
        <time>2022-08-02T08:39:43Z</time>
      </trkpt>
      <trkpt lat="46.62122" lon="6.11456">
        <ele>1126.1</ele>
        <time>2022-08-02T08:39:46Z</time>
      </trkpt>
      <trkpt lat="46.6213" lon="6.1144">
        <ele>1125.7</ele>
        <time>2022-08-02T08:39:49Z</time>
      </trkpt>
      <trkpt lat="46.62135" lon="6.11425">
        <ele>1125.3</ele>
        <time>2022-08-02T08:39:51Z</time>
      </trkpt>
      <trkpt lat="46.62143" lon="6.11413">
        <ele>1124.9</ele>
        <time>2022-08-02T08:39:53Z</time>
      </trkpt>
      <trkpt lat="46.62152" lon="6.11405">
        <ele>1124.5</ele>
        <time>2022-08-02T08:39:55Z</time>
      </trkpt>
      <trkpt lat="46.62165" lon="6.11404">
        <ele>1123.9</ele>
        <time>2022-08-02T08:39:58Z</time>
      </trkpt>
      <trkpt lat="46.62176" lon="6.11407">
        <ele>1123.6</ele>
        <time>2022-08-02T08:40:00Z</time>
      </trkpt>
      <trkpt lat="46.62186" lon="6.11408">
        <ele>1123.2</ele>
        <time>2022-08-02T08:40:02Z</time>
      </trkpt>
      <trkpt lat="46.62197" lon="6.11411">
        <ele>1122.8</ele>
        <time>2022-08-02T08:40:04Z</time>
      </trkpt>
      <trkpt lat="46.62208" lon="6.11414">
        <ele>1122.4</ele>
        <time>2022-08-02T08:40:07Z</time>
      </trkpt>
      <trkpt lat="46.62219" lon="6.11414">
        <ele>1122.1</ele>
        <time>2022-08-02T08:40:11Z</time>
      </trkpt>
      <trkpt lat="46.62228" lon="6.11417">
        <ele>1122.1</ele>
        <time>2022-08-02T08:40:14Z</time>
      </trkpt>
      <trkpt lat="46.62237" lon="6.11415">
        <ele>1122.2</ele>
        <time>2022-08-02T08:40:17Z</time>
      </trkpt>
      <trkpt lat="46.62245" lon="6.11405">
        <ele>1122.4</ele>
        <time>2022-08-02T08:40:21Z</time>
      </trkpt>
      <trkpt lat="46.62254" lon="6.11397">
        <ele>1122.7</ele>
        <time>2022-08-02T08:40:25Z</time>
      </trkpt>
      <trkpt lat="46.62264" lon="6.11393">
        <ele>1122.9</ele>
        <time>2022-08-02T08:40:28Z</time>
      </trkpt>
      <trkpt lat="46.62275" lon="6.11389">
        <ele>1123.2</ele>
        <time>2022-08-02T08:40:31Z</time>
      </trkpt>
      <trkpt lat="46.62287" lon="6.11387">
        <ele>1123.5</ele>
        <time>2022-08-02T08:40:35Z</time>
      </trkpt>
      <trkpt lat="46.62297" lon="6.1138">
        <ele>1123.8</ele>
        <time>2022-08-02T08:40:39Z</time>
      </trkpt>
      <trkpt lat="46.62306" lon="6.1137">
        <ele>1124</ele>
        <time>2022-08-02T08:40:43Z</time>
      </trkpt>
      <trkpt lat="46.62316" lon="6.11363">
        <ele>1124.2</ele>
        <time>2022-08-02T08:40:47Z</time>
      </trkpt>
      <trkpt lat="46.62326" lon="6.11356">
        <ele>1124.5</ele>
        <time>2022-08-02T08:40:51Z</time>
      </trkpt>
      <trkpt lat="46.62332" lon="6.11347">
        <ele>1124.6</ele>
        <time>2022-08-02T08:40:54Z</time>
      </trkpt>
      <trkpt lat="46.62339" lon="6.11337">
        <ele>1124.9</ele>
        <time>2022-08-02T08:40:57Z</time>
      </trkpt>
      <trkpt lat="46.62343" lon="6.11324">
        <ele>1125.2</ele>
        <time>2022-08-02T08:41:01Z</time>
      </trkpt>
      <trkpt lat="46.62348" lon="6.11311">
        <ele>1125.5</ele>
        <time>2022-08-02T08:41:05Z</time>
      </trkpt>
      <trkpt lat="46.62352" lon="6.11299">
        <ele>1125.9</ele>
        <time>2022-08-02T08:41:09Z</time>
      </trkpt>
      <trkpt lat="46.62349" lon="6.11286">
        <ele>1126</ele>
        <time>2022-08-02T08:41:13Z</time>
      </trkpt>
      <trkpt lat="46.62342" lon="6.11277">
        <ele>1126.1</ele>
        <time>2022-08-02T08:41:16Z</time>
      </trkpt>
      <trkpt lat="46.62338" lon="6.11265">
        <ele>1126.3</ele>
        <time>2022-08-02T08:41:19Z</time>
      </trkpt>
      <trkpt lat="46.62342" lon="6.11253">
        <ele>1126.4</ele>
        <time>2022-08-02T08:41:22Z</time>
      </trkpt>
      <trkpt lat="46.62352" lon="6.11242">
        <ele>1126.4</ele>
        <time>2022-08-02T08:41:26Z</time>
      </trkpt>
      <trkpt lat="46.62359" lon="6.11231">
        <ele>1126.4</ele>
        <time>2022-08-02T08:41:29Z</time>
      </trkpt>
      <trkpt lat="46.62365" lon="6.11221">
        <ele>1126.4</ele>
        <time>2022-08-02T08:41:32Z</time>
      </trkpt>
      <trkpt lat="46.6237" lon="6.11209">
        <ele>1126.4</ele>
        <time>2022-08-02T08:41:36Z</time>
      </trkpt>
      <trkpt lat="46.62376" lon="6.11195">
        <ele>1126.4</ele>
        <time>2022-08-02T08:41:40Z</time>
      </trkpt>
      <trkpt lat="46.62379" lon="6.11182">
        <ele>1126.5</ele>
        <time>2022-08-02T08:41:44Z</time>
      </trkpt>
      <trkpt lat="46.62382" lon="6.1117">
        <ele>1126.6</ele>
        <time>2022-08-02T08:41:48Z</time>
      </trkpt>
      <trkpt lat="46.62381" lon="6.11152">
        <ele>1127</ele>
        <time>2022-08-02T08:41:53Z</time>
      </trkpt>
      <trkpt lat="46.6238" lon="6.11134">
        <ele>1127.4</ele>
        <time>2022-08-02T08:41:57Z</time>
      </trkpt>
      <trkpt lat="46.62379" lon="6.11119">
        <ele>1127.5</ele>
        <time>2022-08-02T08:42:00Z</time>
      </trkpt>
      <trkpt lat="46.62379" lon="6.11105">
        <ele>1127.6</ele>
        <time>2022-08-02T08:42:03Z</time>
      </trkpt>
      <trkpt lat="46.62378" lon="6.1109">
        <ele>1127.9</ele>
        <time>2022-08-02T08:42:08Z</time>
      </trkpt>
      <trkpt lat="46.62378" lon="6.11074">
        <ele>1128.3</ele>
        <time>2022-08-02T08:42:13Z</time>
      </trkpt>
      <trkpt lat="46.62385" lon="6.11062">
        <ele>1128.6</ele>
        <time>2022-08-02T08:42:18Z</time>
      </trkpt>
      <trkpt lat="46.62394" lon="6.11054">
        <ele>1129.4</ele>
        <time>2022-08-02T08:42:23Z</time>
      </trkpt>
      <trkpt lat="46.62404" lon="6.1105">
        <ele>1130.1</ele>
        <time>2022-08-02T08:42:27Z</time>
      </trkpt>
      <trkpt lat="46.62414" lon="6.11043">
        <ele>1131.1</ele>
        <time>2022-08-02T08:42:32Z</time>
      </trkpt>
      <trkpt lat="46.62425" lon="6.11045">
        <ele>1132</ele>
        <time>2022-08-02T08:42:37Z</time>
      </trkpt>
      <trkpt lat="46.62433" lon="6.1104">
        <ele>1132.8</ele>
        <time>2022-08-02T08:42:42Z</time>
      </trkpt>
      <trkpt lat="46.62443" lon="6.11035">
        <ele>1133.9</ele>
        <time>2022-08-02T08:42:47Z</time>
      </trkpt>
      <trkpt lat="46.62452" lon="6.11028">
        <ele>1134.6</ele>
        <time>2022-08-02T08:42:52Z</time>
      </trkpt>
      <trkpt lat="46.62456" lon="6.11016">
        <ele>1135.4</ele>
        <time>2022-08-02T08:42:58Z</time>
      </trkpt>
      <trkpt lat="46.62454" lon="6.11002">
        <ele>1137</ele>
        <time>2022-08-02T08:43:06Z</time>
      </trkpt>
      <trkpt lat="46.62453" lon="6.10989">
        <ele>1137.9</ele>
        <time>2022-08-02T08:43:11Z</time>
      </trkpt>
      <trkpt lat="46.62462" lon="6.10984">
        <ele>1139.3</ele>
        <time>2022-08-02T08:43:18Z</time>
      </trkpt>
      <trkpt lat="46.62471" lon="6.10981">
        <ele>1140.4</ele>
        <time>2022-08-02T08:43:28Z</time>
      </trkpt>
      <trkpt lat="46.62462" lon="6.10975">
        <ele>1141.2</ele>
        <time>2022-08-02T08:43:37Z</time>
      </trkpt>
      <trkpt lat="46.62453" lon="6.10968">
        <ele>1141.3</ele>
        <time>2022-08-02T08:43:41Z</time>
      </trkpt>
      <trkpt lat="46.62447" lon="6.10957">
        <ele>1141.6</ele>
        <time>2022-08-02T08:43:46Z</time>
      </trkpt>
      <trkpt lat="46.62444" lon="6.10942">
        <ele>1141.9</ele>
        <time>2022-08-02T08:43:51Z</time>
      </trkpt>
      <trkpt lat="46.62441" lon="6.1093">
        <ele>1142.2</ele>
        <time>2022-08-02T08:43:55Z</time>
      </trkpt>
      <trkpt lat="46.62437" lon="6.10917">
        <ele>1142.7</ele>
        <time>2022-08-02T08:44:00Z</time>
      </trkpt>
      <trkpt lat="46.62446" lon="6.10921">
        <ele>1143.5</ele>
        <time>2022-08-02T08:44:07Z</time>
      </trkpt>
      <trkpt lat="46.62456" lon="6.10918">
        <ele>1144.3</ele>
        <time>2022-08-02T08:44:13Z</time>
      </trkpt>
      <trkpt lat="46.62466" lon="6.10915">
        <ele>1145.7</ele>
        <time>2022-08-02T08:44:19Z</time>
      </trkpt>
      <trkpt lat="46.62476" lon="6.10915">
        <ele>1147</ele>
        <time>2022-08-02T08:44:25Z</time>
      </trkpt>
      <trkpt lat="46.62486" lon="6.10911">
        <ele>1148.5</ele>
        <time>2022-08-02T08:44:31Z</time>
      </trkpt>
      <trkpt lat="46.62496" lon="6.10907">
        <ele>1150.1</ele>
        <time>2022-08-02T08:44:37Z</time>
      </trkpt>
      <trkpt lat="46.62506" lon="6.10903">
        <ele>1151.2</ele>
        <time>2022-08-02T08:44:42Z</time>
      </trkpt>
      <trkpt lat="46.62516" lon="6.10899">
        <ele>1152</ele>
        <time>2022-08-02T08:44:46Z</time>
      </trkpt>
      <trkpt lat="46.62525" lon="6.10897">
        <ele>1152.7</ele>
        <time>2022-08-02T08:44:49Z</time>
      </trkpt>
      <trkpt lat="46.62536" lon="6.10894">
        <ele>1153.3</ele>
        <time>2022-08-02T08:44:52Z</time>
      </trkpt>
      <trkpt lat="46.62548" lon="6.1089">
        <ele>1153.9</ele>
        <time>2022-08-02T08:44:55Z</time>
      </trkpt>
      <trkpt lat="46.62559" lon="6.10884">
        <ele>1154.3</ele>
        <time>2022-08-02T08:44:58Z</time>
      </trkpt>
      <trkpt lat="46.62571" lon="6.10881">
        <ele>1154.7</ele>
        <time>2022-08-02T08:45:01Z</time>
      </trkpt>
      <trkpt lat="46.62581" lon="6.10879">
        <ele>1155.1</ele>
        <time>2022-08-02T08:45:04Z</time>
      </trkpt>
      <trkpt lat="46.62593" lon="6.10879">
        <ele>1155.5</ele>
        <time>2022-08-02T08:45:07Z</time>
      </trkpt>
      <trkpt lat="46.62602" lon="6.10886">
        <ele>1155.9</ele>
        <time>2022-08-02T08:45:10Z</time>
      </trkpt>
      <trkpt lat="46.6261" lon="6.10894">
        <ele>1156.4</ele>
        <time>2022-08-02T08:45:13Z</time>
      </trkpt>
      <trkpt lat="46.6262" lon="6.10902">
        <ele>1156.7</ele>
        <time>2022-08-02T08:45:16Z</time>
      </trkpt>
      <trkpt lat="46.62628" lon="6.10909">
        <ele>1156.9</ele>
        <time>2022-08-02T08:45:18Z</time>
      </trkpt>
      <trkpt lat="46.62637" lon="6.10916">
        <ele>1157.1</ele>
        <time>2022-08-02T08:45:20Z</time>
      </trkpt>
      <trkpt lat="46.62646" lon="6.10923">
        <ele>1157.2</ele>
        <time>2022-08-02T08:45:22Z</time>
      </trkpt>
      <trkpt lat="46.62654" lon="6.10929">
        <ele>1157.4</ele>
        <time>2022-08-02T08:45:24Z</time>
      </trkpt>
      <trkpt lat="46.62667" lon="6.10934">
        <ele>1157.6</ele>
        <time>2022-08-02T08:45:27Z</time>
      </trkpt>
      <trkpt lat="46.62678" lon="6.10935">
        <ele>1157.4</ele>
        <time>2022-08-02T08:45:30Z</time>
      </trkpt>
      <trkpt lat="46.62687" lon="6.10935">
        <ele>1157.6</ele>
        <time>2022-08-02T08:45:33Z</time>
      </trkpt>
      <trkpt lat="46.62697" lon="6.10934">
        <ele>1157.9</ele>
        <time>2022-08-02T08:45:36Z</time>
      </trkpt>
      <trkpt lat="46.62706" lon="6.10937">
        <ele>1158.1</ele>
        <time>2022-08-02T08:45:39Z</time>
      </trkpt>
      <trkpt lat="46.62716" lon="6.10936">
        <ele>1158.7</ele>
        <time>2022-08-02T08:45:43Z</time>
      </trkpt>
      <trkpt lat="46.62725" lon="6.10933">
        <ele>1159.2</ele>
        <time>2022-08-02T08:45:46Z</time>
      </trkpt>
      <trkpt lat="46.62735" lon="6.10924">
        <ele>1159.9</ele>
        <time>2022-08-02T08:45:50Z</time>
      </trkpt>
      <trkpt lat="46.62741" lon="6.10911">
        <ele>1160.8</ele>
        <time>2022-08-02T08:45:54Z</time>
      </trkpt>
      <trkpt lat="46.62746" lon="6.10897">
        <ele>1161.6</ele>
        <time>2022-08-02T08:45:58Z</time>
      </trkpt>
      <trkpt lat="46.62752" lon="6.10885">
        <ele>1162.3</ele>
        <time>2022-08-02T08:46:02Z</time>
      </trkpt>
      <trkpt lat="46.6276" lon="6.10877">
        <ele>1163.6</ele>
        <time>2022-08-02T08:46:08Z</time>
      </trkpt>
      <trkpt lat="46.62768" lon="6.10868">
        <ele>1164.5</ele>
        <time>2022-08-02T08:46:12Z</time>
      </trkpt>
      <trkpt lat="46.62776" lon="6.10857">
        <ele>1165.2</ele>
        <time>2022-08-02T08:46:16Z</time>
      </trkpt>
      <trkpt lat="46.62784" lon="6.10846">
        <ele>1166.2</ele>
        <time>2022-08-02T08:46:21Z</time>
      </trkpt>
      <trkpt lat="46.62791" lon="6.10837">
        <ele>1167.3</ele>
        <time>2022-08-02T08:46:26Z</time>
      </trkpt>
      <trkpt lat="46.628" lon="6.10832">
        <ele>1168.4</ele>
        <time>2022-08-02T08:46:31Z</time>
      </trkpt>
      <trkpt lat="46.62809" lon="6.10837">
        <ele>1169.6</ele>
        <time>2022-08-02T08:46:36Z</time>
      </trkpt>
      <trkpt lat="46.62813" lon="6.1085">
        <ele>1170.8</ele>
        <time>2022-08-02T08:46:41Z</time>
      </trkpt>
      <trkpt lat="46.62819" lon="6.1086">
        <ele>1171.8</ele>
        <time>2022-08-02T08:46:46Z</time>
      </trkpt>
      <trkpt lat="46.62828" lon="6.10869">
        <ele>1172.9</ele>
        <time>2022-08-02T08:46:51Z</time>
      </trkpt>
      <trkpt lat="46.62837" lon="6.10874">
        <ele>1173.6</ele>
        <time>2022-08-02T08:46:55Z</time>
      </trkpt>
      <trkpt lat="46.62847" lon="6.10874">
        <ele>1174.4</ele>
        <time>2022-08-02T08:46:59Z</time>
      </trkpt>
      <trkpt lat="46.62856" lon="6.10871">
        <ele>1175.6</ele>
        <time>2022-08-02T08:47:04Z</time>
      </trkpt>
      <trkpt lat="46.62864" lon="6.10863">
        <ele>1177.5</ele>
        <time>2022-08-02T08:47:11Z</time>
      </trkpt>
      <trkpt lat="46.62873" lon="6.10853">
        <ele>1178.8</ele>
        <time>2022-08-02T08:47:17Z</time>
      </trkpt>
      <trkpt lat="46.62882" lon="6.10845">
        <ele>1179.9</ele>
        <time>2022-08-02T08:47:22Z</time>
      </trkpt>
      <trkpt lat="46.62893" lon="6.10838">
        <ele>1180.6</ele>
        <time>2022-08-02T08:47:26Z</time>
      </trkpt>
      <trkpt lat="46.62902" lon="6.10837">
        <ele>1181.7</ele>
        <time>2022-08-02T08:47:32Z</time>
      </trkpt>
      <trkpt lat="46.62912" lon="6.10839">
        <ele>1182.7</ele>
        <time>2022-08-02T08:47:38Z</time>
      </trkpt>
      <trkpt lat="46.62922" lon="6.10842">
        <ele>1184.1</ele>
        <time>2022-08-02T08:47:44Z</time>
      </trkpt>
      <trkpt lat="46.62931" lon="6.10851">
        <ele>1185</ele>
        <time>2022-08-02T08:47:49Z</time>
      </trkpt>
      <trkpt lat="46.62938" lon="6.10863">
        <ele>1185.7</ele>
        <time>2022-08-02T08:47:53Z</time>
      </trkpt>
      <trkpt lat="46.62946" lon="6.10873">
        <ele>1186.3</ele>
        <time>2022-08-02T08:47:57Z</time>
      </trkpt>
      <trkpt lat="46.62952" lon="6.10886">
        <ele>1186.9</ele>
        <time>2022-08-02T08:48:01Z</time>
      </trkpt>
      <trkpt lat="46.62957" lon="6.10898">
        <ele>1187.3</ele>
        <time>2022-08-02T08:48:04Z</time>
      </trkpt>
      <trkpt lat="46.62965" lon="6.10908">
        <ele>1187.7</ele>
        <time>2022-08-02T08:48:07Z</time>
      </trkpt>
      <trkpt lat="46.62972" lon="6.10918">
        <ele>1188</ele>
        <time>2022-08-02T08:48:10Z</time>
      </trkpt>
      <trkpt lat="46.62978" lon="6.10928">
        <ele>1188.3</ele>
        <time>2022-08-02T08:48:13Z</time>
      </trkpt>
      <trkpt lat="46.62985" lon="6.1094">
        <ele>1188.6</ele>
        <time>2022-08-02T08:48:16Z</time>
      </trkpt>
      <trkpt lat="46.62991" lon="6.10951">
        <ele>1188.9</ele>
        <time>2022-08-02T08:48:19Z</time>
      </trkpt>
      <trkpt lat="46.62995" lon="6.10966">
        <ele>1189.4</ele>
        <time>2022-08-02T08:48:23Z</time>
      </trkpt>
      <trkpt lat="46.62999" lon="6.10978">
        <ele>1189.7</ele>
        <time>2022-08-02T08:48:26Z</time>
      </trkpt>
      <trkpt lat="46.63006" lon="6.1099">
        <ele>1190.1</ele>
        <time>2022-08-02T08:48:30Z</time>
      </trkpt>
      <trkpt lat="46.63013" lon="6.11">
        <ele>1190.4</ele>
        <time>2022-08-02T08:48:33Z</time>
      </trkpt>
      <trkpt lat="46.63019" lon="6.11011">
        <ele>1190.7</ele>
        <time>2022-08-02T08:48:36Z</time>
      </trkpt>
      <trkpt lat="46.63025" lon="6.11023">
        <ele>1191</ele>
        <time>2022-08-02T08:48:39Z</time>
      </trkpt>
      <trkpt lat="46.63031" lon="6.11037">
        <ele>1191.4</ele>
        <time>2022-08-02T08:48:43Z</time>
      </trkpt>
      <trkpt lat="46.63039" lon="6.11048">
        <ele>1191.6</ele>
        <time>2022-08-02T08:48:46Z</time>
      </trkpt>
      <trkpt lat="46.63044" lon="6.1106">
        <ele>1192</ele>
        <time>2022-08-02T08:48:49Z</time>
      </trkpt>
      <trkpt lat="46.6305" lon="6.1107">
        <ele>1192.3</ele>
        <time>2022-08-02T08:48:52Z</time>
      </trkpt>
      <trkpt lat="46.63056" lon="6.11084">
        <ele>1192.7</ele>
        <time>2022-08-02T08:48:56Z</time>
      </trkpt>
      <trkpt lat="46.63059" lon="6.111">
        <ele>1193.3</ele>
        <time>2022-08-02T08:49:01Z</time>
      </trkpt>
      <trkpt lat="46.63062" lon="6.11112">
        <ele>1194</ele>
        <time>2022-08-02T08:49:05Z</time>
      </trkpt>
      <trkpt lat="46.63066" lon="6.11124">
        <ele>1194.8</ele>
        <time>2022-08-02T08:49:09Z</time>
      </trkpt>
      <trkpt lat="46.63071" lon="6.11137">
        <ele>1195.6</ele>
        <time>2022-08-02T08:49:13Z</time>
      </trkpt>
      <trkpt lat="46.63076" lon="6.11151">
        <ele>1196.3</ele>
        <time>2022-08-02T08:49:17Z</time>
      </trkpt>
      <trkpt lat="46.63082" lon="6.11165">
        <ele>1197.5</ele>
        <time>2022-08-02T08:49:22Z</time>
      </trkpt>
      <trkpt lat="46.63087" lon="6.11177">
        <ele>1198.9</ele>
        <time>2022-08-02T08:49:27Z</time>
      </trkpt>
      <trkpt lat="46.63092" lon="6.11191">
        <ele>1199.9</ele>
        <time>2022-08-02T08:49:32Z</time>
      </trkpt>
      <trkpt lat="46.63095" lon="6.11204">
        <ele>1200.7</ele>
        <time>2022-08-02T08:49:36Z</time>
      </trkpt>
      <trkpt lat="46.63099" lon="6.11218">
        <ele>1201.5</ele>
        <time>2022-08-02T08:49:40Z</time>
      </trkpt>
      <trkpt lat="46.63101" lon="6.11232">
        <ele>1202.2</ele>
        <time>2022-08-02T08:49:44Z</time>
      </trkpt>
      <trkpt lat="46.63105" lon="6.11247">
        <ele>1202.9</ele>
        <time>2022-08-02T08:49:48Z</time>
      </trkpt>
      <trkpt lat="46.63108" lon="6.11262">
        <ele>1203.5</ele>
        <time>2022-08-02T08:49:52Z</time>
      </trkpt>
      <trkpt lat="46.63112" lon="6.11278">
        <ele>1204.1</ele>
        <time>2022-08-02T08:49:56Z</time>
      </trkpt>
      <trkpt lat="46.63115" lon="6.11291">
        <ele>1204.6</ele>
        <time>2022-08-02T08:50:00Z</time>
      </trkpt>
      <trkpt lat="46.63123" lon="6.11305">
        <ele>1205.1</ele>
        <time>2022-08-02T08:50:05Z</time>
      </trkpt>
      <trkpt lat="46.63132" lon="6.11312">
        <ele>1205.3</ele>
        <time>2022-08-02T08:50:08Z</time>
      </trkpt>
      <trkpt lat="46.63143" lon="6.11318">
        <ele>1205.7</ele>
        <time>2022-08-02T08:50:12Z</time>
      </trkpt>
      <trkpt lat="46.63152" lon="6.1132">
        <ele>1205.9</ele>
        <time>2022-08-02T08:50:15Z</time>
      </trkpt>
      <trkpt lat="46.63165" lon="6.11316">
        <ele>1206.1</ele>
        <time>2022-08-02T08:50:18Z</time>
      </trkpt>
      <trkpt lat="46.63177" lon="6.11313">
        <ele>1206.2</ele>
        <time>2022-08-02T08:50:21Z</time>
      </trkpt>
      <trkpt lat="46.63187" lon="6.11311">
        <ele>1206</ele>
        <time>2022-08-02T08:50:23Z</time>
      </trkpt>
      <trkpt lat="46.63198" lon="6.11313">
        <ele>1205.9</ele>
        <time>2022-08-02T08:50:26Z</time>
      </trkpt>
      <trkpt lat="46.63203" lon="6.11324">
        <ele>1205.8</ele>
        <time>2022-08-02T08:50:29Z</time>
      </trkpt>
      <trkpt lat="46.63204" lon="6.1134">
        <ele>1205.9</ele>
        <time>2022-08-02T08:50:33Z</time>
      </trkpt>
      <trkpt lat="46.63201" lon="6.11354">
        <ele>1206</ele>
        <time>2022-08-02T08:50:38Z</time>
      </trkpt>
      <trkpt lat="46.63195" lon="6.11366">
        <ele>1206.1</ele>
        <time>2022-08-02T08:50:43Z</time>
      </trkpt>
      <trkpt lat="46.63201" lon="6.11355">
        <ele>1206.5</ele>
        <time>2022-08-02T08:50:52Z</time>
      </trkpt>
      <trkpt lat="46.63202" lon="6.1134">
        <ele>1206.6</ele>
        <time>2022-08-02T08:50:56Z</time>
      </trkpt>
      <trkpt lat="46.63201" lon="6.11324">
        <ele>1206.6</ele>
        <time>2022-08-02T08:50:59Z</time>
      </trkpt>
      <trkpt lat="46.63205" lon="6.1131">
        <ele>1206.5</ele>
        <time>2022-08-02T08:51:02Z</time>
      </trkpt>
      <trkpt lat="46.63213" lon="6.11298">
        <ele>1206.3</ele>
        <time>2022-08-02T08:51:05Z</time>
      </trkpt>
      <trkpt lat="46.63221" lon="6.11289">
        <ele>1206</ele>
        <time>2022-08-02T08:51:07Z</time>
      </trkpt>
      <trkpt lat="46.6323" lon="6.11282">
        <ele>1205.4</ele>
        <time>2022-08-02T08:51:09Z</time>
      </trkpt>
      <trkpt lat="46.63242" lon="6.1127">
        <ele>1204.8</ele>
        <time>2022-08-02T08:51:11Z</time>
      </trkpt>
      <trkpt lat="46.63253" lon="6.11256">
        <ele>1204.3</ele>
        <time>2022-08-02T08:51:13Z</time>
      </trkpt>
      <trkpt lat="46.63262" lon="6.11242">
        <ele>1203.7</ele>
        <time>2022-08-02T08:51:15Z</time>
      </trkpt>
      <trkpt lat="46.63268" lon="6.11228">
        <ele>1203.2</ele>
        <time>2022-08-02T08:51:17Z</time>
      </trkpt>
      <trkpt lat="46.63274" lon="6.11214">
        <ele>1202.7</ele>
        <time>2022-08-02T08:51:19Z</time>
      </trkpt>
      <trkpt lat="46.6328" lon="6.11203">
        <ele>1202.3</ele>
        <time>2022-08-02T08:51:21Z</time>
      </trkpt>
      <trkpt lat="46.63291" lon="6.11195">
        <ele>1201.9</ele>
        <time>2022-08-02T08:51:23Z</time>
      </trkpt>
      <trkpt lat="46.633" lon="6.11189">
        <ele>1201.6</ele>
        <time>2022-08-02T08:51:25Z</time>
      </trkpt>
      <trkpt lat="46.6331" lon="6.11181">
        <ele>1201.2</ele>
        <time>2022-08-02T08:51:28Z</time>
      </trkpt>
      <trkpt lat="46.63318" lon="6.11174">
        <ele>1200.9</ele>
        <time>2022-08-02T08:51:31Z</time>
      </trkpt>
      <trkpt lat="46.63326" lon="6.11164">
        <ele>1200.6</ele>
        <time>2022-08-02T08:51:34Z</time>
      </trkpt>
      <trkpt lat="46.63333" lon="6.11153">
        <ele>1200.3</ele>
        <time>2022-08-02T08:51:37Z</time>
      </trkpt>
      <trkpt lat="46.63338" lon="6.11139">
        <ele>1200.1</ele>
        <time>2022-08-02T08:51:41Z</time>
      </trkpt>
      <trkpt lat="46.63342" lon="6.11124">
        <ele>1200</ele>
        <time>2022-08-02T08:51:44Z</time>
      </trkpt>
      <trkpt lat="46.63346" lon="6.1111">
        <ele>1199.9</ele>
        <time>2022-08-02T08:51:47Z</time>
      </trkpt>
      <trkpt lat="46.63352" lon="6.11092">
        <ele>1199.8</ele>
        <time>2022-08-02T08:51:50Z</time>
      </trkpt>
      <trkpt lat="46.63358" lon="6.1108">
        <ele>1199.7</ele>
        <time>2022-08-02T08:51:52Z</time>
      </trkpt>
      <trkpt lat="46.63365" lon="6.11064">
        <ele>1199.6</ele>
        <time>2022-08-02T08:51:55Z</time>
      </trkpt>
      <trkpt lat="46.63369" lon="6.11052">
        <ele>1199.6</ele>
        <time>2022-08-02T08:51:57Z</time>
      </trkpt>
      <trkpt lat="46.63374" lon="6.1104">
        <ele>1199.5</ele>
        <time>2022-08-02T08:51:59Z</time>
      </trkpt>
      <trkpt lat="46.63381" lon="6.11025">
        <ele>1199.5</ele>
        <time>2022-08-02T08:52:02Z</time>
      </trkpt>
      <trkpt lat="46.63385" lon="6.11011">
        <ele>1199.4</ele>
        <time>2022-08-02T08:52:05Z</time>
      </trkpt>
      <trkpt lat="46.6339" lon="6.10997">
        <ele>1199.4</ele>
        <time>2022-08-02T08:52:08Z</time>
      </trkpt>
      <trkpt lat="46.63394" lon="6.10985">
        <ele>1199.4</ele>
        <time>2022-08-02T08:52:11Z</time>
      </trkpt>
      <trkpt lat="46.63399" lon="6.10972">
        <ele>1199.4</ele>
        <time>2022-08-02T08:52:14Z</time>
      </trkpt>
      <trkpt lat="46.63404" lon="6.10957">
        <ele>1199.4</ele>
        <time>2022-08-02T08:52:17Z</time>
      </trkpt>
      <trkpt lat="46.63409" lon="6.10944">
        <ele>1199.4</ele>
        <time>2022-08-02T08:52:20Z</time>
      </trkpt>
      <trkpt lat="46.63416" lon="6.10932">
        <ele>1199.5</ele>
        <time>2022-08-02T08:52:24Z</time>
      </trkpt>
      <trkpt lat="46.63426" lon="6.1092">
        <ele>1199.3</ele>
        <time>2022-08-02T08:52:27Z</time>
      </trkpt>
      <trkpt lat="46.63435" lon="6.10911">
        <ele>1199.3</ele>
        <time>2022-08-02T08:52:30Z</time>
      </trkpt>
      <trkpt lat="46.63444" lon="6.10906">
        <ele>1199.2</ele>
        <time>2022-08-02T08:52:33Z</time>
      </trkpt>
      <trkpt lat="46.63455" lon="6.10902">
        <ele>1199.3</ele>
        <time>2022-08-02T08:52:36Z</time>
      </trkpt>
      <trkpt lat="46.63467" lon="6.10903">
        <ele>1199.3</ele>
        <time>2022-08-02T08:52:39Z</time>
      </trkpt>
      <trkpt lat="46.63476" lon="6.10906">
        <ele>1199.4</ele>
        <time>2022-08-02T08:52:42Z</time>
      </trkpt>
      <trkpt lat="46.63485" lon="6.10912">
        <ele>1199.5</ele>
        <time>2022-08-02T08:52:45Z</time>
      </trkpt>
      <trkpt lat="46.63492" lon="6.1092">
        <ele>1199.6</ele>
        <time>2022-08-02T08:52:48Z</time>
      </trkpt>
      <trkpt lat="46.635" lon="6.10928">
        <ele>1199.7</ele>
        <time>2022-08-02T08:52:51Z</time>
      </trkpt>
      <trkpt lat="46.63511" lon="6.10933">
        <ele>1199.9</ele>
        <time>2022-08-02T08:52:54Z</time>
      </trkpt>
      <trkpt lat="46.63522" lon="6.10938">
        <ele>1200</ele>
        <time>2022-08-02T08:52:57Z</time>
      </trkpt>
      <trkpt lat="46.63533" lon="6.10941">
        <ele>1200.1</ele>
        <time>2022-08-02T08:53:00Z</time>
      </trkpt>
      <trkpt lat="46.63544" lon="6.10941">
        <ele>1200.3</ele>
        <time>2022-08-02T08:53:03Z</time>
      </trkpt>
      <trkpt lat="46.63554" lon="6.10945">
        <ele>1200.4</ele>
        <time>2022-08-02T08:53:06Z</time>
      </trkpt>
      <trkpt lat="46.63564" lon="6.10951">
        <ele>1200.6</ele>
        <time>2022-08-02T08:53:09Z</time>
      </trkpt>
      <trkpt lat="46.63571" lon="6.10961">
        <ele>1200.8</ele>
        <time>2022-08-02T08:53:12Z</time>
      </trkpt>
      <trkpt lat="46.63576" lon="6.10974">
        <ele>1201.3</ele>
        <time>2022-08-02T08:53:15Z</time>
      </trkpt>
      <trkpt lat="46.63578" lon="6.10989">
        <ele>1201.8</ele>
        <time>2022-08-02T08:53:18Z</time>
      </trkpt>
      <trkpt lat="46.63578" lon="6.11005">
        <ele>1202</ele>
        <time>2022-08-02T08:53:21Z</time>
      </trkpt>
      <trkpt lat="46.63577" lon="6.11021">
        <ele>1202.3</ele>
        <time>2022-08-02T08:53:24Z</time>
      </trkpt>
      <trkpt lat="46.63574" lon="6.11038">
        <ele>1202.4</ele>
        <time>2022-08-02T08:53:27Z</time>
      </trkpt>
      <trkpt lat="46.63572" lon="6.11054">
        <ele>1202.6</ele>
        <time>2022-08-02T08:53:30Z</time>
      </trkpt>
      <trkpt lat="46.6357" lon="6.11071">
        <ele>1202.7</ele>
        <time>2022-08-02T08:53:33Z</time>
      </trkpt>
      <trkpt lat="46.63568" lon="6.11087">
        <ele>1202.8</ele>
        <time>2022-08-02T08:53:36Z</time>
      </trkpt>
      <trkpt lat="46.63567" lon="6.11103">
        <ele>1202.8</ele>
        <time>2022-08-02T08:53:39Z</time>
      </trkpt>
      <trkpt lat="46.63566" lon="6.11119">
        <ele>1202.9</ele>
        <time>2022-08-02T08:53:42Z</time>
      </trkpt>
      <trkpt lat="46.63568" lon="6.11135">
        <ele>1202.9</ele>
        <time>2022-08-02T08:53:45Z</time>
      </trkpt>
      <trkpt lat="46.63573" lon="6.1115">
        <ele>1202.9</ele>
        <time>2022-08-02T08:53:48Z</time>
      </trkpt>
      <trkpt lat="46.6358" lon="6.11164">
        <ele>1203</ele>
        <time>2022-08-02T08:53:51Z</time>
      </trkpt>
      <trkpt lat="46.63589" lon="6.11175">
        <ele>1203.2</ele>
        <time>2022-08-02T08:53:54Z</time>
      </trkpt>
      <trkpt lat="46.63597" lon="6.11184">
        <ele>1203.3</ele>
        <time>2022-08-02T08:53:57Z</time>
      </trkpt>
      <trkpt lat="46.63608" lon="6.11188">
        <ele>1203.4</ele>
        <time>2022-08-02T08:54:00Z</time>
      </trkpt>
      <trkpt lat="46.63619" lon="6.11192">
        <ele>1203.6</ele>
        <time>2022-08-02T08:54:03Z</time>
      </trkpt>
      <trkpt lat="46.6363" lon="6.11196">
        <ele>1203.9</ele>
        <time>2022-08-02T08:54:06Z</time>
      </trkpt>
      <trkpt lat="46.6364" lon="6.11199">
        <ele>1204.1</ele>
        <time>2022-08-02T08:54:09Z</time>
      </trkpt>
      <trkpt lat="46.63651" lon="6.11202">
        <ele>1204.3</ele>
        <time>2022-08-02T08:54:12Z</time>
      </trkpt>
      <trkpt lat="46.63659" lon="6.11207">
        <ele>1204.4</ele>
        <time>2022-08-02T08:54:14Z</time>
      </trkpt>
      <trkpt lat="46.63667" lon="6.11214">
        <ele>1204.4</ele>
        <time>2022-08-02T08:54:16Z</time>
      </trkpt>
      <trkpt lat="46.63675" lon="6.11223">
        <ele>1204.4</ele>
        <time>2022-08-02T08:54:18Z</time>
      </trkpt>
      <trkpt lat="46.63683" lon="6.11236">
        <ele>1204.4</ele>
        <time>2022-08-02T08:54:21Z</time>
      </trkpt>
      <trkpt lat="46.63692" lon="6.11248">
        <ele>1204.5</ele>
        <time>2022-08-02T08:54:24Z</time>
      </trkpt>
      <trkpt lat="46.637" lon="6.11261">
        <ele>1204.6</ele>
        <time>2022-08-02T08:54:27Z</time>
      </trkpt>
      <trkpt lat="46.63707" lon="6.11272">
        <ele>1204.7</ele>
        <time>2022-08-02T08:54:30Z</time>
      </trkpt>
      <trkpt lat="46.63714" lon="6.11284">
        <ele>1205</ele>
        <time>2022-08-02T08:54:33Z</time>
      </trkpt>
      <trkpt lat="46.6372" lon="6.11298">
        <ele>1205.2</ele>
        <time>2022-08-02T08:54:36Z</time>
      </trkpt>
      <trkpt lat="46.63726" lon="6.1131">
        <ele>1205.4</ele>
        <time>2022-08-02T08:54:39Z</time>
      </trkpt>
      <trkpt lat="46.63733" lon="6.11324">
        <ele>1205.6</ele>
        <time>2022-08-02T08:54:43Z</time>
      </trkpt>
      <trkpt lat="46.6374" lon="6.11338">
        <ele>1205.7</ele>
        <time>2022-08-02T08:54:47Z</time>
      </trkpt>
      <trkpt lat="46.63744" lon="6.11352">
        <ele>1205.8</ele>
        <time>2022-08-02T08:54:50Z</time>
      </trkpt>
      <trkpt lat="46.63748" lon="6.11366">
        <ele>1205.8</ele>
        <time>2022-08-02T08:54:53Z</time>
      </trkpt>
      <trkpt lat="46.63751" lon="6.11379">
        <ele>1205.9</ele>
        <time>2022-08-02T08:54:56Z</time>
      </trkpt>
      <trkpt lat="46.63756" lon="6.11393">
        <ele>1206</ele>
        <time>2022-08-02T08:55:00Z</time>
      </trkpt>
      <trkpt lat="46.63759" lon="6.11408">
        <ele>1205.9</ele>
        <time>2022-08-02T08:55:03Z</time>
      </trkpt>
      <trkpt lat="46.63762" lon="6.11426">
        <ele>1205.9</ele>
        <time>2022-08-02T08:55:06Z</time>
      </trkpt>
      <trkpt lat="46.63765" lon="6.11443">
        <ele>1205.8</ele>
        <time>2022-08-02T08:55:09Z</time>
      </trkpt>
      <trkpt lat="46.63768" lon="6.11458">
        <ele>1205.8</ele>
        <time>2022-08-02T08:55:12Z</time>
      </trkpt>
      <trkpt lat="46.63771" lon="6.11474">
        <ele>1205.7</ele>
        <time>2022-08-02T08:55:15Z</time>
      </trkpt>
      <trkpt lat="46.63774" lon="6.11489">
        <ele>1205.7</ele>
        <time>2022-08-02T08:55:18Z</time>
      </trkpt>
      <trkpt lat="46.63776" lon="6.11506">
        <ele>1205.6</ele>
        <time>2022-08-02T08:55:21Z</time>
      </trkpt>
      <trkpt lat="46.63778" lon="6.1152">
        <ele>1205.6</ele>
        <time>2022-08-02T08:55:24Z</time>
      </trkpt>
      <trkpt lat="46.63779" lon="6.11535">
        <ele>1205.6</ele>
        <time>2022-08-02T08:55:27Z</time>
      </trkpt>
      <trkpt lat="46.63782" lon="6.11548">
        <ele>1205.5</ele>
        <time>2022-08-02T08:55:30Z</time>
      </trkpt>
      <trkpt lat="46.63785" lon="6.11563">
        <ele>1205.4</ele>
        <time>2022-08-02T08:55:33Z</time>
      </trkpt>
      <trkpt lat="46.63788" lon="6.11579">
        <ele>1205.4</ele>
        <time>2022-08-02T08:55:36Z</time>
      </trkpt>
      <trkpt lat="46.63792" lon="6.11594">
        <ele>1205.4</ele>
        <time>2022-08-02T08:55:39Z</time>
      </trkpt>
      <trkpt lat="46.63796" lon="6.11608">
        <ele>1205.4</ele>
        <time>2022-08-02T08:55:42Z</time>
      </trkpt>
      <trkpt lat="46.63801" lon="6.11624">
        <ele>1205.5</ele>
        <time>2022-08-02T08:55:46Z</time>
      </trkpt>
      <trkpt lat="46.63804" lon="6.11641">
        <ele>1205.6</ele>
        <time>2022-08-02T08:55:49Z</time>
      </trkpt>
      <trkpt lat="46.63807" lon="6.11657">
        <ele>1205.8</ele>
        <time>2022-08-02T08:55:52Z</time>
      </trkpt>
      <trkpt lat="46.63811" lon="6.1167">
        <ele>1205.9</ele>
        <time>2022-08-02T08:55:55Z</time>
      </trkpt>
      <trkpt lat="46.63816" lon="6.11683">
        <ele>1206</ele>
        <time>2022-08-02T08:55:58Z</time>
      </trkpt>
      <trkpt lat="46.6382" lon="6.11696">
        <ele>1206.2</ele>
        <time>2022-08-02T08:56:00Z</time>
      </trkpt>
      <trkpt lat="46.63825" lon="6.11709">
        <ele>1206.5</ele>
        <time>2022-08-02T08:56:03Z</time>
      </trkpt>
      <trkpt lat="46.6383" lon="6.11721">
        <ele>1206.9</ele>
        <time>2022-08-02T08:56:08Z</time>
      </trkpt>
      <trkpt lat="46.63832" lon="6.11736">
        <ele>1207.8</ele>
        <time>2022-08-02T08:56:41Z</time>
      </trkpt>
      <trkpt lat="46.63822" lon="6.11735">
        <ele>1207.5</ele>
        <time>2022-08-02T08:56:53Z</time>
      </trkpt>
      <trkpt lat="46.63815" lon="6.11725">
        <ele>1207</ele>
        <time>2022-08-02T08:56:57Z</time>
      </trkpt>
      <trkpt lat="46.63806" lon="6.1172">
        <ele>1206.4</ele>
        <time>2022-08-02T08:57:00Z</time>
      </trkpt>
      <trkpt lat="46.63796" lon="6.11725">
        <ele>1205.8</ele>
        <time>2022-08-02T08:57:03Z</time>
      </trkpt>
      <trkpt lat="46.63789" lon="6.11739">
        <ele>1205.3</ele>
        <time>2022-08-02T08:57:06Z</time>
      </trkpt>
      <trkpt lat="46.6379" lon="6.11754">
        <ele>1204.8</ele>
        <time>2022-08-02T08:57:09Z</time>
      </trkpt>
      <trkpt lat="46.63792" lon="6.11771">
        <ele>1204.1</ele>
        <time>2022-08-02T08:57:13Z</time>
      </trkpt>
      <trkpt lat="46.63789" lon="6.11789">
        <ele>1203.5</ele>
        <time>2022-08-02T08:57:16Z</time>
      </trkpt>
      <trkpt lat="46.63784" lon="6.11799">
        <ele>1203</ele>
        <time>2022-08-02T08:57:18Z</time>
      </trkpt>
      <trkpt lat="46.63771" lon="6.11804">
        <ele>1202.4</ele>
        <time>2022-08-02T08:57:21Z</time>
      </trkpt>
      <trkpt lat="46.63759" lon="6.1181">
        <ele>1201.8</ele>
        <time>2022-08-02T08:57:24Z</time>
      </trkpt>
      <trkpt lat="46.63751" lon="6.11819">
        <ele>1201.4</ele>
        <time>2022-08-02T08:57:26Z</time>
      </trkpt>
      <trkpt lat="46.63744" lon="6.1183">
        <ele>1200.9</ele>
        <time>2022-08-02T08:57:29Z</time>
      </trkpt>
      <trkpt lat="46.63734" lon="6.11842">
        <ele>1200.6</ele>
        <time>2022-08-02T08:57:32Z</time>
      </trkpt>
      <trkpt lat="46.63725" lon="6.11854">
        <ele>1200.4</ele>
        <time>2022-08-02T08:57:35Z</time>
      </trkpt>
      <trkpt lat="46.63717" lon="6.11867">
        <ele>1200.2</ele>
        <time>2022-08-02T08:57:38Z</time>
      </trkpt>
      <trkpt lat="46.6371" lon="6.11881">
        <ele>1200.1</ele>
        <time>2022-08-02T08:57:41Z</time>
      </trkpt>
      <trkpt lat="46.63702" lon="6.11895">
        <ele>1200.1</ele>
        <time>2022-08-02T08:57:44Z</time>
      </trkpt>
      <trkpt lat="46.63698" lon="6.1191">
        <ele>1200</ele>
        <time>2022-08-02T08:57:47Z</time>
      </trkpt>
      <trkpt lat="46.63693" lon="6.11925">
        <ele>1200</ele>
        <time>2022-08-02T08:57:50Z</time>
      </trkpt>
      <trkpt lat="46.63689" lon="6.1194">
        <ele>1200.1</ele>
        <time>2022-08-02T08:57:53Z</time>
      </trkpt>
      <trkpt lat="46.63685" lon="6.11956">
        <ele>1200.2</ele>
        <time>2022-08-02T08:57:56Z</time>
      </trkpt>
      <trkpt lat="46.63683" lon="6.11969">
        <ele>1200.2</ele>
        <time>2022-08-02T08:57:59Z</time>
      </trkpt>
      <trkpt lat="46.63678" lon="6.11984">
        <ele>1200.4</ele>
        <time>2022-08-02T08:58:03Z</time>
      </trkpt>
      <trkpt lat="46.63668" lon="6.11986">
        <ele>1200.6</ele>
        <time>2022-08-02T08:58:08Z</time>
      </trkpt>
      <trkpt lat="46.63661" lon="6.11973">
        <ele>1201.3</ele>
        <time>2022-08-02T08:58:13Z</time>
      </trkpt>
      <trkpt lat="46.63658" lon="6.11961">
        <ele>1201.8</ele>
        <time>2022-08-02T08:58:17Z</time>
      </trkpt>
      <trkpt lat="46.6365" lon="6.11951">
        <ele>1202.8</ele>
        <time>2022-08-02T08:58:22Z</time>
      </trkpt>
      <trkpt lat="46.6364" lon="6.11955">
        <ele>1203.7</ele>
        <time>2022-08-02T08:58:28Z</time>
      </trkpt>
      <trkpt lat="46.63636" lon="6.11967">
        <ele>1205</ele>
        <time>2022-08-02T08:58:34Z</time>
      </trkpt>
      <trkpt lat="46.63633" lon="6.1198">
        <ele>1206.1</ele>
        <time>2022-08-02T08:58:39Z</time>
      </trkpt>
      <trkpt lat="46.63634" lon="6.11995">
        <ele>1207.4</ele>
        <time>2022-08-02T08:58:44Z</time>
      </trkpt>
      <trkpt lat="46.63631" lon="6.1201">
        <ele>1208.6</ele>
        <time>2022-08-02T08:58:49Z</time>
      </trkpt>
      <trkpt lat="46.63626" lon="6.12023">
        <ele>1209.7</ele>
        <time>2022-08-02T08:58:54Z</time>
      </trkpt>
      <trkpt lat="46.63616" lon="6.12032">
        <ele>1210.4</ele>
        <time>2022-08-02T08:58:58Z</time>
      </trkpt>
      <trkpt lat="46.63606" lon="6.12039">
        <ele>1211.1</ele>
        <time>2022-08-02T08:59:02Z</time>
      </trkpt>
      <trkpt lat="46.63597" lon="6.12043">
        <ele>1211.5</ele>
        <time>2022-08-02T08:59:05Z</time>
      </trkpt>
      <trkpt lat="46.63588" lon="6.12047">
        <ele>1211.8</ele>
        <time>2022-08-02T08:59:08Z</time>
      </trkpt>
      <trkpt lat="46.63578" lon="6.12051">
        <ele>1212</ele>
        <time>2022-08-02T08:59:11Z</time>
      </trkpt>
      <trkpt lat="46.63568" lon="6.12056">
        <ele>1212.3</ele>
        <time>2022-08-02T08:59:14Z</time>
      </trkpt>
      <trkpt lat="46.63558" lon="6.12059">
        <ele>1212.5</ele>
        <time>2022-08-02T08:59:17Z</time>
      </trkpt>
      <trkpt lat="46.63547" lon="6.12063">
        <ele>1212.6</ele>
        <time>2022-08-02T08:59:20Z</time>
      </trkpt>
      <trkpt lat="46.63534" lon="6.12067">
        <ele>1212.8</ele>
        <time>2022-08-02T08:59:23Z</time>
      </trkpt>
      <trkpt lat="46.63523" lon="6.12071">
        <ele>1212.9</ele>
        <time>2022-08-02T08:59:26Z</time>
      </trkpt>
      <trkpt lat="46.63513" lon="6.12076">
        <ele>1213.1</ele>
        <time>2022-08-02T08:59:29Z</time>
      </trkpt>
      <trkpt lat="46.63502" lon="6.12081">
        <ele>1213.2</ele>
        <time>2022-08-02T08:59:32Z</time>
      </trkpt>
      <trkpt lat="46.63494" lon="6.12086">
        <ele>1213.3</ele>
        <time>2022-08-02T08:59:35Z</time>
      </trkpt>
      <trkpt lat="46.63485" lon="6.12089">
        <ele>1213.4</ele>
        <time>2022-08-02T08:59:38Z</time>
      </trkpt>
      <trkpt lat="46.63475" lon="6.12089">
        <ele>1213.3</ele>
        <time>2022-08-02T08:59:41Z</time>
      </trkpt>
      <trkpt lat="46.63464" lon="6.12088">
        <ele>1213.3</ele>
        <time>2022-08-02T08:59:44Z</time>
      </trkpt>
      <trkpt lat="46.63454" lon="6.12093">
        <ele>1213.3</ele>
        <time>2022-08-02T08:59:47Z</time>
      </trkpt>
      <trkpt lat="46.63444" lon="6.12096">
        <ele>1213.3</ele>
        <time>2022-08-02T08:59:50Z</time>
      </trkpt>
      <trkpt lat="46.63434" lon="6.12101">
        <ele>1213.4</ele>
        <time>2022-08-02T08:59:53Z</time>
      </trkpt>
      <trkpt lat="46.63424" lon="6.12106">
        <ele>1213.4</ele>
        <time>2022-08-02T08:59:56Z</time>
      </trkpt>
      <trkpt lat="46.63415" lon="6.12109">
        <ele>1213.5</ele>
        <time>2022-08-02T08:59:59Z</time>
      </trkpt>
      <trkpt lat="46.63405" lon="6.12112">
        <ele>1213.5</ele>
        <time>2022-08-02T09:00:02Z</time>
      </trkpt>
      <trkpt lat="46.63394" lon="6.12112">
        <ele>1213.5</ele>
        <time>2022-08-02T09:00:06Z</time>
      </trkpt>
      <trkpt lat="46.63383" lon="6.12112">
        <ele>1213.6</ele>
        <time>2022-08-02T09:00:10Z</time>
      </trkpt>
      <trkpt lat="46.63372" lon="6.12115">
        <ele>1213.6</ele>
        <time>2022-08-02T09:00:14Z</time>
      </trkpt>
      <trkpt lat="46.63363" lon="6.12118">
        <ele>1213.5</ele>
        <time>2022-08-02T09:00:16Z</time>
      </trkpt>
      <trkpt lat="46.63353" lon="6.12121">
        <ele>1213.3</ele>
        <time>2022-08-02T09:00:18Z</time>
      </trkpt>
      <trkpt lat="46.6334" lon="6.1212">
        <ele>1213.1</ele>
        <time>2022-08-02T09:00:21Z</time>
      </trkpt>
      <trkpt lat="46.63331" lon="6.12118">
        <ele>1212.8</ele>
        <time>2022-08-02T09:00:24Z</time>
      </trkpt>
      <trkpt lat="46.63322" lon="6.12112">
        <ele>1212.6</ele>
        <time>2022-08-02T09:00:28Z</time>
      </trkpt>
      <trkpt lat="46.63313" lon="6.12104">
        <ele>1212.3</ele>
        <time>2022-08-02T09:00:33Z</time>
      </trkpt>
      <trkpt lat="46.63305" lon="6.12095">
        <ele>1212.2</ele>
        <time>2022-08-02T09:00:40Z</time>
      </trkpt>
      <trkpt lat="46.63296" lon="6.12087">
        <ele>1211.9</ele>
        <time>2022-08-02T09:00:46Z</time>
      </trkpt>
      <trkpt lat="46.63286" lon="6.1208">
        <ele>1211.7</ele>
        <time>2022-08-02T09:00:50Z</time>
      </trkpt>
      <trkpt lat="46.63276" lon="6.12071">
        <ele>1211.4</ele>
        <time>2022-08-02T09:00:54Z</time>
      </trkpt>
      <trkpt lat="46.63267" lon="6.12077">
        <ele>1211.1</ele>
        <time>2022-08-02T09:00:57Z</time>
      </trkpt>
      <trkpt lat="46.6326" lon="6.12087">
        <ele>1210.7</ele>
        <time>2022-08-02T09:01:01Z</time>
      </trkpt>
      <trkpt lat="46.63256" lon="6.12103">
        <ele>1210.1</ele>
        <time>2022-08-02T09:01:04Z</time>
      </trkpt>
      <trkpt lat="46.63254" lon="6.12117">
        <ele>1209.4</ele>
        <time>2022-08-02T09:01:06Z</time>
      </trkpt>
      <trkpt lat="46.63255" lon="6.12131">
        <ele>1208.6</ele>
        <time>2022-08-02T09:01:08Z</time>
      </trkpt>
      <trkpt lat="46.63259" lon="6.12143">
        <ele>1207.9</ele>
        <time>2022-08-02T09:01:10Z</time>
      </trkpt>
      <trkpt lat="46.63265" lon="6.12156">
        <ele>1207.3</ele>
        <time>2022-08-02T09:01:12Z</time>
      </trkpt>
      <trkpt lat="46.63273" lon="6.1217">
        <ele>1206.5</ele>
        <time>2022-08-02T09:01:15Z</time>
      </trkpt>
      <trkpt lat="46.63279" lon="6.12182">
        <ele>1205.9</ele>
        <time>2022-08-02T09:01:18Z</time>
      </trkpt>
      <trkpt lat="46.63287" lon="6.12193">
        <ele>1205.2</ele>
        <time>2022-08-02T09:01:21Z</time>
      </trkpt>
      <trkpt lat="46.63297" lon="6.12203">
        <ele>1204.7</ele>
        <time>2022-08-02T09:01:23Z</time>
      </trkpt>
      <trkpt lat="46.63306" lon="6.12214">
        <ele>1204.2</ele>
        <time>2022-08-02T09:01:25Z</time>
      </trkpt>
      <trkpt lat="46.63314" lon="6.12225">
        <ele>1203.8</ele>
        <time>2022-08-02T09:01:27Z</time>
      </trkpt>
      <trkpt lat="46.63322" lon="6.12236">
        <ele>1203.5</ele>
        <time>2022-08-02T09:01:29Z</time>
      </trkpt>
      <trkpt lat="46.63328" lon="6.12246">
        <ele>1203</ele>
        <time>2022-08-02T09:01:31Z</time>
      </trkpt>
      <trkpt lat="46.63335" lon="6.12256">
        <ele>1202.6</ele>
        <time>2022-08-02T09:01:33Z</time>
      </trkpt>
      <trkpt lat="46.63342" lon="6.12269">
        <ele>1202.2</ele>
        <time>2022-08-02T09:01:35Z</time>
      </trkpt>
      <trkpt lat="46.63346" lon="6.12286">
        <ele>1201.8</ele>
        <time>2022-08-02T09:01:37Z</time>
      </trkpt>
      <trkpt lat="46.63348" lon="6.12305">
        <ele>1201.4</ele>
        <time>2022-08-02T09:01:39Z</time>
      </trkpt>
      <trkpt lat="46.63349" lon="6.12326">
        <ele>1200.9</ele>
        <time>2022-08-02T09:01:41Z</time>
      </trkpt>
      <trkpt lat="46.63349" lon="6.12345">
        <ele>1200.5</ele>
        <time>2022-08-02T09:01:43Z</time>
      </trkpt>
      <trkpt lat="46.63347" lon="6.12359">
        <ele>1200.2</ele>
        <time>2022-08-02T09:01:45Z</time>
      </trkpt>
      <trkpt lat="46.63343" lon="6.12374">
        <ele>1199.7</ele>
        <time>2022-08-02T09:01:49Z</time>
      </trkpt>
      <trkpt lat="46.63338" lon="6.12385">
        <ele>1199.5</ele>
        <time>2022-08-02T09:01:52Z</time>
      </trkpt>
      <trkpt lat="46.63333" lon="6.12398">
        <ele>1199.3</ele>
        <time>2022-08-02T09:01:56Z</time>
      </trkpt>
      <trkpt lat="46.63325" lon="6.1241">
        <ele>1199.1</ele>
        <time>2022-08-02T09:02:00Z</time>
      </trkpt>
      <trkpt lat="46.63317" lon="6.12418">
        <ele>1198.9</ele>
        <time>2022-08-02T09:02:03Z</time>
      </trkpt>
      <trkpt lat="46.63305" lon="6.12424">
        <ele>1198.7</ele>
        <time>2022-08-02T09:02:08Z</time>
      </trkpt>
      <trkpt lat="46.63292" lon="6.12431">
        <ele>1198.4</ele>
        <time>2022-08-02T09:02:11Z</time>
      </trkpt>
      <trkpt lat="46.63281" lon="6.12439">
        <ele>1198.2</ele>
        <time>2022-08-02T09:02:13Z</time>
      </trkpt>
      <trkpt lat="46.63269" lon="6.1245">
        <ele>1198</ele>
        <time>2022-08-02T09:02:15Z</time>
      </trkpt>
      <trkpt lat="46.6326" lon="6.12463">
        <ele>1197.7</ele>
        <time>2022-08-02T09:02:17Z</time>
      </trkpt>
      <trkpt lat="46.63252" lon="6.12476">
        <ele>1197.4</ele>
        <time>2022-08-02T09:02:19Z</time>
      </trkpt>
      <trkpt lat="46.63248" lon="6.1249">
        <ele>1197</ele>
        <time>2022-08-02T09:02:21Z</time>
      </trkpt>
      <trkpt lat="46.63243" lon="6.12505">
        <ele>1196.7</ele>
        <time>2022-08-02T09:02:23Z</time>
      </trkpt>
      <trkpt lat="46.63242" lon="6.12524">
        <ele>1196.4</ele>
        <time>2022-08-02T09:02:25Z</time>
      </trkpt>
      <trkpt lat="46.63243" lon="6.12544">
        <ele>1196</ele>
        <time>2022-08-02T09:02:27Z</time>
      </trkpt>
      <trkpt lat="46.63242" lon="6.1256">
        <ele>1195.5</ele>
        <time>2022-08-02T09:02:29Z</time>
      </trkpt>
      <trkpt lat="46.63242" lon="6.12578">
        <ele>1194.8</ele>
        <time>2022-08-02T09:02:32Z</time>
      </trkpt>
      <trkpt lat="46.63243" lon="6.12595">
        <ele>1194.3</ele>
        <time>2022-08-02T09:02:35Z</time>
      </trkpt>
      <trkpt lat="46.63245" lon="6.12614">
        <ele>1193.5</ele>
        <time>2022-08-02T09:02:38Z</time>
      </trkpt>
      <trkpt lat="46.63251" lon="6.12633">
        <ele>1192.6</ele>
        <time>2022-08-02T09:02:41Z</time>
      </trkpt>
      <trkpt lat="46.63253" lon="6.12649">
        <ele>1191.9</ele>
        <time>2022-08-02T09:02:43Z</time>
      </trkpt>
      <trkpt lat="46.63253" lon="6.12665">
        <ele>1191.3</ele>
        <time>2022-08-02T09:02:45Z</time>
      </trkpt>
      <trkpt lat="46.63253" lon="6.12679">
        <ele>1190.7</ele>
        <time>2022-08-02T09:02:47Z</time>
      </trkpt>
      <trkpt lat="46.63254" lon="6.12698">
        <ele>1189.9</ele>
        <time>2022-08-02T09:02:50Z</time>
      </trkpt>
      <trkpt lat="46.63253" lon="6.12714">
        <ele>1189.2</ele>
        <time>2022-08-02T09:02:53Z</time>
      </trkpt>
      <trkpt lat="46.6325" lon="6.1273">
        <ele>1188.5</ele>
        <time>2022-08-02T09:02:56Z</time>
      </trkpt>
      <trkpt lat="46.63258" lon="6.12747">
        <ele>1187.9</ele>
        <time>2022-08-02T09:02:59Z</time>
      </trkpt>
      <trkpt lat="46.63266" lon="6.12756">
        <ele>1187.5</ele>
        <time>2022-08-02T09:03:01Z</time>
      </trkpt>
      <trkpt lat="46.63277" lon="6.12766">
        <ele>1186.9</ele>
        <time>2022-08-02T09:03:04Z</time>
      </trkpt>
      <trkpt lat="46.63287" lon="6.12777">
        <ele>1186.3</ele>
        <time>2022-08-02T09:03:07Z</time>
      </trkpt>
      <trkpt lat="46.63293" lon="6.12787">
        <ele>1185.9</ele>
        <time>2022-08-02T09:03:09Z</time>
      </trkpt>
      <trkpt lat="46.63302" lon="6.12801">
        <ele>1185.5</ele>
        <time>2022-08-02T09:03:12Z</time>
      </trkpt>
      <trkpt lat="46.6331" lon="6.12812">
        <ele>1185.1</ele>
        <time>2022-08-02T09:03:15Z</time>
      </trkpt>
      <trkpt lat="46.63317" lon="6.12821">
        <ele>1185</ele>
        <time>2022-08-02T09:03:18Z</time>
      </trkpt>
      <trkpt lat="46.63324" lon="6.12829">
        <ele>1184.8</ele>
        <time>2022-08-02T09:03:21Z</time>
      </trkpt>
      <trkpt lat="46.63334" lon="6.12839">
        <ele>1184.8</ele>
        <time>2022-08-02T09:03:24Z</time>
      </trkpt>
      <trkpt lat="46.63342" lon="6.12849">
        <ele>1184.7</ele>
        <time>2022-08-02T09:03:27Z</time>
      </trkpt>
      <trkpt lat="46.6335" lon="6.1286">
        <ele>1184.7</ele>
        <time>2022-08-02T09:03:30Z</time>
      </trkpt>
      <trkpt lat="46.63358" lon="6.12871">
        <ele>1184.8</ele>
        <time>2022-08-02T09:03:33Z</time>
      </trkpt>
      <trkpt lat="46.63366" lon="6.12883">
        <ele>1184.8</ele>
        <time>2022-08-02T09:03:36Z</time>
      </trkpt>
      <trkpt lat="46.63374" lon="6.12897">
        <ele>1184.9</ele>
        <time>2022-08-02T09:03:39Z</time>
      </trkpt>
      <trkpt lat="46.63381" lon="6.12908">
        <ele>1184.9</ele>
        <time>2022-08-02T09:03:42Z</time>
      </trkpt>
      <trkpt lat="46.63387" lon="6.1292">
        <ele>1184.9</ele>
        <time>2022-08-02T09:03:45Z</time>
      </trkpt>
      <trkpt lat="46.63392" lon="6.12932">
        <ele>1184.9</ele>
        <time>2022-08-02T09:03:48Z</time>
      </trkpt>
      <trkpt lat="46.634" lon="6.12941">
        <ele>1184.9</ele>
        <time>2022-08-02T09:03:51Z</time>
      </trkpt>
      <trkpt lat="46.63407" lon="6.12953">
        <ele>1184.9</ele>
        <time>2022-08-02T09:03:54Z</time>
      </trkpt>
      <trkpt lat="46.6341" lon="6.12966">
        <ele>1184.9</ele>
        <time>2022-08-02T09:03:56Z</time>
      </trkpt>
      <trkpt lat="46.63414" lon="6.12984">
        <ele>1184.8</ele>
        <time>2022-08-02T09:03:59Z</time>
      </trkpt>
      <trkpt lat="46.63415" lon="6.12997">
        <ele>1184.6</ele>
        <time>2022-08-02T09:04:01Z</time>
      </trkpt>
      <trkpt lat="46.63415" lon="6.13012">
        <ele>1184.5</ele>
        <time>2022-08-02T09:04:03Z</time>
      </trkpt>
      <trkpt lat="46.63414" lon="6.13026">
        <ele>1184.3</ele>
        <time>2022-08-02T09:04:05Z</time>
      </trkpt>
      <trkpt lat="46.63414" lon="6.13046">
        <ele>1184.1</ele>
        <time>2022-08-02T09:04:08Z</time>
      </trkpt>
      <trkpt lat="46.63416" lon="6.13064">
        <ele>1183.9</ele>
        <time>2022-08-02T09:04:11Z</time>
      </trkpt>
      <trkpt lat="46.63418" lon="6.13082">
        <ele>1183.8</ele>
        <time>2022-08-02T09:04:14Z</time>
      </trkpt>
      <trkpt lat="46.63419" lon="6.131">
        <ele>1183.8</ele>
        <time>2022-08-02T09:04:17Z</time>
      </trkpt>
      <trkpt lat="46.63422" lon="6.13116">
        <ele>1183.7</ele>
        <time>2022-08-02T09:04:20Z</time>
      </trkpt>
      <trkpt lat="46.63425" lon="6.13129">
        <ele>1183.7</ele>
        <time>2022-08-02T09:04:22Z</time>
      </trkpt>
      <trkpt lat="46.63429" lon="6.13143">
        <ele>1183.6</ele>
        <time>2022-08-02T09:04:24Z</time>
      </trkpt>
      <trkpt lat="46.63434" lon="6.13156">
        <ele>1183.5</ele>
        <time>2022-08-02T09:04:26Z</time>
      </trkpt>
      <trkpt lat="46.63438" lon="6.13169">
        <ele>1183.1</ele>
        <time>2022-08-02T09:04:28Z</time>
      </trkpt>
      <trkpt lat="46.63443" lon="6.13186">
        <ele>1182.7</ele>
        <time>2022-08-02T09:04:31Z</time>
      </trkpt>
      <trkpt lat="46.63447" lon="6.13199">
        <ele>1182.2</ele>
        <time>2022-08-02T09:04:34Z</time>
      </trkpt>
      <trkpt lat="46.6345" lon="6.13215">
        <ele>1181.7</ele>
        <time>2022-08-02T09:04:37Z</time>
      </trkpt>
      <trkpt lat="46.63455" lon="6.13228">
        <ele>1181.2</ele>
        <time>2022-08-02T09:04:41Z</time>
      </trkpt>
      <trkpt lat="46.63467" lon="6.13237">
        <ele>1177.7</ele>
        <time>2022-08-02T09:05:25Z</time>
      </trkpt>
      <trkpt lat="46.63473" lon="6.13249">
        <ele>1177.6</ele>
        <time>2022-08-02T09:05:27Z</time>
      </trkpt>
      <trkpt lat="46.6348" lon="6.13263">
        <ele>1177.4</ele>
        <time>2022-08-02T09:05:29Z</time>
      </trkpt>
      <trkpt lat="46.63489" lon="6.13276">
        <ele>1177</ele>
        <time>2022-08-02T09:05:31Z</time>
      </trkpt>
      <trkpt lat="46.63498" lon="6.13289">
        <ele>1176.2</ele>
        <time>2022-08-02T09:05:33Z</time>
      </trkpt>
      <trkpt lat="46.63508" lon="6.133">
        <ele>1175.3</ele>
        <time>2022-08-02T09:05:35Z</time>
      </trkpt>
      <trkpt lat="46.63517" lon="6.13311">
        <ele>1174.3</ele>
        <time>2022-08-02T09:05:37Z</time>
      </trkpt>
      <trkpt lat="46.63526" lon="6.13319">
        <ele>1173.2</ele>
        <time>2022-08-02T09:05:39Z</time>
      </trkpt>
      <trkpt lat="46.63534" lon="6.13327">
        <ele>1172.1</ele>
        <time>2022-08-02T09:05:41Z</time>
      </trkpt>
      <trkpt lat="46.63548" lon="6.13334">
        <ele>1170.3</ele>
        <time>2022-08-02T09:05:44Z</time>
      </trkpt>
      <trkpt lat="46.63561" lon="6.13334">
        <ele>1169.2</ele>
        <time>2022-08-02T09:05:46Z</time>
      </trkpt>
      <trkpt lat="46.63574" lon="6.13331">
        <ele>1168.3</ele>
        <time>2022-08-02T09:05:48Z</time>
      </trkpt>
      <trkpt lat="46.63587" lon="6.13325">
        <ele>1167.4</ele>
        <time>2022-08-02T09:05:50Z</time>
      </trkpt>
      <trkpt lat="46.63599" lon="6.1332">
        <ele>1166.6</ele>
        <time>2022-08-02T09:05:52Z</time>
      </trkpt>
      <trkpt lat="46.63609" lon="6.13316">
        <ele>1165.8</ele>
        <time>2022-08-02T09:05:54Z</time>
      </trkpt>
      <trkpt lat="46.6362" lon="6.13309">
        <ele>1165.3</ele>
        <time>2022-08-02T09:05:56Z</time>
      </trkpt>
      <trkpt lat="46.63629" lon="6.13302">
        <ele>1164.9</ele>
        <time>2022-08-02T09:05:58Z</time>
      </trkpt>
      <trkpt lat="46.63639" lon="6.13299">
        <ele>1164.3</ele>
        <time>2022-08-02T09:06:01Z</time>
      </trkpt>
      <trkpt lat="46.63649" lon="6.13296">
        <ele>1163.9</ele>
        <time>2022-08-02T09:06:04Z</time>
      </trkpt>
      <trkpt lat="46.6366" lon="6.13299">
        <ele>1163.5</ele>
        <time>2022-08-02T09:06:07Z</time>
      </trkpt>
      <trkpt lat="46.6367" lon="6.1331">
        <ele>1163.1</ele>
        <time>2022-08-02T09:06:10Z</time>
      </trkpt>
      <trkpt lat="46.63678" lon="6.13324">
        <ele>1162.8</ele>
        <time>2022-08-02T09:06:13Z</time>
      </trkpt>
      <trkpt lat="46.63688" lon="6.13335">
        <ele>1162.5</ele>
        <time>2022-08-02T09:06:16Z</time>
      </trkpt>
      <trkpt lat="46.637" lon="6.13342">
        <ele>1162.3</ele>
        <time>2022-08-02T09:06:19Z</time>
      </trkpt>
      <trkpt lat="46.6371" lon="6.13343">
        <ele>1162.1</ele>
        <time>2022-08-02T09:06:21Z</time>
      </trkpt>
      <trkpt lat="46.63722" lon="6.13341">
        <ele>1161.9</ele>
        <time>2022-08-02T09:06:23Z</time>
      </trkpt>
      <trkpt lat="46.63734" lon="6.13339">
        <ele>1161.6</ele>
        <time>2022-08-02T09:06:25Z</time>
      </trkpt>
      <trkpt lat="46.63746" lon="6.13339">
        <ele>1161.4</ele>
        <time>2022-08-02T09:06:27Z</time>
      </trkpt>
      <trkpt lat="46.63758" lon="6.13342">
        <ele>1161.3</ele>
        <time>2022-08-02T09:06:29Z</time>
      </trkpt>
      <trkpt lat="46.63771" lon="6.13342">
        <ele>1161.1</ele>
        <time>2022-08-02T09:06:31Z</time>
      </trkpt>
      <trkpt lat="46.63783" lon="6.13343">
        <ele>1160.9</ele>
        <time>2022-08-02T09:06:33Z</time>
      </trkpt>
      <trkpt lat="46.63795" lon="6.13343">
        <ele>1160.7</ele>
        <time>2022-08-02T09:06:35Z</time>
      </trkpt>
      <trkpt lat="46.63806" lon="6.13344">
        <ele>1160.6</ele>
        <time>2022-08-02T09:06:37Z</time>
      </trkpt>
      <trkpt lat="46.63816" lon="6.13347">
        <ele>1160.5</ele>
        <time>2022-08-02T09:06:39Z</time>
      </trkpt>
      <trkpt lat="46.63828" lon="6.1335">
        <ele>1160.3</ele>
        <time>2022-08-02T09:06:42Z</time>
      </trkpt>
      <trkpt lat="46.6384" lon="6.13356">
        <ele>1160.1</ele>
        <time>2022-08-02T09:06:45Z</time>
      </trkpt>
      <trkpt lat="46.6385" lon="6.1336">
        <ele>1160</ele>
        <time>2022-08-02T09:06:47Z</time>
      </trkpt>
      <trkpt lat="46.6386" lon="6.13364">
        <ele>1159.9</ele>
        <time>2022-08-02T09:06:49Z</time>
      </trkpt>
      <trkpt lat="46.63869" lon="6.13369">
        <ele>1159.7</ele>
        <time>2022-08-02T09:06:51Z</time>
      </trkpt>
      <trkpt lat="46.63878" lon="6.13376">
        <ele>1159.2</ele>
        <time>2022-08-02T09:06:54Z</time>
      </trkpt>
      <trkpt lat="46.63884" lon="6.13386">
        <ele>1158.8</ele>
        <time>2022-08-02T09:06:57Z</time>
      </trkpt>
      <trkpt lat="46.6389" lon="6.13403">
        <ele>1158.5</ele>
        <time>2022-08-02T09:07:00Z</time>
      </trkpt>
      <trkpt lat="46.63893" lon="6.13418">
        <ele>1158.3</ele>
        <time>2022-08-02T09:07:02Z</time>
      </trkpt>
      <trkpt lat="46.63894" lon="6.13436">
        <ele>1158.1</ele>
        <time>2022-08-02T09:07:04Z</time>
      </trkpt>
      <trkpt lat="46.63894" lon="6.13454">
        <ele>1157.8</ele>
        <time>2022-08-02T09:07:06Z</time>
      </trkpt>
      <trkpt lat="46.63892" lon="6.13473">
        <ele>1157.5</ele>
        <time>2022-08-02T09:07:08Z</time>
      </trkpt>
      <trkpt lat="46.63891" lon="6.13494">
        <ele>1157</ele>
        <time>2022-08-02T09:07:10Z</time>
      </trkpt>
      <trkpt lat="46.6389" lon="6.13515">
        <ele>1156.5</ele>
        <time>2022-08-02T09:07:12Z</time>
      </trkpt>
      <trkpt lat="46.63886" lon="6.13536">
        <ele>1156.1</ele>
        <time>2022-08-02T09:07:14Z</time>
      </trkpt>
      <trkpt lat="46.63882" lon="6.13555">
        <ele>1155.7</ele>
        <time>2022-08-02T09:07:16Z</time>
      </trkpt>
      <trkpt lat="46.63876" lon="6.13574">
        <ele>1155.4</ele>
        <time>2022-08-02T09:07:18Z</time>
      </trkpt>
      <trkpt lat="46.63872" lon="6.13592">
        <ele>1155.1</ele>
        <time>2022-08-02T09:07:20Z</time>
      </trkpt>
      <trkpt lat="46.6387" lon="6.1361">
        <ele>1154.8</ele>
        <time>2022-08-02T09:07:22Z</time>
      </trkpt>
      <trkpt lat="46.63871" lon="6.13628">
        <ele>1154.6</ele>
        <time>2022-08-02T09:07:24Z</time>
      </trkpt>
      <trkpt lat="46.63873" lon="6.13645">
        <ele>1154.3</ele>
        <time>2022-08-02T09:07:26Z</time>
      </trkpt>
      <trkpt lat="46.63876" lon="6.13662">
        <ele>1154</ele>
        <time>2022-08-02T09:07:28Z</time>
      </trkpt>
      <trkpt lat="46.63879" lon="6.13679">
        <ele>1153.6</ele>
        <time>2022-08-02T09:07:30Z</time>
      </trkpt>
      <trkpt lat="46.63881" lon="6.13696">
        <ele>1153.2</ele>
        <time>2022-08-02T09:07:32Z</time>
      </trkpt>
      <trkpt lat="46.63884" lon="6.13714">
        <ele>1152.7</ele>
        <time>2022-08-02T09:07:34Z</time>
      </trkpt>
      <trkpt lat="46.63886" lon="6.1373">
        <ele>1152.2</ele>
        <time>2022-08-02T09:07:36Z</time>
      </trkpt>
      <trkpt lat="46.63888" lon="6.13746">
        <ele>1151.5</ele>
        <time>2022-08-02T09:07:38Z</time>
      </trkpt>
      <trkpt lat="46.63886" lon="6.13764">
        <ele>1150.9</ele>
        <time>2022-08-02T09:07:40Z</time>
      </trkpt>
      <trkpt lat="46.6388" lon="6.13783">
        <ele>1150.2</ele>
        <time>2022-08-02T09:07:42Z</time>
      </trkpt>
      <trkpt lat="46.63872" lon="6.13803">
        <ele>1149.6</ele>
        <time>2022-08-02T09:07:44Z</time>
      </trkpt>
      <trkpt lat="46.63864" lon="6.13823">
        <ele>1149</ele>
        <time>2022-08-02T09:07:46Z</time>
      </trkpt>
      <trkpt lat="46.63859" lon="6.1384">
        <ele>1148.5</ele>
        <time>2022-08-02T09:07:48Z</time>
      </trkpt>
      <trkpt lat="46.63856" lon="6.13854">
        <ele>1147.9</ele>
        <time>2022-08-02T09:07:50Z</time>
      </trkpt>
      <trkpt lat="46.63853" lon="6.13867">
        <ele>1147.4</ele>
        <time>2022-08-02T09:07:52Z</time>
      </trkpt>
      <trkpt lat="46.63851" lon="6.13886">
        <ele>1146.9</ele>
        <time>2022-08-02T09:07:55Z</time>
      </trkpt>
      <trkpt lat="46.63848" lon="6.13905">
        <ele>1146.7</ele>
        <time>2022-08-02T09:07:58Z</time>
      </trkpt>
      <trkpt lat="46.63845" lon="6.13922">
        <ele>1146.5</ele>
        <time>2022-08-02T09:08:01Z</time>
      </trkpt>
      <trkpt lat="46.63849" lon="6.1394">
        <ele>1146.5</ele>
        <time>2022-08-02T09:08:04Z</time>
      </trkpt>
      <trkpt lat="46.63851" lon="6.13957">
        <ele>1146.6</ele>
        <time>2022-08-02T09:08:07Z</time>
      </trkpt>
      <trkpt lat="46.63854" lon="6.13972">
        <ele>1146.6</ele>
        <time>2022-08-02T09:08:11Z</time>
      </trkpt>
      <trkpt lat="46.63855" lon="6.13989">
        <ele>1146.6</ele>
        <time>2022-08-02T09:08:15Z</time>
      </trkpt>
      <trkpt lat="46.63856" lon="6.14003">
        <ele>1146.6</ele>
        <time>2022-08-02T09:08:19Z</time>
      </trkpt>
      <trkpt lat="46.63858" lon="6.14018">
        <ele>1146.6</ele>
        <time>2022-08-02T09:08:23Z</time>
      </trkpt>
      <trkpt lat="46.6386" lon="6.14032">
        <ele>1146.4</ele>
        <time>2022-08-02T09:08:26Z</time>
      </trkpt>
      <trkpt lat="46.63862" lon="6.14047">
        <ele>1145.7</ele>
        <time>2022-08-02T09:08:29Z</time>
      </trkpt>
      <trkpt lat="46.6386" lon="6.14062">
        <ele>1145.2</ele>
        <time>2022-08-02T09:08:32Z</time>
      </trkpt>
      <trkpt lat="46.63858" lon="6.14076">
        <ele>1144.5</ele>
        <time>2022-08-02T09:08:37Z</time>
      </trkpt>
      <trkpt lat="46.6386" lon="6.14091">
        <ele>1142.5</ele>
        <time>2022-08-02T09:09:32Z</time>
      </trkpt>
      <trkpt lat="46.63859" lon="6.14105">
        <ele>1142.5</ele>
        <time>2022-08-02T09:09:35Z</time>
      </trkpt>
      <trkpt lat="46.63853" lon="6.14118">
        <ele>1142.4</ele>
        <time>2022-08-02T09:09:39Z</time>
      </trkpt>
      <trkpt lat="46.63848" lon="6.14132">
        <ele>1142.5</ele>
        <time>2022-08-02T09:09:43Z</time>
      </trkpt>
      <trkpt lat="46.63843" lon="6.14144">
        <ele>1142.6</ele>
        <time>2022-08-02T09:09:47Z</time>
      </trkpt>
      <trkpt lat="46.63839" lon="6.14157">
        <ele>1142.8</ele>
        <time>2022-08-02T09:09:51Z</time>
      </trkpt>
      <trkpt lat="46.63835" lon="6.14169">
        <ele>1143.1</ele>
        <time>2022-08-02T09:09:56Z</time>
      </trkpt>
      <trkpt lat="46.6383" lon="6.1418">
        <ele>1145.2</ele>
        <time>2022-08-02T09:10:50Z</time>
      </trkpt>
      <trkpt lat="46.63824" lon="6.14191">
        <ele>1145.1</ele>
        <time>2022-08-02T09:10:56Z</time>
      </trkpt>
      <trkpt lat="46.63816" lon="6.14202">
        <ele>1145.1</ele>
        <time>2022-08-02T09:11:00Z</time>
      </trkpt>
      <trkpt lat="46.6381" lon="6.14213">
        <ele>1145.1</ele>
        <time>2022-08-02T09:11:05Z</time>
      </trkpt>
      <trkpt lat="46.63802" lon="6.14224">
        <ele>1145.2</ele>
        <time>2022-08-02T09:11:09Z</time>
      </trkpt>
      <trkpt lat="46.63794" lon="6.14236">
        <ele>1145.4</ele>
        <time>2022-08-02T09:11:13Z</time>
      </trkpt>
      <trkpt lat="46.63787" lon="6.14246">
        <ele>1145.5</ele>
        <time>2022-08-02T09:11:17Z</time>
      </trkpt>
      <trkpt lat="46.6378" lon="6.14256">
        <ele>1145.8</ele>
        <time>2022-08-02T09:11:22Z</time>
      </trkpt>
      <trkpt lat="46.63773" lon="6.14264">
        <ele>1146.2</ele>
        <time>2022-08-02T09:11:27Z</time>
      </trkpt>
      <trkpt lat="46.63765" lon="6.14272">
        <ele>1147.1</ele>
        <time>2022-08-02T09:11:36Z</time>
      </trkpt>
      <trkpt lat="46.63756" lon="6.14279">
        <ele>1148.3</ele>
        <time>2022-08-02T09:13:27Z</time>
      </trkpt>
      <trkpt lat="46.63748" lon="6.14287">
        <ele>1148.8</ele>
        <time>2022-08-02T09:13:33Z</time>
      </trkpt>
      <trkpt lat="46.63742" lon="6.14296">
        <ele>1150.1</ele>
        <time>2022-08-02T09:13:41Z</time>
      </trkpt>
      <trkpt lat="46.63731" lon="6.14301">
        <ele>1151</ele>
        <time>2022-08-02T09:13:47Z</time>
      </trkpt>
      <trkpt lat="46.63722" lon="6.14306">
        <ele>1152</ele>
        <time>2022-08-02T09:13:52Z</time>
      </trkpt>
      <trkpt lat="46.63712" lon="6.14312">
        <ele>1152.7</ele>
        <time>2022-08-02T09:13:56Z</time>
      </trkpt>
      <trkpt lat="46.63703" lon="6.14319">
        <ele>1153.1</ele>
        <time>2022-08-02T09:14:00Z</time>
      </trkpt>
      <trkpt lat="46.63697" lon="6.14329">
        <ele>1153.5</ele>
        <time>2022-08-02T09:14:04Z</time>
      </trkpt>
      <trkpt lat="46.6369" lon="6.1434">
        <ele>1153.8</ele>
        <time>2022-08-02T09:14:07Z</time>
      </trkpt>
      <trkpt lat="46.63683" lon="6.14349">
        <ele>1153.9</ele>
        <time>2022-08-02T09:14:09Z</time>
      </trkpt>
      <trkpt lat="46.63677" lon="6.14361">
        <ele>1154</ele>
        <time>2022-08-02T09:14:11Z</time>
      </trkpt>
      <trkpt lat="46.63671" lon="6.14372">
        <ele>1154.1</ele>
        <time>2022-08-02T09:14:13Z</time>
      </trkpt>
      <trkpt lat="46.63667" lon="6.14385">
        <ele>1154.1</ele>
        <time>2022-08-02T09:14:15Z</time>
      </trkpt>
      <trkpt lat="46.63661" lon="6.14397">
        <ele>1154</ele>
        <time>2022-08-02T09:14:17Z</time>
      </trkpt>
      <trkpt lat="46.63654" lon="6.14407">
        <ele>1153.9</ele>
        <time>2022-08-02T09:14:19Z</time>
      </trkpt>
      <trkpt lat="46.63642" lon="6.14414">
        <ele>1153.6</ele>
        <time>2022-08-02T09:14:22Z</time>
      </trkpt>
      <trkpt lat="46.63631" lon="6.14418">
        <ele>1153.4</ele>
        <time>2022-08-02T09:14:25Z</time>
      </trkpt>
      <trkpt lat="46.63618" lon="6.14421">
        <ele>1153.2</ele>
        <time>2022-08-02T09:14:27Z</time>
      </trkpt>
      <trkpt lat="46.63607" lon="6.14423">
        <ele>1153</ele>
        <time>2022-08-02T09:14:30Z</time>
      </trkpt>
      <trkpt lat="46.63595" lon="6.14431">
        <ele>1152.8</ele>
        <time>2022-08-02T09:14:34Z</time>
      </trkpt>
      <trkpt lat="46.63586" lon="6.14438">
        <ele>1152.7</ele>
        <time>2022-08-02T09:14:37Z</time>
      </trkpt>
      <trkpt lat="46.63577" lon="6.14441">
        <ele>1152.6</ele>
        <time>2022-08-02T09:14:39Z</time>
      </trkpt>
      <trkpt lat="46.63566" lon="6.14447">
        <ele>1152.6</ele>
        <time>2022-08-02T09:14:42Z</time>
      </trkpt>
      <trkpt lat="46.63554" lon="6.14454">
        <ele>1152.5</ele>
        <time>2022-08-02T09:14:45Z</time>
      </trkpt>
      <trkpt lat="46.63546" lon="6.14463">
        <ele>1152.4</ele>
        <time>2022-08-02T09:14:48Z</time>
      </trkpt>
      <trkpt lat="46.63539" lon="6.14476">
        <ele>1152.3</ele>
        <time>2022-08-02T09:14:51Z</time>
      </trkpt>
      <trkpt lat="46.63531" lon="6.14489">
        <ele>1152.4</ele>
        <time>2022-08-02T09:14:54Z</time>
      </trkpt>
      <trkpt lat="46.63523" lon="6.14501">
        <ele>1152.4</ele>
        <time>2022-08-02T09:14:57Z</time>
      </trkpt>
      <trkpt lat="46.63514" lon="6.14515">
        <ele>1152.6</ele>
        <time>2022-08-02T09:15:00Z</time>
      </trkpt>
      <trkpt lat="46.63508" lon="6.14528">
        <ele>1153</ele>
        <time>2022-08-02T09:15:03Z</time>
      </trkpt>
      <trkpt lat="46.63501" lon="6.14542">
        <ele>1153.3</ele>
        <time>2022-08-02T09:15:07Z</time>
      </trkpt>
      <trkpt lat="46.63495" lon="6.14553">
        <ele>1153.6</ele>
        <time>2022-08-02T09:15:10Z</time>
      </trkpt>
      <trkpt lat="46.63488" lon="6.14564">
        <ele>1153.9</ele>
        <time>2022-08-02T09:15:13Z</time>
      </trkpt>
      <trkpt lat="46.63482" lon="6.14574">
        <ele>1154.2</ele>
        <time>2022-08-02T09:15:16Z</time>
      </trkpt>
      <trkpt lat="46.63474" lon="6.14584">
        <ele>1154.5</ele>
        <time>2022-08-02T09:15:19Z</time>
      </trkpt>
      <trkpt lat="46.63466" lon="6.14594">
        <ele>1154.7</ele>
        <time>2022-08-02T09:15:22Z</time>
      </trkpt>
      <trkpt lat="46.63456" lon="6.14605">
        <ele>1154.9</ele>
        <time>2022-08-02T09:15:25Z</time>
      </trkpt>
      <trkpt lat="46.63449" lon="6.14615">
        <ele>1155.2</ele>
        <time>2022-08-02T09:15:28Z</time>
      </trkpt>
      <trkpt lat="46.63441" lon="6.14626">
        <ele>1155.5</ele>
        <time>2022-08-02T09:15:31Z</time>
      </trkpt>
      <trkpt lat="46.63433" lon="6.14636">
        <ele>1155.8</ele>
        <time>2022-08-02T09:15:34Z</time>
      </trkpt>
      <trkpt lat="46.63424" lon="6.14644">
        <ele>1156.1</ele>
        <time>2022-08-02T09:15:37Z</time>
      </trkpt>
      <trkpt lat="46.63418" lon="6.14654">
        <ele>1156.4</ele>
        <time>2022-08-02T09:15:40Z</time>
      </trkpt>
      <trkpt lat="46.6341" lon="6.14666">
        <ele>1156.8</ele>
        <time>2022-08-02T09:15:44Z</time>
      </trkpt>
      <trkpt lat="46.63403" lon="6.14676">
        <ele>1157.3</ele>
        <time>2022-08-02T09:15:47Z</time>
      </trkpt>
      <trkpt lat="46.63396" lon="6.14689">
        <ele>1157.9</ele>
        <time>2022-08-02T09:15:51Z</time>
      </trkpt>
      <trkpt lat="46.63388" lon="6.14703">
        <ele>1158.6</ele>
        <time>2022-08-02T09:15:55Z</time>
      </trkpt>
      <trkpt lat="46.63381" lon="6.14712">
        <ele>1159.6</ele>
        <time>2022-08-02T09:15:59Z</time>
      </trkpt>
      <trkpt lat="46.63375" lon="6.14722">
        <ele>1160.3</ele>
        <time>2022-08-02T09:16:03Z</time>
      </trkpt>
      <trkpt lat="46.63367" lon="6.14728">
        <ele>1161.2</ele>
        <time>2022-08-02T09:16:07Z</time>
      </trkpt>
      <trkpt lat="46.63357" lon="6.14734">
        <ele>1162.1</ele>
        <time>2022-08-02T09:16:11Z</time>
      </trkpt>
      <trkpt lat="46.63348" lon="6.1474">
        <ele>1163.1</ele>
        <time>2022-08-02T09:16:15Z</time>
      </trkpt>
      <trkpt lat="46.63339" lon="6.14744">
        <ele>1163.8</ele>
        <time>2022-08-02T09:16:18Z</time>
      </trkpt>
      <trkpt lat="46.63331" lon="6.1475">
        <ele>1164.7</ele>
        <time>2022-08-02T09:16:22Z</time>
      </trkpt>
      <trkpt lat="46.6332" lon="6.14756">
        <ele>1165.5</ele>
        <time>2022-08-02T09:16:26Z</time>
      </trkpt>
      <trkpt lat="46.63309" lon="6.14758">
        <ele>1166.2</ele>
        <time>2022-08-02T09:16:30Z</time>
      </trkpt>
      <trkpt lat="46.633" lon="6.14762">
        <ele>1166.4</ele>
        <time>2022-08-02T09:16:32Z</time>
      </trkpt>
      <trkpt lat="46.6329" lon="6.14758">
        <ele>1167</ele>
        <time>2022-08-02T09:16:36Z</time>
      </trkpt>
      <trkpt lat="46.63281" lon="6.14756">
        <ele>1167.5</ele>
        <time>2022-08-02T09:16:39Z</time>
      </trkpt>
      <trkpt lat="46.6327" lon="6.14758">
        <ele>1168.1</ele>
        <time>2022-08-02T09:16:43Z</time>
      </trkpt>
      <trkpt lat="46.6326" lon="6.14761">
        <ele>1168.6</ele>
        <time>2022-08-02T09:16:47Z</time>
      </trkpt>
      <trkpt lat="46.63251" lon="6.14764">
        <ele>1169.2</ele>
        <time>2022-08-02T09:16:51Z</time>
      </trkpt>
      <trkpt lat="46.63241" lon="6.14766">
        <ele>1169.9</ele>
        <time>2022-08-02T09:16:55Z</time>
      </trkpt>
      <trkpt lat="46.6323" lon="6.14766">
        <ele>1170.5</ele>
        <time>2022-08-02T09:16:59Z</time>
      </trkpt>
      <trkpt lat="46.63218" lon="6.14765">
        <ele>1171.1</ele>
        <time>2022-08-02T09:17:02Z</time>
      </trkpt>
      <trkpt lat="46.63208" lon="6.14766">
        <ele>1172.2</ele>
        <time>2022-08-02T09:17:07Z</time>
      </trkpt>
      <trkpt lat="46.63199" lon="6.14763">
        <ele>1173.7</ele>
        <time>2022-08-02T09:17:12Z</time>
      </trkpt>
      <trkpt lat="46.63191" lon="6.14758">
        <ele>1175.2</ele>
        <time>2022-08-02T09:17:17Z</time>
      </trkpt>
      <trkpt lat="46.63183" lon="6.14748">
        <ele>1176.7</ele>
        <time>2022-08-02T09:17:22Z</time>
      </trkpt>
      <trkpt lat="46.63177" lon="6.14735">
        <ele>1177.7</ele>
        <time>2022-08-02T09:17:26Z</time>
      </trkpt>
      <trkpt lat="46.63174" lon="6.14721">
        <ele>1178.8</ele>
        <time>2022-08-02T09:17:30Z</time>
      </trkpt>
      <trkpt lat="46.63171" lon="6.14706">
        <ele>1179.7</ele>
        <time>2022-08-02T09:17:34Z</time>
      </trkpt>
      <trkpt lat="46.63167" lon="6.1469">
        <ele>1180.5</ele>
        <time>2022-08-02T09:17:38Z</time>
      </trkpt>
      <trkpt lat="46.63162" lon="6.14676">
        <ele>1181.1</ele>
        <time>2022-08-02T09:17:42Z</time>
      </trkpt>
      <trkpt lat="46.63157" lon="6.14663">
        <ele>1181.8</ele>
        <time>2022-08-02T09:17:46Z</time>
      </trkpt>
      <trkpt lat="46.63149" lon="6.14653">
        <ele>1182.4</ele>
        <time>2022-08-02T09:17:50Z</time>
      </trkpt>
      <trkpt lat="46.6314" lon="6.14644">
        <ele>1183.2</ele>
        <time>2022-08-02T09:17:54Z</time>
      </trkpt>
      <trkpt lat="46.63129" lon="6.14639">
        <ele>1183.8</ele>
        <time>2022-08-02T09:17:58Z</time>
      </trkpt>
      <trkpt lat="46.63119" lon="6.14637">
        <ele>1184.2</ele>
        <time>2022-08-02T09:18:01Z</time>
      </trkpt>
      <trkpt lat="46.63109" lon="6.14635">
        <ele>1184.6</ele>
        <time>2022-08-02T09:18:03Z</time>
      </trkpt>
      <trkpt lat="46.631" lon="6.14632">
        <ele>1185</ele>
        <time>2022-08-02T09:18:05Z</time>
      </trkpt>
      <trkpt lat="46.6309" lon="6.14632">
        <ele>1185.6</ele>
        <time>2022-08-02T09:18:08Z</time>
      </trkpt>
      <trkpt lat="46.6308" lon="6.14632">
        <ele>1186</ele>
        <time>2022-08-02T09:18:11Z</time>
      </trkpt>
      <trkpt lat="46.6307" lon="6.14633">
        <ele>1186.2</ele>
        <time>2022-08-02T09:18:14Z</time>
      </trkpt>
      <trkpt lat="46.6306" lon="6.14635">
        <ele>1186.5</ele>
        <time>2022-08-02T09:18:17Z</time>
      </trkpt>
      <trkpt lat="46.63051" lon="6.14638">
        <ele>1186.8</ele>
        <time>2022-08-02T09:18:20Z</time>
      </trkpt>
      <trkpt lat="46.63042" lon="6.1464">
        <ele>1187.2</ele>
        <time>2022-08-02T09:18:23Z</time>
      </trkpt>
      <trkpt lat="46.63032" lon="6.14641">
        <ele>1187.7</ele>
        <time>2022-08-02T09:18:26Z</time>
      </trkpt>
      <trkpt lat="46.63023" lon="6.14642">
        <ele>1188.2</ele>
        <time>2022-08-02T09:18:30Z</time>
      </trkpt>
      <trkpt lat="46.63011" lon="6.14645">
        <ele>1188.5</ele>
        <time>2022-08-02T09:18:34Z</time>
      </trkpt>
      <trkpt lat="46.63002" lon="6.14651">
        <ele>1188.9</ele>
        <time>2022-08-02T09:18:37Z</time>
      </trkpt>
      <trkpt lat="46.62993" lon="6.14656">
        <ele>1189.2</ele>
        <time>2022-08-02T09:18:40Z</time>
      </trkpt>
      <trkpt lat="46.62985" lon="6.14664">
        <ele>1189.7</ele>
        <time>2022-08-02T09:18:44Z</time>
      </trkpt>
      <trkpt lat="46.62979" lon="6.14676">
        <ele>1190.4</ele>
        <time>2022-08-02T09:18:49Z</time>
      </trkpt>
      <trkpt lat="46.62974" lon="6.14688">
        <ele>1191.4</ele>
        <time>2022-08-02T09:18:54Z</time>
      </trkpt>
      <trkpt lat="46.62968" lon="6.14702">
        <ele>1192.2</ele>
        <time>2022-08-02T09:18:59Z</time>
      </trkpt>
      <trkpt lat="46.62962" lon="6.14713">
        <ele>1192.9</ele>
        <time>2022-08-02T09:19:03Z</time>
      </trkpt>
      <trkpt lat="46.62952" lon="6.14719">
        <ele>1193.6</ele>
        <time>2022-08-02T09:19:07Z</time>
      </trkpt>
      <trkpt lat="46.62941" lon="6.14726">
        <ele>1194</ele>
        <time>2022-08-02T09:19:10Z</time>
      </trkpt>
      <trkpt lat="46.62932" lon="6.14732">
        <ele>1194.4</ele>
        <time>2022-08-02T09:19:13Z</time>
      </trkpt>
      <trkpt lat="46.62924" lon="6.1474">
        <ele>1195</ele>
        <time>2022-08-02T09:19:17Z</time>
      </trkpt>
      <trkpt lat="46.62913" lon="6.14748">
        <ele>1195.7</ele>
        <time>2022-08-02T09:19:21Z</time>
      </trkpt>
      <trkpt lat="46.62905" lon="6.14756">
        <ele>1196.2</ele>
        <time>2022-08-02T09:19:25Z</time>
      </trkpt>
      <trkpt lat="46.62898" lon="6.14765">
        <ele>1196.7</ele>
        <time>2022-08-02T09:19:29Z</time>
      </trkpt>
      <trkpt lat="46.62891" lon="6.14774">
        <ele>1197.1</ele>
        <time>2022-08-02T09:19:32Z</time>
      </trkpt>
      <trkpt lat="46.62885" lon="6.14785">
        <ele>1197.5</ele>
        <time>2022-08-02T09:19:36Z</time>
      </trkpt>
      <trkpt lat="46.62878" lon="6.14798">
        <ele>1198</ele>
        <time>2022-08-02T09:19:40Z</time>
      </trkpt>
      <trkpt lat="46.62874" lon="6.14812">
        <ele>1198.4</ele>
        <time>2022-08-02T09:19:44Z</time>
      </trkpt>
      <trkpt lat="46.62868" lon="6.14826">
        <ele>1198.8</ele>
        <time>2022-08-02T09:19:48Z</time>
      </trkpt>
      <trkpt lat="46.62863" lon="6.14837">
        <ele>1199.1</ele>
        <time>2022-08-02T09:19:51Z</time>
      </trkpt>
      <trkpt lat="46.62859" lon="6.14849">
        <ele>1199.5</ele>
        <time>2022-08-02T09:19:54Z</time>
      </trkpt>
      <trkpt lat="46.62856" lon="6.14866">
        <ele>1200</ele>
        <time>2022-08-02T09:19:58Z</time>
      </trkpt>
      <trkpt lat="46.62852" lon="6.1488">
        <ele>1200.5</ele>
        <time>2022-08-02T09:20:02Z</time>
      </trkpt>
      <trkpt lat="46.62847" lon="6.14893">
        <ele>1201.1</ele>
        <time>2022-08-02T09:20:06Z</time>
      </trkpt>
      <trkpt lat="46.6284" lon="6.14906">
        <ele>1201.7</ele>
        <time>2022-08-02T09:20:10Z</time>
      </trkpt>
      <trkpt lat="46.62833" lon="6.14914">
        <ele>1202.1</ele>
        <time>2022-08-02T09:20:13Z</time>
      </trkpt>
      <trkpt lat="46.62823" lon="6.14923">
        <ele>1202.8</ele>
        <time>2022-08-02T09:20:17Z</time>
      </trkpt>
      <trkpt lat="46.62814" lon="6.14928">
        <ele>1203.3</ele>
        <time>2022-08-02T09:20:21Z</time>
      </trkpt>
      <trkpt lat="46.62803" lon="6.14933">
        <ele>1203.7</ele>
        <time>2022-08-02T09:20:25Z</time>
      </trkpt>
      <trkpt lat="46.62794" lon="6.14937">
        <ele>1204.1</ele>
        <time>2022-08-02T09:20:28Z</time>
      </trkpt>
      <trkpt lat="46.62784" lon="6.14941">
        <ele>1204.4</ele>
        <time>2022-08-02T09:20:31Z</time>
      </trkpt>
      <trkpt lat="46.62772" lon="6.14945">
        <ele>1204.7</ele>
        <time>2022-08-02T09:20:34Z</time>
      </trkpt>
      <trkpt lat="46.62762" lon="6.14949">
        <ele>1205</ele>
        <time>2022-08-02T09:20:37Z</time>
      </trkpt>
      <trkpt lat="46.62752" lon="6.14951">
        <ele>1205.1</ele>
        <time>2022-08-02T09:20:39Z</time>
      </trkpt>
      <trkpt lat="46.62741" lon="6.14952">
        <ele>1205.5</ele>
        <time>2022-08-02T09:20:42Z</time>
      </trkpt>
      <trkpt lat="46.62729" lon="6.14953">
        <ele>1206</ele>
        <time>2022-08-02T09:20:46Z</time>
      </trkpt>
      <trkpt lat="46.6272" lon="6.14953">
        <ele>1206.3</ele>
        <time>2022-08-02T09:20:49Z</time>
      </trkpt>
      <trkpt lat="46.62709" lon="6.14949">
        <ele>1206.7</ele>
        <time>2022-08-02T09:20:53Z</time>
      </trkpt>
      <trkpt lat="46.627" lon="6.1494">
        <ele>1206.9</ele>
        <time>2022-08-02T09:20:57Z</time>
      </trkpt>
      <trkpt lat="46.62692" lon="6.14934">
        <ele>1207.1</ele>
        <time>2022-08-02T09:21:00Z</time>
      </trkpt>
      <trkpt lat="46.62682" lon="6.14934">
        <ele>1207.4</ele>
        <time>2022-08-02T09:21:03Z</time>
      </trkpt>
      <trkpt lat="46.62673" lon="6.14936">
        <ele>1207.7</ele>
        <time>2022-08-02T09:21:06Z</time>
      </trkpt>
      <trkpt lat="46.62662" lon="6.14938">
        <ele>1208</ele>
        <time>2022-08-02T09:21:09Z</time>
      </trkpt>
      <trkpt lat="46.62652" lon="6.14938">
        <ele>1208.3</ele>
        <time>2022-08-02T09:21:12Z</time>
      </trkpt>
      <trkpt lat="46.62641" lon="6.1494">
        <ele>1209</ele>
        <time>2022-08-02T09:21:16Z</time>
      </trkpt>
      <trkpt lat="46.6263" lon="6.14941">
        <ele>1209.9</ele>
        <time>2022-08-02T09:21:21Z</time>
      </trkpt>
      <trkpt lat="46.62621" lon="6.14941">
        <ele>1210.6</ele>
        <time>2022-08-02T09:21:25Z</time>
      </trkpt>
      <trkpt lat="46.62611" lon="6.14941">
        <ele>1211.2</ele>
        <time>2022-08-02T09:21:30Z</time>
      </trkpt>
      <trkpt lat="46.62601" lon="6.1494">
        <ele>1212.2</ele>
        <time>2022-08-02T09:21:37Z</time>
      </trkpt>
      <trkpt lat="46.6259" lon="6.14937">
        <ele>1214.1</ele>
        <time>2022-08-02T09:21:45Z</time>
      </trkpt>
      <trkpt lat="46.62582" lon="6.14933">
        <ele>1215.3</ele>
        <time>2022-08-02T09:21:51Z</time>
      </trkpt>
      <trkpt lat="46.62572" lon="6.14935">
        <ele>1216.6</ele>
        <time>2022-08-02T09:21:57Z</time>
      </trkpt>
      <trkpt lat="46.62563" lon="6.14935">
        <ele>1217.6</ele>
        <time>2022-08-02T09:22:02Z</time>
      </trkpt>
      <trkpt lat="46.62552" lon="6.14936">
        <ele>1218.3</ele>
        <time>2022-08-02T09:22:07Z</time>
      </trkpt>
      <trkpt lat="46.62542" lon="6.14936">
        <ele>1218.8</ele>
        <time>2022-08-02T09:22:11Z</time>
      </trkpt>
      <trkpt lat="46.62532" lon="6.14934">
        <ele>1219.7</ele>
        <time>2022-08-02T09:22:16Z</time>
      </trkpt>
      <trkpt lat="46.62523" lon="6.14935">
        <ele>1220.4</ele>
        <time>2022-08-02T09:22:21Z</time>
      </trkpt>
      <trkpt lat="46.62514" lon="6.14931">
        <ele>1221.1</ele>
        <time>2022-08-02T09:22:27Z</time>
      </trkpt>
      <trkpt lat="46.62504" lon="6.14927">
        <ele>1222.4</ele>
        <time>2022-08-02T09:22:35Z</time>
      </trkpt>
      <trkpt lat="46.62495" lon="6.14924">
        <ele>1223.5</ele>
        <time>2022-08-02T09:22:41Z</time>
      </trkpt>
      <trkpt lat="46.62485" lon="6.14921">
        <ele>1224.5</ele>
        <time>2022-08-02T09:22:46Z</time>
      </trkpt>
      <trkpt lat="46.62475" lon="6.14921">
        <ele>1225.6</ele>
        <time>2022-08-02T09:22:52Z</time>
      </trkpt>
      <trkpt lat="46.62469" lon="6.14931">
        <ele>1226.5</ele>
        <time>2022-08-02T09:22:57Z</time>
      </trkpt>
      <trkpt lat="46.62468" lon="6.14944">
        <ele>1227.8</ele>
        <time>2022-08-02T09:23:04Z</time>
      </trkpt>
      <trkpt lat="46.62467" lon="6.14958">
        <ele>1228.9</ele>
        <time>2022-08-02T09:23:10Z</time>
      </trkpt>
      <trkpt lat="46.62468" lon="6.14972">
        <ele>1229.8</ele>
        <time>2022-08-02T09:23:15Z</time>
      </trkpt>
      <trkpt lat="46.62468" lon="6.14986">
        <ele>1230.5</ele>
        <time>2022-08-02T09:23:19Z</time>
      </trkpt>
      <trkpt lat="46.62468" lon="6.15001">
        <ele>1231.2</ele>
        <time>2022-08-02T09:23:23Z</time>
      </trkpt>
      <trkpt lat="46.62468" lon="6.15015">
        <ele>1231.8</ele>
        <time>2022-08-02T09:23:27Z</time>
      </trkpt>
      <trkpt lat="46.62468" lon="6.15028">
        <ele>1232.5</ele>
        <time>2022-08-02T09:23:31Z</time>
      </trkpt>
      <trkpt lat="46.62466" lon="6.15041">
        <ele>1233.2</ele>
        <time>2022-08-02T09:23:35Z</time>
      </trkpt>
      <trkpt lat="46.62463" lon="6.15055">
        <ele>1234.4</ele>
        <time>2022-08-02T09:23:40Z</time>
      </trkpt>
      <trkpt lat="46.62456" lon="6.15066">
        <ele>1235.5</ele>
        <time>2022-08-02T09:23:45Z</time>
      </trkpt>
      <trkpt lat="46.62449" lon="6.15075">
        <ele>1236.3</ele>
        <time>2022-08-02T09:23:49Z</time>
      </trkpt>
      <trkpt lat="46.62443" lon="6.15088">
        <ele>1237.3</ele>
        <time>2022-08-02T09:23:54Z</time>
      </trkpt>
      <trkpt lat="46.62436" lon="6.15099">
        <ele>1238</ele>
        <time>2022-08-02T09:23:58Z</time>
      </trkpt>
      <trkpt lat="46.62428" lon="6.15111">
        <ele>1238.7</ele>
        <time>2022-08-02T09:24:02Z</time>
      </trkpt>
      <trkpt lat="46.62422" lon="6.15124">
        <ele>1239.4</ele>
        <time>2022-08-02T09:24:06Z</time>
      </trkpt>
      <trkpt lat="46.62414" lon="6.15135">
        <ele>1240.3</ele>
        <time>2022-08-02T09:24:12Z</time>
      </trkpt>
      <trkpt lat="46.62402" lon="6.15144">
        <ele>1240.8</ele>
        <time>2022-08-02T09:24:16Z</time>
      </trkpt>
      <trkpt lat="46.62393" lon="6.15148">
        <ele>1241.4</ele>
        <time>2022-08-02T09:24:20Z</time>
      </trkpt>
      <trkpt lat="46.62384" lon="6.15154">
        <ele>1241.8</ele>
        <time>2022-08-02T09:24:23Z</time>
      </trkpt>
      <trkpt lat="46.62374" lon="6.15162">
        <ele>1242.2</ele>
        <time>2022-08-02T09:24:26Z</time>
      </trkpt>
      <trkpt lat="46.62364" lon="6.15169">
        <ele>1242.7</ele>
        <time>2022-08-02T09:24:30Z</time>
      </trkpt>
      <trkpt lat="46.62355" lon="6.15177">
        <ele>1243.2</ele>
        <time>2022-08-02T09:24:34Z</time>
      </trkpt>
      <trkpt lat="46.62346" lon="6.15188">
        <ele>1243.6</ele>
        <time>2022-08-02T09:24:38Z</time>
      </trkpt>
      <trkpt lat="46.62337" lon="6.15198">
        <ele>1243.8</ele>
        <time>2022-08-02T09:24:41Z</time>
      </trkpt>
      <trkpt lat="46.62329" lon="6.15209">
        <ele>1244</ele>
        <time>2022-08-02T09:24:44Z</time>
      </trkpt>
      <trkpt lat="46.62321" lon="6.15218">
        <ele>1244.2</ele>
        <time>2022-08-02T09:24:46Z</time>
      </trkpt>
      <trkpt lat="46.62313" lon="6.1523">
        <ele>1244.3</ele>
        <time>2022-08-02T09:24:49Z</time>
      </trkpt>
      <trkpt lat="46.62303" lon="6.1524">
        <ele>1244.4</ele>
        <time>2022-08-02T09:24:52Z</time>
      </trkpt>
      <trkpt lat="46.62296" lon="6.15253">
        <ele>1244.7</ele>
        <time>2022-08-02T09:24:56Z</time>
      </trkpt>
      <trkpt lat="46.62288" lon="6.15264">
        <ele>1244.9</ele>
        <time>2022-08-02T09:25:00Z</time>
      </trkpt>
      <trkpt lat="46.62279" lon="6.15271">
        <ele>1245.4</ele>
        <time>2022-08-02T09:25:04Z</time>
      </trkpt>
      <trkpt lat="46.62271" lon="6.15281">
        <ele>1246</ele>
        <time>2022-08-02T09:25:09Z</time>
      </trkpt>
      <trkpt lat="46.62263" lon="6.15287">
        <ele>1246.4</ele>
        <time>2022-08-02T09:25:12Z</time>
      </trkpt>
      <trkpt lat="46.62251" lon="6.15294">
        <ele>1246.8</ele>
        <time>2022-08-02T09:25:16Z</time>
      </trkpt>
      <trkpt lat="46.62239" lon="6.15298">
        <ele>1247.2</ele>
        <time>2022-08-02T09:25:19Z</time>
      </trkpt>
      <trkpt lat="46.62231" lon="6.15306">
        <ele>1247.8</ele>
        <time>2022-08-02T09:25:23Z</time>
      </trkpt>
      <trkpt lat="46.62224" lon="6.15316">
        <ele>1248.7</ele>
        <time>2022-08-02T09:25:28Z</time>
      </trkpt>
      <trkpt lat="46.62217" lon="6.15328">
        <ele>1249.6</ele>
        <time>2022-08-02T09:25:34Z</time>
      </trkpt>
      <trkpt lat="46.62207" lon="6.15335">
        <ele>1250.4</ele>
        <time>2022-08-02T09:25:38Z</time>
      </trkpt>
      <trkpt lat="46.62198" lon="6.15337">
        <ele>1250.9</ele>
        <time>2022-08-02T09:25:41Z</time>
      </trkpt>
      <trkpt lat="46.62188" lon="6.15341">
        <ele>1251.5</ele>
        <time>2022-08-02T09:25:44Z</time>
      </trkpt>
      <trkpt lat="46.62177" lon="6.15345">
        <ele>1252.3</ele>
        <time>2022-08-02T09:25:48Z</time>
      </trkpt>
      <trkpt lat="46.62167" lon="6.15346">
        <ele>1252.9</ele>
        <time>2022-08-02T09:25:51Z</time>
      </trkpt>
      <trkpt lat="46.62157" lon="6.15345">
        <ele>1253.5</ele>
        <time>2022-08-02T09:25:56Z</time>
      </trkpt>
      <trkpt lat="46.62145" lon="6.15344">
        <ele>1253.8</ele>
        <time>2022-08-02T09:26:00Z</time>
      </trkpt>
      <trkpt lat="46.62135" lon="6.15346">
        <ele>1254</ele>
        <time>2022-08-02T09:26:03Z</time>
      </trkpt>
      <trkpt lat="46.62125" lon="6.15347">
        <ele>1254.1</ele>
        <time>2022-08-02T09:26:06Z</time>
      </trkpt>
      <trkpt lat="46.62116" lon="6.15352">
        <ele>1254.2</ele>
        <time>2022-08-02T09:26:10Z</time>
      </trkpt>
      <trkpt lat="46.62107" lon="6.15358">
        <ele>1254.2</ele>
        <time>2022-08-02T09:26:13Z</time>
      </trkpt>
      <trkpt lat="46.621" lon="6.15365">
        <ele>1254.2</ele>
        <time>2022-08-02T09:26:16Z</time>
      </trkpt>
      <trkpt lat="46.62091" lon="6.15373">
        <ele>1254.2</ele>
        <time>2022-08-02T09:26:19Z</time>
      </trkpt>
      <trkpt lat="46.62083" lon="6.15379">
        <ele>1254.3</ele>
        <time>2022-08-02T09:26:21Z</time>
      </trkpt>
      <trkpt lat="46.62073" lon="6.15387">
        <ele>1254.3</ele>
        <time>2022-08-02T09:26:24Z</time>
      </trkpt>
      <trkpt lat="46.62063" lon="6.15391">
        <ele>1254.6</ele>
        <time>2022-08-02T09:26:28Z</time>
      </trkpt>
      <trkpt lat="46.62052" lon="6.15393">
        <ele>1254.9</ele>
        <time>2022-08-02T09:26:31Z</time>
      </trkpt>
      <trkpt lat="46.62043" lon="6.15394">
        <ele>1255.1</ele>
        <time>2022-08-02T09:26:34Z</time>
      </trkpt>
      <trkpt lat="46.62031" lon="6.15395">
        <ele>1255.4</ele>
        <time>2022-08-02T09:26:38Z</time>
      </trkpt>
      <trkpt lat="46.62022" lon="6.15391">
        <ele>1255.7</ele>
        <time>2022-08-02T09:26:41Z</time>
      </trkpt>
      <trkpt lat="46.62013" lon="6.15382">
        <ele>1255.9</ele>
        <time>2022-08-02T09:26:45Z</time>
      </trkpt>
      <trkpt lat="46.62005" lon="6.15373">
        <ele>1256.2</ele>
        <time>2022-08-02T09:26:49Z</time>
      </trkpt>
      <trkpt lat="46.61997" lon="6.15362">
        <ele>1256.4</ele>
        <time>2022-08-02T09:26:54Z</time>
      </trkpt>
      <trkpt lat="46.6199" lon="6.15354">
        <ele>1256.4</ele>
        <time>2022-08-02T09:26:57Z</time>
      </trkpt>
      <trkpt lat="46.61982" lon="6.15341">
        <ele>1256.6</ele>
        <time>2022-08-02T09:27:01Z</time>
      </trkpt>
      <trkpt lat="46.61973" lon="6.15331">
        <ele>1256.8</ele>
        <time>2022-08-02T09:27:05Z</time>
      </trkpt>
      <trkpt lat="46.61966" lon="6.15319">
        <ele>1257.2</ele>
        <time>2022-08-02T09:27:09Z</time>
      </trkpt>
      <trkpt lat="46.61958" lon="6.15311">
        <ele>1257.6</ele>
        <time>2022-08-02T09:27:12Z</time>
      </trkpt>
      <trkpt lat="46.61949" lon="6.153">
        <ele>1258.1</ele>
        <time>2022-08-02T09:27:16Z</time>
      </trkpt>
      <trkpt lat="46.61942" lon="6.15291">
        <ele>1258.6</ele>
        <time>2022-08-02T09:27:19Z</time>
      </trkpt>
      <trkpt lat="46.61935" lon="6.15281">
        <ele>1259</ele>
        <time>2022-08-02T09:27:22Z</time>
      </trkpt>
      <trkpt lat="46.61927" lon="6.15271">
        <ele>1259.3</ele>
        <time>2022-08-02T09:27:25Z</time>
      </trkpt>
      <trkpt lat="46.61919" lon="6.15259">
        <ele>1259.6</ele>
        <time>2022-08-02T09:27:28Z</time>
      </trkpt>
      <trkpt lat="46.61911" lon="6.15247">
        <ele>1259.9</ele>
        <time>2022-08-02T09:27:31Z</time>
      </trkpt>
      <trkpt lat="46.61904" lon="6.15235">
        <ele>1260.2</ele>
        <time>2022-08-02T09:27:34Z</time>
      </trkpt>
      <trkpt lat="46.61897" lon="6.15225">
        <ele>1260.4</ele>
        <time>2022-08-02T09:27:37Z</time>
      </trkpt>
      <trkpt lat="46.6189" lon="6.15215">
        <ele>1260.8</ele>
        <time>2022-08-02T09:27:40Z</time>
      </trkpt>
      <trkpt lat="46.61884" lon="6.15203">
        <ele>1261.3</ele>
        <time>2022-08-02T09:27:43Z</time>
      </trkpt>
      <trkpt lat="46.61877" lon="6.15191">
        <ele>1261.7</ele>
        <time>2022-08-02T09:27:46Z</time>
      </trkpt>
      <trkpt lat="46.6187" lon="6.15177">
        <ele>1262.1</ele>
        <time>2022-08-02T09:27:49Z</time>
      </trkpt>
      <trkpt lat="46.61865" lon="6.15162">
        <ele>1262.3</ele>
        <time>2022-08-02T09:27:52Z</time>
      </trkpt>
      <trkpt lat="46.61862" lon="6.15146">
        <ele>1262.6</ele>
        <time>2022-08-02T09:27:55Z</time>
      </trkpt>
      <trkpt lat="46.61858" lon="6.15133">
        <ele>1262.7</ele>
        <time>2022-08-02T09:27:58Z</time>
      </trkpt>
      <trkpt lat="46.61851" lon="6.1512">
        <ele>1262.8</ele>
        <time>2022-08-02T09:28:01Z</time>
      </trkpt>
      <trkpt lat="46.61843" lon="6.15112">
        <ele>1262.8</ele>
        <time>2022-08-02T09:28:04Z</time>
      </trkpt>
      <trkpt lat="46.6183" lon="6.15109">
        <ele>1262.8</ele>
        <time>2022-08-02T09:28:08Z</time>
      </trkpt>
      <trkpt lat="46.61818" lon="6.1511">
        <ele>1262.7</ele>
        <time>2022-08-02T09:28:11Z</time>
      </trkpt>
      <trkpt lat="46.61806" lon="6.15113">
        <ele>1262.7</ele>
        <time>2022-08-02T09:28:14Z</time>
      </trkpt>
      <trkpt lat="46.61796" lon="6.15113">
        <ele>1262.6</ele>
        <time>2022-08-02T09:28:16Z</time>
      </trkpt>
      <trkpt lat="46.61783" lon="6.15111">
        <ele>1262.6</ele>
        <time>2022-08-02T09:28:19Z</time>
      </trkpt>
      <trkpt lat="46.6177" lon="6.15111">
        <ele>1262.6</ele>
        <time>2022-08-02T09:28:22Z</time>
      </trkpt>
      <trkpt lat="46.61759" lon="6.15112">
        <ele>1262.6</ele>
        <time>2022-08-02T09:28:24Z</time>
      </trkpt>
      <trkpt lat="46.6175" lon="6.15116">
        <ele>1262.5</ele>
        <time>2022-08-02T09:28:26Z</time>
      </trkpt>
      <trkpt lat="46.61742" lon="6.15121">
        <ele>1262.5</ele>
        <time>2022-08-02T09:28:28Z</time>
      </trkpt>
      <trkpt lat="46.61731" lon="6.15128">
        <ele>1262.4</ele>
        <time>2022-08-02T09:28:31Z</time>
      </trkpt>
      <trkpt lat="46.61723" lon="6.15138">
        <ele>1262.5</ele>
        <time>2022-08-02T09:28:35Z</time>
      </trkpt>
      <trkpt lat="46.61715" lon="6.15148">
        <ele>1262.7</ele>
        <time>2022-08-02T09:28:39Z</time>
      </trkpt>
      <trkpt lat="46.61707" lon="6.15156">
        <ele>1263</ele>
        <time>2022-08-02T09:28:43Z</time>
      </trkpt>
      <trkpt lat="46.617" lon="6.15166">
        <ele>1263.5</ele>
        <time>2022-08-02T09:28:47Z</time>
      </trkpt>
      <trkpt lat="46.61691" lon="6.15175">
        <ele>1264</ele>
        <time>2022-08-02T09:28:51Z</time>
      </trkpt>
      <trkpt lat="46.61682" lon="6.15183">
        <ele>1264.7</ele>
        <time>2022-08-02T09:28:55Z</time>
      </trkpt>
      <trkpt lat="46.61673" lon="6.1519">
        <ele>1265.4</ele>
        <time>2022-08-02T09:28:59Z</time>
      </trkpt>
      <trkpt lat="46.61664" lon="6.152">
        <ele>1266.3</ele>
        <time>2022-08-02T09:29:04Z</time>
      </trkpt>
      <trkpt lat="46.61656" lon="6.1521">
        <ele>1267.1</ele>
        <time>2022-08-02T09:29:09Z</time>
      </trkpt>
      <trkpt lat="46.61647" lon="6.1522">
        <ele>1267.6</ele>
        <time>2022-08-02T09:29:13Z</time>
      </trkpt>
      <trkpt lat="46.61639" lon="6.15229">
        <ele>1268</ele>
        <time>2022-08-02T09:29:16Z</time>
      </trkpt>
      <trkpt lat="46.61631" lon="6.1524">
        <ele>1268.3</ele>
        <time>2022-08-02T09:29:20Z</time>
      </trkpt>
      <trkpt lat="46.61624" lon="6.15249">
        <ele>1268.6</ele>
        <time>2022-08-02T09:29:23Z</time>
      </trkpt>
      <trkpt lat="46.61618" lon="6.15259">
        <ele>1268.7</ele>
        <time>2022-08-02T09:29:25Z</time>
      </trkpt>
      <trkpt lat="46.61613" lon="6.15275">
        <ele>1268.9</ele>
        <time>2022-08-02T09:29:28Z</time>
      </trkpt>
      <trkpt lat="46.6161" lon="6.15291">
        <ele>1269.1</ele>
        <time>2022-08-02T09:29:31Z</time>
      </trkpt>
      <trkpt lat="46.61605" lon="6.15305">
        <ele>1269.2</ele>
        <time>2022-08-02T09:29:34Z</time>
      </trkpt>
      <trkpt lat="46.61596" lon="6.15313">
        <ele>1269.3</ele>
        <time>2022-08-02T09:29:37Z</time>
      </trkpt>
      <trkpt lat="46.61588" lon="6.15305">
        <ele>1269.4</ele>
        <time>2022-08-02T09:29:41Z</time>
      </trkpt>
      <trkpt lat="46.61582" lon="6.15293">
        <ele>1269.5</ele>
        <time>2022-08-02T09:29:44Z</time>
      </trkpt>
      <trkpt lat="46.61575" lon="6.15284">
        <ele>1269.6</ele>
        <time>2022-08-02T09:29:47Z</time>
      </trkpt>
      <trkpt lat="46.61567" lon="6.15272">
        <ele>1270</ele>
        <time>2022-08-02T09:29:52Z</time>
      </trkpt>
      <trkpt lat="46.61561" lon="6.15261">
        <ele>1270.5</ele>
        <time>2022-08-02T09:29:56Z</time>
      </trkpt>
      <trkpt lat="46.61556" lon="6.15248">
        <ele>1271</ele>
        <time>2022-08-02T09:30:00Z</time>
      </trkpt>
      <trkpt lat="46.61549" lon="6.15236">
        <ele>1271.4</ele>
        <time>2022-08-02T09:30:04Z</time>
      </trkpt>
      <trkpt lat="46.61543" lon="6.15225">
        <ele>1271.9</ele>
        <time>2022-08-02T09:30:08Z</time>
      </trkpt>
      <trkpt lat="46.61534" lon="6.15215">
        <ele>1272.4</ele>
        <time>2022-08-02T09:30:12Z</time>
      </trkpt>
      <trkpt lat="46.61526" lon="6.15208">
        <ele>1272.8</ele>
        <time>2022-08-02T09:30:15Z</time>
      </trkpt>
      <trkpt lat="46.61519" lon="6.15196">
        <ele>1273.6</ele>
        <time>2022-08-02T09:30:20Z</time>
      </trkpt>
      <trkpt lat="46.61512" lon="6.15185">
        <ele>1274</ele>
        <time>2022-08-02T09:30:24Z</time>
      </trkpt>
      <trkpt lat="46.61505" lon="6.15176">
        <ele>1274.4</ele>
        <time>2022-08-02T09:30:27Z</time>
      </trkpt>
      <trkpt lat="46.61501" lon="6.15164">
        <ele>1274.9</ele>
        <time>2022-08-02T09:30:32Z</time>
      </trkpt>
      <trkpt lat="46.6149" lon="6.15155">
        <ele>1275</ele>
        <time>2022-08-02T09:33:27Z</time>
      </trkpt>
      <trkpt lat="46.6148" lon="6.15149">
        <ele>1275</ele>
        <time>2022-08-02T09:33:29Z</time>
      </trkpt>
      <trkpt lat="46.61471" lon="6.15142">
        <ele>1274.9</ele>
        <time>2022-08-02T09:33:31Z</time>
      </trkpt>
      <trkpt lat="46.61458" lon="6.15137">
        <ele>1274.7</ele>
        <time>2022-08-02T09:33:34Z</time>
      </trkpt>
      <trkpt lat="46.61447" lon="6.1513">
        <ele>1274.4</ele>
        <time>2022-08-02T09:33:37Z</time>
      </trkpt>
      <trkpt lat="46.61437" lon="6.15124">
        <ele>1274.1</ele>
        <time>2022-08-02T09:33:39Z</time>
      </trkpt>
      <trkpt lat="46.61427" lon="6.15118">
        <ele>1273.8</ele>
        <time>2022-08-02T09:33:41Z</time>
      </trkpt>
      <trkpt lat="46.61418" lon="6.15107">
        <ele>1273.4</ele>
        <time>2022-08-02T09:33:43Z</time>
      </trkpt>
      <trkpt lat="46.61411" lon="6.15096">
        <ele>1272.9</ele>
        <time>2022-08-02T09:33:45Z</time>
      </trkpt>
      <trkpt lat="46.61404" lon="6.15087">
        <ele>1272.3</ele>
        <time>2022-08-02T09:33:47Z</time>
      </trkpt>
      <trkpt lat="46.61397" lon="6.15077">
        <ele>1271.8</ele>
        <time>2022-08-02T09:33:49Z</time>
      </trkpt>
      <trkpt lat="46.61387" lon="6.15066">
        <ele>1271.3</ele>
        <time>2022-08-02T09:33:51Z</time>
      </trkpt>
      <trkpt lat="46.61376" lon="6.15058">
        <ele>1270.9</ele>
        <time>2022-08-02T09:33:53Z</time>
      </trkpt>
      <trkpt lat="46.61366" lon="6.15054">
        <ele>1270.3</ele>
        <time>2022-08-02T09:33:55Z</time>
      </trkpt>
      <trkpt lat="46.61354" lon="6.15051">
        <ele>1269.6</ele>
        <time>2022-08-02T09:33:58Z</time>
      </trkpt>
      <trkpt lat="46.61343" lon="6.15051">
        <ele>1269</ele>
        <time>2022-08-02T09:34:01Z</time>
      </trkpt>
      <trkpt lat="46.6133" lon="6.15052">
        <ele>1268.5</ele>
        <time>2022-08-02T09:34:04Z</time>
      </trkpt>
      <trkpt lat="46.61319" lon="6.15051">
        <ele>1268.3</ele>
        <time>2022-08-02T09:34:07Z</time>
      </trkpt>
      <trkpt lat="46.61307" lon="6.1505">
        <ele>1268.1</ele>
        <time>2022-08-02T09:34:10Z</time>
      </trkpt>
      <trkpt lat="46.61298" lon="6.1505">
        <ele>1267.9</ele>
        <time>2022-08-02T09:34:13Z</time>
      </trkpt>
      <trkpt lat="46.61286" lon="6.15054">
        <ele>1267.7</ele>
        <time>2022-08-02T09:34:16Z</time>
      </trkpt>
      <trkpt lat="46.61276" lon="6.15057">
        <ele>1267.6</ele>
        <time>2022-08-02T09:34:19Z</time>
      </trkpt>
      <trkpt lat="46.61265" lon="6.1506">
        <ele>1267.5</ele>
        <time>2022-08-02T09:34:23Z</time>
      </trkpt>
      <trkpt lat="46.61254" lon="6.1506">
        <ele>1267.3</ele>
        <time>2022-08-02T09:34:27Z</time>
      </trkpt>
      <trkpt lat="46.61244" lon="6.15054">
        <ele>1267.3</ele>
        <time>2022-08-02T09:34:30Z</time>
      </trkpt>
      <trkpt lat="46.61235" lon="6.15046">
        <ele>1267.2</ele>
        <time>2022-08-02T09:34:33Z</time>
      </trkpt>
      <trkpt lat="46.61225" lon="6.15037">
        <ele>1267.2</ele>
        <time>2022-08-02T09:34:36Z</time>
      </trkpt>
      <trkpt lat="46.61216" lon="6.1503">
        <ele>1267.1</ele>
        <time>2022-08-02T09:34:39Z</time>
      </trkpt>
      <trkpt lat="46.61209" lon="6.15018">
        <ele>1267</ele>
        <time>2022-08-02T09:34:43Z</time>
      </trkpt>
      <trkpt lat="46.61202" lon="6.15006">
        <ele>1266.9</ele>
        <time>2022-08-02T09:34:47Z</time>
      </trkpt>
      <trkpt lat="46.61195" lon="6.14996">
        <ele>1266.8</ele>
        <time>2022-08-02T09:34:50Z</time>
      </trkpt>
      <trkpt lat="46.61188" lon="6.14987">
        <ele>1266.8</ele>
        <time>2022-08-02T09:34:53Z</time>
      </trkpt>
      <trkpt lat="46.61179" lon="6.14974">
        <ele>1266.7</ele>
        <time>2022-08-02T09:34:57Z</time>
      </trkpt>
      <trkpt lat="46.61173" lon="6.14962">
        <ele>1266.6</ele>
        <time>2022-08-02T09:35:00Z</time>
      </trkpt>
      <trkpt lat="46.61165" lon="6.1495">
        <ele>1266.3</ele>
        <time>2022-08-02T09:35:03Z</time>
      </trkpt>
      <trkpt lat="46.61159" lon="6.14938">
        <ele>1266.1</ele>
        <time>2022-08-02T09:35:06Z</time>
      </trkpt>
      <trkpt lat="46.61152" lon="6.14923">
        <ele>1265.4</ele>
        <time>2022-08-02T09:35:09Z</time>
      </trkpt>
      <trkpt lat="46.61146" lon="6.14912">
        <ele>1265.1</ele>
        <time>2022-08-02T09:35:11Z</time>
      </trkpt>
      <trkpt lat="46.6114" lon="6.14901">
        <ele>1264.7</ele>
        <time>2022-08-02T09:35:13Z</time>
      </trkpt>
      <trkpt lat="46.61134" lon="6.14888">
        <ele>1264.2</ele>
        <time>2022-08-02T09:35:15Z</time>
      </trkpt>
      <trkpt lat="46.61126" lon="6.14876">
        <ele>1263.8</ele>
        <time>2022-08-02T09:35:17Z</time>
      </trkpt>
      <trkpt lat="46.61117" lon="6.14867">
        <ele>1263.3</ele>
        <time>2022-08-02T09:35:19Z</time>
      </trkpt>
      <trkpt lat="46.61107" lon="6.14858">
        <ele>1262.9</ele>
        <time>2022-08-02T09:35:21Z</time>
      </trkpt>
      <trkpt lat="46.611" lon="6.14849">
        <ele>1262.4</ele>
        <time>2022-08-02T09:35:23Z</time>
      </trkpt>
      <trkpt lat="46.61091" lon="6.1484">
        <ele>1262</ele>
        <time>2022-08-02T09:35:25Z</time>
      </trkpt>
      <trkpt lat="46.61082" lon="6.14828">
        <ele>1261.6</ele>
        <time>2022-08-02T09:35:27Z</time>
      </trkpt>
      <trkpt lat="46.61076" lon="6.14818">
        <ele>1261.3</ele>
        <time>2022-08-02T09:35:29Z</time>
      </trkpt>
      <trkpt lat="46.61069" lon="6.14808">
        <ele>1261</ele>
        <time>2022-08-02T09:35:31Z</time>
      </trkpt>
      <trkpt lat="46.61063" lon="6.14798">
        <ele>1260.7</ele>
        <time>2022-08-02T09:35:33Z</time>
      </trkpt>
      <trkpt lat="46.61053" lon="6.14785">
        <ele>1260.4</ele>
        <time>2022-08-02T09:35:36Z</time>
      </trkpt>
      <trkpt lat="46.61044" lon="6.14772">
        <ele>1260.1</ele>
        <time>2022-08-02T09:35:39Z</time>
      </trkpt>
      <trkpt lat="46.61036" lon="6.14757">
        <ele>1259.8</ele>
        <time>2022-08-02T09:35:42Z</time>
      </trkpt>
      <trkpt lat="46.61027" lon="6.14745">
        <ele>1259.8</ele>
        <time>2022-08-02T09:35:45Z</time>
      </trkpt>
      <trkpt lat="46.61021" lon="6.14732">
        <ele>1259.7</ele>
        <time>2022-08-02T09:35:48Z</time>
      </trkpt>
      <trkpt lat="46.61014" lon="6.14723">
        <ele>1259.6</ele>
        <time>2022-08-02T09:35:54Z</time>
      </trkpt>
      <trkpt lat="46.61006" lon="6.14718">
        <ele>1259</ele>
        <time>2022-08-02T09:36:53Z</time>
      </trkpt>
      <trkpt lat="46.60999" lon="6.14705">
        <ele>1259.2</ele>
        <time>2022-08-02T09:36:58Z</time>
      </trkpt>
      <trkpt lat="46.60993" lon="6.14695">
        <ele>1259.5</ele>
        <time>2022-08-02T09:37:02Z</time>
      </trkpt>
      <trkpt lat="46.60985" lon="6.14684">
        <ele>1260</ele>
        <time>2022-08-02T09:37:06Z</time>
      </trkpt>
      <trkpt lat="46.60978" lon="6.14672">
        <ele>1260.4</ele>
        <time>2022-08-02T09:37:10Z</time>
      </trkpt>
      <trkpt lat="46.60968" lon="6.14662">
        <ele>1260.7</ele>
        <time>2022-08-02T09:37:14Z</time>
      </trkpt>
      <trkpt lat="46.6096" lon="6.14651">
        <ele>1261.2</ele>
        <time>2022-08-02T09:37:18Z</time>
      </trkpt>
      <trkpt lat="46.60952" lon="6.14645">
        <ele>1261.5</ele>
        <time>2022-08-02T09:37:21Z</time>
      </trkpt>
      <trkpt lat="46.60943" lon="6.1464">
        <ele>1261.6</ele>
        <time>2022-08-02T09:37:23Z</time>
      </trkpt>
      <trkpt lat="46.60932" lon="6.14635">
        <ele>1262.1</ele>
        <time>2022-08-02T09:37:27Z</time>
      </trkpt>
      <trkpt lat="46.60923" lon="6.1463">
        <ele>1262.5</ele>
        <time>2022-08-02T09:37:31Z</time>
      </trkpt>
      <trkpt lat="46.60912" lon="6.14631">
        <ele>1263</ele>
        <time>2022-08-02T09:37:35Z</time>
      </trkpt>
      <trkpt lat="46.60901" lon="6.14635">
        <ele>1263.4</ele>
        <time>2022-08-02T09:37:39Z</time>
      </trkpt>
      <trkpt lat="46.60891" lon="6.14636">
        <ele>1264</ele>
        <time>2022-08-02T09:37:43Z</time>
      </trkpt>
      <trkpt lat="46.60882" lon="6.14634">
        <ele>1264.8</ele>
        <time>2022-08-02T09:37:48Z</time>
      </trkpt>
      <trkpt lat="46.60873" lon="6.14627">
        <ele>1266.7</ele>
        <time>2022-08-02T09:37:57Z</time>
      </trkpt>
      <trkpt lat="46.60864" lon="6.1462">
        <ele>1267.8</ele>
        <time>2022-08-02T09:38:03Z</time>
      </trkpt>
      <trkpt lat="46.60857" lon="6.14613">
        <ele>1269.3</ele>
        <time>2022-08-02T09:38:09Z</time>
      </trkpt>
      <trkpt lat="46.60849" lon="6.14605">
        <ele>1271</ele>
        <time>2022-08-02T09:38:16Z</time>
      </trkpt>
      <trkpt lat="46.60842" lon="6.14595">
        <ele>1272.5</ele>
        <time>2022-08-02T09:38:22Z</time>
      </trkpt>
      <trkpt lat="46.60834" lon="6.14586">
        <ele>1273.6</ele>
        <time>2022-08-02T09:38:27Z</time>
      </trkpt>
      <trkpt lat="46.60828" lon="6.14575">
        <ele>1274.5</ele>
        <time>2022-08-02T09:38:32Z</time>
      </trkpt>
      <trkpt lat="46.60822" lon="6.14561">
        <ele>1275.2</ele>
        <time>2022-08-02T09:38:36Z</time>
      </trkpt>
      <trkpt lat="46.60816" lon="6.14546">
        <ele>1275.7</ele>
        <time>2022-08-02T09:38:40Z</time>
      </trkpt>
      <trkpt lat="46.6081" lon="6.14533">
        <ele>1276.1</ele>
        <time>2022-08-02T09:38:44Z</time>
      </trkpt>
      <trkpt lat="46.60803" lon="6.1452">
        <ele>1276.5</ele>
        <time>2022-08-02T09:38:48Z</time>
      </trkpt>
      <trkpt lat="46.60795" lon="6.1451">
        <ele>1276.8</ele>
        <time>2022-08-02T09:38:51Z</time>
      </trkpt>
      <trkpt lat="46.60787" lon="6.14499">
        <ele>1277</ele>
        <time>2022-08-02T09:38:54Z</time>
      </trkpt>
      <trkpt lat="46.60777" lon="6.14489">
        <ele>1277.4</ele>
        <time>2022-08-02T09:38:58Z</time>
      </trkpt>
      <trkpt lat="46.60769" lon="6.14482">
        <ele>1277.9</ele>
        <time>2022-08-02T09:39:01Z</time>
      </trkpt>
      <trkpt lat="46.6076" lon="6.14475">
        <ele>1278.6</ele>
        <time>2022-08-02T09:39:05Z</time>
      </trkpt>
      <trkpt lat="46.6075" lon="6.14466">
        <ele>1279.2</ele>
        <time>2022-08-02T09:39:09Z</time>
      </trkpt>
      <trkpt lat="46.60744" lon="6.14454">
        <ele>1279.6</ele>
        <time>2022-08-02T09:39:12Z</time>
      </trkpt>
      <trkpt lat="46.60739" lon="6.14442">
        <ele>1280</ele>
        <time>2022-08-02T09:39:15Z</time>
      </trkpt>
      <trkpt lat="46.60731" lon="6.14428">
        <ele>1280.5</ele>
        <time>2022-08-02T09:39:19Z</time>
      </trkpt>
      <trkpt lat="46.60724" lon="6.14416">
        <ele>1281</ele>
        <time>2022-08-02T09:39:23Z</time>
      </trkpt>
      <trkpt lat="46.60715" lon="6.14406">
        <ele>1281.5</ele>
        <time>2022-08-02T09:39:27Z</time>
      </trkpt>
      <trkpt lat="46.60707" lon="6.14394">
        <ele>1281.8</ele>
        <time>2022-08-02T09:39:31Z</time>
      </trkpt>
      <trkpt lat="46.607" lon="6.14385">
        <ele>1282.3</ele>
        <time>2022-08-02T09:39:36Z</time>
      </trkpt>
      <trkpt lat="46.60692" lon="6.14376">
        <ele>1283.5</ele>
        <time>2022-08-02T09:39:42Z</time>
      </trkpt>
      <trkpt lat="46.60684" lon="6.14369">
        <ele>1284.6</ele>
        <time>2022-08-02T09:39:47Z</time>
      </trkpt>
      <trkpt lat="46.60674" lon="6.14367">
        <ele>1285.2</ele>
        <time>2022-08-02T09:39:51Z</time>
      </trkpt>
      <trkpt lat="46.60664" lon="6.14363">
        <ele>1285.9</ele>
        <time>2022-08-02T09:39:55Z</time>
      </trkpt>
      <trkpt lat="46.60654" lon="6.14361">
        <ele>1286.5</ele>
        <time>2022-08-02T09:39:59Z</time>
      </trkpt>
      <trkpt lat="46.60644" lon="6.1436">
        <ele>1286.9</ele>
        <time>2022-08-02T09:40:02Z</time>
      </trkpt>
      <trkpt lat="46.60635" lon="6.1436">
        <ele>1287.5</ele>
        <time>2022-08-02T09:40:06Z</time>
      </trkpt>
      <trkpt lat="46.60625" lon="6.14355">
        <ele>1288.5</ele>
        <time>2022-08-02T09:40:12Z</time>
      </trkpt>
      <trkpt lat="46.60616" lon="6.1435">
        <ele>1289.2</ele>
        <time>2022-08-02T09:40:17Z</time>
      </trkpt>
      <trkpt lat="46.60608" lon="6.14342">
        <ele>1290.2</ele>
        <time>2022-08-02T09:40:23Z</time>
      </trkpt>
      <trkpt lat="46.60601" lon="6.14334">
        <ele>1291.2</ele>
        <time>2022-08-02T09:40:28Z</time>
      </trkpt>
      <trkpt lat="46.60598" lon="6.14321">
        <ele>1292.4</ele>
        <time>2022-08-02T09:40:34Z</time>
      </trkpt>
      <trkpt lat="46.60596" lon="6.14307">
        <ele>1293.7</ele>
        <time>2022-08-02T09:40:40Z</time>
      </trkpt>
      <trkpt lat="46.60589" lon="6.14298">
        <ele>1294.5</ele>
        <time>2022-08-02T09:40:45Z</time>
      </trkpt>
      <trkpt lat="46.6058" lon="6.14284">
        <ele>1296.2</ele>
        <time>2022-08-02T09:41:13Z</time>
      </trkpt>
      <trkpt lat="46.6057" lon="6.14274">
        <ele>1296.3</ele>
        <time>2022-08-02T09:41:16Z</time>
      </trkpt>
      <trkpt lat="46.60562" lon="6.14263">
        <ele>1296.3</ele>
        <time>2022-08-02T09:41:19Z</time>
      </trkpt>
      <trkpt lat="46.60554" lon="6.14252">
        <ele>1296.4</ele>
        <time>2022-08-02T09:41:22Z</time>
      </trkpt>
      <trkpt lat="46.60549" lon="6.14242">
        <ele>1296.5</ele>
        <time>2022-08-02T09:41:25Z</time>
      </trkpt>
      <trkpt lat="46.60544" lon="6.1423">
        <ele>1296.6</ele>
        <time>2022-08-02T09:41:28Z</time>
      </trkpt>
      <trkpt lat="46.60541" lon="6.14217">
        <ele>1296.7</ele>
        <time>2022-08-02T09:41:31Z</time>
      </trkpt>
      <trkpt lat="46.6054" lon="6.14199">
        <ele>1296.8</ele>
        <time>2022-08-02T09:41:35Z</time>
      </trkpt>
      <trkpt lat="46.60539" lon="6.14184">
        <ele>1296.8</ele>
        <time>2022-08-02T09:41:37Z</time>
      </trkpt>
      <trkpt lat="46.60537" lon="6.14168">
        <ele>1296.5</ele>
        <time>2022-08-02T09:41:39Z</time>
      </trkpt>
      <trkpt lat="46.60533" lon="6.1415">
        <ele>1296.2</ele>
        <time>2022-08-02T09:41:41Z</time>
      </trkpt>
      <trkpt lat="46.60527" lon="6.14127">
        <ele>1295.7</ele>
        <time>2022-08-02T09:41:43Z</time>
      </trkpt>
      <trkpt lat="46.6052" lon="6.14109">
        <ele>1295.3</ele>
        <time>2022-08-02T09:41:45Z</time>
      </trkpt>
      <trkpt lat="46.60514" lon="6.14099">
        <ele>1294.9</ele>
        <time>2022-08-02T09:41:47Z</time>
      </trkpt>
      <trkpt lat="46.60505" lon="6.14093">
        <ele>1294.4</ele>
        <time>2022-08-02T09:41:51Z</time>
      </trkpt>
      <trkpt lat="46.60493" lon="6.14093">
        <ele>1294.4</ele>
        <time>2022-08-02T09:41:55Z</time>
      </trkpt>
      <trkpt lat="46.60483" lon="6.14096">
        <ele>1294.6</ele>
        <time>2022-08-02T09:41:58Z</time>
      </trkpt>
      <trkpt lat="46.60473" lon="6.14096">
        <ele>1295</ele>
        <time>2022-08-02T09:42:02Z</time>
      </trkpt>
      <trkpt lat="46.60463" lon="6.141">
        <ele>1295.5</ele>
        <time>2022-08-02T09:42:06Z</time>
      </trkpt>
      <trkpt lat="46.60453" lon="6.1411">
        <ele>1296.1</ele>
        <time>2022-08-02T09:42:10Z</time>
      </trkpt>
      <trkpt lat="46.60443" lon="6.14121">
        <ele>1296.4</ele>
        <time>2022-08-02T09:42:13Z</time>
      </trkpt>
      <trkpt lat="46.6043" lon="6.14126">
        <ele>1296.7</ele>
        <time>2022-08-02T09:42:15Z</time>
      </trkpt>
      <trkpt lat="46.60418" lon="6.14131">
        <ele>1297</ele>
        <time>2022-08-02T09:42:18Z</time>
      </trkpt>
      <trkpt lat="46.60409" lon="6.14132">
        <ele>1297.2</ele>
        <time>2022-08-02T09:42:21Z</time>
      </trkpt>
      <trkpt lat="46.60399" lon="6.14133">
        <ele>1297.9</ele>
        <time>2022-08-02T09:42:26Z</time>
      </trkpt>
      <trkpt lat="46.6039" lon="6.14137">
        <ele>1298.7</ele>
        <time>2022-08-02T09:42:30Z</time>
      </trkpt>
      <trkpt lat="46.60381" lon="6.1414">
        <ele>1299.5</ele>
        <time>2022-08-02T09:42:34Z</time>
      </trkpt>
      <trkpt lat="46.60371" lon="6.14142">
        <ele>1300.5</ele>
        <time>2022-08-02T09:42:38Z</time>
      </trkpt>
      <trkpt lat="46.60361" lon="6.1414">
        <ele>1301.7</ele>
        <time>2022-08-02T09:42:43Z</time>
      </trkpt>
      <trkpt lat="46.60349" lon="6.1414">
        <ele>1302.6</ele>
        <time>2022-08-02T09:42:47Z</time>
      </trkpt>
      <trkpt lat="46.60339" lon="6.14138">
        <ele>1303.4</ele>
        <time>2022-08-02T09:42:51Z</time>
      </trkpt>
      <trkpt lat="46.6033" lon="6.14131">
        <ele>1304.7</ele>
        <time>2022-08-02T09:42:57Z</time>
      </trkpt>
      <trkpt lat="46.60322" lon="6.14123">
        <ele>1305.7</ele>
        <time>2022-08-02T09:43:02Z</time>
      </trkpt>
      <trkpt lat="46.60313" lon="6.14115">
        <ele>1306.6</ele>
        <time>2022-08-02T09:43:08Z</time>
      </trkpt>
      <trkpt lat="46.60302" lon="6.14115">
        <ele>1307.3</ele>
        <time>2022-08-02T09:43:12Z</time>
      </trkpt>
      <trkpt lat="46.60292" lon="6.14118">
        <ele>1307.7</ele>
        <time>2022-08-02T09:43:15Z</time>
      </trkpt>
      <trkpt lat="46.6028" lon="6.14119">
        <ele>1308</ele>
        <time>2022-08-02T09:43:17Z</time>
      </trkpt>
      <trkpt lat="46.6027" lon="6.14121">
        <ele>1308.3</ele>
        <time>2022-08-02T09:43:19Z</time>
      </trkpt>
      <trkpt lat="46.6026" lon="6.14125">
        <ele>1308.8</ele>
        <time>2022-08-02T09:43:22Z</time>
      </trkpt>
      <trkpt lat="46.6025" lon="6.14126">
        <ele>1309.1</ele>
        <time>2022-08-02T09:43:25Z</time>
      </trkpt>
      <trkpt lat="46.60239" lon="6.14127">
        <ele>1309.4</ele>
        <time>2022-08-02T09:43:28Z</time>
      </trkpt>
      <trkpt lat="46.60227" lon="6.14125">
        <ele>1309.6</ele>
        <time>2022-08-02T09:43:32Z</time>
      </trkpt>
      <trkpt lat="46.60219" lon="6.14117">
        <ele>1309.6</ele>
        <time>2022-08-02T09:43:38Z</time>
      </trkpt>
      <trkpt lat="46.6021" lon="6.1411">
        <ele>1309.5</ele>
        <time>2022-08-02T09:45:29Z</time>
      </trkpt>
      <trkpt lat="46.60209" lon="6.14096">
        <ele>1309.5</ele>
        <time>2022-08-02T09:45:31Z</time>
      </trkpt>
      <trkpt lat="46.60208" lon="6.14079">
        <ele>1309.4</ele>
        <time>2022-08-02T09:45:33Z</time>
      </trkpt>
      <trkpt lat="46.60207" lon="6.1406">
        <ele>1309.3</ele>
        <time>2022-08-02T09:45:35Z</time>
      </trkpt>
      <trkpt lat="46.60203" lon="6.14046">
        <ele>1309.1</ele>
        <time>2022-08-02T09:45:37Z</time>
      </trkpt>
      <trkpt lat="46.60198" lon="6.14033">
        <ele>1308.9</ele>
        <time>2022-08-02T09:45:39Z</time>
      </trkpt>
      <trkpt lat="46.60194" lon="6.14017">
        <ele>1308.7</ele>
        <time>2022-08-02T09:45:42Z</time>
      </trkpt>
      <trkpt lat="46.60194" lon="6.14003">
        <ele>1308.6</ele>
        <time>2022-08-02T09:45:46Z</time>
      </trkpt>
      <trkpt lat="46.60194" lon="6.13989">
        <ele>1308.7</ele>
        <time>2022-08-02T09:45:50Z</time>
      </trkpt>
      <trkpt lat="46.60195" lon="6.13973">
        <ele>1309.2</ele>
        <time>2022-08-02T09:45:55Z</time>
      </trkpt>
      <trkpt lat="46.60195" lon="6.13959">
        <ele>1309.6</ele>
        <time>2022-08-02T09:45:59Z</time>
      </trkpt>
      <trkpt lat="46.60198" lon="6.13945">
        <ele>1309.9</ele>
        <time>2022-08-02T09:46:03Z</time>
      </trkpt>
      <trkpt lat="46.60196" lon="6.13932">
        <ele>1310.1</ele>
        <time>2022-08-02T09:46:06Z</time>
      </trkpt>
      <trkpt lat="46.60195" lon="6.13914">
        <ele>1310.3</ele>
        <time>2022-08-02T09:46:09Z</time>
      </trkpt>
      <trkpt lat="46.60198" lon="6.13896">
        <ele>1310.4</ele>
        <time>2022-08-02T09:46:12Z</time>
      </trkpt>
      <trkpt lat="46.602" lon="6.13882">
        <ele>1310.4</ele>
        <time>2022-08-02T09:46:14Z</time>
      </trkpt>
      <trkpt lat="46.602" lon="6.13868">
        <ele>1310.4</ele>
        <time>2022-08-02T09:46:16Z</time>
      </trkpt>
      <trkpt lat="46.60199" lon="6.13854">
        <ele>1310.3</ele>
        <time>2022-08-02T09:46:18Z</time>
      </trkpt>
      <trkpt lat="46.60195" lon="6.13841">
        <ele>1310.3</ele>
        <time>2022-08-02T09:46:20Z</time>
      </trkpt>
      <trkpt lat="46.60193" lon="6.13826">
        <ele>1310.2</ele>
        <time>2022-08-02T09:46:22Z</time>
      </trkpt>
      <trkpt lat="46.6019" lon="6.13808">
        <ele>1310</ele>
        <time>2022-08-02T09:46:25Z</time>
      </trkpt>
      <trkpt lat="46.60191" lon="6.13794">
        <ele>1309.8</ele>
        <time>2022-08-02T09:46:29Z</time>
      </trkpt>
      <trkpt lat="46.60189" lon="6.13776">
        <ele>1309.8</ele>
        <time>2022-08-02T09:46:33Z</time>
      </trkpt>
      <trkpt lat="46.60188" lon="6.13763">
        <ele>1309.8</ele>
        <time>2022-08-02T09:46:36Z</time>
      </trkpt>
      <trkpt lat="46.60184" lon="6.1375">
        <ele>1309.9</ele>
        <time>2022-08-02T09:46:40Z</time>
      </trkpt>
      <trkpt lat="46.6018" lon="6.13737">
        <ele>1310.1</ele>
        <time>2022-08-02T09:46:43Z</time>
      </trkpt>
      <trkpt lat="46.60174" lon="6.13727">
        <ele>1310.2</ele>
        <time>2022-08-02T09:46:46Z</time>
      </trkpt>
      <trkpt lat="46.60167" lon="6.13715">
        <ele>1310.3</ele>
        <time>2022-08-02T09:46:49Z</time>
      </trkpt>
      <trkpt lat="46.60161" lon="6.13702">
        <ele>1310.4</ele>
        <time>2022-08-02T09:46:53Z</time>
      </trkpt>
      <trkpt lat="46.60151" lon="6.13698">
        <ele>1310.5</ele>
        <time>2022-08-02T09:47:00Z</time>
      </trkpt>
      <trkpt lat="46.60137" lon="6.13699">
        <ele>1310.5</ele>
        <time>2022-08-02T09:47:03Z</time>
      </trkpt>
      <trkpt lat="46.60127" lon="6.13701">
        <ele>1310.4</ele>
        <time>2022-08-02T09:47:05Z</time>
      </trkpt>
      <trkpt lat="46.60118" lon="6.13703">
        <ele>1310.4</ele>
        <time>2022-08-02T09:47:08Z</time>
      </trkpt>
      <trkpt lat="46.60108" lon="6.13708">
        <ele>1310.3</ele>
        <time>2022-08-02T09:47:12Z</time>
      </trkpt>
      <trkpt lat="46.60099" lon="6.13714">
        <ele>1310</ele>
        <time>2022-08-02T09:47:15Z</time>
      </trkpt>
      <trkpt lat="46.60088" lon="6.13713">
        <ele>1309.5</ele>
        <time>2022-08-02T09:47:18Z</time>
      </trkpt>
      <trkpt lat="46.60078" lon="6.13706">
        <ele>1309</ele>
        <time>2022-08-02T09:47:21Z</time>
      </trkpt>
      <trkpt lat="46.6007" lon="6.13698">
        <ele>1308.7</ele>
        <time>2022-08-02T09:47:25Z</time>
      </trkpt>
      <trkpt lat="46.60063" lon="6.13687">
        <ele>1308.5</ele>
        <time>2022-08-02T09:47:29Z</time>
      </trkpt>
      <trkpt lat="46.60053" lon="6.13677">
        <ele>1308.3</ele>
        <time>2022-08-02T09:47:33Z</time>
      </trkpt>
      <trkpt lat="46.60046" lon="6.13668">
        <ele>1308.2</ele>
        <time>2022-08-02T09:47:36Z</time>
      </trkpt>
      <trkpt lat="46.60042" lon="6.13654">
        <ele>1307.9</ele>
        <time>2022-08-02T09:47:39Z</time>
      </trkpt>
      <trkpt lat="46.60043" lon="6.13636">
        <ele>1307.7</ele>
        <time>2022-08-02T09:47:42Z</time>
      </trkpt>
      <trkpt lat="46.60042" lon="6.13622">
        <ele>1307.5</ele>
        <time>2022-08-02T09:47:45Z</time>
      </trkpt>
      <trkpt lat="46.60044" lon="6.13606">
        <ele>1307.9</ele>
        <time>2022-08-02T09:47:50Z</time>
      </trkpt>
      <trkpt lat="46.60048" lon="6.13594">
        <ele>1308.1</ele>
        <time>2022-08-02T09:47:53Z</time>
      </trkpt>
      <trkpt lat="46.60053" lon="6.1358">
        <ele>1308.2</ele>
        <time>2022-08-02T09:47:57Z</time>
      </trkpt>
      <trkpt lat="46.60057" lon="6.13566">
        <ele>1308.4</ele>
        <time>2022-08-02T09:48:01Z</time>
      </trkpt>
      <trkpt lat="46.60059" lon="6.13551">
        <ele>1308.6</ele>
        <time>2022-08-02T09:48:05Z</time>
      </trkpt>
      <trkpt lat="46.60061" lon="6.13536">
        <ele>1308.5</ele>
        <time>2022-08-02T09:48:08Z</time>
      </trkpt>
      <trkpt lat="46.60058" lon="6.1352">
        <ele>1308.2</ele>
        <time>2022-08-02T09:48:12Z</time>
      </trkpt>
      <trkpt lat="46.60054" lon="6.13508">
        <ele>1307.5</ele>
        <time>2022-08-02T09:48:19Z</time>
      </trkpt>
      <trkpt lat="46.60049" lon="6.13497">
        <ele>1307.5</ele>
        <time>2022-08-02T09:48:26Z</time>
      </trkpt>
      <trkpt lat="46.60041" lon="6.13488">
        <ele>1307.8</ele>
        <time>2022-08-02T09:48:32Z</time>
      </trkpt>
      <trkpt lat="46.60032" lon="6.13484">
        <ele>1308.8</ele>
        <time>2022-08-02T09:48:37Z</time>
      </trkpt>
      <trkpt lat="46.60022" lon="6.13488">
        <ele>1309.8</ele>
        <time>2022-08-02T09:48:42Z</time>
      </trkpt>
      <trkpt lat="46.60012" lon="6.1349">
        <ele>1310.9</ele>
        <time>2022-08-02T09:48:47Z</time>
      </trkpt>
      <trkpt lat="46.60003" lon="6.13494">
        <ele>1311.7</ele>
        <time>2022-08-02T09:48:51Z</time>
      </trkpt>
      <trkpt lat="46.59993" lon="6.13495">
        <ele>1312.5</ele>
        <time>2022-08-02T09:48:55Z</time>
      </trkpt>
      <trkpt lat="46.59983" lon="6.13494">
        <ele>1313.5</ele>
        <time>2022-08-02T09:49:00Z</time>
      </trkpt>
      <trkpt lat="46.59974" lon="6.1349">
        <ele>1314.4</ele>
        <time>2022-08-02T09:49:05Z</time>
      </trkpt>
      <trkpt lat="46.59968" lon="6.13477">
        <ele>1315.3</ele>
        <time>2022-08-02T09:49:10Z</time>
      </trkpt>
      <trkpt lat="46.59962" lon="6.13465">
        <ele>1316.1</ele>
        <time>2022-08-02T09:49:15Z</time>
      </trkpt>
      <trkpt lat="46.59956" lon="6.13454">
        <ele>1316.6</ele>
        <time>2022-08-02T09:49:19Z</time>
      </trkpt>
      <trkpt lat="46.59951" lon="6.1344">
        <ele>1317.1</ele>
        <time>2022-08-02T09:49:23Z</time>
      </trkpt>
      <trkpt lat="46.59945" lon="6.13426">
        <ele>1317.4</ele>
        <time>2022-08-02T09:49:26Z</time>
      </trkpt>
      <trkpt lat="46.59941" lon="6.13412">
        <ele>1317.6</ele>
        <time>2022-08-02T09:49:29Z</time>
      </trkpt>
      <trkpt lat="46.59939" lon="6.13399">
        <ele>1317.8</ele>
        <time>2022-08-02T09:49:32Z</time>
      </trkpt>
      <trkpt lat="46.59935" lon="6.13383">
        <ele>1317.9</ele>
        <time>2022-08-02T09:49:35Z</time>
      </trkpt>
      <trkpt lat="46.5993" lon="6.1337">
        <ele>1317.9</ele>
        <time>2022-08-02T09:49:37Z</time>
      </trkpt>
      <trkpt lat="46.59921" lon="6.13361">
        <ele>1317.9</ele>
        <time>2022-08-02T09:49:40Z</time>
      </trkpt>
      <trkpt lat="46.59911" lon="6.13364">
        <ele>1317.8</ele>
        <time>2022-08-02T09:49:43Z</time>
      </trkpt>
      <trkpt lat="46.59901" lon="6.13372">
        <ele>1317.1</ele>
        <time>2022-08-02T09:49:47Z</time>
      </trkpt>
      <trkpt lat="46.59892" lon="6.13378">
        <ele>1316.4</ele>
        <time>2022-08-02T09:49:50Z</time>
      </trkpt>
      <trkpt lat="46.5988" lon="6.13377">
        <ele>1315.7</ele>
        <time>2022-08-02T09:49:53Z</time>
      </trkpt>
      <trkpt lat="46.5987" lon="6.13365">
        <ele>1315</ele>
        <time>2022-08-02T09:49:56Z</time>
      </trkpt>
      <trkpt lat="46.59863" lon="6.13355">
        <ele>1314.4</ele>
        <time>2022-08-02T09:50:01Z</time>
      </trkpt>
      <trkpt lat="46.59856" lon="6.13344">
        <ele>1314.3</ele>
        <time>2022-08-02T09:50:06Z</time>
      </trkpt>
      <trkpt lat="46.59848" lon="6.13335">
        <ele>1314.6</ele>
        <time>2022-08-02T09:50:12Z</time>
      </trkpt>
      <trkpt lat="46.59837" lon="6.13333">
        <ele>1315</ele>
        <time>2022-08-02T09:50:17Z</time>
      </trkpt>
      <trkpt lat="46.59829" lon="6.13343">
        <ele>1315.5</ele>
        <time>2022-08-02T09:50:23Z</time>
      </trkpt>
      <trkpt lat="46.59823" lon="6.13352">
        <ele>1316.3</ele>
        <time>2022-08-02T09:50:29Z</time>
      </trkpt>
      <trkpt lat="46.59815" lon="6.13359">
        <ele>1317.4</ele>
        <time>2022-08-02T09:50:34Z</time>
      </trkpt>
      <trkpt lat="46.59805" lon="6.1336">
        <ele>1319</ele>
        <time>2022-08-02T09:50:40Z</time>
      </trkpt>
      <trkpt lat="46.59795" lon="6.13361">
        <ele>1319.8</ele>
        <time>2022-08-02T09:50:43Z</time>
      </trkpt>
      <trkpt lat="46.59783" lon="6.13359">
        <ele>1320.4</ele>
        <time>2022-08-02T09:50:47Z</time>
      </trkpt>
      <trkpt lat="46.59772" lon="6.1336">
        <ele>1320.6</ele>
        <time>2022-08-02T09:50:50Z</time>
      </trkpt>
      <trkpt lat="46.59761" lon="6.13361">
        <ele>1320.7</ele>
        <time>2022-08-02T09:50:53Z</time>
      </trkpt>
      <trkpt lat="46.59752" lon="6.1336">
        <ele>1320.7</ele>
        <time>2022-08-02T09:50:58Z</time>
      </trkpt>
      <trkpt lat="46.59742" lon="6.1336">
        <ele>1320.8</ele>
        <time>2022-08-02T09:51:04Z</time>
      </trkpt>
      <trkpt lat="46.59733" lon="6.13361">
        <ele>1321.4</ele>
        <time>2022-08-02T09:51:11Z</time>
      </trkpt>
      <trkpt lat="46.59722" lon="6.13363">
        <ele>1321.8</ele>
        <time>2022-08-02T09:51:14Z</time>
      </trkpt>
      <trkpt lat="46.59712" lon="6.13365">
        <ele>1322.6</ele>
        <time>2022-08-02T09:51:18Z</time>
      </trkpt>
      <trkpt lat="46.59702" lon="6.13369">
        <ele>1323.7</ele>
        <time>2022-08-02T09:51:23Z</time>
      </trkpt>
      <trkpt lat="46.59692" lon="6.13369">
        <ele>1325</ele>
        <time>2022-08-02T09:51:29Z</time>
      </trkpt>
      <trkpt lat="46.59683" lon="6.13363">
        <ele>1325.9</ele>
        <time>2022-08-02T09:51:34Z</time>
      </trkpt>
      <trkpt lat="46.59673" lon="6.1336">
        <ele>1326.7</ele>
        <time>2022-08-02T09:51:40Z</time>
      </trkpt>
      <trkpt lat="46.59662" lon="6.13355">
        <ele>1326.9</ele>
        <time>2022-08-02T09:51:44Z</time>
      </trkpt>
      <trkpt lat="46.59651" lon="6.13349">
        <ele>1327.1</ele>
        <time>2022-08-02T09:51:47Z</time>
      </trkpt>
      <trkpt lat="46.59639" lon="6.13347">
        <ele>1327</ele>
        <time>2022-08-02T09:51:50Z</time>
      </trkpt>
      <trkpt lat="46.59628" lon="6.13345">
        <ele>1326.8</ele>
        <time>2022-08-02T09:51:53Z</time>
      </trkpt>
      <trkpt lat="46.59616" lon="6.13341">
        <ele>1326.4</ele>
        <time>2022-08-02T09:51:56Z</time>
      </trkpt>
      <trkpt lat="46.59604" lon="6.13338">
        <ele>1326</ele>
        <time>2022-08-02T09:51:59Z</time>
      </trkpt>
      <trkpt lat="46.59594" lon="6.13339">
        <ele>1325.9</ele>
        <time>2022-08-02T09:52:02Z</time>
      </trkpt>
      <trkpt lat="46.59583" lon="6.13338">
        <ele>1325.8</ele>
        <time>2022-08-02T09:52:07Z</time>
      </trkpt>
      <trkpt lat="46.59573" lon="6.13335">
        <ele>1325.8</ele>
        <time>2022-08-02T09:52:12Z</time>
      </trkpt>
      <trkpt lat="46.59563" lon="6.13333">
        <ele>1326</ele>
        <time>2022-08-02T09:52:15Z</time>
      </trkpt>
      <trkpt lat="46.59553" lon="6.13329">
        <ele>1326.2</ele>
        <time>2022-08-02T09:52:20Z</time>
      </trkpt>
      <trkpt lat="46.59544" lon="6.13312">
        <ele>1328.8</ele>
        <time>2022-08-02T09:54:01Z</time>
      </trkpt>
      <trkpt lat="46.5954" lon="6.13296">
        <ele>1328.6</ele>
        <time>2022-08-02T09:54:04Z</time>
      </trkpt>
      <trkpt lat="46.5954" lon="6.13282">
        <ele>1328.2</ele>
        <time>2022-08-02T09:54:07Z</time>
      </trkpt>
      <trkpt lat="46.59536" lon="6.13268">
        <ele>1327.7</ele>
        <time>2022-08-02T09:54:10Z</time>
      </trkpt>
      <trkpt lat="46.59531" lon="6.13256">
        <ele>1327.2</ele>
        <time>2022-08-02T09:54:15Z</time>
      </trkpt>
      <trkpt lat="46.59526" lon="6.13243">
        <ele>1326.7</ele>
        <time>2022-08-02T09:54:22Z</time>
      </trkpt>
      <trkpt lat="46.59519" lon="6.13234">
        <ele>1326.5</ele>
        <time>2022-08-02T09:54:28Z</time>
      </trkpt>
      <trkpt lat="46.59513" lon="6.13224">
        <ele>1326.5</ele>
        <time>2022-08-02T09:54:32Z</time>
      </trkpt>
      <trkpt lat="46.59507" lon="6.1321">
        <ele>1326.6</ele>
        <time>2022-08-02T09:54:36Z</time>
      </trkpt>
      <trkpt lat="46.59501" lon="6.13199">
        <ele>1326.6</ele>
        <time>2022-08-02T09:54:39Z</time>
      </trkpt>
      <trkpt lat="46.59496" lon="6.13187">
        <ele>1326.6</ele>
        <time>2022-08-02T09:54:42Z</time>
      </trkpt>
      <trkpt lat="46.59489" lon="6.13174">
        <ele>1326.6</ele>
        <time>2022-08-02T09:54:46Z</time>
      </trkpt>
      <trkpt lat="46.59481" lon="6.13166">
        <ele>1326.2</ele>
        <time>2022-08-02T09:54:51Z</time>
      </trkpt>
      <trkpt lat="46.59474" lon="6.13158">
        <ele>1326.1</ele>
        <time>2022-08-02T09:54:56Z</time>
      </trkpt>
      <trkpt lat="46.59466" lon="6.13151">
        <ele>1326.2</ele>
        <time>2022-08-02T09:55:01Z</time>
      </trkpt>
      <trkpt lat="46.59459" lon="6.13141">
        <ele>1326.4</ele>
        <time>2022-08-02T09:55:04Z</time>
      </trkpt>
      <trkpt lat="46.59451" lon="6.13132">
        <ele>1326.6</ele>
        <time>2022-08-02T09:55:07Z</time>
      </trkpt>
      <trkpt lat="46.59442" lon="6.13123">
        <ele>1326.8</ele>
        <time>2022-08-02T09:55:10Z</time>
      </trkpt>
      <trkpt lat="46.59434" lon="6.13112">
        <ele>1327.1</ele>
        <time>2022-08-02T09:55:14Z</time>
      </trkpt>
      <trkpt lat="46.59426" lon="6.131">
        <ele>1327.3</ele>
        <time>2022-08-02T09:55:18Z</time>
      </trkpt>
      <trkpt lat="46.59419" lon="6.13087">
        <ele>1327.5</ele>
        <time>2022-08-02T09:55:22Z</time>
      </trkpt>
      <trkpt lat="46.59411" lon="6.13073">
        <ele>1327.7</ele>
        <time>2022-08-02T09:55:25Z</time>
      </trkpt>
      <trkpt lat="46.59404" lon="6.1306">
        <ele>1327.7</ele>
        <time>2022-08-02T09:55:28Z</time>
      </trkpt>
      <trkpt lat="46.59397" lon="6.13052">
        <ele>1327.8</ele>
        <time>2022-08-02T09:55:32Z</time>
      </trkpt>
      <trkpt lat="46.59389" lon="6.13043">
        <ele>1327.9</ele>
        <time>2022-08-02T09:55:35Z</time>
      </trkpt>
      <trkpt lat="46.59381" lon="6.1303">
        <ele>1328</ele>
        <time>2022-08-02T09:55:39Z</time>
      </trkpt>
      <trkpt lat="46.59374" lon="6.13018">
        <ele>1328</ele>
        <time>2022-08-02T09:55:42Z</time>
      </trkpt>
      <trkpt lat="46.59368" lon="6.13007">
        <ele>1327.9</ele>
        <time>2022-08-02T09:55:45Z</time>
      </trkpt>
      <trkpt lat="46.59362" lon="6.12997">
        <ele>1327.9</ele>
        <time>2022-08-02T09:55:48Z</time>
      </trkpt>
      <trkpt lat="46.59355" lon="6.12987">
        <ele>1327.8</ele>
        <time>2022-08-02T09:55:51Z</time>
      </trkpt>
      <trkpt lat="46.59346" lon="6.12978">
        <ele>1327.8</ele>
        <time>2022-08-02T09:55:54Z</time>
      </trkpt>
      <trkpt lat="46.59338" lon="6.1297">
        <ele>1327.8</ele>
        <time>2022-08-02T09:55:58Z</time>
      </trkpt>
      <trkpt lat="46.5933" lon="6.1296">
        <ele>1327.6</ele>
        <time>2022-08-02T09:56:02Z</time>
      </trkpt>
      <trkpt lat="46.5932" lon="6.12954">
        <ele>1327.6</ele>
        <time>2022-08-02T09:56:05Z</time>
      </trkpt>
      <trkpt lat="46.59312" lon="6.12948">
        <ele>1327.7</ele>
        <time>2022-08-02T09:56:08Z</time>
      </trkpt>
      <trkpt lat="46.59301" lon="6.12942">
        <ele>1328</ele>
        <time>2022-08-02T09:56:12Z</time>
      </trkpt>
      <trkpt lat="46.5929" lon="6.12936">
        <ele>1328.4</ele>
        <time>2022-08-02T09:56:16Z</time>
      </trkpt>
      <trkpt lat="46.59281" lon="6.12929">
        <ele>1328.7</ele>
        <time>2022-08-02T09:56:20Z</time>
      </trkpt>
      <trkpt lat="46.59272" lon="6.12923">
        <ele>1328.9</ele>
        <time>2022-08-02T09:56:25Z</time>
      </trkpt>
      <trkpt lat="46.59262" lon="6.12921">
        <ele>1328.6</ele>
        <time>2022-08-02T09:56:30Z</time>
      </trkpt>
      <trkpt lat="46.5925" lon="6.12919">
        <ele>1328.2</ele>
        <time>2022-08-02T09:56:34Z</time>
      </trkpt>
      <trkpt lat="46.59237" lon="6.12911">
        <ele>1328</ele>
        <time>2022-08-02T09:56:37Z</time>
      </trkpt>
      <trkpt lat="46.59228" lon="6.12904">
        <ele>1327.7</ele>
        <time>2022-08-02T09:56:39Z</time>
      </trkpt>
      <trkpt lat="46.59221" lon="6.12894">
        <ele>1327.4</ele>
        <time>2022-08-02T09:56:41Z</time>
      </trkpt>
      <trkpt lat="46.59213" lon="6.12882">
        <ele>1326.9</ele>
        <time>2022-08-02T09:56:45Z</time>
      </trkpt>
      <trkpt lat="46.59207" lon="6.12866">
        <ele>1326.6</ele>
        <time>2022-08-02T09:56:48Z</time>
      </trkpt>
      <trkpt lat="46.59205" lon="6.12853">
        <ele>1326.2</ele>
        <time>2022-08-02T09:56:50Z</time>
      </trkpt>
      <trkpt lat="46.59202" lon="6.12839">
        <ele>1325.8</ele>
        <time>2022-08-02T09:56:53Z</time>
      </trkpt>
      <trkpt lat="46.59196" lon="6.12829">
        <ele>1325.3</ele>
        <time>2022-08-02T09:56:57Z</time>
      </trkpt>
      <trkpt lat="46.59186" lon="6.12827">
        <ele>1324.8</ele>
        <time>2022-08-02T09:57:03Z</time>
      </trkpt>
      <trkpt lat="46.59176" lon="6.12833">
        <ele>1324.9</ele>
        <time>2022-08-02T09:57:09Z</time>
      </trkpt>
      <trkpt lat="46.59166" lon="6.12837">
        <ele>1325.1</ele>
        <time>2022-08-02T09:57:12Z</time>
      </trkpt>
      <trkpt lat="46.59156" lon="6.12839">
        <ele>1325.5</ele>
        <time>2022-08-02T09:57:16Z</time>
      </trkpt>
      <trkpt lat="46.59146" lon="6.12841">
        <ele>1325.8</ele>
        <time>2022-08-02T09:57:21Z</time>
      </trkpt>
      <trkpt lat="46.59136" lon="6.12836">
        <ele>1326</ele>
        <time>2022-08-02T09:57:25Z</time>
      </trkpt>
      <trkpt lat="46.5913" lon="6.12826">
        <ele>1326.2</ele>
        <time>2022-08-02T09:57:29Z</time>
      </trkpt>
      <trkpt lat="46.59123" lon="6.12816">
        <ele>1326.5</ele>
        <time>2022-08-02T09:57:34Z</time>
      </trkpt>
      <trkpt lat="46.59117" lon="6.12806">
        <ele>1326.6</ele>
        <time>2022-08-02T09:57:37Z</time>
      </trkpt>
      <trkpt lat="46.59114" lon="6.12788">
        <ele>1326.8</ele>
        <time>2022-08-02T09:57:42Z</time>
      </trkpt>
      <trkpt lat="46.5911" lon="6.12771">
        <ele>1326.8</ele>
        <time>2022-08-02T09:57:45Z</time>
      </trkpt>
      <trkpt lat="46.59111" lon="6.12758">
        <ele>1326.9</ele>
        <time>2022-08-02T09:57:50Z</time>
      </trkpt>
      <trkpt lat="46.59112" lon="6.12744">
        <ele>1326.9</ele>
        <time>2022-08-02T09:57:54Z</time>
      </trkpt>
      <trkpt lat="46.59115" lon="6.1273">
        <ele>1326.8</ele>
        <time>2022-08-02T09:57:57Z</time>
      </trkpt>
      <trkpt lat="46.59117" lon="6.12717">
        <ele>1326.7</ele>
        <time>2022-08-02T09:58:01Z</time>
      </trkpt>
      <trkpt lat="46.59115" lon="6.12702">
        <ele>1326.6</ele>
        <time>2022-08-02T09:58:05Z</time>
      </trkpt>
      <trkpt lat="46.5911" lon="6.12689">
        <ele>1326.5</ele>
        <time>2022-08-02T09:58:08Z</time>
      </trkpt>
      <trkpt lat="46.59102" lon="6.12677">
        <ele>1326.5</ele>
        <time>2022-08-02T09:58:12Z</time>
      </trkpt>
      <trkpt lat="46.59097" lon="6.12665">
        <ele>1326.4</ele>
        <time>2022-08-02T09:58:16Z</time>
      </trkpt>
      <trkpt lat="46.59088" lon="6.12655">
        <ele>1326.3</ele>
        <time>2022-08-02T09:58:20Z</time>
      </trkpt>
      <trkpt lat="46.59079" lon="6.12646">
        <ele>1326.2</ele>
        <time>2022-08-02T09:58:24Z</time>
      </trkpt>
      <trkpt lat="46.59072" lon="6.12635">
        <ele>1326.2</ele>
        <time>2022-08-02T09:58:28Z</time>
      </trkpt>
      <trkpt lat="46.59064" lon="6.12629">
        <ele>1326.2</ele>
        <time>2022-08-02T09:58:32Z</time>
      </trkpt>
      <trkpt lat="46.59054" lon="6.12624">
        <ele>1326.3</ele>
        <time>2022-08-02T09:58:37Z</time>
      </trkpt>
      <trkpt lat="46.59047" lon="6.12614">
        <ele>1326.6</ele>
        <time>2022-08-02T09:58:41Z</time>
      </trkpt>
      <trkpt lat="46.5904" lon="6.12603">
        <ele>1326.7</ele>
        <time>2022-08-02T09:58:46Z</time>
      </trkpt>
      <trkpt lat="46.59034" lon="6.12593">
        <ele>1326.8</ele>
        <time>2022-08-02T09:58:50Z</time>
      </trkpt>
      <trkpt lat="46.59027" lon="6.12583">
        <ele>1327</ele>
        <time>2022-08-02T09:58:55Z</time>
      </trkpt>
      <trkpt lat="46.59019" lon="6.12572">
        <ele>1327.3</ele>
        <time>2022-08-02T09:59:01Z</time>
      </trkpt>
      <trkpt lat="46.5901" lon="6.12571">
        <ele>1328.6</ele>
        <time>2022-08-02T09:59:54Z</time>
      </trkpt>
      <trkpt lat="46.59001" lon="6.1258">
        <ele>1331.2</ele>
        <time>2022-08-02T10:02:50Z</time>
      </trkpt>
      <trkpt lat="46.58992" lon="6.1259">
        <ele>1330.6</ele>
        <time>2022-08-02T10:02:56Z</time>
      </trkpt>
      <trkpt lat="46.58983" lon="6.12595">
        <ele>1329.7</ele>
        <time>2022-08-02T10:03:00Z</time>
      </trkpt>
      <trkpt lat="46.58974" lon="6.12599">
        <ele>1328.8</ele>
        <time>2022-08-02T10:03:04Z</time>
      </trkpt>
      <trkpt lat="46.58968" lon="6.12588">
        <ele>1325.8</ele>
        <time>2022-08-02T10:03:19Z</time>
      </trkpt>
      <trkpt lat="46.58971" lon="6.12575">
        <ele>1324.9</ele>
        <time>2022-08-02T10:03:24Z</time>
      </trkpt>
      <trkpt lat="46.58975" lon="6.12561">
        <ele>1324.2</ele>
        <time>2022-08-02T10:03:29Z</time>
      </trkpt>
      <trkpt lat="46.58975" lon="6.12546">
        <ele>1323.9</ele>
        <time>2022-08-02T10:03:33Z</time>
      </trkpt>
      <trkpt lat="46.58979" lon="6.1253">
        <ele>1323.7</ele>
        <time>2022-08-02T10:03:38Z</time>
      </trkpt>
      <trkpt lat="46.58983" lon="6.12516">
        <ele>1323.6</ele>
        <time>2022-08-02T10:03:43Z</time>
      </trkpt>
      <trkpt lat="46.58984" lon="6.12502">
        <ele>1323.3</ele>
        <time>2022-08-02T10:03:47Z</time>
      </trkpt>
      <trkpt lat="46.58986" lon="6.12489">
        <ele>1323.1</ele>
        <time>2022-08-02T10:03:52Z</time>
      </trkpt>
      <trkpt lat="46.58993" lon="6.12479">
        <ele>1322.9</ele>
        <time>2022-08-02T10:03:57Z</time>
      </trkpt>
      <trkpt lat="46.59002" lon="6.12475">
        <ele>1322.6</ele>
        <time>2022-08-02T10:04:14Z</time>
      </trkpt>
      <trkpt lat="46.59003" lon="6.12489">
        <ele>1323.4</ele>
        <time>2022-08-02T10:08:46Z</time>
      </trkpt>
      <trkpt lat="46.5901" lon="6.12499">
        <ele>1323.7</ele>
        <time>2022-08-02T10:08:59Z</time>
      </trkpt>
      <trkpt lat="46.59009" lon="6.12512">
        <ele>1324</ele>
        <time>2022-08-02T10:09:17Z</time>
      </trkpt>
      <trkpt lat="46.59006" lon="6.12527">
        <ele>1325</ele>
        <time>2022-08-02T10:09:45Z</time>
      </trkpt>
      <trkpt lat="46.58997" lon="6.12527">
        <ele>1335.6</ele>
        <time>2022-08-02T10:40:46Z</time>
      </trkpt>
      <trkpt lat="46.58988" lon="6.12522">
        <ele>1335.7</ele>
        <time>2022-08-02T10:41:00Z</time>
      </trkpt>
      <trkpt lat="46.58983" lon="6.12532">
        <ele>1335.8</ele>
        <time>2022-08-02T10:41:16Z</time>
      </trkpt>
      <trkpt lat="46.58979" lon="6.12545">
        <ele>1335.8</ele>
        <time>2022-08-02T10:41:39Z</time>
      </trkpt>
      <trkpt lat="46.58976" lon="6.12558">
        <ele>1336</ele>
        <time>2022-08-02T10:41:47Z</time>
      </trkpt>
      <trkpt lat="46.58974" lon="6.12571">
        <ele>1336.2</ele>
        <time>2022-08-02T10:41:55Z</time>
      </trkpt>
      <trkpt lat="46.58971" lon="6.12584">
        <ele>1336.5</ele>
        <time>2022-08-02T10:42:07Z</time>
      </trkpt>
      <trkpt lat="46.58972" lon="6.12597">
        <ele>1337</ele>
        <time>2022-08-02T10:42:22Z</time>
      </trkpt>
      <trkpt lat="46.58971" lon="6.1261">
        <ele>1337.3</ele>
        <time>2022-08-02T10:42:50Z</time>
      </trkpt>
      <trkpt lat="46.58969" lon="6.12595">
        <ele>1337.8</ele>
        <time>2022-08-02T10:43:25Z</time>
      </trkpt>
      <trkpt lat="46.58971" lon="6.12582">
        <ele>1337.8</ele>
        <time>2022-08-02T10:43:30Z</time>
      </trkpt>
      <trkpt lat="46.58973" lon="6.12569">
        <ele>1337.9</ele>
        <time>2022-08-02T10:43:36Z</time>
      </trkpt>
      <trkpt lat="46.58973" lon="6.12555">
        <ele>1337.9</ele>
        <time>2022-08-02T10:43:40Z</time>
      </trkpt>
      <trkpt lat="46.58976" lon="6.12541">
        <ele>1337.7</ele>
        <time>2022-08-02T10:43:45Z</time>
      </trkpt>
      <trkpt lat="46.58982" lon="6.12528">
        <ele>1337.6</ele>
        <time>2022-08-02T10:43:50Z</time>
      </trkpt>
      <trkpt lat="46.58983" lon="6.12514">
        <ele>1337.5</ele>
        <time>2022-08-02T10:43:54Z</time>
      </trkpt>
      <trkpt lat="46.58981" lon="6.12501">
        <ele>1337.2</ele>
        <time>2022-08-02T10:43:59Z</time>
      </trkpt>
      <trkpt lat="46.58971" lon="6.12501">
        <ele>1336.6</ele>
        <time>2022-08-02T10:44:07Z</time>
      </trkpt>
      <trkpt lat="46.58961" lon="6.12501">
        <ele>1336.3</ele>
        <time>2022-08-02T10:44:15Z</time>
      </trkpt>
      <trkpt lat="46.58952" lon="6.12502">
        <ele>1336.2</ele>
        <time>2022-08-02T10:44:23Z</time>
      </trkpt>
      <trkpt lat="46.58942" lon="6.125">
        <ele>1336.3</ele>
        <time>2022-08-02T10:44:32Z</time>
      </trkpt>
      <trkpt lat="46.58933" lon="6.12496">
        <ele>1336.9</ele>
        <time>2022-08-02T10:44:41Z</time>
      </trkpt>
      <trkpt lat="46.58924" lon="6.1249">
        <ele>1338.1</ele>
        <time>2022-08-02T10:44:58Z</time>
      </trkpt>
      <trkpt lat="46.58916" lon="6.12481">
        <ele>1338.8</ele>
        <time>2022-08-02T10:45:06Z</time>
      </trkpt>
      <trkpt lat="46.58907" lon="6.12472">
        <ele>1339.1</ele>
        <time>2022-08-02T10:45:12Z</time>
      </trkpt>
      <trkpt lat="46.58899" lon="6.12462">
        <ele>1339.4</ele>
        <time>2022-08-02T10:45:16Z</time>
      </trkpt>
      <trkpt lat="46.58892" lon="6.12453">
        <ele>1339.5</ele>
        <time>2022-08-02T10:45:21Z</time>
      </trkpt>
      <trkpt lat="46.58882" lon="6.12446">
        <ele>1339.9</ele>
        <time>2022-08-02T10:45:36Z</time>
      </trkpt>
      <trkpt lat="46.58878" lon="6.12433">
        <ele>1339.9</ele>
        <time>2022-08-02T10:45:42Z</time>
      </trkpt>
      <trkpt lat="46.58873" lon="6.12421">
        <ele>1340</ele>
        <time>2022-08-02T10:45:46Z</time>
      </trkpt>
      <trkpt lat="46.58865" lon="6.12415">
        <ele>1340</ele>
        <time>2022-08-02T10:45:49Z</time>
      </trkpt>
      <trkpt lat="46.58858" lon="6.12406">
        <ele>1340</ele>
        <time>2022-08-02T10:45:53Z</time>
      </trkpt>
      <trkpt lat="46.58852" lon="6.12392">
        <ele>1340</ele>
        <time>2022-08-02T10:45:58Z</time>
      </trkpt>
      <trkpt lat="46.58847" lon="6.12376">
        <ele>1340</ele>
        <time>2022-08-02T10:46:02Z</time>
      </trkpt>
      <trkpt lat="46.58844" lon="6.12364">
        <ele>1340</ele>
        <time>2022-08-02T10:46:06Z</time>
      </trkpt>
      <trkpt lat="46.58838" lon="6.1235">
        <ele>1340</ele>
        <time>2022-08-02T10:46:10Z</time>
      </trkpt>
      <trkpt lat="46.58832" lon="6.12339">
        <ele>1340</ele>
        <time>2022-08-02T10:46:14Z</time>
      </trkpt>
      <trkpt lat="46.58824" lon="6.1233">
        <ele>1340</ele>
        <time>2022-08-02T10:46:19Z</time>
      </trkpt>
      <trkpt lat="46.58817" lon="6.12323">
        <ele>1340.1</ele>
        <time>2022-08-02T10:46:23Z</time>
      </trkpt>
      <trkpt lat="46.58808" lon="6.12317">
        <ele>1340</ele>
        <time>2022-08-02T10:46:28Z</time>
      </trkpt>
      <trkpt lat="46.58799" lon="6.12315">
        <ele>1340</ele>
        <time>2022-08-02T10:46:33Z</time>
      </trkpt>
      <trkpt lat="46.58789" lon="6.12311">
        <ele>1340</ele>
        <time>2022-08-02T10:46:38Z</time>
      </trkpt>
      <trkpt lat="46.58779" lon="6.12304">
        <ele>1340</ele>
        <time>2022-08-02T10:46:42Z</time>
      </trkpt>
      <trkpt lat="46.58769" lon="6.12301">
        <ele>1340</ele>
        <time>2022-08-02T10:46:48Z</time>
      </trkpt>
      <trkpt lat="46.5876" lon="6.12296">
        <ele>1340.1</ele>
        <time>2022-08-02T10:46:52Z</time>
      </trkpt>
      <trkpt lat="46.58751" lon="6.12293">
        <ele>1340.2</ele>
        <time>2022-08-02T10:46:55Z</time>
      </trkpt>
      <trkpt lat="46.58741" lon="6.12293">
        <ele>1340.2</ele>
        <time>2022-08-02T10:47:00Z</time>
      </trkpt>
      <trkpt lat="46.58732" lon="6.12295">
        <ele>1340.3</ele>
        <time>2022-08-02T10:47:03Z</time>
      </trkpt>
      <trkpt lat="46.58723" lon="6.12302">
        <ele>1340.3</ele>
        <time>2022-08-02T10:47:08Z</time>
      </trkpt>
      <trkpt lat="46.58713" lon="6.12309">
        <ele>1340.4</ele>
        <time>2022-08-02T10:47:13Z</time>
      </trkpt>
      <trkpt lat="46.58702" lon="6.12314">
        <ele>1340.5</ele>
        <time>2022-08-02T10:47:18Z</time>
      </trkpt>
      <trkpt lat="46.58693" lon="6.12309">
        <ele>1340.5</ele>
        <time>2022-08-02T10:47:22Z</time>
      </trkpt>
      <trkpt lat="46.58683" lon="6.12303">
        <ele>1340.6</ele>
        <time>2022-08-02T10:47:26Z</time>
      </trkpt>
      <trkpt lat="46.58673" lon="6.12296">
        <ele>1340.6</ele>
        <time>2022-08-02T10:47:31Z</time>
      </trkpt>
      <trkpt lat="46.58665" lon="6.12287">
        <ele>1340.7</ele>
        <time>2022-08-02T10:47:35Z</time>
      </trkpt>
      <trkpt lat="46.58662" lon="6.12271">
        <ele>1340.8</ele>
        <time>2022-08-02T10:47:40Z</time>
      </trkpt>
      <trkpt lat="46.58662" lon="6.12257">
        <ele>1340.9</ele>
        <time>2022-08-02T10:47:45Z</time>
      </trkpt>
      <trkpt lat="46.58665" lon="6.12243">
        <ele>1341</ele>
        <time>2022-08-02T10:47:51Z</time>
      </trkpt>
      <trkpt lat="46.58661" lon="6.12231">
        <ele>1341</ele>
        <time>2022-08-02T10:47:56Z</time>
      </trkpt>
      <trkpt lat="46.58655" lon="6.12219">
        <ele>1341</ele>
        <time>2022-08-02T10:48:01Z</time>
      </trkpt>
      <trkpt lat="46.58646" lon="6.12213">
        <ele>1341</ele>
        <time>2022-08-02T10:48:07Z</time>
      </trkpt>
      <trkpt lat="46.58637" lon="6.12206">
        <ele>1341.1</ele>
        <time>2022-08-02T10:48:11Z</time>
      </trkpt>
      <trkpt lat="46.58627" lon="6.12198">
        <ele>1341.1</ele>
        <time>2022-08-02T10:48:15Z</time>
      </trkpt>
      <trkpt lat="46.58618" lon="6.1219">
        <ele>1341.3</ele>
        <time>2022-08-02T10:48:22Z</time>
      </trkpt>
      <trkpt lat="46.58609" lon="6.12191">
        <ele>1341.5</ele>
        <time>2022-08-02T10:48:28Z</time>
      </trkpt>
      <trkpt lat="46.586" lon="6.12195">
        <ele>1341.7</ele>
        <time>2022-08-02T10:48:36Z</time>
      </trkpt>
      <trkpt lat="46.58593" lon="6.12205">
        <ele>1341.8</ele>
        <time>2022-08-02T10:48:40Z</time>
      </trkpt>
      <trkpt lat="46.58584" lon="6.12214">
        <ele>1341.9</ele>
        <time>2022-08-02T10:48:46Z</time>
      </trkpt>
      <trkpt lat="46.58575" lon="6.12212">
        <ele>1341.8</ele>
        <time>2022-08-02T10:48:49Z</time>
      </trkpt>
      <trkpt lat="46.58566" lon="6.12209">
        <ele>1341.7</ele>
        <time>2022-08-02T10:48:53Z</time>
      </trkpt>
      <trkpt lat="46.58557" lon="6.12203">
        <ele>1341.5</ele>
        <time>2022-08-02T10:48:57Z</time>
      </trkpt>
      <trkpt lat="46.58548" lon="6.12195">
        <ele>1341.2</ele>
        <time>2022-08-02T10:49:02Z</time>
      </trkpt>
      <trkpt lat="46.5854" lon="6.12189">
        <ele>1341</ele>
        <time>2022-08-02T10:49:07Z</time>
      </trkpt>
      <trkpt lat="46.58528" lon="6.12185">
        <ele>1340.9</ele>
        <time>2022-08-02T10:49:12Z</time>
      </trkpt>
      <trkpt lat="46.58517" lon="6.12182">
        <ele>1340.8</ele>
        <time>2022-08-02T10:49:16Z</time>
      </trkpt>
      <trkpt lat="46.58507" lon="6.12185">
        <ele>1340.8</ele>
        <time>2022-08-02T10:49:22Z</time>
      </trkpt>
      <trkpt lat="46.58497" lon="6.12193">
        <ele>1341</ele>
        <time>2022-08-02T10:49:29Z</time>
      </trkpt>
      <trkpt lat="46.58486" lon="6.12197">
        <ele>1341.1</ele>
        <time>2022-08-02T10:49:33Z</time>
      </trkpt>
      <trkpt lat="46.58476" lon="6.12189">
        <ele>1341.2</ele>
        <time>2022-08-02T10:49:37Z</time>
      </trkpt>
      <trkpt lat="46.58468" lon="6.1218">
        <ele>1341.3</ele>
        <time>2022-08-02T10:49:41Z</time>
      </trkpt>
      <trkpt lat="46.5846" lon="6.12172">
        <ele>1341.4</ele>
        <time>2022-08-02T10:49:45Z</time>
      </trkpt>
      <trkpt lat="46.58452" lon="6.12165">
        <ele>1341.4</ele>
        <time>2022-08-02T10:49:48Z</time>
      </trkpt>
      <trkpt lat="46.58445" lon="6.12152">
        <ele>1341.4</ele>
        <time>2022-08-02T10:49:52Z</time>
      </trkpt>
      <trkpt lat="46.58437" lon="6.1214">
        <ele>1341.5</ele>
        <time>2022-08-02T10:49:56Z</time>
      </trkpt>
      <trkpt lat="46.58429" lon="6.12134">
        <ele>1341.7</ele>
        <time>2022-08-02T10:50:02Z</time>
      </trkpt>
      <trkpt lat="46.58419" lon="6.12132">
        <ele>1342.4</ele>
        <time>2022-08-02T10:50:09Z</time>
      </trkpt>
      <trkpt lat="46.5841" lon="6.12137">
        <ele>1343.2</ele>
        <time>2022-08-02T10:50:18Z</time>
      </trkpt>
      <trkpt lat="46.58401" lon="6.12132">
        <ele>1344.1</ele>
        <time>2022-08-02T10:50:36Z</time>
      </trkpt>
      <trkpt lat="46.58397" lon="6.12119">
        <ele>1344.2</ele>
        <time>2022-08-02T10:50:42Z</time>
      </trkpt>
      <trkpt lat="46.58392" lon="6.12107">
        <ele>1343.9</ele>
        <time>2022-08-02T10:50:47Z</time>
      </trkpt>
      <trkpt lat="46.58383" lon="6.12101">
        <ele>1343.1</ele>
        <time>2022-08-02T10:50:53Z</time>
      </trkpt>
      <trkpt lat="46.58375" lon="6.12095">
        <ele>1342.5</ele>
        <time>2022-08-02T10:51:00Z</time>
      </trkpt>
      <trkpt lat="46.58365" lon="6.12089">
        <ele>1342.3</ele>
        <time>2022-08-02T10:51:04Z</time>
      </trkpt>
      <trkpt lat="46.58356" lon="6.12088">
        <ele>1342.1</ele>
        <time>2022-08-02T10:51:07Z</time>
      </trkpt>
      <trkpt lat="46.58346" lon="6.12085">
        <ele>1341.9</ele>
        <time>2022-08-02T10:51:13Z</time>
      </trkpt>
      <trkpt lat="46.58337" lon="6.12085">
        <ele>1341.8</ele>
        <time>2022-08-02T10:51:18Z</time>
      </trkpt>
      <trkpt lat="46.58328" lon="6.1209">
        <ele>1341.1</ele>
        <time>2022-08-02T10:51:25Z</time>
      </trkpt>
      <trkpt lat="46.58319" lon="6.12088">
        <ele>1339</ele>
        <time>2022-08-02T10:51:35Z</time>
      </trkpt>
      <trkpt lat="46.58313" lon="6.12077">
        <ele>1335.6</ele>
        <time>2022-08-02T10:52:13Z</time>
      </trkpt>
      <trkpt lat="46.58317" lon="6.12063">
        <ele>1335.4</ele>
        <time>2022-08-02T10:52:25Z</time>
      </trkpt>
      <trkpt lat="46.58319" lon="6.12047">
        <ele>1335.3</ele>
        <time>2022-08-02T10:52:30Z</time>
      </trkpt>
      <trkpt lat="46.58325" lon="6.12033">
        <ele>1335.2</ele>
        <time>2022-08-02T10:52:34Z</time>
      </trkpt>
      <trkpt lat="46.58329" lon="6.12017">
        <ele>1334.8</ele>
        <time>2022-08-02T10:52:38Z</time>
      </trkpt>
      <trkpt lat="46.58332" lon="6.12002">
        <ele>1334.1</ele>
        <time>2022-08-02T10:52:41Z</time>
      </trkpt>
      <trkpt lat="46.58332" lon="6.11988">
        <ele>1333.4</ele>
        <time>2022-08-02T10:52:44Z</time>
      </trkpt>
      <trkpt lat="46.5833" lon="6.11975">
        <ele>1332.3</ele>
        <time>2022-08-02T10:52:48Z</time>
      </trkpt>
      <trkpt lat="46.58323" lon="6.11964">
        <ele>1330.9</ele>
        <time>2022-08-02T10:52:52Z</time>
      </trkpt>
      <trkpt lat="46.58317" lon="6.11949">
        <ele>1329.7</ele>
        <time>2022-08-02T10:52:55Z</time>
      </trkpt>
      <trkpt lat="46.58318" lon="6.11935">
        <ele>1328.5</ele>
        <time>2022-08-02T10:52:58Z</time>
      </trkpt>
      <trkpt lat="46.5832" lon="6.11917">
        <ele>1327.2</ele>
        <time>2022-08-02T10:53:02Z</time>
      </trkpt>
      <trkpt lat="46.58318" lon="6.11904">
        <ele>1326.4</ele>
        <time>2022-08-02T10:53:05Z</time>
      </trkpt>
      <trkpt lat="46.58314" lon="6.11892">
        <ele>1325.6</ele>
        <time>2022-08-02T10:53:09Z</time>
      </trkpt>
      <trkpt lat="46.58308" lon="6.11879">
        <ele>1324.8</ele>
        <time>2022-08-02T10:53:14Z</time>
      </trkpt>
      <trkpt lat="46.583" lon="6.11869">
        <ele>1324.3</ele>
        <time>2022-08-02T10:53:18Z</time>
      </trkpt>
      <trkpt lat="46.58291" lon="6.11861">
        <ele>1323.9</ele>
        <time>2022-08-02T10:53:23Z</time>
      </trkpt>
      <trkpt lat="46.58285" lon="6.11851">
        <ele>1323.6</ele>
        <time>2022-08-02T10:53:27Z</time>
      </trkpt>
      <trkpt lat="46.58277" lon="6.11846">
        <ele>1323.5</ele>
        <time>2022-08-02T10:53:35Z</time>
      </trkpt>
      <trkpt lat="46.58268" lon="6.1184">
        <ele>1344.4</ele>
        <time>2022-08-02T10:57:12Z</time>
      </trkpt>
      <trkpt lat="46.58257" lon="6.11835">
        <ele>1344.6</ele>
        <time>2022-08-02T10:57:16Z</time>
      </trkpt>
      <trkpt lat="46.58248" lon="6.11832">
        <ele>1344.8</ele>
        <time>2022-08-02T10:57:19Z</time>
      </trkpt>
      <trkpt lat="46.58239" lon="6.11828">
        <ele>1344.9</ele>
        <time>2022-08-02T10:57:22Z</time>
      </trkpt>
      <trkpt lat="46.58231" lon="6.11819">
        <ele>1345</ele>
        <time>2022-08-02T10:57:25Z</time>
      </trkpt>
      <trkpt lat="46.58223" lon="6.11809">
        <ele>1345.1</ele>
        <time>2022-08-02T10:57:29Z</time>
      </trkpt>
      <trkpt lat="46.58212" lon="6.11802">
        <ele>1345.2</ele>
        <time>2022-08-02T10:57:33Z</time>
      </trkpt>
      <trkpt lat="46.58202" lon="6.118">
        <ele>1345.5</ele>
        <time>2022-08-02T10:57:37Z</time>
      </trkpt>
      <trkpt lat="46.58193" lon="6.11795">
        <ele>1345.7</ele>
        <time>2022-08-02T10:57:39Z</time>
      </trkpt>
      <trkpt lat="46.58184" lon="6.1179">
        <ele>1346.4</ele>
        <time>2022-08-02T10:57:43Z</time>
      </trkpt>
      <trkpt lat="46.58174" lon="6.11789">
        <ele>1347.4</ele>
        <time>2022-08-02T10:57:48Z</time>
      </trkpt>
      <trkpt lat="46.58161" lon="6.11777">
        <ele>1348.1</ele>
        <time>2022-08-02T10:57:51Z</time>
      </trkpt>
      <trkpt lat="46.58152" lon="6.11767">
        <ele>1348.5</ele>
        <time>2022-08-02T10:57:53Z</time>
      </trkpt>
      <trkpt lat="46.58144" lon="6.1176">
        <ele>1349.1</ele>
        <time>2022-08-02T10:57:56Z</time>
      </trkpt>
      <trkpt lat="46.58136" lon="6.11749">
        <ele>1349.6</ele>
        <time>2022-08-02T10:57:59Z</time>
      </trkpt>
      <trkpt lat="46.58128" lon="6.11734">
        <ele>1350.1</ele>
        <time>2022-08-02T10:58:02Z</time>
      </trkpt>
      <trkpt lat="46.58121" lon="6.11721">
        <ele>1350.7</ele>
        <time>2022-08-02T10:58:06Z</time>
      </trkpt>
      <trkpt lat="46.58114" lon="6.11709">
        <ele>1351.2</ele>
        <time>2022-08-02T10:58:09Z</time>
      </trkpt>
      <trkpt lat="46.58113" lon="6.11696">
        <ele>1351.8</ele>
        <time>2022-08-02T10:58:13Z</time>
      </trkpt>
      <trkpt lat="46.58109" lon="6.11682">
        <ele>1352.3</ele>
        <time>2022-08-02T10:58:17Z</time>
      </trkpt>
      <trkpt lat="46.58106" lon="6.11667">
        <ele>1352.8</ele>
        <time>2022-08-02T10:58:22Z</time>
      </trkpt>
      <trkpt lat="46.58105" lon="6.11651">
        <ele>1353.3</ele>
        <time>2022-08-02T10:58:27Z</time>
      </trkpt>
      <trkpt lat="46.58103" lon="6.11637">
        <ele>1353.6</ele>
        <time>2022-08-02T10:58:30Z</time>
      </trkpt>
      <trkpt lat="46.58099" lon="6.11623">
        <ele>1354</ele>
        <time>2022-08-02T10:58:35Z</time>
      </trkpt>
      <trkpt lat="46.58094" lon="6.11612">
        <ele>1354.2</ele>
        <time>2022-08-02T10:58:39Z</time>
      </trkpt>
      <trkpt lat="46.58084" lon="6.11603">
        <ele>1353.9</ele>
        <time>2022-08-02T10:58:42Z</time>
      </trkpt>
      <trkpt lat="46.58076" lon="6.11598">
        <ele>1353.7</ele>
        <time>2022-08-02T10:58:44Z</time>
      </trkpt>
      <trkpt lat="46.58068" lon="6.11588">
        <ele>1353.5</ele>
        <time>2022-08-02T10:58:46Z</time>
      </trkpt>
      <trkpt lat="46.58058" lon="6.11577">
        <ele>1353.1</ele>
        <time>2022-08-02T10:58:49Z</time>
      </trkpt>
      <trkpt lat="46.58048" lon="6.1157">
        <ele>1352.5</ele>
        <time>2022-08-02T10:58:53Z</time>
      </trkpt>
      <trkpt lat="46.58035" lon="6.11561">
        <ele>1352</ele>
        <time>2022-08-02T10:58:56Z</time>
      </trkpt>
      <trkpt lat="46.58026" lon="6.11554">
        <ele>1351.8</ele>
        <time>2022-08-02T10:58:58Z</time>
      </trkpt>
      <trkpt lat="46.58019" lon="6.11544">
        <ele>1351.3</ele>
        <time>2022-08-02T10:59:01Z</time>
      </trkpt>
      <trkpt lat="46.58014" lon="6.1153">
        <ele>1350.4</ele>
        <time>2022-08-02T10:59:06Z</time>
      </trkpt>
      <trkpt lat="46.58009" lon="6.11514">
        <ele>1349.5</ele>
        <time>2022-08-02T10:59:10Z</time>
      </trkpt>
      <trkpt lat="46.58007" lon="6.11499">
        <ele>1348.6</ele>
        <time>2022-08-02T10:59:14Z</time>
      </trkpt>
      <trkpt lat="46.58006" lon="6.11485">
        <ele>1347.2</ele>
        <time>2022-08-02T10:59:19Z</time>
      </trkpt>
      <trkpt lat="46.58006" lon="6.11472">
        <ele>1345.5</ele>
        <time>2022-08-02T10:59:24Z</time>
      </trkpt>
      <trkpt lat="46.58004" lon="6.11458">
        <ele>1344.1</ele>
        <time>2022-08-02T10:59:28Z</time>
      </trkpt>
      <trkpt lat="46.58001" lon="6.11444">
        <ele>1342.6</ele>
        <time>2022-08-02T10:59:32Z</time>
      </trkpt>
      <trkpt lat="46.57993" lon="6.11436">
        <ele>1341.1</ele>
        <time>2022-08-02T10:59:36Z</time>
      </trkpt>
      <trkpt lat="46.57984" lon="6.1143">
        <ele>1339.5</ele>
        <time>2022-08-02T10:59:40Z</time>
      </trkpt>
      <trkpt lat="46.57974" lon="6.11426">
        <ele>1338.1</ele>
        <time>2022-08-02T10:59:44Z</time>
      </trkpt>
      <trkpt lat="46.57965" lon="6.11419">
        <ele>1336.8</ele>
        <time>2022-08-02T10:59:48Z</time>
      </trkpt>
      <trkpt lat="46.57956" lon="6.1141">
        <ele>1335.5</ele>
        <time>2022-08-02T10:59:52Z</time>
      </trkpt>
      <trkpt lat="46.5795" lon="6.11398">
        <ele>1334.5</ele>
        <time>2022-08-02T10:59:56Z</time>
      </trkpt>
      <trkpt lat="46.57942" lon="6.11386">
        <ele>1333.6</ele>
        <time>2022-08-02T11:00:01Z</time>
      </trkpt>
      <trkpt lat="46.57937" lon="6.11374">
        <ele>1332.8</ele>
        <time>2022-08-02T11:00:05Z</time>
      </trkpt>
      <trkpt lat="46.57931" lon="6.1136">
        <ele>1332</ele>
        <time>2022-08-02T11:00:09Z</time>
      </trkpt>
      <trkpt lat="46.57925" lon="6.11347">
        <ele>1331.1</ele>
        <time>2022-08-02T11:00:13Z</time>
      </trkpt>
      <trkpt lat="46.57919" lon="6.11336">
        <ele>1330</ele>
        <time>2022-08-02T11:00:18Z</time>
      </trkpt>
      <trkpt lat="46.57911" lon="6.1133">
        <ele>1328.6</ele>
        <time>2022-08-02T11:00:23Z</time>
      </trkpt>
      <trkpt lat="46.57902" lon="6.11332">
        <ele>1326.9</ele>
        <time>2022-08-02T11:00:31Z</time>
      </trkpt>
      <trkpt lat="46.57891" lon="6.11327">
        <ele>1326</ele>
        <time>2022-08-02T11:00:36Z</time>
      </trkpt>
      <trkpt lat="46.57883" lon="6.11322">
        <ele>1322.7</ele>
        <time>2022-08-02T11:01:19Z</time>
      </trkpt>
      <trkpt lat="46.57873" lon="6.11314">
        <ele>1322.6</ele>
        <time>2022-08-02T11:01:23Z</time>
      </trkpt>
      <trkpt lat="46.57864" lon="6.11308">
        <ele>1322.6</ele>
        <time>2022-08-02T11:01:28Z</time>
      </trkpt>
      <trkpt lat="46.57855" lon="6.11299">
        <ele>1322.5</ele>
        <time>2022-08-02T11:01:34Z</time>
      </trkpt>
      <trkpt lat="46.57848" lon="6.11288">
        <ele>1322.9</ele>
        <time>2022-08-02T11:01:40Z</time>
      </trkpt>
      <trkpt lat="46.57843" lon="6.11275">
        <ele>1323.5</ele>
        <time>2022-08-02T11:01:45Z</time>
      </trkpt>
      <trkpt lat="46.57836" lon="6.11265">
        <ele>1323.9</ele>
        <time>2022-08-02T11:01:50Z</time>
      </trkpt>
      <trkpt lat="46.57829" lon="6.11257">
        <ele>1324.2</ele>
        <time>2022-08-02T11:01:54Z</time>
      </trkpt>
      <trkpt lat="46.5782" lon="6.11248">
        <ele>1324.7</ele>
        <time>2022-08-02T11:01:59Z</time>
      </trkpt>
      <trkpt lat="46.57812" lon="6.11236">
        <ele>1325.1</ele>
        <time>2022-08-02T11:02:03Z</time>
      </trkpt>
      <trkpt lat="46.57808" lon="6.11224">
        <ele>1325.4</ele>
        <time>2022-08-02T11:02:07Z</time>
      </trkpt>
      <trkpt lat="46.57801" lon="6.1121">
        <ele>1325.7</ele>
        <time>2022-08-02T11:02:11Z</time>
      </trkpt>
      <trkpt lat="46.57795" lon="6.11198">
        <ele>1325.8</ele>
        <time>2022-08-02T11:02:15Z</time>
      </trkpt>
      <trkpt lat="46.57789" lon="6.11183">
        <ele>1326</ele>
        <time>2022-08-02T11:02:19Z</time>
      </trkpt>
      <trkpt lat="46.57784" lon="6.11172">
        <ele>1326.1</ele>
        <time>2022-08-02T11:02:22Z</time>
      </trkpt>
      <trkpt lat="46.57778" lon="6.11156">
        <ele>1326.1</ele>
        <time>2022-08-02T11:02:25Z</time>
      </trkpt>
      <trkpt lat="46.57769" lon="6.11144">
        <ele>1326.2</ele>
        <time>2022-08-02T11:02:29Z</time>
      </trkpt>
      <trkpt lat="46.57761" lon="6.11135">
        <ele>1326.3</ele>
        <time>2022-08-02T11:02:33Z</time>
      </trkpt>
      <trkpt lat="46.57752" lon="6.11131">
        <ele>1326.3</ele>
        <time>2022-08-02T11:02:37Z</time>
      </trkpt>
      <trkpt lat="46.57743" lon="6.11128">
        <ele>1326.3</ele>
        <time>2022-08-02T11:02:40Z</time>
      </trkpt>
      <trkpt lat="46.57734" lon="6.11124">
        <ele>1326.2</ele>
        <time>2022-08-02T11:02:43Z</time>
      </trkpt>
      <trkpt lat="46.57723" lon="6.11121">
        <ele>1325.9</ele>
        <time>2022-08-02T11:02:46Z</time>
      </trkpt>
      <trkpt lat="46.57713" lon="6.11112">
        <ele>1325.5</ele>
        <time>2022-08-02T11:02:50Z</time>
      </trkpt>
      <trkpt lat="46.57706" lon="6.11103">
        <ele>1324.9</ele>
        <time>2022-08-02T11:02:53Z</time>
      </trkpt>
      <trkpt lat="46.57699" lon="6.11093">
        <ele>1324.4</ele>
        <time>2022-08-02T11:02:55Z</time>
      </trkpt>
      <trkpt lat="46.57692" lon="6.11084">
        <ele>1323.4</ele>
        <time>2022-08-02T11:02:59Z</time>
      </trkpt>
      <trkpt lat="46.57684" lon="6.11077">
        <ele>1322.2</ele>
        <time>2022-08-02T11:03:05Z</time>
      </trkpt>
      <trkpt lat="46.57677" lon="6.11066">
        <ele>1321.2</ele>
        <time>2022-08-02T11:03:13Z</time>
      </trkpt>
      <trkpt lat="46.57674" lon="6.11053">
        <ele>1320.7</ele>
        <time>2022-08-02T11:03:18Z</time>
      </trkpt>
      <trkpt lat="46.5767" lon="6.11041">
        <ele>1320.4</ele>
        <time>2022-08-02T11:03:24Z</time>
      </trkpt>
      <trkpt lat="46.57663" lon="6.11032">
        <ele>1320.1</ele>
        <time>2022-08-02T11:03:31Z</time>
      </trkpt>
      <trkpt lat="46.57657" lon="6.11022">
        <ele>1319.4</ele>
        <time>2022-08-02T11:04:01Z</time>
      </trkpt>
      <trkpt lat="46.57649" lon="6.11013">
        <ele>1318</ele>
        <time>2022-08-02T11:04:19Z</time>
      </trkpt>
      <trkpt lat="46.5764" lon="6.11007">
        <ele>1317.5</ele>
        <time>2022-08-02T11:04:23Z</time>
      </trkpt>
      <trkpt lat="46.57631" lon="6.11001">
        <ele>1315.8</ele>
        <time>2022-08-02T11:04:40Z</time>
      </trkpt>
      <trkpt lat="46.57622" lon="6.11001">
        <ele>1315.2</ele>
        <time>2022-08-02T11:04:45Z</time>
      </trkpt>
      <trkpt lat="46.57613" lon="6.11003">
        <ele>1314.6</ele>
        <time>2022-08-02T11:04:49Z</time>
      </trkpt>
      <trkpt lat="46.57604" lon="6.11">
        <ele>1314.2</ele>
        <time>2022-08-02T11:04:52Z</time>
      </trkpt>
      <trkpt lat="46.57595" lon="6.10994">
        <ele>1313.8</ele>
        <time>2022-08-02T11:04:55Z</time>
      </trkpt>
      <trkpt lat="46.57587" lon="6.10984">
        <ele>1313.5</ele>
        <time>2022-08-02T11:04:58Z</time>
      </trkpt>
      <trkpt lat="46.57578" lon="6.10977">
        <ele>1313.2</ele>
        <time>2022-08-02T11:05:01Z</time>
      </trkpt>
      <trkpt lat="46.57571" lon="6.10969">
        <ele>1312.6</ele>
        <time>2022-08-02T11:05:05Z</time>
      </trkpt>
      <trkpt lat="46.57563" lon="6.10961">
        <ele>1312.2</ele>
        <time>2022-08-02T11:05:10Z</time>
      </trkpt>
      <trkpt lat="46.57554" lon="6.10955">
        <ele>1311.8</ele>
        <time>2022-08-02T11:05:17Z</time>
      </trkpt>
      <trkpt lat="46.57543" lon="6.10951">
        <ele>1311.9</ele>
        <time>2022-08-02T11:05:23Z</time>
      </trkpt>
      <trkpt lat="46.57535" lon="6.10941">
        <ele>1311.9</ele>
        <time>2022-08-02T11:05:27Z</time>
      </trkpt>
      <trkpt lat="46.57529" lon="6.10929">
        <ele>1311.9</ele>
        <time>2022-08-02T11:05:29Z</time>
      </trkpt>
      <trkpt lat="46.57524" lon="6.10916">
        <ele>1312</ele>
        <time>2022-08-02T11:05:33Z</time>
      </trkpt>
      <trkpt lat="46.57518" lon="6.10905">
        <ele>1312</ele>
        <time>2022-08-02T11:05:38Z</time>
      </trkpt>
      <trkpt lat="46.5751" lon="6.10898">
        <ele>1312</ele>
        <time>2022-08-02T11:05:44Z</time>
      </trkpt>
      <trkpt lat="46.57502" lon="6.1089">
        <ele>1311.9</ele>
        <time>2022-08-02T11:05:51Z</time>
      </trkpt>
      <trkpt lat="46.57493" lon="6.10881">
        <ele>1311.6</ele>
        <time>2022-08-02T11:05:56Z</time>
      </trkpt>
      <trkpt lat="46.57487" lon="6.1087">
        <ele>1311.3</ele>
        <time>2022-08-02T11:06:00Z</time>
      </trkpt>
      <trkpt lat="46.57478" lon="6.10863">
        <ele>1310.7</ele>
        <time>2022-08-02T11:06:04Z</time>
      </trkpt>
      <trkpt lat="46.57467" lon="6.10861">
        <ele>1310</ele>
        <time>2022-08-02T11:06:10Z</time>
      </trkpt>
      <trkpt lat="46.5746" lon="6.10852">
        <ele>1309.7</ele>
        <time>2022-08-02T11:06:13Z</time>
      </trkpt>
      <trkpt lat="46.57452" lon="6.10841">
        <ele>1309.4</ele>
        <time>2022-08-02T11:06:18Z</time>
      </trkpt>
      <trkpt lat="46.57444" lon="6.10835">
        <ele>1309.2</ele>
        <time>2022-08-02T11:06:21Z</time>
      </trkpt>
      <trkpt lat="46.57431" lon="6.10828">
        <ele>1309</ele>
        <time>2022-08-02T11:06:24Z</time>
      </trkpt>
      <trkpt lat="46.57423" lon="6.10819">
        <ele>1308.7</ele>
        <time>2022-08-02T11:06:28Z</time>
      </trkpt>
      <trkpt lat="46.57416" lon="6.10809">
        <ele>1308.5</ele>
        <time>2022-08-02T11:06:33Z</time>
      </trkpt>
      <trkpt lat="46.57411" lon="6.10798">
        <ele>1308</ele>
        <time>2022-08-02T11:06:39Z</time>
      </trkpt>
      <trkpt lat="46.57404" lon="6.10788">
        <ele>1306.8</ele>
        <time>2022-08-02T11:06:44Z</time>
      </trkpt>
      <trkpt lat="46.57398" lon="6.10776">
        <ele>1305.3</ele>
        <time>2022-08-02T11:06:48Z</time>
      </trkpt>
      <trkpt lat="46.57387" lon="6.10772">
        <ele>1304.1</ele>
        <time>2022-08-02T11:06:51Z</time>
      </trkpt>
      <trkpt lat="46.57374" lon="6.10775">
        <ele>1303.1</ele>
        <time>2022-08-02T11:06:54Z</time>
      </trkpt>
      <trkpt lat="46.57362" lon="6.10773">
        <ele>1302.4</ele>
        <time>2022-08-02T11:06:56Z</time>
      </trkpt>
      <trkpt lat="46.57352" lon="6.10768">
        <ele>1301.8</ele>
        <time>2022-08-02T11:06:58Z</time>
      </trkpt>
      <trkpt lat="46.57343" lon="6.10758">
        <ele>1300.9</ele>
        <time>2022-08-02T11:07:01Z</time>
      </trkpt>
      <trkpt lat="46.57334" lon="6.10754">
        <ele>1299.8</ele>
        <time>2022-08-02T11:07:05Z</time>
      </trkpt>
      <trkpt lat="46.57325" lon="6.10761">
        <ele>1294</ele>
        <time>2022-08-02T11:08:11Z</time>
      </trkpt>
      <trkpt lat="46.57318" lon="6.10771">
        <ele>1293.9</ele>
        <time>2022-08-02T11:08:16Z</time>
      </trkpt>
      <trkpt lat="46.57309" lon="6.1078">
        <ele>1293.6</ele>
        <time>2022-08-02T11:08:20Z</time>
      </trkpt>
      <trkpt lat="46.57305" lon="6.10791">
        <ele>1293.1</ele>
        <time>2022-08-02T11:08:24Z</time>
      </trkpt>
      <trkpt lat="46.57299" lon="6.10803">
        <ele>1292.6</ele>
        <time>2022-08-02T11:08:29Z</time>
      </trkpt>
      <trkpt lat="46.57295" lon="6.10816">
        <ele>1291.9</ele>
        <time>2022-08-02T11:08:34Z</time>
      </trkpt>
      <trkpt lat="46.5729" lon="6.10828">
        <ele>1291.1</ele>
        <time>2022-08-02T11:08:39Z</time>
      </trkpt>
      <trkpt lat="46.57283" lon="6.10841">
        <ele>1290.6</ele>
        <time>2022-08-02T11:08:42Z</time>
      </trkpt>
      <trkpt lat="46.57278" lon="6.10855">
        <ele>1290.1</ele>
        <time>2022-08-02T11:08:45Z</time>
      </trkpt>
      <trkpt lat="46.57273" lon="6.10867">
        <ele>1289.5</ele>
        <time>2022-08-02T11:08:48Z</time>
      </trkpt>
      <trkpt lat="46.57268" lon="6.10878">
        <ele>1288.9</ele>
        <time>2022-08-02T11:08:51Z</time>
      </trkpt>
      <trkpt lat="46.57264" lon="6.10891">
        <ele>1288.1</ele>
        <time>2022-08-02T11:08:55Z</time>
      </trkpt>
      <trkpt lat="46.57258" lon="6.10902">
        <ele>1287.3</ele>
        <time>2022-08-02T11:08:59Z</time>
      </trkpt>
      <trkpt lat="46.57252" lon="6.10916">
        <ele>1286.5</ele>
        <time>2022-08-02T11:09:03Z</time>
      </trkpt>
      <trkpt lat="46.57246" lon="6.10927">
        <ele>1285.8</ele>
        <time>2022-08-02T11:09:06Z</time>
      </trkpt>
      <trkpt lat="46.57241" lon="6.10942">
        <ele>1285.2</ele>
        <time>2022-08-02T11:09:09Z</time>
      </trkpt>
      <trkpt lat="46.57238" lon="6.10955">
        <ele>1284.4</ele>
        <time>2022-08-02T11:09:12Z</time>
      </trkpt>
      <trkpt lat="46.57233" lon="6.1097">
        <ele>1283.5</ele>
        <time>2022-08-02T11:09:16Z</time>
      </trkpt>
      <trkpt lat="46.57228" lon="6.10985">
        <ele>1282.8</ele>
        <time>2022-08-02T11:09:19Z</time>
      </trkpt>
      <trkpt lat="46.5722" lon="6.10997">
        <ele>1282.1</ele>
        <time>2022-08-02T11:09:22Z</time>
      </trkpt>
      <trkpt lat="46.57216" lon="6.11013">
        <ele>1281.4</ele>
        <time>2022-08-02T11:09:26Z</time>
      </trkpt>
      <trkpt lat="46.57212" lon="6.11025">
        <ele>1280.9</ele>
        <time>2022-08-02T11:09:30Z</time>
      </trkpt>
      <trkpt lat="46.57207" lon="6.11036">
        <ele>1280.5</ele>
        <time>2022-08-02T11:09:34Z</time>
      </trkpt>
      <trkpt lat="46.572" lon="6.11049">
        <ele>1280.5</ele>
        <time>2022-08-02T11:09:38Z</time>
      </trkpt>
      <trkpt lat="46.57191" lon="6.11055">
        <ele>1280.6</ele>
        <time>2022-08-02T11:09:41Z</time>
      </trkpt>
      <trkpt lat="46.57178" lon="6.11058">
        <ele>1280.7</ele>
        <time>2022-08-02T11:09:44Z</time>
      </trkpt>
      <trkpt lat="46.57168" lon="6.11056">
        <ele>1280.9</ele>
        <time>2022-08-02T11:09:47Z</time>
      </trkpt>
      <trkpt lat="46.57157" lon="6.11052">
        <ele>1281.2</ele>
        <time>2022-08-02T11:09:51Z</time>
      </trkpt>
      <trkpt lat="46.57147" lon="6.11046">
        <ele>1281.6</ele>
        <time>2022-08-02T11:09:55Z</time>
      </trkpt>
      <trkpt lat="46.57137" lon="6.11043">
        <ele>1282.3</ele>
        <time>2022-08-02T11:09:59Z</time>
      </trkpt>
      <trkpt lat="46.57127" lon="6.11046">
        <ele>1282.9</ele>
        <time>2022-08-02T11:10:03Z</time>
      </trkpt>
      <trkpt lat="46.57121" lon="6.11057">
        <ele>1283.7</ele>
        <time>2022-08-02T11:10:08Z</time>
      </trkpt>
      <trkpt lat="46.57117" lon="6.11071">
        <ele>1284.3</ele>
        <time>2022-08-02T11:10:13Z</time>
      </trkpt>
      <trkpt lat="46.57113" lon="6.11085">
        <ele>1284.9</ele>
        <time>2022-08-02T11:10:18Z</time>
      </trkpt>
      <trkpt lat="46.57109" lon="6.11098">
        <ele>1285.2</ele>
        <time>2022-08-02T11:10:21Z</time>
      </trkpt>
      <trkpt lat="46.571" lon="6.11109">
        <ele>1285.4</ele>
        <time>2022-08-02T11:10:25Z</time>
      </trkpt>
      <trkpt lat="46.5709" lon="6.11114">
        <ele>1285.6</ele>
        <time>2022-08-02T11:10:29Z</time>
      </trkpt>
      <trkpt lat="46.57079" lon="6.1112">
        <ele>1285.4</ele>
        <time>2022-08-02T11:10:32Z</time>
      </trkpt>
      <trkpt lat="46.57072" lon="6.11127">
        <ele>1285.2</ele>
        <time>2022-08-02T11:10:34Z</time>
      </trkpt>
      <trkpt lat="46.57065" lon="6.11139">
        <ele>1284.9</ele>
        <time>2022-08-02T11:10:36Z</time>
      </trkpt>
      <trkpt lat="46.57059" lon="6.11155">
        <ele>1284.4</ele>
        <time>2022-08-02T11:10:39Z</time>
      </trkpt>
      <trkpt lat="46.57054" lon="6.11171">
        <ele>1283.8</ele>
        <time>2022-08-02T11:10:42Z</time>
      </trkpt>
      <trkpt lat="46.57048" lon="6.11185">
        <ele>1283</ele>
        <time>2022-08-02T11:10:45Z</time>
      </trkpt>
      <trkpt lat="46.57043" lon="6.11197">
        <ele>1282.3</ele>
        <time>2022-08-02T11:10:47Z</time>
      </trkpt>
      <trkpt lat="46.57037" lon="6.11208">
        <ele>1281.5</ele>
        <time>2022-08-02T11:10:49Z</time>
      </trkpt>
      <trkpt lat="46.57029" lon="6.11219">
        <ele>1280.7</ele>
        <time>2022-08-02T11:10:51Z</time>
      </trkpt>
      <trkpt lat="46.5702" lon="6.1123">
        <ele>1279.8</ele>
        <time>2022-08-02T11:10:53Z</time>
      </trkpt>
      <trkpt lat="46.57012" lon="6.11241">
        <ele>1278.8</ele>
        <time>2022-08-02T11:10:55Z</time>
      </trkpt>
      <trkpt lat="46.57004" lon="6.11255">
        <ele>1277.7</ele>
        <time>2022-08-02T11:10:57Z</time>
      </trkpt>
      <trkpt lat="46.56998" lon="6.11269">
        <ele>1276.7</ele>
        <time>2022-08-02T11:10:59Z</time>
      </trkpt>
      <trkpt lat="46.56993" lon="6.11281">
        <ele>1275.6</ele>
        <time>2022-08-02T11:11:01Z</time>
      </trkpt>
      <trkpt lat="46.56989" lon="6.11294">
        <ele>1274.7</ele>
        <time>2022-08-02T11:11:03Z</time>
      </trkpt>
      <trkpt lat="46.56986" lon="6.11307">
        <ele>1273.6</ele>
        <time>2022-08-02T11:11:05Z</time>
      </trkpt>
      <trkpt lat="46.56983" lon="6.1132">
        <ele>1272.7</ele>
        <time>2022-08-02T11:11:07Z</time>
      </trkpt>
      <trkpt lat="46.5698" lon="6.11334">
        <ele>1271.7</ele>
        <time>2022-08-02T11:11:09Z</time>
      </trkpt>
      <trkpt lat="46.56976" lon="6.11351">
        <ele>1270.8</ele>
        <time>2022-08-02T11:11:11Z</time>
      </trkpt>
      <trkpt lat="46.5697" lon="6.11365">
        <ele>1269.9</ele>
        <time>2022-08-02T11:11:13Z</time>
      </trkpt>
      <trkpt lat="46.56964" lon="6.1138">
        <ele>1269.2</ele>
        <time>2022-08-02T11:11:15Z</time>
      </trkpt>
      <trkpt lat="46.56957" lon="6.11397">
        <ele>1268.4</ele>
        <time>2022-08-02T11:11:17Z</time>
      </trkpt>
      <trkpt lat="46.56952" lon="6.11413">
        <ele>1267.7</ele>
        <time>2022-08-02T11:11:19Z</time>
      </trkpt>
      <trkpt lat="46.56947" lon="6.11427">
        <ele>1267</ele>
        <time>2022-08-02T11:11:21Z</time>
      </trkpt>
      <trkpt lat="46.56942" lon="6.11443">
        <ele>1266.1</ele>
        <time>2022-08-02T11:11:24Z</time>
      </trkpt>
      <trkpt lat="46.56936" lon="6.11459">
        <ele>1265.1</ele>
        <time>2022-08-02T11:11:27Z</time>
      </trkpt>
      <trkpt lat="46.5693" lon="6.1147">
        <ele>1264.4</ele>
        <time>2022-08-02T11:11:29Z</time>
      </trkpt>
      <trkpt lat="46.56925" lon="6.11482">
        <ele>1263.6</ele>
        <time>2022-08-02T11:11:31Z</time>
      </trkpt>
      <trkpt lat="46.56919" lon="6.11495">
        <ele>1262.8</ele>
        <time>2022-08-02T11:11:33Z</time>
      </trkpt>
      <trkpt lat="46.56913" lon="6.1151">
        <ele>1262</ele>
        <time>2022-08-02T11:11:35Z</time>
      </trkpt>
      <trkpt lat="46.56908" lon="6.11527">
        <ele>1261.2</ele>
        <time>2022-08-02T11:11:37Z</time>
      </trkpt>
      <trkpt lat="46.56904" lon="6.11545">
        <ele>1260.4</ele>
        <time>2022-08-02T11:11:39Z</time>
      </trkpt>
      <trkpt lat="46.56901" lon="6.11564">
        <ele>1259.7</ele>
        <time>2022-08-02T11:11:41Z</time>
      </trkpt>
      <trkpt lat="46.56898" lon="6.11583">
        <ele>1259</ele>
        <time>2022-08-02T11:11:43Z</time>
      </trkpt>
      <trkpt lat="46.56892" lon="6.116">
        <ele>1258.3</ele>
        <time>2022-08-02T11:11:45Z</time>
      </trkpt>
      <trkpt lat="46.56885" lon="6.11616">
        <ele>1257.7</ele>
        <time>2022-08-02T11:11:47Z</time>
      </trkpt>
      <trkpt lat="46.56877" lon="6.11627">
        <ele>1257.1</ele>
        <time>2022-08-02T11:11:49Z</time>
      </trkpt>
      <trkpt lat="46.56871" lon="6.1164">
        <ele>1256.6</ele>
        <time>2022-08-02T11:11:51Z</time>
      </trkpt>
      <trkpt lat="46.56865" lon="6.11653">
        <ele>1256.1</ele>
        <time>2022-08-02T11:11:53Z</time>
      </trkpt>
      <trkpt lat="46.56859" lon="6.11669">
        <ele>1255.5</ele>
        <time>2022-08-02T11:11:55Z</time>
      </trkpt>
      <trkpt lat="46.56854" lon="6.11685">
        <ele>1254.9</ele>
        <time>2022-08-02T11:11:57Z</time>
      </trkpt>
      <trkpt lat="46.56846" lon="6.11698">
        <ele>1254.2</ele>
        <time>2022-08-02T11:11:59Z</time>
      </trkpt>
      <trkpt lat="46.56835" lon="6.11706">
        <ele>1253.6</ele>
        <time>2022-08-02T11:12:01Z</time>
      </trkpt>
      <trkpt lat="46.56825" lon="6.11711">
        <ele>1252.9</ele>
        <time>2022-08-02T11:12:03Z</time>
      </trkpt>
      <trkpt lat="46.56814" lon="6.11719">
        <ele>1252.3</ele>
        <time>2022-08-02T11:12:05Z</time>
      </trkpt>
      <trkpt lat="46.56805" lon="6.11731">
        <ele>1251.7</ele>
        <time>2022-08-02T11:12:07Z</time>
      </trkpt>
      <trkpt lat="46.56798" lon="6.11746">
        <ele>1251</ele>
        <time>2022-08-02T11:12:09Z</time>
      </trkpt>
      <trkpt lat="46.56786" lon="6.1176">
        <ele>1250.4</ele>
        <time>2022-08-02T11:12:11Z</time>
      </trkpt>
      <trkpt lat="46.56773" lon="6.11773">
        <ele>1249.9</ele>
        <time>2022-08-02T11:12:13Z</time>
      </trkpt>
      <trkpt lat="46.56764" lon="6.11783">
        <ele>1249.4</ele>
        <time>2022-08-02T11:12:15Z</time>
      </trkpt>
      <trkpt lat="46.56756" lon="6.11793">
        <ele>1248.8</ele>
        <time>2022-08-02T11:12:18Z</time>
      </trkpt>
      <trkpt lat="46.56748" lon="6.11804">
        <ele>1248.2</ele>
        <time>2022-08-02T11:12:22Z</time>
      </trkpt>
      <trkpt lat="46.56742" lon="6.11818">
        <ele>1247.9</ele>
        <time>2022-08-02T11:12:26Z</time>
      </trkpt>
      <trkpt lat="46.56735" lon="6.11831">
        <ele>1247.7</ele>
        <time>2022-08-02T11:12:29Z</time>
      </trkpt>
      <trkpt lat="46.56727" lon="6.11837">
        <ele>1247.6</ele>
        <time>2022-08-02T11:12:31Z</time>
      </trkpt>
      <trkpt lat="46.56717" lon="6.11838">
        <ele>1247.5</ele>
        <time>2022-08-02T11:12:33Z</time>
      </trkpt>
      <trkpt lat="46.56705" lon="6.11837">
        <ele>1247.4</ele>
        <time>2022-08-02T11:12:35Z</time>
      </trkpt>
      <trkpt lat="46.56695" lon="6.11841">
        <ele>1247.3</ele>
        <time>2022-08-02T11:12:37Z</time>
      </trkpt>
      <trkpt lat="46.56686" lon="6.1185">
        <ele>1247.2</ele>
        <time>2022-08-02T11:12:39Z</time>
      </trkpt>
      <trkpt lat="46.56677" lon="6.11858">
        <ele>1247.1</ele>
        <time>2022-08-02T11:12:41Z</time>
      </trkpt>
      <trkpt lat="46.56667" lon="6.11863">
        <ele>1246.9</ele>
        <time>2022-08-02T11:12:44Z</time>
      </trkpt>
      <trkpt lat="46.56653" lon="6.11862">
        <ele>1246.7</ele>
        <time>2022-08-02T11:12:49Z</time>
      </trkpt>
      <trkpt lat="46.56643" lon="6.11863">
        <ele>1246.4</ele>
        <time>2022-08-02T11:13:02Z</time>
      </trkpt>
      <trkpt lat="46.56634" lon="6.11866">
        <ele>1246.3</ele>
        <time>2022-08-02T11:13:10Z</time>
      </trkpt>
      <trkpt lat="46.56625" lon="6.11869">
        <ele>1246.5</ele>
        <time>2022-08-02T11:13:47Z</time>
      </trkpt>
      <trkpt lat="46.56593" lon="6.119">
        <ele>1259</ele>
        <time>2022-08-02T11:18:26Z</time>
      </trkpt>
      <trkpt lat="46.56584" lon="6.11906">
        <ele>1259.1</ele>
        <time>2022-08-02T11:18:31Z</time>
      </trkpt>
      <trkpt lat="46.56574" lon="6.11913">
        <ele>1259.1</ele>
        <time>2022-08-02T11:18:38Z</time>
      </trkpt>
      <trkpt lat="46.56566" lon="6.11918">
        <ele>1259.1</ele>
        <time>2022-08-02T11:18:41Z</time>
      </trkpt>
      <trkpt lat="46.56555" lon="6.11927">
        <ele>1259.1</ele>
        <time>2022-08-02T11:18:45Z</time>
      </trkpt>
      <trkpt lat="46.56545" lon="6.11933">
        <ele>1259.1</ele>
        <time>2022-08-02T11:18:50Z</time>
      </trkpt>
      <trkpt lat="46.56519" lon="6.11951">
        <ele>1258</ele>
        <time>2022-08-02T11:19:30Z</time>
      </trkpt>
      <trkpt lat="46.5651" lon="6.11958">
        <ele>1258.6</ele>
        <time>2022-08-02T11:19:36Z</time>
      </trkpt>
      <trkpt lat="46.56501" lon="6.11964">
        <ele>1258.5</ele>
        <time>2022-08-02T11:19:44Z</time>
      </trkpt>
      <trkpt lat="46.56494" lon="6.11974">
        <ele>1258.5</ele>
        <time>2022-08-02T11:19:52Z</time>
      </trkpt>
      <trkpt lat="46.56486" lon="6.11982">
        <ele>1259.4</ele>
        <time>2022-08-02T11:20:11Z</time>
      </trkpt>
      <trkpt lat="46.5648" lon="6.11994">
        <ele>1259.9</ele>
        <time>2022-08-02T11:20:18Z</time>
      </trkpt>
      <trkpt lat="46.56471" lon="6.12002">
        <ele>1260.5</ele>
        <time>2022-08-02T11:20:25Z</time>
      </trkpt>
      <trkpt lat="46.56463" lon="6.12014">
        <ele>1260.8</ele>
        <time>2022-08-02T11:20:30Z</time>
      </trkpt>
      <trkpt lat="46.56454" lon="6.12018">
        <ele>1261.1</ele>
        <time>2022-08-02T11:20:36Z</time>
      </trkpt>
      <trkpt lat="46.56443" lon="6.12021">
        <ele>1261.1</ele>
        <time>2022-08-02T11:20:40Z</time>
      </trkpt>
      <trkpt lat="46.56434" lon="6.12024">
        <ele>1260.9</ele>
        <time>2022-08-02T11:20:44Z</time>
      </trkpt>
      <trkpt lat="46.56424" lon="6.12031">
        <ele>1260.6</ele>
        <time>2022-08-02T11:20:47Z</time>
      </trkpt>
      <trkpt lat="46.56415" lon="6.12037">
        <ele>1260.2</ele>
        <time>2022-08-02T11:20:50Z</time>
      </trkpt>
      <trkpt lat="46.56408" lon="6.12046">
        <ele>1259.6</ele>
        <time>2022-08-02T11:20:53Z</time>
      </trkpt>
      <trkpt lat="46.56399" lon="6.12057">
        <ele>1258.9</ele>
        <time>2022-08-02T11:20:57Z</time>
      </trkpt>
      <trkpt lat="46.56391" lon="6.12063">
        <ele>1258.3</ele>
        <time>2022-08-02T11:21:00Z</time>
      </trkpt>
      <trkpt lat="46.56385" lon="6.12077">
        <ele>1257.5</ele>
        <time>2022-08-02T11:21:04Z</time>
      </trkpt>
      <trkpt lat="46.56375" lon="6.12086">
        <ele>1256.8</ele>
        <time>2022-08-02T11:21:08Z</time>
      </trkpt>
      <trkpt lat="46.56367" lon="6.12091">
        <ele>1256</ele>
        <time>2022-08-02T11:21:12Z</time>
      </trkpt>
      <trkpt lat="46.56357" lon="6.12097">
        <ele>1254.6</ele>
        <time>2022-08-02T11:21:17Z</time>
      </trkpt>
      <trkpt lat="46.56348" lon="6.12103">
        <ele>1253.4</ele>
        <time>2022-08-02T11:21:21Z</time>
      </trkpt>
      <trkpt lat="46.56341" lon="6.12115">
        <ele>1251.8</ele>
        <time>2022-08-02T11:21:26Z</time>
      </trkpt>
      <trkpt lat="46.56343" lon="6.12129">
        <ele>1249.9</ele>
        <time>2022-08-02T11:21:33Z</time>
      </trkpt>
      <trkpt lat="46.56341" lon="6.12142">
        <ele>1248.7</ele>
        <time>2022-08-02T11:21:42Z</time>
      </trkpt>
      <trkpt lat="46.56337" lon="6.12156">
        <ele>1248.6</ele>
        <time>2022-08-02T11:21:49Z</time>
      </trkpt>
      <trkpt lat="46.56336" lon="6.12169">
        <ele>1248.7</ele>
        <time>2022-08-02T11:21:56Z</time>
      </trkpt>
      <trkpt lat="46.56328" lon="6.12177">
        <ele>1248.8</ele>
        <time>2022-08-02T11:23:08Z</time>
      </trkpt>
      <trkpt lat="46.56332" lon="6.12164">
        <ele>1248.4</ele>
        <time>2022-08-02T11:24:46Z</time>
      </trkpt>
      <trkpt lat="46.5633" lon="6.12149">
        <ele>1248.4</ele>
        <time>2022-08-02T11:24:54Z</time>
      </trkpt>
      <trkpt lat="46.5633" lon="6.12136">
        <ele>1248.4</ele>
        <time>2022-08-02T11:25:00Z</time>
      </trkpt>
      <trkpt lat="46.56327" lon="6.12123">
        <ele>1247.9</ele>
        <time>2022-08-02T11:25:06Z</time>
      </trkpt>
      <trkpt lat="46.56335" lon="6.12115">
        <ele>1245.4</ele>
        <time>2022-08-02T11:27:30Z</time>
      </trkpt>
      <trkpt lat="46.56325" lon="6.12113">
        <ele>1245.3</ele>
        <time>2022-08-02T11:31:04Z</time>
      </trkpt>
      <trkpt lat="46.56315" lon="6.12106">
        <ele>1245.2</ele>
        <time>2022-08-02T11:31:09Z</time>
      </trkpt>
      <trkpt lat="46.56305" lon="6.12102">
        <ele>1244.9</ele>
        <time>2022-08-02T11:31:13Z</time>
      </trkpt>
      <trkpt lat="46.56294" lon="6.12101">
        <ele>1244.4</ele>
        <time>2022-08-02T11:31:17Z</time>
      </trkpt>
      <trkpt lat="46.56284" lon="6.12105">
        <ele>1243.7</ele>
        <time>2022-08-02T11:31:21Z</time>
      </trkpt>
      <trkpt lat="46.56274" lon="6.12106">
        <ele>1242.6</ele>
        <time>2022-08-02T11:31:25Z</time>
      </trkpt>
      <trkpt lat="46.56263" lon="6.12107">
        <ele>1241.3</ele>
        <time>2022-08-02T11:31:29Z</time>
      </trkpt>
      <trkpt lat="46.56254" lon="6.12105">
        <ele>1240.2</ele>
        <time>2022-08-02T11:31:32Z</time>
      </trkpt>
      <trkpt lat="46.56243" lon="6.12101">
        <ele>1238.8</ele>
        <time>2022-08-02T11:31:36Z</time>
      </trkpt>
      <trkpt lat="46.56233" lon="6.121">
        <ele>1237.8</ele>
        <time>2022-08-02T11:31:39Z</time>
      </trkpt>
      <trkpt lat="46.56221" lon="6.12098">
        <ele>1236.7</ele>
        <time>2022-08-02T11:31:42Z</time>
      </trkpt>
      <trkpt lat="46.56211" lon="6.12094">
        <ele>1235.7</ele>
        <time>2022-08-02T11:31:45Z</time>
      </trkpt>
      <trkpt lat="46.562" lon="6.12092">
        <ele>1234.4</ele>
        <time>2022-08-02T11:31:49Z</time>
      </trkpt>
      <trkpt lat="46.56191" lon="6.12093">
        <ele>1233</ele>
        <time>2022-08-02T11:31:53Z</time>
      </trkpt>
      <trkpt lat="46.56181" lon="6.12096">
        <ele>1231.5</ele>
        <time>2022-08-02T11:31:57Z</time>
      </trkpt>
      <trkpt lat="46.56173" lon="6.121">
        <ele>1230.3</ele>
        <time>2022-08-02T11:32:00Z</time>
      </trkpt>
      <trkpt lat="46.56164" lon="6.12105">
        <ele>1229</ele>
        <time>2022-08-02T11:32:03Z</time>
      </trkpt>
      <trkpt lat="46.56153" lon="6.12108">
        <ele>1227.8</ele>
        <time>2022-08-02T11:32:06Z</time>
      </trkpt>
      <trkpt lat="46.56143" lon="6.12107">
        <ele>1227</ele>
        <time>2022-08-02T11:32:08Z</time>
      </trkpt>
      <trkpt lat="46.56132" lon="6.12097">
        <ele>1226</ele>
        <time>2022-08-02T11:32:11Z</time>
      </trkpt>
      <trkpt lat="46.56124" lon="6.12087">
        <ele>1225.1</ele>
        <time>2022-08-02T11:32:14Z</time>
      </trkpt>
      <trkpt lat="46.56115" lon="6.12076">
        <ele>1224.6</ele>
        <time>2022-08-02T11:32:16Z</time>
      </trkpt>
      <trkpt lat="46.56106" lon="6.12065">
        <ele>1224.1</ele>
        <time>2022-08-02T11:32:18Z</time>
      </trkpt>
      <trkpt lat="46.56098" lon="6.12055">
        <ele>1223.5</ele>
        <time>2022-08-02T11:32:21Z</time>
      </trkpt>
      <trkpt lat="46.56087" lon="6.12045">
        <ele>1222.9</ele>
        <time>2022-08-02T11:32:24Z</time>
      </trkpt>
      <trkpt lat="46.56078" lon="6.12037">
        <ele>1222.5</ele>
        <time>2022-08-02T11:32:26Z</time>
      </trkpt>
      <trkpt lat="46.56069" lon="6.12033">
        <ele>1222.1</ele>
        <time>2022-08-02T11:32:28Z</time>
      </trkpt>
      <trkpt lat="46.5606" lon="6.12029">
        <ele>1221.7</ele>
        <time>2022-08-02T11:32:30Z</time>
      </trkpt>
      <trkpt lat="46.56049" lon="6.12025">
        <ele>1221</ele>
        <time>2022-08-02T11:32:33Z</time>
      </trkpt>
      <trkpt lat="46.56037" lon="6.12024">
        <ele>1220.1</ele>
        <time>2022-08-02T11:32:36Z</time>
      </trkpt>
      <trkpt lat="46.56024" lon="6.12024">
        <ele>1219.1</ele>
        <time>2022-08-02T11:32:39Z</time>
      </trkpt>
      <trkpt lat="46.56014" lon="6.12024">
        <ele>1218.5</ele>
        <time>2022-08-02T11:32:41Z</time>
      </trkpt>
      <trkpt lat="46.56004" lon="6.12022">
        <ele>1217.8</ele>
        <time>2022-08-02T11:32:43Z</time>
      </trkpt>
      <trkpt lat="46.55996" lon="6.12017">
        <ele>1216.3</ele>
        <time>2022-08-02T11:32:48Z</time>
      </trkpt>
      <trkpt lat="46.56003" lon="6.1201">
        <ele>1213.3</ele>
        <time>2022-08-02T11:33:15Z</time>
      </trkpt>
      <trkpt lat="46.55994" lon="6.12003">
        <ele>1212.9</ele>
        <time>2022-08-02T11:33:24Z</time>
      </trkpt>
      <trkpt lat="46.55987" lon="6.11992">
        <ele>1212.8</ele>
        <time>2022-08-02T11:33:29Z</time>
      </trkpt>
      <trkpt lat="46.55981" lon="6.11979">
        <ele>1212.8</ele>
        <time>2022-08-02T11:33:33Z</time>
      </trkpt>
      <trkpt lat="46.55976" lon="6.11967">
        <ele>1212.8</ele>
        <time>2022-08-02T11:33:37Z</time>
      </trkpt>
      <trkpt lat="46.5597" lon="6.11956">
        <ele>1212.8</ele>
        <time>2022-08-02T11:33:41Z</time>
      </trkpt>
      <trkpt lat="46.55965" lon="6.11943">
        <ele>1212.9</ele>
        <time>2022-08-02T11:33:45Z</time>
      </trkpt>
      <trkpt lat="46.55959" lon="6.11928">
        <ele>1213.2</ele>
        <time>2022-08-02T11:33:50Z</time>
      </trkpt>
      <trkpt lat="46.55954" lon="6.11917">
        <ele>1213.5</ele>
        <time>2022-08-02T11:33:54Z</time>
      </trkpt>
      <trkpt lat="46.55949" lon="6.11904">
        <ele>1214.1</ele>
        <time>2022-08-02T11:33:59Z</time>
      </trkpt>
      <trkpt lat="46.55943" lon="6.11892">
        <ele>1214.6</ele>
        <time>2022-08-02T11:34:03Z</time>
      </trkpt>
      <trkpt lat="46.55938" lon="6.11881">
        <ele>1215.1</ele>
        <time>2022-08-02T11:34:07Z</time>
      </trkpt>
      <trkpt lat="46.55932" lon="6.11868">
        <ele>1215.6</ele>
        <time>2022-08-02T11:34:11Z</time>
      </trkpt>
      <trkpt lat="46.55927" lon="6.11856">
        <ele>1215.9</ele>
        <time>2022-08-02T11:34:14Z</time>
      </trkpt>
      <trkpt lat="46.5592" lon="6.11842">
        <ele>1216.2</ele>
        <time>2022-08-02T11:34:18Z</time>
      </trkpt>
      <trkpt lat="46.55913" lon="6.11834">
        <ele>1216.5</ele>
        <time>2022-08-02T11:34:21Z</time>
      </trkpt>
      <trkpt lat="46.55903" lon="6.11827">
        <ele>1216.6</ele>
        <time>2022-08-02T11:34:24Z</time>
      </trkpt>
      <trkpt lat="46.55895" lon="6.11822">
        <ele>1216.8</ele>
        <time>2022-08-02T11:34:27Z</time>
      </trkpt>
      <trkpt lat="46.55886" lon="6.11816">
        <ele>1216.9</ele>
        <time>2022-08-02T11:34:31Z</time>
      </trkpt>
      <trkpt lat="46.55877" lon="6.11811">
        <ele>1216.9</ele>
        <time>2022-08-02T11:34:35Z</time>
      </trkpt>
      <trkpt lat="46.55868" lon="6.11807">
        <ele>1216.7</ele>
        <time>2022-08-02T11:34:38Z</time>
      </trkpt>
      <trkpt lat="46.55858" lon="6.11804">
        <ele>1216.4</ele>
        <time>2022-08-02T11:34:41Z</time>
      </trkpt>
      <trkpt lat="46.55846" lon="6.11803">
        <ele>1216.1</ele>
        <time>2022-08-02T11:34:44Z</time>
      </trkpt>
      <trkpt lat="46.55833" lon="6.11806">
        <ele>1215.7</ele>
        <time>2022-08-02T11:34:47Z</time>
      </trkpt>
      <trkpt lat="46.55824" lon="6.11811">
        <ele>1215.2</ele>
        <time>2022-08-02T11:34:49Z</time>
      </trkpt>
      <trkpt lat="46.55813" lon="6.11817">
        <ele>1214.4</ele>
        <time>2022-08-02T11:34:52Z</time>
      </trkpt>
      <trkpt lat="46.55802" lon="6.11821">
        <ele>1213.4</ele>
        <time>2022-08-02T11:34:55Z</time>
      </trkpt>
      <trkpt lat="46.55793" lon="6.11824">
        <ele>1212.3</ele>
        <time>2022-08-02T11:34:58Z</time>
      </trkpt>
      <trkpt lat="46.55782" lon="6.11823">
        <ele>1211.1</ele>
        <time>2022-08-02T11:35:02Z</time>
      </trkpt>
      <trkpt lat="46.55775" lon="6.11814">
        <ele>1210.3</ele>
        <time>2022-08-02T11:35:05Z</time>
      </trkpt>
      <trkpt lat="46.55767" lon="6.11804">
        <ele>1209.7</ele>
        <time>2022-08-02T11:35:08Z</time>
      </trkpt>
      <trkpt lat="46.5576" lon="6.11792">
        <ele>1209.2</ele>
        <time>2022-08-02T11:35:11Z</time>
      </trkpt>
      <trkpt lat="46.55752" lon="6.11781">
        <ele>1208.8</ele>
        <time>2022-08-02T11:35:14Z</time>
      </trkpt>
      <trkpt lat="46.55742" lon="6.1177">
        <ele>1208.4</ele>
        <time>2022-08-02T11:35:17Z</time>
      </trkpt>
      <trkpt lat="46.55733" lon="6.11759">
        <ele>1208.1</ele>
        <time>2022-08-02T11:35:20Z</time>
      </trkpt>
      <trkpt lat="46.55727" lon="6.11747">
        <ele>1207.9</ele>
        <time>2022-08-02T11:35:23Z</time>
      </trkpt>
      <trkpt lat="46.55723" lon="6.11735">
        <ele>1207.6</ele>
        <time>2022-08-02T11:35:26Z</time>
      </trkpt>
      <trkpt lat="46.55719" lon="6.1172">
        <ele>1207.4</ele>
        <time>2022-08-02T11:35:29Z</time>
      </trkpt>
      <trkpt lat="46.55717" lon="6.11704">
        <ele>1207.1</ele>
        <time>2022-08-02T11:35:32Z</time>
      </trkpt>
      <trkpt lat="46.55718" lon="6.11684">
        <ele>1206.8</ele>
        <time>2022-08-02T11:35:35Z</time>
      </trkpt>
      <trkpt lat="46.55719" lon="6.11665">
        <ele>1206.6</ele>
        <time>2022-08-02T11:35:38Z</time>
      </trkpt>
      <trkpt lat="46.55716" lon="6.11648">
        <ele>1206.4</ele>
        <time>2022-08-02T11:35:41Z</time>
      </trkpt>
      <trkpt lat="46.55708" lon="6.11635">
        <ele>1206.2</ele>
        <time>2022-08-02T11:35:44Z</time>
      </trkpt>
      <trkpt lat="46.557" lon="6.11625">
        <ele>1206.1</ele>
        <time>2022-08-02T11:35:47Z</time>
      </trkpt>
      <trkpt lat="46.55692" lon="6.11615">
        <ele>1206.1</ele>
        <time>2022-08-02T11:35:50Z</time>
      </trkpt>
      <trkpt lat="46.55684" lon="6.11602">
        <ele>1206.1</ele>
        <time>2022-08-02T11:35:53Z</time>
      </trkpt>
      <trkpt lat="46.55677" lon="6.11586">
        <ele>1206.2</ele>
        <time>2022-08-02T11:35:56Z</time>
      </trkpt>
      <trkpt lat="46.55671" lon="6.11572">
        <ele>1206.5</ele>
        <time>2022-08-02T11:35:59Z</time>
      </trkpt>
      <trkpt lat="46.55669" lon="6.11559">
        <ele>1206.8</ele>
        <time>2022-08-02T11:36:02Z</time>
      </trkpt>
      <trkpt lat="46.5567" lon="6.11545">
        <ele>1207.3</ele>
        <time>2022-08-02T11:36:05Z</time>
      </trkpt>
      <trkpt lat="46.55673" lon="6.11529">
        <ele>1207.8</ele>
        <time>2022-08-02T11:36:08Z</time>
      </trkpt>
      <trkpt lat="46.55677" lon="6.11512">
        <ele>1208.3</ele>
        <time>2022-08-02T11:36:11Z</time>
      </trkpt>
      <trkpt lat="46.55679" lon="6.11495">
        <ele>1209</ele>
        <time>2022-08-02T11:36:14Z</time>
      </trkpt>
      <trkpt lat="46.55678" lon="6.11479">
        <ele>1209.7</ele>
        <time>2022-08-02T11:36:17Z</time>
      </trkpt>
      <trkpt lat="46.55673" lon="6.11462">
        <ele>1210.4</ele>
        <time>2022-08-02T11:36:20Z</time>
      </trkpt>
      <trkpt lat="46.55666" lon="6.1145">
        <ele>1211</ele>
        <time>2022-08-02T11:36:23Z</time>
      </trkpt>
      <trkpt lat="46.55658" lon="6.11438">
        <ele>1211.8</ele>
        <time>2022-08-02T11:36:27Z</time>
      </trkpt>
      <trkpt lat="46.55649" lon="6.11428">
        <ele>1212.5</ele>
        <time>2022-08-02T11:36:31Z</time>
      </trkpt>
      <trkpt lat="46.55639" lon="6.11418">
        <ele>1213</ele>
        <time>2022-08-02T11:36:35Z</time>
      </trkpt>
      <trkpt lat="46.55628" lon="6.11408">
        <ele>1213.4</ele>
        <time>2022-08-02T11:36:38Z</time>
      </trkpt>
      <trkpt lat="46.55619" lon="6.11398">
        <ele>1213.6</ele>
        <time>2022-08-02T11:36:40Z</time>
      </trkpt>
      <trkpt lat="46.55609" lon="6.11389">
        <ele>1213.7</ele>
        <time>2022-08-02T11:36:42Z</time>
      </trkpt>
      <trkpt lat="46.55598" lon="6.11378">
        <ele>1213.8</ele>
        <time>2022-08-02T11:36:44Z</time>
      </trkpt>
      <trkpt lat="46.55587" lon="6.11369">
        <ele>1213.8</ele>
        <time>2022-08-02T11:36:46Z</time>
      </trkpt>
      <trkpt lat="46.55575" lon="6.11361">
        <ele>1213.8</ele>
        <time>2022-08-02T11:36:48Z</time>
      </trkpt>
      <trkpt lat="46.55563" lon="6.11355">
        <ele>1213.8</ele>
        <time>2022-08-02T11:36:50Z</time>
      </trkpt>
      <trkpt lat="46.55551" lon="6.11352">
        <ele>1213.7</ele>
        <time>2022-08-02T11:36:52Z</time>
      </trkpt>
      <trkpt lat="46.55541" lon="6.11346">
        <ele>1213.6</ele>
        <time>2022-08-02T11:36:54Z</time>
      </trkpt>
      <trkpt lat="46.55534" lon="6.11337">
        <ele>1213.6</ele>
        <time>2022-08-02T11:36:56Z</time>
      </trkpt>
      <trkpt lat="46.55527" lon="6.11321">
        <ele>1213.5</ele>
        <time>2022-08-02T11:36:59Z</time>
      </trkpt>
      <trkpt lat="46.55522" lon="6.11306">
        <ele>1213.4</ele>
        <time>2022-08-02T11:37:02Z</time>
      </trkpt>
      <trkpt lat="46.5552" lon="6.1129">
        <ele>1213.5</ele>
        <time>2022-08-02T11:37:05Z</time>
      </trkpt>
      <trkpt lat="46.5552" lon="6.11274">
        <ele>1213.8</ele>
        <time>2022-08-02T11:37:09Z</time>
      </trkpt>
      <trkpt lat="46.55517" lon="6.11261">
        <ele>1214.2</ele>
        <time>2022-08-02T11:37:12Z</time>
      </trkpt>
      <trkpt lat="46.55513" lon="6.11248">
        <ele>1214.7</ele>
        <time>2022-08-02T11:37:15Z</time>
      </trkpt>
      <trkpt lat="46.55509" lon="6.11236">
        <ele>1215.2</ele>
        <time>2022-08-02T11:37:18Z</time>
      </trkpt>
      <trkpt lat="46.55503" lon="6.11226">
        <ele>1215.8</ele>
        <time>2022-08-02T11:37:21Z</time>
      </trkpt>
      <trkpt lat="46.55496" lon="6.11212">
        <ele>1216.6</ele>
        <time>2022-08-02T11:37:25Z</time>
      </trkpt>
      <trkpt lat="46.55489" lon="6.11199">
        <ele>1217.4</ele>
        <time>2022-08-02T11:37:29Z</time>
      </trkpt>
      <trkpt lat="46.55483" lon="6.11186">
        <ele>1218.2</ele>
        <time>2022-08-02T11:37:33Z</time>
      </trkpt>
      <trkpt lat="46.55476" lon="6.11174">
        <ele>1219.1</ele>
        <time>2022-08-02T11:37:37Z</time>
      </trkpt>
      <trkpt lat="46.55469" lon="6.11163">
        <ele>1220</ele>
        <time>2022-08-02T11:37:41Z</time>
      </trkpt>
      <trkpt lat="46.55464" lon="6.1115">
        <ele>1220.9</ele>
        <time>2022-08-02T11:37:45Z</time>
      </trkpt>
      <trkpt lat="46.55462" lon="6.11135">
        <ele>1221.9</ele>
        <time>2022-08-02T11:37:50Z</time>
      </trkpt>
      <trkpt lat="46.55458" lon="6.11122">
        <ele>1223</ele>
        <time>2022-08-02T11:37:55Z</time>
      </trkpt>
      <trkpt lat="46.55457" lon="6.11106">
        <ele>1224.2</ele>
        <time>2022-08-02T11:38:00Z</time>
      </trkpt>
      <trkpt lat="46.55452" lon="6.11095">
        <ele>1225.1</ele>
        <time>2022-08-02T11:38:04Z</time>
      </trkpt>
      <trkpt lat="46.55446" lon="6.11083">
        <ele>1226</ele>
        <time>2022-08-02T11:38:08Z</time>
      </trkpt>
      <trkpt lat="46.55439" lon="6.1107">
        <ele>1226.6</ele>
        <time>2022-08-02T11:38:12Z</time>
      </trkpt>
      <trkpt lat="46.55433" lon="6.11057">
        <ele>1227.1</ele>
        <time>2022-08-02T11:38:15Z</time>
      </trkpt>
      <trkpt lat="46.55426" lon="6.11047">
        <ele>1227.4</ele>
        <time>2022-08-02T11:38:18Z</time>
      </trkpt>
      <trkpt lat="46.5542" lon="6.11033">
        <ele>1227.9</ele>
        <time>2022-08-02T11:38:22Z</time>
      </trkpt>
      <trkpt lat="46.55415" lon="6.11022">
        <ele>1228.2</ele>
        <time>2022-08-02T11:38:26Z</time>
      </trkpt>
      <trkpt lat="46.55408" lon="6.11013">
        <ele>1228.5</ele>
        <time>2022-08-02T11:38:30Z</time>
      </trkpt>
      <trkpt lat="46.55398" lon="6.11011">
        <ele>1229.7</ele>
        <time>2022-08-02T11:40:00Z</time>
      </trkpt>
      <trkpt lat="46.55385" lon="6.11008">
        <ele>1229.7</ele>
        <time>2022-08-02T11:40:04Z</time>
      </trkpt>
      <trkpt lat="46.55376" lon="6.11006">
        <ele>1229.7</ele>
        <time>2022-08-02T11:40:06Z</time>
      </trkpt>
      <trkpt lat="46.55365" lon="6.11001">
        <ele>1229.7</ele>
        <time>2022-08-02T11:40:08Z</time>
      </trkpt>
      <trkpt lat="46.55356" lon="6.10992">
        <ele>1229.6</ele>
        <time>2022-08-02T11:40:10Z</time>
      </trkpt>
      <trkpt lat="46.55346" lon="6.10979">
        <ele>1229.6</ele>
        <time>2022-08-02T11:40:12Z</time>
      </trkpt>
      <trkpt lat="46.55339" lon="6.10963">
        <ele>1229.4</ele>
        <time>2022-08-02T11:40:14Z</time>
      </trkpt>
      <trkpt lat="46.55334" lon="6.10949">
        <ele>1229.3</ele>
        <time>2022-08-02T11:40:16Z</time>
      </trkpt>
      <trkpt lat="46.5533" lon="6.10937">
        <ele>1229.2</ele>
        <time>2022-08-02T11:40:18Z</time>
      </trkpt>
      <trkpt lat="46.55324" lon="6.10922">
        <ele>1229.1</ele>
        <time>2022-08-02T11:40:21Z</time>
      </trkpt>
      <trkpt lat="46.55317" lon="6.10909">
        <ele>1229.1</ele>
        <time>2022-08-02T11:40:24Z</time>
      </trkpt>
      <trkpt lat="46.55307" lon="6.10902">
        <ele>1229.2</ele>
        <time>2022-08-02T11:40:27Z</time>
      </trkpt>
      <trkpt lat="46.55298" lon="6.10907">
        <ele>1229.5</ele>
        <time>2022-08-02T11:40:31Z</time>
      </trkpt>
      <trkpt lat="46.55289" lon="6.10919">
        <ele>1230</ele>
        <time>2022-08-02T11:40:35Z</time>
      </trkpt>
      <trkpt lat="46.55281" lon="6.10931">
        <ele>1230.5</ele>
        <time>2022-08-02T11:40:38Z</time>
      </trkpt>
      <trkpt lat="46.55274" lon="6.1094">
        <ele>1230.9</ele>
        <time>2022-08-02T11:40:41Z</time>
      </trkpt>
      <trkpt lat="46.55264" lon="6.10945">
        <ele>1231.7</ele>
        <time>2022-08-02T11:40:45Z</time>
      </trkpt>
      <trkpt lat="46.55253" lon="6.10945">
        <ele>1232.6</ele>
        <time>2022-08-02T11:40:49Z</time>
      </trkpt>
      <trkpt lat="46.55242" lon="6.10941">
        <ele>1233.6</ele>
        <time>2022-08-02T11:40:53Z</time>
      </trkpt>
      <trkpt lat="46.55234" lon="6.10936">
        <ele>1234.5</ele>
        <time>2022-08-02T11:40:57Z</time>
      </trkpt>
      <trkpt lat="46.55223" lon="6.10935">
        <ele>1235.5</ele>
        <time>2022-08-02T11:41:01Z</time>
      </trkpt>
      <trkpt lat="46.55212" lon="6.10938">
        <ele>1236.4</ele>
        <time>2022-08-02T11:41:05Z</time>
      </trkpt>
      <trkpt lat="46.55203" lon="6.10941">
        <ele>1237.5</ele>
        <time>2022-08-02T11:41:09Z</time>
      </trkpt>
      <trkpt lat="46.55192" lon="6.10944">
        <ele>1238.5</ele>
        <time>2022-08-02T11:41:13Z</time>
      </trkpt>
      <trkpt lat="46.55181" lon="6.10943">
        <ele>1239.7</ele>
        <time>2022-08-02T11:41:18Z</time>
      </trkpt>
      <trkpt lat="46.55171" lon="6.10937">
        <ele>1240.7</ele>
        <time>2022-08-02T11:41:23Z</time>
      </trkpt>
      <trkpt lat="46.55163" lon="6.10928">
        <ele>1241.7</ele>
        <time>2022-08-02T11:41:27Z</time>
      </trkpt>
      <trkpt lat="46.55155" lon="6.10917">
        <ele>1242.6</ele>
        <time>2022-08-02T11:41:31Z</time>
      </trkpt>
      <trkpt lat="46.55148" lon="6.10907">
        <ele>1243.2</ele>
        <time>2022-08-02T11:41:34Z</time>
      </trkpt>
      <trkpt lat="46.55143" lon="6.10895">
        <ele>1243.7</ele>
        <time>2022-08-02T11:41:37Z</time>
      </trkpt>
      <trkpt lat="46.55138" lon="6.10881">
        <ele>1244.4</ele>
        <time>2022-08-02T11:41:41Z</time>
      </trkpt>
      <trkpt lat="46.55133" lon="6.10869">
        <ele>1244.9</ele>
        <time>2022-08-02T11:41:44Z</time>
      </trkpt>
      <trkpt lat="46.55128" lon="6.10857">
        <ele>1245.5</ele>
        <time>2022-08-02T11:41:47Z</time>
      </trkpt>
      <trkpt lat="46.55123" lon="6.10844">
        <ele>1245.9</ele>
        <time>2022-08-02T11:41:50Z</time>
      </trkpt>
      <trkpt lat="46.55118" lon="6.10833">
        <ele>1246.1</ele>
        <time>2022-08-02T11:41:52Z</time>
      </trkpt>
      <trkpt lat="46.55112" lon="6.1082">
        <ele>1246.4</ele>
        <time>2022-08-02T11:41:54Z</time>
      </trkpt>
      <trkpt lat="46.55105" lon="6.10809">
        <ele>1246.6</ele>
        <time>2022-08-02T11:41:56Z</time>
      </trkpt>
      <trkpt lat="46.55095" lon="6.10802">
        <ele>1246.7</ele>
        <time>2022-08-02T11:41:58Z</time>
      </trkpt>
      <trkpt lat="46.55083" lon="6.10802">
        <ele>1246.8</ele>
        <time>2022-08-02T11:42:00Z</time>
      </trkpt>
      <trkpt lat="46.55071" lon="6.10809">
        <ele>1246.8</ele>
        <time>2022-08-02T11:42:02Z</time>
      </trkpt>
      <trkpt lat="46.55059" lon="6.10814">
        <ele>1246.8</ele>
        <time>2022-08-02T11:42:04Z</time>
      </trkpt>
      <trkpt lat="46.55047" lon="6.10806">
        <ele>1246.7</ele>
        <time>2022-08-02T11:42:06Z</time>
      </trkpt>
      <trkpt lat="46.55036" lon="6.10792">
        <ele>1246.7</ele>
        <time>2022-08-02T11:42:08Z</time>
      </trkpt>
      <trkpt lat="46.55028" lon="6.10776">
        <ele>1246.7</ele>
        <time>2022-08-02T11:42:10Z</time>
      </trkpt>
      <trkpt lat="46.55021" lon="6.10759">
        <ele>1246.7</ele>
        <time>2022-08-02T11:42:12Z</time>
      </trkpt>
      <trkpt lat="46.55017" lon="6.10743">
        <ele>1246.6</ele>
        <time>2022-08-02T11:42:14Z</time>
      </trkpt>
      <trkpt lat="46.55018" lon="6.10724">
        <ele>1246.5</ele>
        <time>2022-08-02T11:42:16Z</time>
      </trkpt>
      <trkpt lat="46.5502" lon="6.10706">
        <ele>1246.4</ele>
        <time>2022-08-02T11:42:18Z</time>
      </trkpt>
      <trkpt lat="46.55023" lon="6.10688">
        <ele>1246.3</ele>
        <time>2022-08-02T11:42:20Z</time>
      </trkpt>
      <trkpt lat="46.55026" lon="6.10668">
        <ele>1246.1</ele>
        <time>2022-08-02T11:42:22Z</time>
      </trkpt>
      <trkpt lat="46.55026" lon="6.10648">
        <ele>1245.9</ele>
        <time>2022-08-02T11:42:24Z</time>
      </trkpt>
      <trkpt lat="46.55021" lon="6.1063">
        <ele>1245.8</ele>
        <time>2022-08-02T11:42:26Z</time>
      </trkpt>
      <trkpt lat="46.55015" lon="6.10614">
        <ele>1245.7</ele>
        <time>2022-08-02T11:42:28Z</time>
      </trkpt>
      <trkpt lat="46.55008" lon="6.10602">
        <ele>1245.5</ele>
        <time>2022-08-02T11:42:30Z</time>
      </trkpt>
      <trkpt lat="46.55002" lon="6.1059">
        <ele>1245.4</ele>
        <time>2022-08-02T11:42:32Z</time>
      </trkpt>
      <trkpt lat="46.54997" lon="6.10575">
        <ele>1245.3</ele>
        <time>2022-08-02T11:42:34Z</time>
      </trkpt>
      <trkpt lat="46.5499" lon="6.10557">
        <ele>1245.2</ele>
        <time>2022-08-02T11:42:36Z</time>
      </trkpt>
      <trkpt lat="46.54984" lon="6.10537">
        <ele>1245</ele>
        <time>2022-08-02T11:42:38Z</time>
      </trkpt>
      <trkpt lat="46.54976" lon="6.1052">
        <ele>1244.8</ele>
        <time>2022-08-02T11:42:40Z</time>
      </trkpt>
      <trkpt lat="46.54968" lon="6.10505">
        <ele>1244.6</ele>
        <time>2022-08-02T11:42:42Z</time>
      </trkpt>
      <trkpt lat="46.5496" lon="6.10494">
        <ele>1244.4</ele>
        <time>2022-08-02T11:42:44Z</time>
      </trkpt>
      <trkpt lat="46.54952" lon="6.10484">
        <ele>1244.3</ele>
        <time>2022-08-02T11:42:46Z</time>
      </trkpt>
      <trkpt lat="46.54945" lon="6.10472">
        <ele>1244.2</ele>
        <time>2022-08-02T11:42:48Z</time>
      </trkpt>
      <trkpt lat="46.54939" lon="6.10458">
        <ele>1244</ele>
        <time>2022-08-02T11:42:50Z</time>
      </trkpt>
      <trkpt lat="46.54931" lon="6.10444">
        <ele>1243.9</ele>
        <time>2022-08-02T11:42:52Z</time>
      </trkpt>
      <trkpt lat="46.54924" lon="6.1043">
        <ele>1243.6</ele>
        <time>2022-08-02T11:42:54Z</time>
      </trkpt>
      <trkpt lat="46.54917" lon="6.10415">
        <ele>1243.4</ele>
        <time>2022-08-02T11:42:56Z</time>
      </trkpt>
      <trkpt lat="46.54908" lon="6.10398">
        <ele>1243.2</ele>
        <time>2022-08-02T11:42:58Z</time>
      </trkpt>
      <trkpt lat="46.54899" lon="6.10381">
        <ele>1243.1</ele>
        <time>2022-08-02T11:43:00Z</time>
      </trkpt>
      <trkpt lat="46.5489" lon="6.10363">
        <ele>1242.8</ele>
        <time>2022-08-02T11:43:02Z</time>
      </trkpt>
      <trkpt lat="46.54881" lon="6.10345">
        <ele>1242.5</ele>
        <time>2022-08-02T11:43:04Z</time>
      </trkpt>
      <trkpt lat="46.54872" lon="6.10328">
        <ele>1242.1</ele>
        <time>2022-08-02T11:43:06Z</time>
      </trkpt>
      <trkpt lat="46.54862" lon="6.10313">
        <ele>1241.8</ele>
        <time>2022-08-02T11:43:08Z</time>
      </trkpt>
      <trkpt lat="46.54853" lon="6.103">
        <ele>1241.5</ele>
        <time>2022-08-02T11:43:10Z</time>
      </trkpt>
      <trkpt lat="46.54844" lon="6.10287">
        <ele>1241.2</ele>
        <time>2022-08-02T11:43:12Z</time>
      </trkpt>
      <trkpt lat="46.54836" lon="6.10274">
        <ele>1241</ele>
        <time>2022-08-02T11:43:14Z</time>
      </trkpt>
      <trkpt lat="46.54828" lon="6.10262">
        <ele>1240.7</ele>
        <time>2022-08-02T11:43:16Z</time>
      </trkpt>
      <trkpt lat="46.54818" lon="6.1025">
        <ele>1240.5</ele>
        <time>2022-08-02T11:43:18Z</time>
      </trkpt>
      <trkpt lat="46.54809" lon="6.1024">
        <ele>1240.4</ele>
        <time>2022-08-02T11:43:20Z</time>
      </trkpt>
      <trkpt lat="46.54803" lon="6.1023">
        <ele>1240.2</ele>
        <time>2022-08-02T11:43:22Z</time>
      </trkpt>
      <trkpt lat="46.54796" lon="6.1022">
        <ele>1240.1</ele>
        <time>2022-08-02T11:43:24Z</time>
      </trkpt>
      <trkpt lat="46.54787" lon="6.10208">
        <ele>1240.1</ele>
        <time>2022-08-02T11:43:27Z</time>
      </trkpt>
      <trkpt lat="46.54778" lon="6.10197">
        <ele>1240.2</ele>
        <time>2022-08-02T11:43:30Z</time>
      </trkpt>
      <trkpt lat="46.5477" lon="6.10185">
        <ele>1240.5</ele>
        <time>2022-08-02T11:43:33Z</time>
      </trkpt>
      <trkpt lat="46.54761" lon="6.10174">
        <ele>1241</ele>
        <time>2022-08-02T11:43:36Z</time>
      </trkpt>
      <trkpt lat="46.54753" lon="6.10166">
        <ele>1241.3</ele>
        <time>2022-08-02T11:43:38Z</time>
      </trkpt>
      <trkpt lat="46.54743" lon="6.10153">
        <ele>1241.7</ele>
        <time>2022-08-02T11:43:41Z</time>
      </trkpt>
      <trkpt lat="46.54735" lon="6.10139">
        <ele>1242</ele>
        <time>2022-08-02T11:43:44Z</time>
      </trkpt>
      <trkpt lat="46.54726" lon="6.10124">
        <ele>1242.3</ele>
        <time>2022-08-02T11:43:47Z</time>
      </trkpt>
      <trkpt lat="46.54717" lon="6.1011">
        <ele>1242.5</ele>
        <time>2022-08-02T11:43:50Z</time>
      </trkpt>
      <trkpt lat="46.54712" lon="6.10099">
        <ele>1242.6</ele>
        <time>2022-08-02T11:43:52Z</time>
      </trkpt>
      <trkpt lat="46.54707" lon="6.10087">
        <ele>1242.6</ele>
        <time>2022-08-02T11:43:54Z</time>
      </trkpt>
      <trkpt lat="46.54701" lon="6.10073">
        <ele>1242.5</ele>
        <time>2022-08-02T11:43:56Z</time>
      </trkpt>
      <trkpt lat="46.54696" lon="6.10058">
        <ele>1242.4</ele>
        <time>2022-08-02T11:43:58Z</time>
      </trkpt>
      <trkpt lat="46.54689" lon="6.10043">
        <ele>1242.2</ele>
        <time>2022-08-02T11:44:00Z</time>
      </trkpt>
      <trkpt lat="46.54681" lon="6.10028">
        <ele>1241.9</ele>
        <time>2022-08-02T11:44:02Z</time>
      </trkpt>
      <trkpt lat="46.54674" lon="6.10013">
        <ele>1241.7</ele>
        <time>2022-08-02T11:44:04Z</time>
      </trkpt>
      <trkpt lat="46.54666" lon="6.09995">
        <ele>1241.3</ele>
        <time>2022-08-02T11:44:06Z</time>
      </trkpt>
      <trkpt lat="46.54657" lon="6.09978">
        <ele>1241</ele>
        <time>2022-08-02T11:44:08Z</time>
      </trkpt>
      <trkpt lat="46.54647" lon="6.09963">
        <ele>1240.6</ele>
        <time>2022-08-02T11:44:10Z</time>
      </trkpt>
      <trkpt lat="46.54638" lon="6.09949">
        <ele>1240.3</ele>
        <time>2022-08-02T11:44:12Z</time>
      </trkpt>
      <trkpt lat="46.54631" lon="6.09934">
        <ele>1239.9</ele>
        <time>2022-08-02T11:44:14Z</time>
      </trkpt>
      <trkpt lat="46.54624" lon="6.09919">
        <ele>1239.6</ele>
        <time>2022-08-02T11:44:16Z</time>
      </trkpt>
      <trkpt lat="46.54618" lon="6.09902">
        <ele>1239.3</ele>
        <time>2022-08-02T11:44:18Z</time>
      </trkpt>
      <trkpt lat="46.54613" lon="6.09884">
        <ele>1239</ele>
        <time>2022-08-02T11:44:20Z</time>
      </trkpt>
      <trkpt lat="46.54611" lon="6.09865">
        <ele>1238.6</ele>
        <time>2022-08-02T11:44:22Z</time>
      </trkpt>
      <trkpt lat="46.54605" lon="6.09847">
        <ele>1238.3</ele>
        <time>2022-08-02T11:44:24Z</time>
      </trkpt>
      <trkpt lat="46.54597" lon="6.0983">
        <ele>1237.9</ele>
        <time>2022-08-02T11:44:26Z</time>
      </trkpt>
      <trkpt lat="46.5459" lon="6.09812">
        <ele>1237.5</ele>
        <time>2022-08-02T11:44:28Z</time>
      </trkpt>
      <trkpt lat="46.54582" lon="6.09798">
        <ele>1237.1</ele>
        <time>2022-08-02T11:44:30Z</time>
      </trkpt>
      <trkpt lat="46.54574" lon="6.09784">
        <ele>1236.7</ele>
        <time>2022-08-02T11:44:32Z</time>
      </trkpt>
      <trkpt lat="46.54567" lon="6.09771">
        <ele>1236.3</ele>
        <time>2022-08-02T11:44:34Z</time>
      </trkpt>
      <trkpt lat="46.54562" lon="6.09759">
        <ele>1235.9</ele>
        <time>2022-08-02T11:44:36Z</time>
      </trkpt>
      <trkpt lat="46.54555" lon="6.09743">
        <ele>1235.3</ele>
        <time>2022-08-02T11:44:39Z</time>
      </trkpt>
      <trkpt lat="46.5455" lon="6.09731">
        <ele>1234.7</ele>
        <time>2022-08-02T11:44:42Z</time>
      </trkpt>
      <trkpt lat="46.54548" lon="6.09714">
        <ele>1234</ele>
        <time>2022-08-02T11:44:46Z</time>
      </trkpt>
      <trkpt lat="46.5455" lon="6.09695">
        <ele>1233.6</ele>
        <time>2022-08-02T11:44:49Z</time>
      </trkpt>
      <trkpt lat="46.54553" lon="6.09678">
        <ele>1233.3</ele>
        <time>2022-08-02T11:44:52Z</time>
      </trkpt>
      <trkpt lat="46.54555" lon="6.09663">
        <ele>1233</ele>
        <time>2022-08-02T11:44:55Z</time>
      </trkpt>
      <trkpt lat="46.54554" lon="6.09645">
        <ele>1232.7</ele>
        <time>2022-08-02T11:44:58Z</time>
      </trkpt>
      <trkpt lat="46.54553" lon="6.09625">
        <ele>1232.6</ele>
        <time>2022-08-02T11:45:01Z</time>
      </trkpt>
      <trkpt lat="46.54554" lon="6.09611">
        <ele>1232.5</ele>
        <time>2022-08-02T11:45:03Z</time>
      </trkpt>
      <trkpt lat="46.54554" lon="6.09596">
        <ele>1232.4</ele>
        <time>2022-08-02T11:45:05Z</time>
      </trkpt>
      <trkpt lat="46.54554" lon="6.09583">
        <ele>1232.3</ele>
        <time>2022-08-02T11:45:07Z</time>
      </trkpt>
      <trkpt lat="46.54554" lon="6.09569">
        <ele>1232.3</ele>
        <time>2022-08-02T11:45:09Z</time>
      </trkpt>
      <trkpt lat="46.54555" lon="6.09554">
        <ele>1232.4</ele>
        <time>2022-08-02T11:45:11Z</time>
      </trkpt>
      <trkpt lat="46.54557" lon="6.09541">
        <ele>1232.5</ele>
        <time>2022-08-02T11:45:13Z</time>
      </trkpt>
      <trkpt lat="46.54557" lon="6.09528">
        <ele>1232.7</ele>
        <time>2022-08-02T11:45:15Z</time>
      </trkpt>
      <trkpt lat="46.54556" lon="6.09513">
        <ele>1233</ele>
        <time>2022-08-02T11:45:17Z</time>
      </trkpt>
      <trkpt lat="46.54554" lon="6.09499">
        <ele>1233.3</ele>
        <time>2022-08-02T11:45:19Z</time>
      </trkpt>
      <trkpt lat="46.54548" lon="6.09481">
        <ele>1233.8</ele>
        <time>2022-08-02T11:45:22Z</time>
      </trkpt>
      <trkpt lat="46.54542" lon="6.09466">
        <ele>1234.2</ele>
        <time>2022-08-02T11:45:25Z</time>
      </trkpt>
      <trkpt lat="46.54538" lon="6.09451">
        <ele>1234.6</ele>
        <time>2022-08-02T11:45:28Z</time>
      </trkpt>
      <trkpt lat="46.54537" lon="6.09436">
        <ele>1235.2</ele>
        <time>2022-08-02T11:45:32Z</time>
      </trkpt>
      <trkpt lat="46.54546" lon="6.0943">
        <ele>1237</ele>
        <time>2022-08-02T11:45:51Z</time>
      </trkpt>
      <trkpt lat="46.54553" lon="6.09421">
        <ele>1237.3</ele>
        <time>2022-08-02T11:45:55Z</time>
      </trkpt>
      <trkpt lat="46.54561" lon="6.09412">
        <ele>1237.7</ele>
        <time>2022-08-02T11:45:59Z</time>
      </trkpt>
      <trkpt lat="46.54571" lon="6.09406">
        <ele>1238.2</ele>
        <time>2022-08-02T11:46:03Z</time>
      </trkpt>
      <trkpt lat="46.5458" lon="6.09401">
        <ele>1238.8</ele>
        <time>2022-08-02T11:46:07Z</time>
      </trkpt>
      <trkpt lat="46.54589" lon="6.09396">
        <ele>1239.5</ele>
        <time>2022-08-02T11:46:11Z</time>
      </trkpt>
      <trkpt lat="46.54596" lon="6.09387">
        <ele>1240.3</ele>
        <time>2022-08-02T11:46:15Z</time>
      </trkpt>
      <trkpt lat="46.54603" lon="6.09375">
        <ele>1241.4</ele>
        <time>2022-08-02T11:46:20Z</time>
      </trkpt>
      <trkpt lat="46.54605" lon="6.09361">
        <ele>1242.4</ele>
        <time>2022-08-02T11:46:25Z</time>
      </trkpt>
      <trkpt lat="46.54604" lon="6.09346">
        <ele>1243.6</ele>
        <time>2022-08-02T11:46:30Z</time>
      </trkpt>
      <trkpt lat="46.54603" lon="6.09332">
        <ele>1244.9</ele>
        <time>2022-08-02T11:46:35Z</time>
      </trkpt>
      <trkpt lat="46.54605" lon="6.09316">
        <ele>1246.6</ele>
        <time>2022-08-02T11:46:41Z</time>
      </trkpt>
      <trkpt lat="46.5461" lon="6.09301">
        <ele>1247.8</ele>
        <time>2022-08-02T11:46:45Z</time>
      </trkpt>
      <trkpt lat="46.54618" lon="6.09288">
        <ele>1248.9</ele>
        <time>2022-08-02T11:46:49Z</time>
      </trkpt>
      <trkpt lat="46.54625" lon="6.09277">
        <ele>1249.8</ele>
        <time>2022-08-02T11:46:52Z</time>
      </trkpt>
      <trkpt lat="46.54633" lon="6.09266">
        <ele>1250.9</ele>
        <time>2022-08-02T11:46:56Z</time>
      </trkpt>
      <trkpt lat="46.54641" lon="6.09257">
        <ele>1251.8</ele>
        <time>2022-08-02T11:46:59Z</time>
      </trkpt>
      <trkpt lat="46.5465" lon="6.09249">
        <ele>1252.6</ele>
        <time>2022-08-02T11:47:02Z</time>
      </trkpt>
      <trkpt lat="46.5466" lon="6.09241">
        <ele>1253.7</ele>
        <time>2022-08-02T11:47:06Z</time>
      </trkpt>
      <trkpt lat="46.54669" lon="6.09233">
        <ele>1254.7</ele>
        <time>2022-08-02T11:47:10Z</time>
      </trkpt>
      <trkpt lat="46.54677" lon="6.09218">
        <ele>1255.6</ele>
        <time>2022-08-02T11:47:14Z</time>
      </trkpt>
      <trkpt lat="46.54682" lon="6.09207">
        <ele>1256.6</ele>
        <time>2022-08-02T11:47:18Z</time>
      </trkpt>
      <trkpt lat="46.54688" lon="6.09195">
        <ele>1257.7</ele>
        <time>2022-08-02T11:47:23Z</time>
      </trkpt>
      <trkpt lat="46.54692" lon="6.09183">
        <ele>1259.7</ele>
        <time>2022-08-02T11:47:42Z</time>
      </trkpt>
      <trkpt lat="46.54698" lon="6.09168">
        <ele>1259.8</ele>
        <time>2022-08-02T11:47:45Z</time>
      </trkpt>
      <trkpt lat="46.54705" lon="6.09159">
        <ele>1259.9</ele>
        <time>2022-08-02T11:47:47Z</time>
      </trkpt>
      <trkpt lat="46.54715" lon="6.09151">
        <ele>1259.9</ele>
        <time>2022-08-02T11:47:49Z</time>
      </trkpt>
      <trkpt lat="46.54728" lon="6.09144">
        <ele>1259.9</ele>
        <time>2022-08-02T11:47:51Z</time>
      </trkpt>
      <trkpt lat="46.54742" lon="6.09136">
        <ele>1259.7</ele>
        <time>2022-08-02T11:47:53Z</time>
      </trkpt>
      <trkpt lat="46.54757" lon="6.09126">
        <ele>1259.5</ele>
        <time>2022-08-02T11:47:55Z</time>
      </trkpt>
      <trkpt lat="46.5477" lon="6.09115">
        <ele>1259.1</ele>
        <time>2022-08-02T11:47:57Z</time>
      </trkpt>
      <trkpt lat="46.54782" lon="6.09107">
        <ele>1258.7</ele>
        <time>2022-08-02T11:47:59Z</time>
      </trkpt>
      <trkpt lat="46.54794" lon="6.09096">
        <ele>1258.1</ele>
        <time>2022-08-02T11:48:01Z</time>
      </trkpt>
      <trkpt lat="46.54806" lon="6.09084">
        <ele>1257.5</ele>
        <time>2022-08-02T11:48:03Z</time>
      </trkpt>
      <trkpt lat="46.54817" lon="6.0907">
        <ele>1256.8</ele>
        <time>2022-08-02T11:48:05Z</time>
      </trkpt>
      <trkpt lat="46.54827" lon="6.09056">
        <ele>1256.2</ele>
        <time>2022-08-02T11:48:07Z</time>
      </trkpt>
      <trkpt lat="46.54837" lon="6.09042">
        <ele>1255.5</ele>
        <time>2022-08-02T11:48:09Z</time>
      </trkpt>
      <trkpt lat="46.54847" lon="6.09028">
        <ele>1254.9</ele>
        <time>2022-08-02T11:48:11Z</time>
      </trkpt>
      <trkpt lat="46.54857" lon="6.09014">
        <ele>1254.2</ele>
        <time>2022-08-02T11:48:13Z</time>
      </trkpt>
      <trkpt lat="46.54867" lon="6.08997">
        <ele>1253.4</ele>
        <time>2022-08-02T11:48:15Z</time>
      </trkpt>
      <trkpt lat="46.54874" lon="6.08987">
        <ele>1253</ele>
        <time>2022-08-02T11:48:16Z</time>
      </trkpt>
      <trkpt lat="46.5488" lon="6.08977">
        <ele>1252.5</ele>
        <time>2022-08-02T11:48:17Z</time>
      </trkpt>
      <trkpt lat="46.54893" lon="6.08961">
        <ele>1251.5</ele>
        <time>2022-08-02T11:48:19Z</time>
      </trkpt>
      <trkpt lat="46.54907" lon="6.08948">
        <ele>1250.5</ele>
        <time>2022-08-02T11:48:21Z</time>
      </trkpt>
      <trkpt lat="46.54923" lon="6.08935">
        <ele>1249.4</ele>
        <time>2022-08-02T11:48:23Z</time>
      </trkpt>
      <trkpt lat="46.54931" lon="6.08928">
        <ele>1249</ele>
        <time>2022-08-02T11:48:24Z</time>
      </trkpt>
      <trkpt lat="46.54939" lon="6.0892">
        <ele>1248.5</ele>
        <time>2022-08-02T11:48:25Z</time>
      </trkpt>
      <trkpt lat="46.54952" lon="6.08905">
        <ele>1247.6</ele>
        <time>2022-08-02T11:48:27Z</time>
      </trkpt>
      <trkpt lat="46.54966" lon="6.08889">
        <ele>1246.8</ele>
        <time>2022-08-02T11:48:29Z</time>
      </trkpt>
      <trkpt lat="46.54978" lon="6.08873">
        <ele>1246.1</ele>
        <time>2022-08-02T11:48:31Z</time>
      </trkpt>
      <trkpt lat="46.5499" lon="6.0886">
        <ele>1245.3</ele>
        <time>2022-08-02T11:48:33Z</time>
      </trkpt>
      <trkpt lat="46.55" lon="6.0885">
        <ele>1244.5</ele>
        <time>2022-08-02T11:48:35Z</time>
      </trkpt>
      <trkpt lat="46.55011" lon="6.08841">
        <ele>1243.7</ele>
        <time>2022-08-02T11:48:37Z</time>
      </trkpt>
      <trkpt lat="46.55024" lon="6.08831">
        <ele>1242.9</ele>
        <time>2022-08-02T11:48:39Z</time>
      </trkpt>
      <trkpt lat="46.55039" lon="6.08825">
        <ele>1242.1</ele>
        <time>2022-08-02T11:48:41Z</time>
      </trkpt>
      <trkpt lat="46.55055" lon="6.08822">
        <ele>1241.3</ele>
        <time>2022-08-02T11:48:43Z</time>
      </trkpt>
      <trkpt lat="46.5507" lon="6.0882">
        <ele>1240.6</ele>
        <time>2022-08-02T11:48:45Z</time>
      </trkpt>
      <trkpt lat="46.55086" lon="6.08819">
        <ele>1240</ele>
        <time>2022-08-02T11:48:47Z</time>
      </trkpt>
      <trkpt lat="46.55099" lon="6.08814">
        <ele>1239.4</ele>
        <time>2022-08-02T11:48:49Z</time>
      </trkpt>
      <trkpt lat="46.55109" lon="6.08805">
        <ele>1238.9</ele>
        <time>2022-08-02T11:48:51Z</time>
      </trkpt>
      <trkpt lat="46.55117" lon="6.08794">
        <ele>1238.5</ele>
        <time>2022-08-02T11:48:53Z</time>
      </trkpt>
      <trkpt lat="46.55125" lon="6.08784">
        <ele>1238.1</ele>
        <time>2022-08-02T11:48:55Z</time>
      </trkpt>
      <trkpt lat="46.55133" lon="6.08777">
        <ele>1237.7</ele>
        <time>2022-08-02T11:48:57Z</time>
      </trkpt>
      <trkpt lat="46.55146" lon="6.08772">
        <ele>1237.3</ele>
        <time>2022-08-02T11:49:00Z</time>
      </trkpt>
      <trkpt lat="46.55159" lon="6.08772">
        <ele>1236.9</ele>
        <time>2022-08-02T11:49:03Z</time>
      </trkpt>
      <trkpt lat="46.55172" lon="6.08773">
        <ele>1236.6</ele>
        <time>2022-08-02T11:49:06Z</time>
      </trkpt>
      <trkpt lat="46.55184" lon="6.08774">
        <ele>1236.4</ele>
        <time>2022-08-02T11:49:09Z</time>
      </trkpt>
      <trkpt lat="46.55195" lon="6.08775">
        <ele>1236.2</ele>
        <time>2022-08-02T11:49:12Z</time>
      </trkpt>
      <trkpt lat="46.55207" lon="6.08775">
        <ele>1236</ele>
        <time>2022-08-02T11:49:15Z</time>
      </trkpt>
      <trkpt lat="46.55219" lon="6.08771">
        <ele>1235.9</ele>
        <time>2022-08-02T11:49:18Z</time>
      </trkpt>
      <trkpt lat="46.5523" lon="6.08764">
        <ele>1235.7</ele>
        <time>2022-08-02T11:49:21Z</time>
      </trkpt>
      <trkpt lat="46.5524" lon="6.08754">
        <ele>1235.6</ele>
        <time>2022-08-02T11:49:24Z</time>
      </trkpt>
      <trkpt lat="46.55251" lon="6.08745">
        <ele>1235.6</ele>
        <time>2022-08-02T11:49:27Z</time>
      </trkpt>
      <trkpt lat="46.55264" lon="6.08737">
        <ele>1235.5</ele>
        <time>2022-08-02T11:49:30Z</time>
      </trkpt>
      <trkpt lat="46.55274" lon="6.08729">
        <ele>1235.5</ele>
        <time>2022-08-02T11:49:32Z</time>
      </trkpt>
      <trkpt lat="46.55283" lon="6.08722">
        <ele>1235.4</ele>
        <time>2022-08-02T11:49:34Z</time>
      </trkpt>
      <trkpt lat="46.55295" lon="6.08716">
        <ele>1235.4</ele>
        <time>2022-08-02T11:49:37Z</time>
      </trkpt>
      <trkpt lat="46.55308" lon="6.08715">
        <ele>1235.4</ele>
        <time>2022-08-02T11:49:40Z</time>
      </trkpt>
      <trkpt lat="46.5532" lon="6.08716">
        <ele>1235.5</ele>
        <time>2022-08-02T11:49:43Z</time>
      </trkpt>
      <trkpt lat="46.55331" lon="6.08716">
        <ele>1235.7</ele>
        <time>2022-08-02T11:49:46Z</time>
      </trkpt>
      <trkpt lat="46.55342" lon="6.0871">
        <ele>1236</ele>
        <time>2022-08-02T11:49:49Z</time>
      </trkpt>
      <trkpt lat="46.5535" lon="6.087">
        <ele>1236.3</ele>
        <time>2022-08-02T11:49:52Z</time>
      </trkpt>
      <trkpt lat="46.55358" lon="6.0869">
        <ele>1236.6</ele>
        <time>2022-08-02T11:49:55Z</time>
      </trkpt>
      <trkpt lat="46.55364" lon="6.08678">
        <ele>1237</ele>
        <time>2022-08-02T11:49:58Z</time>
      </trkpt>
      <trkpt lat="46.55372" lon="6.08667">
        <ele>1237.3</ele>
        <time>2022-08-02T11:50:01Z</time>
      </trkpt>
      <trkpt lat="46.55381" lon="6.08655">
        <ele>1237.7</ele>
        <time>2022-08-02T11:50:04Z</time>
      </trkpt>
      <trkpt lat="46.55388" lon="6.08645">
        <ele>1238</ele>
        <time>2022-08-02T11:50:07Z</time>
      </trkpt>
      <trkpt lat="46.55393" lon="6.08634">
        <ele>1238.3</ele>
        <time>2022-08-02T11:50:10Z</time>
      </trkpt>
      <trkpt lat="46.55401" lon="6.0862">
        <ele>1238.6</ele>
        <time>2022-08-02T11:50:14Z</time>
      </trkpt>
      <trkpt lat="46.55408" lon="6.08609">
        <ele>1238.8</ele>
        <time>2022-08-02T11:50:17Z</time>
      </trkpt>
      <trkpt lat="46.55412" lon="6.08593">
        <ele>1239</ele>
        <time>2022-08-02T11:50:21Z</time>
      </trkpt>
      <trkpt lat="46.55416" lon="6.08581">
        <ele>1239</ele>
        <time>2022-08-02T11:50:23Z</time>
      </trkpt>
      <trkpt lat="46.55422" lon="6.08569">
        <ele>1239.1</ele>
        <time>2022-08-02T11:50:25Z</time>
      </trkpt>
      <trkpt lat="46.55429" lon="6.08559">
        <ele>1239.2</ele>
        <time>2022-08-02T11:50:27Z</time>
      </trkpt>
      <trkpt lat="46.55438" lon="6.08552">
        <ele>1239.2</ele>
        <time>2022-08-02T11:50:29Z</time>
      </trkpt>
      <trkpt lat="46.5545" lon="6.08543">
        <ele>1239.3</ele>
        <time>2022-08-02T11:50:32Z</time>
      </trkpt>
      <trkpt lat="46.55458" lon="6.08537">
        <ele>1239.3</ele>
        <time>2022-08-02T11:50:34Z</time>
      </trkpt>
      <trkpt lat="46.55467" lon="6.08532">
        <ele>1239.3</ele>
        <time>2022-08-02T11:50:36Z</time>
      </trkpt>
      <trkpt lat="46.55477" lon="6.08528">
        <ele>1239.4</ele>
        <time>2022-08-02T11:50:38Z</time>
      </trkpt>
      <trkpt lat="46.55486" lon="6.08526">
        <ele>1239.4</ele>
        <time>2022-08-02T11:50:40Z</time>
      </trkpt>
      <trkpt lat="46.55495" lon="6.08522">
        <ele>1239.4</ele>
        <time>2022-08-02T11:50:42Z</time>
      </trkpt>
      <trkpt lat="46.55508" lon="6.08518">
        <ele>1239.4</ele>
        <time>2022-08-02T11:50:45Z</time>
      </trkpt>
      <trkpt lat="46.55517" lon="6.08512">
        <ele>1239.5</ele>
        <time>2022-08-02T11:50:47Z</time>
      </trkpt>
      <trkpt lat="46.55526" lon="6.08499">
        <ele>1239.5</ele>
        <time>2022-08-02T11:50:50Z</time>
      </trkpt>
      <trkpt lat="46.55532" lon="6.08486">
        <ele>1239.5</ele>
        <time>2022-08-02T11:50:52Z</time>
      </trkpt>
      <trkpt lat="46.55537" lon="6.08472">
        <ele>1239.5</ele>
        <time>2022-08-02T11:50:54Z</time>
      </trkpt>
      <trkpt lat="46.55544" lon="6.08456">
        <ele>1239.4</ele>
        <time>2022-08-02T11:50:56Z</time>
      </trkpt>
      <trkpt lat="46.55551" lon="6.0844">
        <ele>1239.3</ele>
        <time>2022-08-02T11:50:58Z</time>
      </trkpt>
      <trkpt lat="46.55559" lon="6.08424">
        <ele>1239.1</ele>
        <time>2022-08-02T11:51:00Z</time>
      </trkpt>
      <trkpt lat="46.55568" lon="6.0841">
        <ele>1238.7</ele>
        <time>2022-08-02T11:51:02Z</time>
      </trkpt>
      <trkpt lat="46.55582" lon="6.08399">
        <ele>1238.3</ele>
        <time>2022-08-02T11:51:04Z</time>
      </trkpt>
      <trkpt lat="46.55598" lon="6.08397">
        <ele>1237.7</ele>
        <time>2022-08-02T11:51:06Z</time>
      </trkpt>
      <trkpt lat="46.55607" lon="6.084">
        <ele>1237.3</ele>
        <time>2022-08-02T11:51:07Z</time>
      </trkpt>
      <trkpt lat="46.55623" lon="6.08406">
        <ele>1236.6</ele>
        <time>2022-08-02T11:51:09Z</time>
      </trkpt>
      <trkpt lat="46.5564" lon="6.08408">
        <ele>1235.8</ele>
        <time>2022-08-02T11:51:11Z</time>
      </trkpt>
      <trkpt lat="46.55657" lon="6.0841">
        <ele>1234.9</ele>
        <time>2022-08-02T11:51:13Z</time>
      </trkpt>
      <trkpt lat="46.55675" lon="6.08415">
        <ele>1233.9</ele>
        <time>2022-08-02T11:51:15Z</time>
      </trkpt>
      <trkpt lat="46.55691" lon="6.08422">
        <ele>1233</ele>
        <time>2022-08-02T11:51:17Z</time>
      </trkpt>
      <trkpt lat="46.55707" lon="6.08432">
        <ele>1231.9</ele>
        <time>2022-08-02T11:51:19Z</time>
      </trkpt>
      <trkpt lat="46.55723" lon="6.08444">
        <ele>1230.7</ele>
        <time>2022-08-02T11:51:21Z</time>
      </trkpt>
      <trkpt lat="46.55739" lon="6.08455">
        <ele>1229.4</ele>
        <time>2022-08-02T11:51:23Z</time>
      </trkpt>
      <trkpt lat="46.55748" lon="6.0846">
        <ele>1228.7</ele>
        <time>2022-08-02T11:51:24Z</time>
      </trkpt>
      <trkpt lat="46.55757" lon="6.08463">
        <ele>1228.1</ele>
        <time>2022-08-02T11:51:25Z</time>
      </trkpt>
      <trkpt lat="46.55766" lon="6.08464">
        <ele>1227.4</ele>
        <time>2022-08-02T11:51:26Z</time>
      </trkpt>
      <trkpt lat="46.55775" lon="6.08465">
        <ele>1226.6</ele>
        <time>2022-08-02T11:51:27Z</time>
      </trkpt>
      <trkpt lat="46.55791" lon="6.08465">
        <ele>1225.1</ele>
        <time>2022-08-02T11:51:29Z</time>
      </trkpt>
      <trkpt lat="46.55801" lon="6.08456">
        <ele>1223.7</ele>
        <time>2022-08-02T11:51:31Z</time>
      </trkpt>
      <trkpt lat="46.55802" lon="6.08443">
        <ele>1222.4</ele>
        <time>2022-08-02T11:51:33Z</time>
      </trkpt>
      <trkpt lat="46.55796" lon="6.0843">
        <ele>1221.1</ele>
        <time>2022-08-02T11:51:35Z</time>
      </trkpt>
      <trkpt lat="46.55784" lon="6.08422">
        <ele>1219.9</ele>
        <time>2022-08-02T11:51:37Z</time>
      </trkpt>
      <trkpt lat="46.55772" lon="6.08418">
        <ele>1218.8</ele>
        <time>2022-08-02T11:51:39Z</time>
      </trkpt>
      <trkpt lat="46.5576" lon="6.08415">
        <ele>1217.8</ele>
        <time>2022-08-02T11:51:41Z</time>
      </trkpt>
      <trkpt lat="46.55747" lon="6.08414">
        <ele>1216.8</ele>
        <time>2022-08-02T11:51:43Z</time>
      </trkpt>
      <trkpt lat="46.55736" lon="6.08414">
        <ele>1215.9</ele>
        <time>2022-08-02T11:51:45Z</time>
      </trkpt>
      <trkpt lat="46.55726" lon="6.08409">
        <ele>1214.5</ele>
        <time>2022-08-02T11:51:48Z</time>
      </trkpt>
      <trkpt lat="46.55719" lon="6.08398">
        <ele>1213.1</ele>
        <time>2022-08-02T11:51:51Z</time>
      </trkpt>
      <trkpt lat="46.55711" lon="6.08392">
        <ele>1211.8</ele>
        <time>2022-08-02T11:51:54Z</time>
      </trkpt>
      <trkpt lat="46.557" lon="6.08385">
        <ele>1210.3</ele>
        <time>2022-08-02T11:51:57Z</time>
      </trkpt>
      <trkpt lat="46.5569" lon="6.08379">
        <ele>1209.1</ele>
        <time>2022-08-02T11:51:59Z</time>
      </trkpt>
      <trkpt lat="46.5568" lon="6.08373">
        <ele>1208</ele>
        <time>2022-08-02T11:52:01Z</time>
      </trkpt>
      <trkpt lat="46.55672" lon="6.08368">
        <ele>1206.9</ele>
        <time>2022-08-02T11:52:03Z</time>
      </trkpt>
      <trkpt lat="46.55664" lon="6.08359">
        <ele>1205.3</ele>
        <time>2022-08-02T11:52:06Z</time>
      </trkpt>
      <trkpt lat="46.55658" lon="6.08346">
        <ele>1203.8</ele>
        <time>2022-08-02T11:52:09Z</time>
      </trkpt>
      <trkpt lat="46.55658" lon="6.08332">
        <ele>1202.3</ele>
        <time>2022-08-02T11:52:12Z</time>
      </trkpt>
      <trkpt lat="46.55663" lon="6.08321">
        <ele>1200.7</ele>
        <time>2022-08-02T11:52:15Z</time>
      </trkpt>
      <trkpt lat="46.55673" lon="6.08311">
        <ele>1199.3</ele>
        <time>2022-08-02T11:52:18Z</time>
      </trkpt>
      <trkpt lat="46.55681" lon="6.08304">
        <ele>1198.3</ele>
        <time>2022-08-02T11:52:20Z</time>
      </trkpt>
      <trkpt lat="46.5569" lon="6.08297">
        <ele>1197.4</ele>
        <time>2022-08-02T11:52:22Z</time>
      </trkpt>
      <trkpt lat="46.55699" lon="6.0829">
        <ele>1196.5</ele>
        <time>2022-08-02T11:52:24Z</time>
      </trkpt>
      <trkpt lat="46.5571" lon="6.08281">
        <ele>1195.2</ele>
        <time>2022-08-02T11:52:27Z</time>
      </trkpt>
      <trkpt lat="46.5572" lon="6.08272">
        <ele>1194</ele>
        <time>2022-08-02T11:52:30Z</time>
      </trkpt>
      <trkpt lat="46.5573" lon="6.08257">
        <ele>1192.9</ele>
        <time>2022-08-02T11:52:33Z</time>
      </trkpt>
      <trkpt lat="46.55737" lon="6.08246">
        <ele>1192.3</ele>
        <time>2022-08-02T11:52:35Z</time>
      </trkpt>
      <trkpt lat="46.55743" lon="6.08231">
        <ele>1191.3</ele>
        <time>2022-08-02T11:52:38Z</time>
      </trkpt>
      <trkpt lat="46.55747" lon="6.08216">
        <ele>1190.3</ele>
        <time>2022-08-02T11:52:41Z</time>
      </trkpt>
      <trkpt lat="46.55752" lon="6.08202">
        <ele>1189.2</ele>
        <time>2022-08-02T11:52:44Z</time>
      </trkpt>
      <trkpt lat="46.55758" lon="6.08185">
        <ele>1188</ele>
        <time>2022-08-02T11:52:47Z</time>
      </trkpt>
      <trkpt lat="46.55764" lon="6.0817">
        <ele>1187.4</ele>
        <time>2022-08-02T11:52:49Z</time>
      </trkpt>
      <trkpt lat="46.5577" lon="6.08159">
        <ele>1186.8</ele>
        <time>2022-08-02T11:52:51Z</time>
      </trkpt>
      <trkpt lat="46.55772" lon="6.08145">
        <ele>1185.9</ele>
        <time>2022-08-02T11:52:54Z</time>
      </trkpt>
      <trkpt lat="46.55772" lon="6.08132">
        <ele>1184.8</ele>
        <time>2022-08-02T11:52:58Z</time>
      </trkpt>
      <trkpt lat="46.55774" lon="6.08118">
        <ele>1184.1</ele>
        <time>2022-08-02T11:53:01Z</time>
      </trkpt>
      <trkpt lat="46.55777" lon="6.08103">
        <ele>1183.2</ele>
        <time>2022-08-02T11:53:04Z</time>
      </trkpt>
      <trkpt lat="46.55785" lon="6.08089">
        <ele>1182.4</ele>
        <time>2022-08-02T11:53:07Z</time>
      </trkpt>
      <trkpt lat="46.55791" lon="6.08076">
        <ele>1181.3</ele>
        <time>2022-08-02T11:53:11Z</time>
      </trkpt>
      <trkpt lat="46.55796" lon="6.08065">
        <ele>1180</ele>
        <time>2022-08-02T11:53:16Z</time>
      </trkpt>
      <trkpt lat="46.55802" lon="6.08054">
        <ele>1179</ele>
        <time>2022-08-02T11:53:20Z</time>
      </trkpt>
      <trkpt lat="46.5581" lon="6.08047">
        <ele>1178</ele>
        <time>2022-08-02T11:53:24Z</time>
      </trkpt>
      <trkpt lat="46.55819" lon="6.08041">
        <ele>1177.2</ele>
        <time>2022-08-02T11:53:27Z</time>
      </trkpt>
      <trkpt lat="46.55826" lon="6.08032">
        <ele>1176.4</ele>
        <time>2022-08-02T11:53:30Z</time>
      </trkpt>
      <trkpt lat="46.55831" lon="6.08019">
        <ele>1175.4</ele>
        <time>2022-08-02T11:53:34Z</time>
      </trkpt>
      <trkpt lat="46.55832" lon="6.08005">
        <ele>1174</ele>
        <time>2022-08-02T11:53:39Z</time>
      </trkpt>
      <trkpt lat="46.55834" lon="6.07989">
        <ele>1172.2</ele>
        <time>2022-08-02T11:53:44Z</time>
      </trkpt>
      <trkpt lat="46.55841" lon="6.07979">
        <ele>1170.8</ele>
        <time>2022-08-02T11:53:48Z</time>
      </trkpt>
      <trkpt lat="46.55847" lon="6.07966">
        <ele>1169</ele>
        <time>2022-08-02T11:53:53Z</time>
      </trkpt>
      <trkpt lat="46.55849" lon="6.07951">
        <ele>1167</ele>
        <time>2022-08-02T11:53:58Z</time>
      </trkpt>
      <trkpt lat="46.55847" lon="6.07937">
        <ele>1165.5</ele>
        <time>2022-08-02T11:54:02Z</time>
      </trkpt>
      <trkpt lat="46.55839" lon="6.07929">
        <ele>1164</ele>
        <time>2022-08-02T11:54:06Z</time>
      </trkpt>
      <trkpt lat="46.55847" lon="6.07922">
        <ele>1162</ele>
        <time>2022-08-02T11:54:13Z</time>
      </trkpt>
      <trkpt lat="46.55857" lon="6.07919">
        <ele>1157.6</ele>
        <time>2022-08-02T11:54:59Z</time>
      </trkpt>
      <trkpt lat="46.55869" lon="6.07924">
        <ele>1157.5</ele>
        <time>2022-08-02T11:55:03Z</time>
      </trkpt>
      <trkpt lat="46.5588" lon="6.07931">
        <ele>1157.4</ele>
        <time>2022-08-02T11:55:06Z</time>
      </trkpt>
      <trkpt lat="46.5589" lon="6.0794">
        <ele>1157.1</ele>
        <time>2022-08-02T11:55:09Z</time>
      </trkpt>
      <trkpt lat="46.55897" lon="6.07948">
        <ele>1156.7</ele>
        <time>2022-08-02T11:55:11Z</time>
      </trkpt>
      <trkpt lat="46.55905" lon="6.07956">
        <ele>1156.2</ele>
        <time>2022-08-02T11:55:13Z</time>
      </trkpt>
      <trkpt lat="46.55914" lon="6.07965">
        <ele>1155.7</ele>
        <time>2022-08-02T11:55:15Z</time>
      </trkpt>
      <trkpt lat="46.55923" lon="6.07971">
        <ele>1155</ele>
        <time>2022-08-02T11:55:17Z</time>
      </trkpt>
      <trkpt lat="46.55935" lon="6.07974">
        <ele>1154.4</ele>
        <time>2022-08-02T11:55:19Z</time>
      </trkpt>
      <trkpt lat="46.55947" lon="6.0797">
        <ele>1153.8</ele>
        <time>2022-08-02T11:55:21Z</time>
      </trkpt>
      <trkpt lat="46.5596" lon="6.07964">
        <ele>1153.3</ele>
        <time>2022-08-02T11:55:23Z</time>
      </trkpt>
      <trkpt lat="46.55973" lon="6.07957">
        <ele>1152.6</ele>
        <time>2022-08-02T11:55:25Z</time>
      </trkpt>
      <trkpt lat="46.55987" lon="6.07953">
        <ele>1152.1</ele>
        <time>2022-08-02T11:55:27Z</time>
      </trkpt>
      <trkpt lat="46.56002" lon="6.07952">
        <ele>1151.5</ele>
        <time>2022-08-02T11:55:29Z</time>
      </trkpt>
      <trkpt lat="46.56017" lon="6.07951">
        <ele>1151</ele>
        <time>2022-08-02T11:55:31Z</time>
      </trkpt>
      <trkpt lat="46.56031" lon="6.0795">
        <ele>1150.5</ele>
        <time>2022-08-02T11:55:33Z</time>
      </trkpt>
      <trkpt lat="46.56045" lon="6.07951">
        <ele>1150</ele>
        <time>2022-08-02T11:55:35Z</time>
      </trkpt>
      <trkpt lat="46.56059" lon="6.07954">
        <ele>1149.5</ele>
        <time>2022-08-02T11:55:37Z</time>
      </trkpt>
      <trkpt lat="46.56072" lon="6.07958">
        <ele>1148.9</ele>
        <time>2022-08-02T11:55:39Z</time>
      </trkpt>
      <trkpt lat="46.56085" lon="6.0796">
        <ele>1148.1</ele>
        <time>2022-08-02T11:55:41Z</time>
      </trkpt>
      <trkpt lat="46.56096" lon="6.07964">
        <ele>1147.3</ele>
        <time>2022-08-02T11:55:43Z</time>
      </trkpt>
      <trkpt lat="46.56107" lon="6.07967">
        <ele>1146.3</ele>
        <time>2022-08-02T11:55:45Z</time>
      </trkpt>
      <trkpt lat="46.56118" lon="6.0797">
        <ele>1145.3</ele>
        <time>2022-08-02T11:55:47Z</time>
      </trkpt>
      <trkpt lat="46.56127" lon="6.07972">
        <ele>1144.2</ele>
        <time>2022-08-02T11:55:49Z</time>
      </trkpt>
      <trkpt lat="46.56137" lon="6.07969">
        <ele>1142.7</ele>
        <time>2022-08-02T11:55:52Z</time>
      </trkpt>
      <trkpt lat="46.56144" lon="6.07953">
        <ele>1141.2</ele>
        <time>2022-08-02T11:55:55Z</time>
      </trkpt>
      <trkpt lat="46.56147" lon="6.07938">
        <ele>1140.2</ele>
        <time>2022-08-02T11:55:57Z</time>
      </trkpt>
      <trkpt lat="46.56154" lon="6.07922">
        <ele>1139.3</ele>
        <time>2022-08-02T11:55:59Z</time>
      </trkpt>
      <trkpt lat="46.56163" lon="6.07912">
        <ele>1138.4</ele>
        <time>2022-08-02T11:56:01Z</time>
      </trkpt>
      <trkpt lat="46.56171" lon="6.07902">
        <ele>1137.4</ele>
        <time>2022-08-02T11:56:03Z</time>
      </trkpt>
      <trkpt lat="46.5618" lon="6.07891">
        <ele>1136.4</ele>
        <time>2022-08-02T11:56:05Z</time>
      </trkpt>
      <trkpt lat="46.56187" lon="6.07875">
        <ele>1135.4</ele>
        <time>2022-08-02T11:56:07Z</time>
      </trkpt>
      <trkpt lat="46.56195" lon="6.07858">
        <ele>1134.4</ele>
        <time>2022-08-02T11:56:09Z</time>
      </trkpt>
      <trkpt lat="46.56202" lon="6.07838">
        <ele>1133.3</ele>
        <time>2022-08-02T11:56:11Z</time>
      </trkpt>
      <trkpt lat="46.56208" lon="6.07819">
        <ele>1132.2</ele>
        <time>2022-08-02T11:56:13Z</time>
      </trkpt>
      <trkpt lat="46.56214" lon="6.07799">
        <ele>1131</ele>
        <time>2022-08-02T11:56:15Z</time>
      </trkpt>
      <trkpt lat="46.56219" lon="6.07779">
        <ele>1129.8</ele>
        <time>2022-08-02T11:56:17Z</time>
      </trkpt>
      <trkpt lat="46.56224" lon="6.0776">
        <ele>1128.6</ele>
        <time>2022-08-02T11:56:19Z</time>
      </trkpt>
      <trkpt lat="46.56229" lon="6.0774">
        <ele>1127.4</ele>
        <time>2022-08-02T11:56:21Z</time>
      </trkpt>
      <trkpt lat="46.56234" lon="6.07715">
        <ele>1126.2</ele>
        <time>2022-08-02T11:56:23Z</time>
      </trkpt>
      <trkpt lat="46.5624" lon="6.0769">
        <ele>1125</ele>
        <time>2022-08-02T11:56:25Z</time>
      </trkpt>
      <trkpt lat="46.56245" lon="6.07665">
        <ele>1123.9</ele>
        <time>2022-08-02T11:56:27Z</time>
      </trkpt>
      <trkpt lat="46.56249" lon="6.07653">
        <ele>1123.2</ele>
        <time>2022-08-02T11:56:28Z</time>
      </trkpt>
      <trkpt lat="46.56255" lon="6.07629">
        <ele>1122</ele>
        <time>2022-08-02T11:56:30Z</time>
      </trkpt>
      <trkpt lat="46.56262" lon="6.07606">
        <ele>1120.6</ele>
        <time>2022-08-02T11:56:32Z</time>
      </trkpt>
      <trkpt lat="46.56271" lon="6.07586">
        <ele>1119.2</ele>
        <time>2022-08-02T11:56:34Z</time>
      </trkpt>
      <trkpt lat="46.56281" lon="6.07565">
        <ele>1117.9</ele>
        <time>2022-08-02T11:56:36Z</time>
      </trkpt>
      <trkpt lat="46.56291" lon="6.07547">
        <ele>1116.5</ele>
        <time>2022-08-02T11:56:38Z</time>
      </trkpt>
      <trkpt lat="46.56303" lon="6.0754">
        <ele>1115.1</ele>
        <time>2022-08-02T11:56:40Z</time>
      </trkpt>
      <trkpt lat="46.56315" lon="6.0754">
        <ele>1113.8</ele>
        <time>2022-08-02T11:56:42Z</time>
      </trkpt>
      <trkpt lat="46.56324" lon="6.07545">
        <ele>1112.5</ele>
        <time>2022-08-02T11:56:44Z</time>
      </trkpt>
      <trkpt lat="46.56329" lon="6.07563">
        <ele>1110.6</ele>
        <time>2022-08-02T11:56:47Z</time>
      </trkpt>
      <trkpt lat="46.56322" lon="6.07579">
        <ele>1109</ele>
        <time>2022-08-02T11:56:50Z</time>
      </trkpt>
      <trkpt lat="46.56316" lon="6.07596">
        <ele>1107.6</ele>
        <time>2022-08-02T11:56:53Z</time>
      </trkpt>
      <trkpt lat="46.56311" lon="6.07613">
        <ele>1106.5</ele>
        <time>2022-08-02T11:56:56Z</time>
      </trkpt>
      <trkpt lat="46.56306" lon="6.07631">
        <ele>1105.6</ele>
        <time>2022-08-02T11:56:59Z</time>
      </trkpt>
      <trkpt lat="46.56303" lon="6.07648">
        <ele>1105</ele>
        <time>2022-08-02T11:57:02Z</time>
      </trkpt>
      <trkpt lat="46.56303" lon="6.07665">
        <ele>1104.5</ele>
        <time>2022-08-02T11:57:05Z</time>
      </trkpt>
      <trkpt lat="46.56307" lon="6.07682">
        <ele>1104.2</ele>
        <time>2022-08-02T11:57:08Z</time>
      </trkpt>
      <trkpt lat="46.56312" lon="6.07697">
        <ele>1104</ele>
        <time>2022-08-02T11:57:11Z</time>
      </trkpt>
      <trkpt lat="46.56318" lon="6.07715">
        <ele>1103.9</ele>
        <time>2022-08-02T11:57:14Z</time>
      </trkpt>
      <trkpt lat="46.56322" lon="6.07728">
        <ele>1103.8</ele>
        <time>2022-08-02T11:57:16Z</time>
      </trkpt>
      <trkpt lat="46.56326" lon="6.07743">
        <ele>1103.7</ele>
        <time>2022-08-02T11:57:18Z</time>
      </trkpt>
      <trkpt lat="46.5633" lon="6.07759">
        <ele>1103.6</ele>
        <time>2022-08-02T11:57:20Z</time>
      </trkpt>
      <trkpt lat="46.56334" lon="6.07775">
        <ele>1103.6</ele>
        <time>2022-08-02T11:57:22Z</time>
      </trkpt>
      <trkpt lat="46.56341" lon="6.07791">
        <ele>1103.5</ele>
        <time>2022-08-02T11:57:24Z</time>
      </trkpt>
      <trkpt lat="46.56348" lon="6.07806">
        <ele>1103.4</ele>
        <time>2022-08-02T11:57:26Z</time>
      </trkpt>
      <trkpt lat="46.56357" lon="6.07818">
        <ele>1103.2</ele>
        <time>2022-08-02T11:57:28Z</time>
      </trkpt>
      <trkpt lat="46.56367" lon="6.07827">
        <ele>1103</ele>
        <time>2022-08-02T11:57:30Z</time>
      </trkpt>
      <trkpt lat="46.56379" lon="6.07835">
        <ele>1102.9</ele>
        <time>2022-08-02T11:57:32Z</time>
      </trkpt>
      <trkpt lat="46.56392" lon="6.07843">
        <ele>1102.7</ele>
        <time>2022-08-02T11:57:34Z</time>
      </trkpt>
      <trkpt lat="46.56406" lon="6.0785">
        <ele>1102.5</ele>
        <time>2022-08-02T11:57:36Z</time>
      </trkpt>
      <trkpt lat="46.56419" lon="6.07855">
        <ele>1102.2</ele>
        <time>2022-08-02T11:57:38Z</time>
      </trkpt>
      <trkpt lat="46.56432" lon="6.07859">
        <ele>1101.9</ele>
        <time>2022-08-02T11:57:40Z</time>
      </trkpt>
      <trkpt lat="46.56445" lon="6.07861">
        <ele>1101.7</ele>
        <time>2022-08-02T11:57:42Z</time>
      </trkpt>
      <trkpt lat="46.56457" lon="6.07861">
        <ele>1101.5</ele>
        <time>2022-08-02T11:57:44Z</time>
      </trkpt>
      <trkpt lat="46.56468" lon="6.07857">
        <ele>1101.3</ele>
        <time>2022-08-02T11:57:46Z</time>
      </trkpt>
      <trkpt lat="46.56477" lon="6.07853">
        <ele>1101.1</ele>
        <time>2022-08-02T11:57:48Z</time>
      </trkpt>
      <trkpt lat="46.56487" lon="6.07848">
        <ele>1100.8</ele>
        <time>2022-08-02T11:57:51Z</time>
      </trkpt>
      <trkpt lat="46.56498" lon="6.07842">
        <ele>1100.6</ele>
        <time>2022-08-02T11:57:55Z</time>
      </trkpt>
      <trkpt lat="46.56508" lon="6.07838">
        <ele>1100.4</ele>
        <time>2022-08-02T11:57:58Z</time>
      </trkpt>
      <trkpt lat="46.56518" lon="6.07835">
        <ele>1100.4</ele>
        <time>2022-08-02T11:58:01Z</time>
      </trkpt>
      <trkpt lat="46.56529" lon="6.07834">
        <ele>1100.4</ele>
        <time>2022-08-02T11:58:04Z</time>
      </trkpt>
      <trkpt lat="46.56541" lon="6.07839">
        <ele>1100.6</ele>
        <time>2022-08-02T11:58:07Z</time>
      </trkpt>
      <trkpt lat="46.56551" lon="6.07847">
        <ele>1101</ele>
        <time>2022-08-02T11:58:10Z</time>
      </trkpt>
      <trkpt lat="46.56559" lon="6.07859">
        <ele>1101.3</ele>
        <time>2022-08-02T11:58:13Z</time>
      </trkpt>
      <trkpt lat="46.56566" lon="6.07871">
        <ele>1101.7</ele>
        <time>2022-08-02T11:58:16Z</time>
      </trkpt>
      <trkpt lat="46.56572" lon="6.07882">
        <ele>1102.2</ele>
        <time>2022-08-02T11:58:19Z</time>
      </trkpt>
      <trkpt lat="46.56579" lon="6.07894">
        <ele>1102.8</ele>
        <time>2022-08-02T11:58:22Z</time>
      </trkpt>
      <trkpt lat="46.56586" lon="6.07908">
        <ele>1103.5</ele>
        <time>2022-08-02T11:58:25Z</time>
      </trkpt>
      <trkpt lat="46.56593" lon="6.07922">
        <ele>1104.2</ele>
        <time>2022-08-02T11:58:28Z</time>
      </trkpt>
      <trkpt lat="46.56599" lon="6.07936">
        <ele>1105</ele>
        <time>2022-08-02T11:58:31Z</time>
      </trkpt>
      <trkpt lat="46.56605" lon="6.07951">
        <ele>1105.8</ele>
        <time>2022-08-02T11:58:34Z</time>
      </trkpt>
      <trkpt lat="46.56611" lon="6.07966">
        <ele>1106.8</ele>
        <time>2022-08-02T11:58:37Z</time>
      </trkpt>
      <trkpt lat="46.56619" lon="6.07981">
        <ele>1107.8</ele>
        <time>2022-08-02T11:58:40Z</time>
      </trkpt>
      <trkpt lat="46.56626" lon="6.07993">
        <ele>1108.8</ele>
        <time>2022-08-02T11:58:43Z</time>
      </trkpt>
      <trkpt lat="46.56634" lon="6.08001">
        <ele>1109.6</ele>
        <time>2022-08-02T11:58:46Z</time>
      </trkpt>
      <trkpt lat="46.56646" lon="6.08001">
        <ele>1110.5</ele>
        <time>2022-08-02T11:58:49Z</time>
      </trkpt>
      <trkpt lat="46.56656" lon="6.07996">
        <ele>1111.2</ele>
        <time>2022-08-02T11:58:52Z</time>
      </trkpt>
      <trkpt lat="46.56664" lon="6.07988">
        <ele>1111.9</ele>
        <time>2022-08-02T11:58:55Z</time>
      </trkpt>
      <trkpt lat="46.56672" lon="6.07978">
        <ele>1112.5</ele>
        <time>2022-08-02T11:58:58Z</time>
      </trkpt>
      <trkpt lat="46.5668" lon="6.07967">
        <ele>1113</ele>
        <time>2022-08-02T11:59:01Z</time>
      </trkpt>
      <trkpt lat="46.56688" lon="6.07957">
        <ele>1113.4</ele>
        <time>2022-08-02T11:59:04Z</time>
      </trkpt>
      <trkpt lat="46.567" lon="6.0796">
        <ele>1113.9</ele>
        <time>2022-08-02T11:59:07Z</time>
      </trkpt>
      <trkpt lat="46.56707" lon="6.07969">
        <ele>1114.1</ele>
        <time>2022-08-02T11:59:09Z</time>
      </trkpt>
      <trkpt lat="46.56714" lon="6.0798">
        <ele>1114.3</ele>
        <time>2022-08-02T11:59:11Z</time>
      </trkpt>
      <trkpt lat="46.56721" lon="6.0799">
        <ele>1114.5</ele>
        <time>2022-08-02T11:59:13Z</time>
      </trkpt>
      <trkpt lat="46.56729" lon="6.08002">
        <ele>1114.7</ele>
        <time>2022-08-02T11:59:15Z</time>
      </trkpt>
      <trkpt lat="46.56735" lon="6.08016">
        <ele>1114.8</ele>
        <time>2022-08-02T11:59:17Z</time>
      </trkpt>
      <trkpt lat="46.56739" lon="6.08033">
        <ele>1114.8</ele>
        <time>2022-08-02T11:59:19Z</time>
      </trkpt>
      <trkpt lat="46.5674" lon="6.08051">
        <ele>1114.8</ele>
        <time>2022-08-02T11:59:21Z</time>
      </trkpt>
      <trkpt lat="46.56739" lon="6.08069">
        <ele>1114.8</ele>
        <time>2022-08-02T11:59:23Z</time>
      </trkpt>
      <trkpt lat="46.56737" lon="6.08086">
        <ele>1114.7</ele>
        <time>2022-08-02T11:59:25Z</time>
      </trkpt>
      <trkpt lat="46.56733" lon="6.08103">
        <ele>1114.6</ele>
        <time>2022-08-02T11:59:27Z</time>
      </trkpt>
      <trkpt lat="46.56726" lon="6.0812">
        <ele>1114.3</ele>
        <time>2022-08-02T11:59:29Z</time>
      </trkpt>
      <trkpt lat="46.5672" lon="6.08135">
        <ele>1114.1</ele>
        <time>2022-08-02T11:59:31Z</time>
      </trkpt>
      <trkpt lat="46.56714" lon="6.08148">
        <ele>1113.9</ele>
        <time>2022-08-02T11:59:33Z</time>
      </trkpt>
      <trkpt lat="46.56708" lon="6.0816">
        <ele>1113.7</ele>
        <time>2022-08-02T11:59:35Z</time>
      </trkpt>
      <trkpt lat="46.56702" lon="6.08175">
        <ele>1113.5</ele>
        <time>2022-08-02T11:59:38Z</time>
      </trkpt>
      <trkpt lat="46.56698" lon="6.08189">
        <ele>1113.4</ele>
        <time>2022-08-02T11:59:41Z</time>
      </trkpt>
      <trkpt lat="46.56693" lon="6.08204">
        <ele>1113.3</ele>
        <time>2022-08-02T11:59:44Z</time>
      </trkpt>
      <trkpt lat="46.56688" lon="6.0822">
        <ele>1113.3</ele>
        <time>2022-08-02T11:59:47Z</time>
      </trkpt>
      <trkpt lat="46.56684" lon="6.08235">
        <ele>1113.4</ele>
        <time>2022-08-02T11:59:50Z</time>
      </trkpt>
      <trkpt lat="46.56678" lon="6.08249">
        <ele>1113.7</ele>
        <time>2022-08-02T11:59:53Z</time>
      </trkpt>
      <trkpt lat="46.56674" lon="6.08264">
        <ele>1113.9</ele>
        <time>2022-08-02T11:59:56Z</time>
      </trkpt>
      <trkpt lat="46.56669" lon="6.08279">
        <ele>1114.1</ele>
        <time>2022-08-02T11:59:59Z</time>
      </trkpt>
      <trkpt lat="46.56663" lon="6.08295">
        <ele>1114.3</ele>
        <time>2022-08-02T12:00:02Z</time>
      </trkpt>
      <trkpt lat="46.56658" lon="6.08309">
        <ele>1114.5</ele>
        <time>2022-08-02T12:00:05Z</time>
      </trkpt>
      <trkpt lat="46.56652" lon="6.08323">
        <ele>1114.8</ele>
        <time>2022-08-02T12:00:08Z</time>
      </trkpt>
      <trkpt lat="46.56647" lon="6.08337">
        <ele>1115.2</ele>
        <time>2022-08-02T12:00:11Z</time>
      </trkpt>
      <trkpt lat="46.5664" lon="6.08351">
        <ele>1115.6</ele>
        <time>2022-08-02T12:00:14Z</time>
      </trkpt>
      <trkpt lat="46.56634" lon="6.08365">
        <ele>1115.9</ele>
        <time>2022-08-02T12:00:17Z</time>
      </trkpt>
      <trkpt lat="46.56628" lon="6.0838">
        <ele>1116.3</ele>
        <time>2022-08-02T12:00:20Z</time>
      </trkpt>
      <trkpt lat="46.56623" lon="6.08395">
        <ele>1116.6</ele>
        <time>2022-08-02T12:00:23Z</time>
      </trkpt>
      <trkpt lat="46.56618" lon="6.08409">
        <ele>1117</ele>
        <time>2022-08-02T12:00:26Z</time>
      </trkpt>
      <trkpt lat="46.56614" lon="6.08424">
        <ele>1117.4</ele>
        <time>2022-08-02T12:00:29Z</time>
      </trkpt>
      <trkpt lat="46.56611" lon="6.0844">
        <ele>1117.7</ele>
        <time>2022-08-02T12:00:32Z</time>
      </trkpt>
      <trkpt lat="46.5661" lon="6.08456">
        <ele>1118.1</ele>
        <time>2022-08-02T12:00:35Z</time>
      </trkpt>
      <trkpt lat="46.56611" lon="6.08471">
        <ele>1118.4</ele>
        <time>2022-08-02T12:00:38Z</time>
      </trkpt>
      <trkpt lat="46.56612" lon="6.08489">
        <ele>1118.7</ele>
        <time>2022-08-02T12:00:41Z</time>
      </trkpt>
      <trkpt lat="46.56616" lon="6.08509">
        <ele>1118.9</ele>
        <time>2022-08-02T12:00:44Z</time>
      </trkpt>
      <trkpt lat="46.5662" lon="6.08523">
        <ele>1119</ele>
        <time>2022-08-02T12:00:46Z</time>
      </trkpt>
      <trkpt lat="46.56626" lon="6.08538">
        <ele>1119.1</ele>
        <time>2022-08-02T12:00:48Z</time>
      </trkpt>
      <trkpt lat="46.56631" lon="6.08552">
        <ele>1119.1</ele>
        <time>2022-08-02T12:00:50Z</time>
      </trkpt>
      <trkpt lat="46.56638" lon="6.08566">
        <ele>1119.1</ele>
        <time>2022-08-02T12:00:52Z</time>
      </trkpt>
      <trkpt lat="46.56643" lon="6.08579">
        <ele>1119.1</ele>
        <time>2022-08-02T12:00:54Z</time>
      </trkpt>
      <trkpt lat="46.56649" lon="6.08592">
        <ele>1119</ele>
        <time>2022-08-02T12:00:56Z</time>
      </trkpt>
      <trkpt lat="46.56656" lon="6.08606">
        <ele>1118.9</ele>
        <time>2022-08-02T12:00:58Z</time>
      </trkpt>
      <trkpt lat="46.56662" lon="6.0862">
        <ele>1118.8</ele>
        <time>2022-08-02T12:01:00Z</time>
      </trkpt>
      <trkpt lat="46.56668" lon="6.08634">
        <ele>1118.6</ele>
        <time>2022-08-02T12:01:02Z</time>
      </trkpt>
      <trkpt lat="46.56673" lon="6.08646">
        <ele>1118.5</ele>
        <time>2022-08-02T12:01:04Z</time>
      </trkpt>
      <trkpt lat="46.56679" lon="6.08658">
        <ele>1118.4</ele>
        <time>2022-08-02T12:01:06Z</time>
      </trkpt>
      <trkpt lat="46.56684" lon="6.08671">
        <ele>1118.3</ele>
        <time>2022-08-02T12:01:08Z</time>
      </trkpt>
      <trkpt lat="46.56688" lon="6.08683">
        <ele>1118.2</ele>
        <time>2022-08-02T12:01:10Z</time>
      </trkpt>
      <trkpt lat="46.56694" lon="6.08697">
        <ele>1118.1</ele>
        <time>2022-08-02T12:01:13Z</time>
      </trkpt>
      <trkpt lat="46.56701" lon="6.08709">
        <ele>1118</ele>
        <time>2022-08-02T12:01:16Z</time>
      </trkpt>
      <trkpt lat="46.56706" lon="6.08723">
        <ele>1117.9</ele>
        <time>2022-08-02T12:01:19Z</time>
      </trkpt>
      <trkpt lat="46.56711" lon="6.08739">
        <ele>1117.9</ele>
        <time>2022-08-02T12:01:22Z</time>
      </trkpt>
      <trkpt lat="46.56716" lon="6.08754">
        <ele>1117.8</ele>
        <time>2022-08-02T12:01:25Z</time>
      </trkpt>
      <trkpt lat="46.56721" lon="6.0877">
        <ele>1117.8</ele>
        <time>2022-08-02T12:01:29Z</time>
      </trkpt>
      <trkpt lat="46.56726" lon="6.08786">
        <ele>1117.7</ele>
        <time>2022-08-02T12:01:32Z</time>
      </trkpt>
      <trkpt lat="46.56732" lon="6.08801">
        <ele>1117.7</ele>
        <time>2022-08-02T12:01:35Z</time>
      </trkpt>
      <trkpt lat="46.56738" lon="6.08814">
        <ele>1117.8</ele>
        <time>2022-08-02T12:01:38Z</time>
      </trkpt>
      <trkpt lat="46.56742" lon="6.08829">
        <ele>1118.1</ele>
        <time>2022-08-02T12:01:42Z</time>
      </trkpt>
      <trkpt lat="46.56747" lon="6.08845">
        <ele>1118.2</ele>
        <time>2022-08-02T12:01:45Z</time>
      </trkpt>
      <trkpt lat="46.56751" lon="6.08857">
        <ele>1118.4</ele>
        <time>2022-08-02T12:01:47Z</time>
      </trkpt>
      <trkpt lat="46.56756" lon="6.0887">
        <ele>1118.7</ele>
        <time>2022-08-02T12:01:49Z</time>
      </trkpt>
      <trkpt lat="46.5676" lon="6.08882">
        <ele>1119</ele>
        <time>2022-08-02T12:01:51Z</time>
      </trkpt>
      <trkpt lat="46.56767" lon="6.08897">
        <ele>1119.4</ele>
        <time>2022-08-02T12:01:54Z</time>
      </trkpt>
      <trkpt lat="46.56776" lon="6.08909">
        <ele>1119.9</ele>
        <time>2022-08-02T12:01:57Z</time>
      </trkpt>
      <trkpt lat="46.56786" lon="6.0892">
        <ele>1120.2</ele>
        <time>2022-08-02T12:02:00Z</time>
      </trkpt>
      <trkpt lat="46.56796" lon="6.08933">
        <ele>1120.6</ele>
        <time>2022-08-02T12:02:03Z</time>
      </trkpt>
      <trkpt lat="46.56804" lon="6.08948">
        <ele>1120.9</ele>
        <time>2022-08-02T12:02:06Z</time>
      </trkpt>
      <trkpt lat="46.56811" lon="6.08965">
        <ele>1121.3</ele>
        <time>2022-08-02T12:02:09Z</time>
      </trkpt>
      <trkpt lat="46.56815" lon="6.08977">
        <ele>1121.5</ele>
        <time>2022-08-02T12:02:11Z</time>
      </trkpt>
      <trkpt lat="46.5682" lon="6.08993">
        <ele>1121.8</ele>
        <time>2022-08-02T12:02:14Z</time>
      </trkpt>
      <trkpt lat="46.56828" lon="6.09008">
        <ele>1122.1</ele>
        <time>2022-08-02T12:02:17Z</time>
      </trkpt>
      <trkpt lat="46.56835" lon="6.09023">
        <ele>1122.3</ele>
        <time>2022-08-02T12:02:20Z</time>
      </trkpt>
      <trkpt lat="46.56842" lon="6.09038">
        <ele>1122.4</ele>
        <time>2022-08-02T12:02:23Z</time>
      </trkpt>
      <trkpt lat="46.56848" lon="6.09054">
        <ele>1122.6</ele>
        <time>2022-08-02T12:02:26Z</time>
      </trkpt>
      <trkpt lat="46.56854" lon="6.09069">
        <ele>1122.8</ele>
        <time>2022-08-02T12:02:29Z</time>
      </trkpt>
      <trkpt lat="46.5686" lon="6.09084">
        <ele>1122.9</ele>
        <time>2022-08-02T12:02:32Z</time>
      </trkpt>
      <trkpt lat="46.56867" lon="6.09097">
        <ele>1123</ele>
        <time>2022-08-02T12:02:35Z</time>
      </trkpt>
      <trkpt lat="46.56874" lon="6.09111">
        <ele>1123.1</ele>
        <time>2022-08-02T12:02:38Z</time>
      </trkpt>
      <trkpt lat="46.5688" lon="6.09123">
        <ele>1123.1</ele>
        <time>2022-08-02T12:02:40Z</time>
      </trkpt>
      <trkpt lat="46.56888" lon="6.09136">
        <ele>1123.1</ele>
        <time>2022-08-02T12:02:42Z</time>
      </trkpt>
      <trkpt lat="46.56897" lon="6.09149">
        <ele>1123.2</ele>
        <time>2022-08-02T12:02:44Z</time>
      </trkpt>
      <trkpt lat="46.56907" lon="6.09163">
        <ele>1123.2</ele>
        <time>2022-08-02T12:02:46Z</time>
      </trkpt>
      <trkpt lat="46.56918" lon="6.09174">
        <ele>1123.1</ele>
        <time>2022-08-02T12:02:48Z</time>
      </trkpt>
      <trkpt lat="46.5693" lon="6.09182">
        <ele>1123.1</ele>
        <time>2022-08-02T12:02:50Z</time>
      </trkpt>
      <trkpt lat="46.56942" lon="6.09188">
        <ele>1123</ele>
        <time>2022-08-02T12:02:52Z</time>
      </trkpt>
      <trkpt lat="46.56953" lon="6.09194">
        <ele>1123</ele>
        <time>2022-08-02T12:02:54Z</time>
      </trkpt>
      <trkpt lat="46.56962" lon="6.09198">
        <ele>1123</ele>
        <time>2022-08-02T12:02:56Z</time>
      </trkpt>
      <trkpt lat="46.56971" lon="6.09201">
        <ele>1122.9</ele>
        <time>2022-08-02T12:02:58Z</time>
      </trkpt>
      <trkpt lat="46.56984" lon="6.09206">
        <ele>1122.9</ele>
        <time>2022-08-02T12:03:01Z</time>
      </trkpt>
      <trkpt lat="46.56993" lon="6.09211">
        <ele>1122.8</ele>
        <time>2022-08-02T12:03:03Z</time>
      </trkpt>
      <trkpt lat="46.57003" lon="6.09217">
        <ele>1122.7</ele>
        <time>2022-08-02T12:03:05Z</time>
      </trkpt>
      <trkpt lat="46.57014" lon="6.09224">
        <ele>1122.6</ele>
        <time>2022-08-02T12:03:07Z</time>
      </trkpt>
      <trkpt lat="46.57026" lon="6.09235">
        <ele>1122.3</ele>
        <time>2022-08-02T12:03:09Z</time>
      </trkpt>
      <trkpt lat="46.57036" lon="6.09248">
        <ele>1122</ele>
        <time>2022-08-02T12:03:11Z</time>
      </trkpt>
      <trkpt lat="46.57047" lon="6.09264">
        <ele>1121.7</ele>
        <time>2022-08-02T12:03:13Z</time>
      </trkpt>
      <trkpt lat="46.57056" lon="6.09279">
        <ele>1121.5</ele>
        <time>2022-08-02T12:03:15Z</time>
      </trkpt>
      <trkpt lat="46.57066" lon="6.09292">
        <ele>1121.2</ele>
        <time>2022-08-02T12:03:17Z</time>
      </trkpt>
      <trkpt lat="46.57076" lon="6.09305">
        <ele>1121</ele>
        <time>2022-08-02T12:03:19Z</time>
      </trkpt>
      <trkpt lat="46.57085" lon="6.09316">
        <ele>1120.8</ele>
        <time>2022-08-02T12:03:21Z</time>
      </trkpt>
      <trkpt lat="46.57092" lon="6.09326">
        <ele>1120.6</ele>
        <time>2022-08-02T12:03:23Z</time>
      </trkpt>
      <trkpt lat="46.57099" lon="6.09336">
        <ele>1120.4</ele>
        <time>2022-08-02T12:03:25Z</time>
      </trkpt>
      <trkpt lat="46.57106" lon="6.09347">
        <ele>1120.2</ele>
        <time>2022-08-02T12:03:27Z</time>
      </trkpt>
      <trkpt lat="46.57116" lon="6.09359">
        <ele>1120</ele>
        <time>2022-08-02T12:03:30Z</time>
      </trkpt>
      <trkpt lat="46.57126" lon="6.09371">
        <ele>1119.9</ele>
        <time>2022-08-02T12:03:33Z</time>
      </trkpt>
      <trkpt lat="46.57135" lon="6.09383">
        <ele>1119.9</ele>
        <time>2022-08-02T12:03:36Z</time>
      </trkpt>
      <trkpt lat="46.57143" lon="6.09396">
        <ele>1119.9</ele>
        <time>2022-08-02T12:03:39Z</time>
      </trkpt>
      <trkpt lat="46.57152" lon="6.09408">
        <ele>1120.1</ele>
        <time>2022-08-02T12:03:42Z</time>
      </trkpt>
      <trkpt lat="46.57162" lon="6.09419">
        <ele>1120.3</ele>
        <time>2022-08-02T12:03:45Z</time>
      </trkpt>
      <trkpt lat="46.57173" lon="6.09429">
        <ele>1120.6</ele>
        <time>2022-08-02T12:03:48Z</time>
      </trkpt>
      <trkpt lat="46.57184" lon="6.09439">
        <ele>1121</ele>
        <time>2022-08-02T12:03:51Z</time>
      </trkpt>
      <trkpt lat="46.57194" lon="6.09447">
        <ele>1121.6</ele>
        <time>2022-08-02T12:03:54Z</time>
      </trkpt>
      <trkpt lat="46.57203" lon="6.09455">
        <ele>1122.3</ele>
        <time>2022-08-02T12:03:57Z</time>
      </trkpt>
      <trkpt lat="46.57209" lon="6.09466">
        <ele>1123.1</ele>
        <time>2022-08-02T12:04:00Z</time>
      </trkpt>
      <trkpt lat="46.57215" lon="6.0948">
        <ele>1124</ele>
        <time>2022-08-02T12:04:03Z</time>
      </trkpt>
      <trkpt lat="46.57221" lon="6.09494">
        <ele>1124.9</ele>
        <time>2022-08-02T12:04:06Z</time>
      </trkpt>
      <trkpt lat="46.57226" lon="6.0951">
        <ele>1125.7</ele>
        <time>2022-08-02T12:04:09Z</time>
      </trkpt>
      <trkpt lat="46.57232" lon="6.09528">
        <ele>1126.5</ele>
        <time>2022-08-02T12:04:12Z</time>
      </trkpt>
      <trkpt lat="46.57239" lon="6.09544">
        <ele>1127.1</ele>
        <time>2022-08-02T12:04:15Z</time>
      </trkpt>
      <trkpt lat="46.57246" lon="6.09559">
        <ele>1127.7</ele>
        <time>2022-08-02T12:04:18Z</time>
      </trkpt>
      <trkpt lat="46.57252" lon="6.09572">
        <ele>1128.2</ele>
        <time>2022-08-02T12:04:21Z</time>
      </trkpt>
      <trkpt lat="46.57258" lon="6.09585">
        <ele>1128.7</ele>
        <time>2022-08-02T12:04:24Z</time>
      </trkpt>
      <trkpt lat="46.57265" lon="6.09598">
        <ele>1129.3</ele>
        <time>2022-08-02T12:04:27Z</time>
      </trkpt>
      <trkpt lat="46.57271" lon="6.09612">
        <ele>1129.8</ele>
        <time>2022-08-02T12:04:30Z</time>
      </trkpt>
      <trkpt lat="46.57278" lon="6.09627">
        <ele>1130.3</ele>
        <time>2022-08-02T12:04:33Z</time>
      </trkpt>
      <trkpt lat="46.57283" lon="6.09643">
        <ele>1130.7</ele>
        <time>2022-08-02T12:04:36Z</time>
      </trkpt>
      <trkpt lat="46.57289" lon="6.0966">
        <ele>1131.1</ele>
        <time>2022-08-02T12:04:39Z</time>
      </trkpt>
      <trkpt lat="46.57295" lon="6.09677">
        <ele>1131.5</ele>
        <time>2022-08-02T12:04:42Z</time>
      </trkpt>
      <trkpt lat="46.57301" lon="6.09692">
        <ele>1131.9</ele>
        <time>2022-08-02T12:04:45Z</time>
      </trkpt>
      <trkpt lat="46.57306" lon="6.09708">
        <ele>1132.3</ele>
        <time>2022-08-02T12:04:48Z</time>
      </trkpt>
      <trkpt lat="46.57311" lon="6.09722">
        <ele>1132.7</ele>
        <time>2022-08-02T12:04:51Z</time>
      </trkpt>
      <trkpt lat="46.57315" lon="6.09735">
        <ele>1133</ele>
        <time>2022-08-02T12:04:54Z</time>
      </trkpt>
      <trkpt lat="46.57326" lon="6.09741">
        <ele>1133.3</ele>
        <time>2022-08-02T12:04:57Z</time>
      </trkpt>
      <trkpt lat="46.57338" lon="6.0974">
        <ele>1133.5</ele>
        <time>2022-08-02T12:05:00Z</time>
      </trkpt>
      <trkpt lat="46.57352" lon="6.09743">
        <ele>1133.7</ele>
        <time>2022-08-02T12:05:03Z</time>
      </trkpt>
      <trkpt lat="46.57364" lon="6.09746">
        <ele>1134</ele>
        <time>2022-08-02T12:05:06Z</time>
      </trkpt>
      <trkpt lat="46.57376" lon="6.09748">
        <ele>1134.3</ele>
        <time>2022-08-02T12:05:09Z</time>
      </trkpt>
      <trkpt lat="46.57388" lon="6.09751">
        <ele>1134.7</ele>
        <time>2022-08-02T12:05:12Z</time>
      </trkpt>
      <trkpt lat="46.574" lon="6.09754">
        <ele>1135.1</ele>
        <time>2022-08-02T12:05:15Z</time>
      </trkpt>
      <trkpt lat="46.57411" lon="6.09757">
        <ele>1135.5</ele>
        <time>2022-08-02T12:05:18Z</time>
      </trkpt>
      <trkpt lat="46.57422" lon="6.09762">
        <ele>1136</ele>
        <time>2022-08-02T12:05:21Z</time>
      </trkpt>
      <trkpt lat="46.57433" lon="6.09768">
        <ele>1136.4</ele>
        <time>2022-08-02T12:05:24Z</time>
      </trkpt>
      <trkpt lat="46.57445" lon="6.09773">
        <ele>1136.9</ele>
        <time>2022-08-02T12:05:27Z</time>
      </trkpt>
      <trkpt lat="46.57456" lon="6.09778">
        <ele>1137.4</ele>
        <time>2022-08-02T12:05:30Z</time>
      </trkpt>
      <trkpt lat="46.57466" lon="6.09784">
        <ele>1137.8</ele>
        <time>2022-08-02T12:05:33Z</time>
      </trkpt>
      <trkpt lat="46.57476" lon="6.0979">
        <ele>1138.3</ele>
        <time>2022-08-02T12:05:36Z</time>
      </trkpt>
      <trkpt lat="46.57483" lon="6.09801">
        <ele>1138.8</ele>
        <time>2022-08-02T12:05:39Z</time>
      </trkpt>
      <trkpt lat="46.57487" lon="6.09817">
        <ele>1139.3</ele>
        <time>2022-08-02T12:05:42Z</time>
      </trkpt>
      <trkpt lat="46.57487" lon="6.09835">
        <ele>1139.9</ele>
        <time>2022-08-02T12:05:45Z</time>
      </trkpt>
      <trkpt lat="46.57486" lon="6.09854">
        <ele>1140.3</ele>
        <time>2022-08-02T12:05:48Z</time>
      </trkpt>
      <trkpt lat="46.57486" lon="6.09873">
        <ele>1140.8</ele>
        <time>2022-08-02T12:05:51Z</time>
      </trkpt>
      <trkpt lat="46.57487" lon="6.09887">
        <ele>1141</ele>
        <time>2022-08-02T12:05:53Z</time>
      </trkpt>
      <trkpt lat="46.5749" lon="6.099">
        <ele>1141.3</ele>
        <time>2022-08-02T12:05:55Z</time>
      </trkpt>
      <trkpt lat="46.57494" lon="6.09912">
        <ele>1141.5</ele>
        <time>2022-08-02T12:05:57Z</time>
      </trkpt>
      <trkpt lat="46.57499" lon="6.09924">
        <ele>1141.7</ele>
        <time>2022-08-02T12:05:59Z</time>
      </trkpt>
      <trkpt lat="46.57505" lon="6.0994">
        <ele>1142.2</ele>
        <time>2022-08-02T12:06:02Z</time>
      </trkpt>
      <trkpt lat="46.57511" lon="6.09956">
        <ele>1142.6</ele>
        <time>2022-08-02T12:06:05Z</time>
      </trkpt>
      <trkpt lat="46.57515" lon="6.09971">
        <ele>1143</ele>
        <time>2022-08-02T12:06:08Z</time>
      </trkpt>
      <trkpt lat="46.57519" lon="6.09985">
        <ele>1143.5</ele>
        <time>2022-08-02T12:06:11Z</time>
      </trkpt>
      <trkpt lat="46.57523" lon="6.09999">
        <ele>1144</ele>
        <time>2022-08-02T12:06:14Z</time>
      </trkpt>
      <trkpt lat="46.57527" lon="6.10013">
        <ele>1144.6</ele>
        <time>2022-08-02T12:06:17Z</time>
      </trkpt>
      <trkpt lat="46.57532" lon="6.10027">
        <ele>1145.1</ele>
        <time>2022-08-02T12:06:20Z</time>
      </trkpt>
      <trkpt lat="46.57535" lon="6.10042">
        <ele>1145.6</ele>
        <time>2022-08-02T12:06:23Z</time>
      </trkpt>
      <trkpt lat="46.57536" lon="6.10061">
        <ele>1146.1</ele>
        <time>2022-08-02T12:06:26Z</time>
      </trkpt>
      <trkpt lat="46.57533" lon="6.10073">
        <ele>1146.5</ele>
        <time>2022-08-02T12:06:28Z</time>
      </trkpt>
      <trkpt lat="46.57529" lon="6.10085">
        <ele>1146.8</ele>
        <time>2022-08-02T12:06:30Z</time>
      </trkpt>
      <trkpt lat="46.57525" lon="6.10098">
        <ele>1147.1</ele>
        <time>2022-08-02T12:06:32Z</time>
      </trkpt>
      <trkpt lat="46.57523" lon="6.10114">
        <ele>1147.6</ele>
        <time>2022-08-02T12:06:35Z</time>
      </trkpt>
      <trkpt lat="46.57524" lon="6.10131">
        <ele>1148</ele>
        <time>2022-08-02T12:06:38Z</time>
      </trkpt>
      <trkpt lat="46.57529" lon="6.10147">
        <ele>1148.5</ele>
        <time>2022-08-02T12:06:41Z</time>
      </trkpt>
      <trkpt lat="46.57534" lon="6.10162">
        <ele>1148.9</ele>
        <time>2022-08-02T12:06:44Z</time>
      </trkpt>
      <trkpt lat="46.57538" lon="6.10177">
        <ele>1149.5</ele>
        <time>2022-08-02T12:06:47Z</time>
      </trkpt>
      <trkpt lat="46.57541" lon="6.10193">
        <ele>1150</ele>
        <time>2022-08-02T12:06:50Z</time>
      </trkpt>
      <trkpt lat="46.57542" lon="6.1021">
        <ele>1150.5</ele>
        <time>2022-08-02T12:06:53Z</time>
      </trkpt>
      <trkpt lat="46.57546" lon="6.10229">
        <ele>1151</ele>
        <time>2022-08-02T12:06:56Z</time>
      </trkpt>
      <trkpt lat="46.5755" lon="6.10244">
        <ele>1151.2</ele>
        <time>2022-08-02T12:06:58Z</time>
      </trkpt>
      <trkpt lat="46.57558" lon="6.10258">
        <ele>1151.4</ele>
        <time>2022-08-02T12:07:00Z</time>
      </trkpt>
      <trkpt lat="46.57567" lon="6.10271">
        <ele>1151.5</ele>
        <time>2022-08-02T12:07:02Z</time>
      </trkpt>
      <trkpt lat="46.57579" lon="6.10282">
        <ele>1151.6</ele>
        <time>2022-08-02T12:07:04Z</time>
      </trkpt>
      <trkpt lat="46.5759" lon="6.10293">
        <ele>1151.5</ele>
        <time>2022-08-02T12:07:06Z</time>
      </trkpt>
      <trkpt lat="46.576" lon="6.10301">
        <ele>1151.5</ele>
        <time>2022-08-02T12:07:08Z</time>
      </trkpt>
      <trkpt lat="46.57609" lon="6.10306">
        <ele>1151.5</ele>
        <time>2022-08-02T12:07:10Z</time>
      </trkpt>
      <trkpt lat="46.57619" lon="6.10312">
        <ele>1151.4</ele>
        <time>2022-08-02T12:07:13Z</time>
      </trkpt>
      <trkpt lat="46.5763" lon="6.10318">
        <ele>1151.5</ele>
        <time>2022-08-02T12:07:16Z</time>
      </trkpt>
      <trkpt lat="46.5764" lon="6.10325">
        <ele>1151.7</ele>
        <time>2022-08-02T12:07:19Z</time>
      </trkpt>
      <trkpt lat="46.57649" lon="6.10335">
        <ele>1152.2</ele>
        <time>2022-08-02T12:07:22Z</time>
      </trkpt>
      <trkpt lat="46.57659" lon="6.10347">
        <ele>1152.6</ele>
        <time>2022-08-02T12:07:25Z</time>
      </trkpt>
      <trkpt lat="46.57665" lon="6.10359">
        <ele>1153</ele>
        <time>2022-08-02T12:07:28Z</time>
      </trkpt>
      <trkpt lat="46.57673" lon="6.10371">
        <ele>1153.4</ele>
        <time>2022-08-02T12:07:31Z</time>
      </trkpt>
      <trkpt lat="46.57682" lon="6.10382">
        <ele>1154.1</ele>
        <time>2022-08-02T12:07:35Z</time>
      </trkpt>
      <trkpt lat="46.57689" lon="6.10393">
        <ele>1154.6</ele>
        <time>2022-08-02T12:07:38Z</time>
      </trkpt>
      <trkpt lat="46.57698" lon="6.10406">
        <ele>1154.9</ele>
        <time>2022-08-02T12:07:41Z</time>
      </trkpt>
      <trkpt lat="46.57704" lon="6.10417">
        <ele>1155.2</ele>
        <time>2022-08-02T12:07:43Z</time>
      </trkpt>
      <trkpt lat="46.57712" lon="6.10428">
        <ele>1155.4</ele>
        <time>2022-08-02T12:07:45Z</time>
      </trkpt>
      <trkpt lat="46.57719" lon="6.10439">
        <ele>1155.6</ele>
        <time>2022-08-02T12:07:47Z</time>
      </trkpt>
      <trkpt lat="46.57727" lon="6.10451">
        <ele>1155.7</ele>
        <time>2022-08-02T12:07:49Z</time>
      </trkpt>
      <trkpt lat="46.57736" lon="6.10463">
        <ele>1155.8</ele>
        <time>2022-08-02T12:07:51Z</time>
      </trkpt>
      <trkpt lat="46.57744" lon="6.10475">
        <ele>1155.8</ele>
        <time>2022-08-02T12:07:53Z</time>
      </trkpt>
      <trkpt lat="46.57752" lon="6.10488">
        <ele>1155.9</ele>
        <time>2022-08-02T12:07:55Z</time>
      </trkpt>
      <trkpt lat="46.57761" lon="6.10502">
        <ele>1155.9</ele>
        <time>2022-08-02T12:07:57Z</time>
      </trkpt>
      <trkpt lat="46.57771" lon="6.10516">
        <ele>1155.8</ele>
        <time>2022-08-02T12:07:59Z</time>
      </trkpt>
      <trkpt lat="46.57779" lon="6.1053">
        <ele>1155.7</ele>
        <time>2022-08-02T12:08:01Z</time>
      </trkpt>
      <trkpt lat="46.57789" lon="6.10545">
        <ele>1155.6</ele>
        <time>2022-08-02T12:08:03Z</time>
      </trkpt>
      <trkpt lat="46.57802" lon="6.10556">
        <ele>1155.5</ele>
        <time>2022-08-02T12:08:05Z</time>
      </trkpt>
      <trkpt lat="46.57818" lon="6.10562">
        <ele>1155.3</ele>
        <time>2022-08-02T12:08:07Z</time>
      </trkpt>
      <trkpt lat="46.57836" lon="6.10567">
        <ele>1154.9</ele>
        <time>2022-08-02T12:08:09Z</time>
      </trkpt>
      <trkpt lat="46.57845" lon="6.10568">
        <ele>1154.7</ele>
        <time>2022-08-02T12:08:10Z</time>
      </trkpt>
      <trkpt lat="46.57854" lon="6.10569">
        <ele>1154.5</ele>
        <time>2022-08-02T12:08:11Z</time>
      </trkpt>
      <trkpt lat="46.57872" lon="6.10567">
        <ele>1154.1</ele>
        <time>2022-08-02T12:08:13Z</time>
      </trkpt>
      <trkpt lat="46.57887" lon="6.1056">
        <ele>1153.6</ele>
        <time>2022-08-02T12:08:15Z</time>
      </trkpt>
      <trkpt lat="46.57902" lon="6.10553">
        <ele>1153.1</ele>
        <time>2022-08-02T12:08:17Z</time>
      </trkpt>
      <trkpt lat="46.57916" lon="6.10548">
        <ele>1152.6</ele>
        <time>2022-08-02T12:08:19Z</time>
      </trkpt>
      <trkpt lat="46.57932" lon="6.10544">
        <ele>1152</ele>
        <time>2022-08-02T12:08:21Z</time>
      </trkpt>
      <trkpt lat="46.57947" lon="6.1054">
        <ele>1151.5</ele>
        <time>2022-08-02T12:08:23Z</time>
      </trkpt>
      <trkpt lat="46.57963" lon="6.10537">
        <ele>1150.9</ele>
        <time>2022-08-02T12:08:25Z</time>
      </trkpt>
      <trkpt lat="46.57981" lon="6.10536">
        <ele>1150.1</ele>
        <time>2022-08-02T12:08:27Z</time>
      </trkpt>
      <trkpt lat="46.5799" lon="6.10537">
        <ele>1149.7</ele>
        <time>2022-08-02T12:08:28Z</time>
      </trkpt>
      <trkpt lat="46.57999" lon="6.10537">
        <ele>1149.4</ele>
        <time>2022-08-02T12:08:29Z</time>
      </trkpt>
      <trkpt lat="46.58009" lon="6.10538">
        <ele>1149</ele>
        <time>2022-08-02T12:08:30Z</time>
      </trkpt>
      <trkpt lat="46.58018" lon="6.10539">
        <ele>1148.6</ele>
        <time>2022-08-02T12:08:31Z</time>
      </trkpt>
      <trkpt lat="46.58027" lon="6.10541">
        <ele>1148.2</ele>
        <time>2022-08-02T12:08:32Z</time>
      </trkpt>
      <trkpt lat="46.58036" lon="6.10543">
        <ele>1147.9</ele>
        <time>2022-08-02T12:08:33Z</time>
      </trkpt>
      <trkpt lat="46.58053" lon="6.10548">
        <ele>1147.1</ele>
        <time>2022-08-02T12:08:35Z</time>
      </trkpt>
      <trkpt lat="46.58068" lon="6.10557">
        <ele>1146.5</ele>
        <time>2022-08-02T12:08:37Z</time>
      </trkpt>
      <trkpt lat="46.58081" lon="6.1057">
        <ele>1145.8</ele>
        <time>2022-08-02T12:08:39Z</time>
      </trkpt>
      <trkpt lat="46.58092" lon="6.10585">
        <ele>1145.2</ele>
        <time>2022-08-02T12:08:41Z</time>
      </trkpt>
      <trkpt lat="46.58104" lon="6.10598">
        <ele>1144.6</ele>
        <time>2022-08-02T12:08:43Z</time>
      </trkpt>
      <trkpt lat="46.58113" lon="6.10609">
        <ele>1144.1</ele>
        <time>2022-08-02T12:08:45Z</time>
      </trkpt>
      <trkpt lat="46.58122" lon="6.10619">
        <ele>1143.7</ele>
        <time>2022-08-02T12:08:47Z</time>
      </trkpt>
      <trkpt lat="46.58129" lon="6.10628">
        <ele>1143.3</ele>
        <time>2022-08-02T12:08:49Z</time>
      </trkpt>
      <trkpt lat="46.58138" lon="6.10639">
        <ele>1142.9</ele>
        <time>2022-08-02T12:08:52Z</time>
      </trkpt>
      <trkpt lat="46.58148" lon="6.1065">
        <ele>1142.7</ele>
        <time>2022-08-02T12:08:55Z</time>
      </trkpt>
      <trkpt lat="46.58157" lon="6.10662">
        <ele>1142.7</ele>
        <time>2022-08-02T12:08:58Z</time>
      </trkpt>
      <trkpt lat="46.58167" lon="6.10674">
        <ele>1142.8</ele>
        <time>2022-08-02T12:09:01Z</time>
      </trkpt>
      <trkpt lat="46.58177" lon="6.10685">
        <ele>1143</ele>
        <time>2022-08-02T12:09:04Z</time>
      </trkpt>
      <trkpt lat="46.58187" lon="6.10696">
        <ele>1143.3</ele>
        <time>2022-08-02T12:09:07Z</time>
      </trkpt>
      <trkpt lat="46.58198" lon="6.10705">
        <ele>1143.6</ele>
        <time>2022-08-02T12:09:10Z</time>
      </trkpt>
      <trkpt lat="46.58209" lon="6.10714">
        <ele>1143.9</ele>
        <time>2022-08-02T12:09:13Z</time>
      </trkpt>
      <trkpt lat="46.58218" lon="6.1072">
        <ele>1144.1</ele>
        <time>2022-08-02T12:09:15Z</time>
      </trkpt>
      <trkpt lat="46.58227" lon="6.10726">
        <ele>1144.2</ele>
        <time>2022-08-02T12:09:17Z</time>
      </trkpt>
      <trkpt lat="46.58237" lon="6.10732">
        <ele>1144.4</ele>
        <time>2022-08-02T12:09:19Z</time>
      </trkpt>
      <trkpt lat="46.58247" lon="6.10737">
        <ele>1144.4</ele>
        <time>2022-08-02T12:09:21Z</time>
      </trkpt>
      <trkpt lat="46.58259" lon="6.10739">
        <ele>1144.5</ele>
        <time>2022-08-02T12:09:23Z</time>
      </trkpt>
      <trkpt lat="46.58271" lon="6.10738">
        <ele>1144.5</ele>
        <time>2022-08-02T12:09:25Z</time>
      </trkpt>
      <trkpt lat="46.58282" lon="6.10733">
        <ele>1144.4</ele>
        <time>2022-08-02T12:09:27Z</time>
      </trkpt>
      <trkpt lat="46.58293" lon="6.10728">
        <ele>1144.4</ele>
        <time>2022-08-02T12:09:29Z</time>
      </trkpt>
      <trkpt lat="46.58305" lon="6.10722">
        <ele>1144.3</ele>
        <time>2022-08-02T12:09:31Z</time>
      </trkpt>
      <trkpt lat="46.58316" lon="6.10716">
        <ele>1144.3</ele>
        <time>2022-08-02T12:09:33Z</time>
      </trkpt>
      <trkpt lat="46.58327" lon="6.1071">
        <ele>1144.2</ele>
        <time>2022-08-02T12:09:35Z</time>
      </trkpt>
      <trkpt lat="46.58337" lon="6.10702">
        <ele>1144.1</ele>
        <time>2022-08-02T12:09:37Z</time>
      </trkpt>
      <trkpt lat="46.58348" lon="6.10694">
        <ele>1144</ele>
        <time>2022-08-02T12:09:39Z</time>
      </trkpt>
      <trkpt lat="46.58357" lon="6.10686">
        <ele>1143.9</ele>
        <time>2022-08-02T12:09:41Z</time>
      </trkpt>
      <trkpt lat="46.58365" lon="6.10675">
        <ele>1143.9</ele>
        <time>2022-08-02T12:09:43Z</time>
      </trkpt>
      <trkpt lat="46.58372" lon="6.10665">
        <ele>1143.8</ele>
        <time>2022-08-02T12:09:45Z</time>
      </trkpt>
      <trkpt lat="46.58381" lon="6.10651">
        <ele>1143.7</ele>
        <time>2022-08-02T12:09:48Z</time>
      </trkpt>
      <trkpt lat="46.58388" lon="6.10638">
        <ele>1143.7</ele>
        <time>2022-08-02T12:09:51Z</time>
      </trkpt>
      <trkpt lat="46.58393" lon="6.10623">
        <ele>1143.6</ele>
        <time>2022-08-02T12:09:54Z</time>
      </trkpt>
      <trkpt lat="46.58397" lon="6.10607">
        <ele>1143.5</ele>
        <time>2022-08-02T12:09:57Z</time>
      </trkpt>
      <trkpt lat="46.58401" lon="6.10591">
        <ele>1143.5</ele>
        <time>2022-08-02T12:10:00Z</time>
      </trkpt>
      <trkpt lat="46.58405" lon="6.10574">
        <ele>1143.4</ele>
        <time>2022-08-02T12:10:03Z</time>
      </trkpt>
      <trkpt lat="46.58408" lon="6.10561">
        <ele>1143.4</ele>
        <time>2022-08-02T12:10:05Z</time>
      </trkpt>
      <trkpt lat="46.5841" lon="6.10547">
        <ele>1143.4</ele>
        <time>2022-08-02T12:10:07Z</time>
      </trkpt>
      <trkpt lat="46.58412" lon="6.10533">
        <ele>1143.4</ele>
        <time>2022-08-02T12:10:09Z</time>
      </trkpt>
      <trkpt lat="46.58412" lon="6.10519">
        <ele>1143.3</ele>
        <time>2022-08-02T12:10:11Z</time>
      </trkpt>
      <trkpt lat="46.58413" lon="6.105">
        <ele>1143.2</ele>
        <time>2022-08-02T12:10:14Z</time>
      </trkpt>
      <trkpt lat="46.58414" lon="6.10486">
        <ele>1143.1</ele>
        <time>2022-08-02T12:10:16Z</time>
      </trkpt>
      <trkpt lat="46.58415" lon="6.10472">
        <ele>1143</ele>
        <time>2022-08-02T12:10:18Z</time>
      </trkpt>
      <trkpt lat="46.58417" lon="6.10456">
        <ele>1142.9</ele>
        <time>2022-08-02T12:10:20Z</time>
      </trkpt>
      <trkpt lat="46.58419" lon="6.10439">
        <ele>1142.8</ele>
        <time>2022-08-02T12:10:22Z</time>
      </trkpt>
      <trkpt lat="46.58424" lon="6.10422">
        <ele>1142.7</ele>
        <time>2022-08-02T12:10:24Z</time>
      </trkpt>
      <trkpt lat="46.58432" lon="6.10406">
        <ele>1142.6</ele>
        <time>2022-08-02T12:10:26Z</time>
      </trkpt>
      <trkpt lat="46.5844" lon="6.10394">
        <ele>1142.6</ele>
        <time>2022-08-02T12:10:28Z</time>
      </trkpt>
      <trkpt lat="46.58449" lon="6.10384">
        <ele>1142.5</ele>
        <time>2022-08-02T12:10:30Z</time>
      </trkpt>
      <trkpt lat="46.58457" lon="6.10377">
        <ele>1142.4</ele>
        <time>2022-08-02T12:10:32Z</time>
      </trkpt>
      <trkpt lat="46.58468" lon="6.10369">
        <ele>1142.3</ele>
        <time>2022-08-02T12:10:35Z</time>
      </trkpt>
      <trkpt lat="46.5848" lon="6.10363">
        <ele>1142.2</ele>
        <time>2022-08-02T12:10:38Z</time>
      </trkpt>
      <trkpt lat="46.58488" lon="6.10357">
        <ele>1142.1</ele>
        <time>2022-08-02T12:10:40Z</time>
      </trkpt>
      <trkpt lat="46.58499" lon="6.1035">
        <ele>1142</ele>
        <time>2022-08-02T12:10:42Z</time>
      </trkpt>
      <trkpt lat="46.58509" lon="6.1034">
        <ele>1141.9</ele>
        <time>2022-08-02T12:10:44Z</time>
      </trkpt>
      <trkpt lat="46.58517" lon="6.10328">
        <ele>1141.6</ele>
        <time>2022-08-02T12:10:46Z</time>
      </trkpt>
      <trkpt lat="46.58525" lon="6.10315">
        <ele>1141.3</ele>
        <time>2022-08-02T12:10:48Z</time>
      </trkpt>
      <trkpt lat="46.58534" lon="6.10301">
        <ele>1141</ele>
        <time>2022-08-02T12:10:50Z</time>
      </trkpt>
      <trkpt lat="46.58543" lon="6.10287">
        <ele>1140.7</ele>
        <time>2022-08-02T12:10:52Z</time>
      </trkpt>
      <trkpt lat="46.58552" lon="6.1027">
        <ele>1140.2</ele>
        <time>2022-08-02T12:10:54Z</time>
      </trkpt>
      <trkpt lat="46.58561" lon="6.10252">
        <ele>1139.8</ele>
        <time>2022-08-02T12:10:56Z</time>
      </trkpt>
      <trkpt lat="46.5857" lon="6.10236">
        <ele>1139.4</ele>
        <time>2022-08-02T12:10:58Z</time>
      </trkpt>
      <trkpt lat="46.58578" lon="6.10219">
        <ele>1138.9</ele>
        <time>2022-08-02T12:11:00Z</time>
      </trkpt>
      <trkpt lat="46.58587" lon="6.10204">
        <ele>1138.4</ele>
        <time>2022-08-02T12:11:02Z</time>
      </trkpt>
      <trkpt lat="46.58595" lon="6.10189">
        <ele>1137.8</ele>
        <time>2022-08-02T12:11:04Z</time>
      </trkpt>
      <trkpt lat="46.58603" lon="6.10176">
        <ele>1137.1</ele>
        <time>2022-08-02T12:11:06Z</time>
      </trkpt>
      <trkpt lat="46.58609" lon="6.10166">
        <ele>1136.5</ele>
        <time>2022-08-02T12:11:08Z</time>
      </trkpt>
      <trkpt lat="46.58614" lon="6.10154">
        <ele>1135</ele>
        <time>2022-08-02T12:11:13Z</time>
      </trkpt>
      <trkpt lat="46.58618" lon="6.1014">
        <ele>1130</ele>
        <time>2022-08-02T12:12:45Z</time>
      </trkpt>
      <trkpt lat="46.58616" lon="6.10127">
        <ele>1130</ele>
        <time>2022-08-02T12:12:48Z</time>
      </trkpt>
      <trkpt lat="46.5861" lon="6.10113">
        <ele>1130.1</ele>
        <time>2022-08-02T12:12:52Z</time>
      </trkpt>
      <trkpt lat="46.58605" lon="6.101">
        <ele>1130.2</ele>
        <time>2022-08-02T12:12:55Z</time>
      </trkpt>
      <trkpt lat="46.586" lon="6.10086">
        <ele>1130.4</ele>
        <time>2022-08-02T12:12:58Z</time>
      </trkpt>
      <trkpt lat="46.58595" lon="6.10072">
        <ele>1130.6</ele>
        <time>2022-08-02T12:13:01Z</time>
      </trkpt>
      <trkpt lat="46.5859" lon="6.10058">
        <ele>1130.9</ele>
        <time>2022-08-02T12:13:04Z</time>
      </trkpt>
      <trkpt lat="46.58585" lon="6.10044">
        <ele>1131.2</ele>
        <time>2022-08-02T12:13:07Z</time>
      </trkpt>
      <trkpt lat="46.5858" lon="6.10029">
        <ele>1131.6</ele>
        <time>2022-08-02T12:13:10Z</time>
      </trkpt>
      <trkpt lat="46.58574" lon="6.10015">
        <ele>1131.9</ele>
        <time>2022-08-02T12:13:13Z</time>
      </trkpt>
      <trkpt lat="46.58568" lon="6.1">
        <ele>1132.2</ele>
        <time>2022-08-02T12:13:16Z</time>
      </trkpt>
      <trkpt lat="46.58562" lon="6.09984">
        <ele>1132.6</ele>
        <time>2022-08-02T12:13:19Z</time>
      </trkpt>
      <trkpt lat="46.58555" lon="6.09968">
        <ele>1132.9</ele>
        <time>2022-08-02T12:13:22Z</time>
      </trkpt>
      <trkpt lat="46.58549" lon="6.09953">
        <ele>1133.3</ele>
        <time>2022-08-02T12:13:25Z</time>
      </trkpt>
      <trkpt lat="46.58542" lon="6.09937">
        <ele>1133.6</ele>
        <time>2022-08-02T12:13:28Z</time>
      </trkpt>
      <trkpt lat="46.58537" lon="6.09921">
        <ele>1134</ele>
        <time>2022-08-02T12:13:31Z</time>
      </trkpt>
      <trkpt lat="46.5853" lon="6.09905">
        <ele>1134.3</ele>
        <time>2022-08-02T12:13:34Z</time>
      </trkpt>
      <trkpt lat="46.58525" lon="6.09894">
        <ele>1134.5</ele>
        <time>2022-08-02T12:13:36Z</time>
      </trkpt>
      <trkpt lat="46.58519" lon="6.09883">
        <ele>1134.6</ele>
        <time>2022-08-02T12:13:38Z</time>
      </trkpt>
      <trkpt lat="46.58514" lon="6.09872">
        <ele>1134.8</ele>
        <time>2022-08-02T12:13:40Z</time>
      </trkpt>
      <trkpt lat="46.58509" lon="6.0986">
        <ele>1134.9</ele>
        <time>2022-08-02T12:13:42Z</time>
      </trkpt>
      <trkpt lat="46.58504" lon="6.09848">
        <ele>1135</ele>
        <time>2022-08-02T12:13:44Z</time>
      </trkpt>
      <trkpt lat="46.58498" lon="6.09836">
        <ele>1135.1</ele>
        <time>2022-08-02T12:13:46Z</time>
      </trkpt>
      <trkpt lat="46.58493" lon="6.09823">
        <ele>1135.2</ele>
        <time>2022-08-02T12:13:48Z</time>
      </trkpt>
      <trkpt lat="46.58488" lon="6.0981">
        <ele>1135.3</ele>
        <time>2022-08-02T12:13:50Z</time>
      </trkpt>
      <trkpt lat="46.58482" lon="6.09797">
        <ele>1135.4</ele>
        <time>2022-08-02T12:13:52Z</time>
      </trkpt>
      <trkpt lat="46.58475" lon="6.09783">
        <ele>1135.4</ele>
        <time>2022-08-02T12:13:54Z</time>
      </trkpt>
      <trkpt lat="46.58469" lon="6.09768">
        <ele>1135.5</ele>
        <time>2022-08-02T12:13:56Z</time>
      </trkpt>
      <trkpt lat="46.58462" lon="6.09753">
        <ele>1135.5</ele>
        <time>2022-08-02T12:13:58Z</time>
      </trkpt>
      <trkpt lat="46.58456" lon="6.09738">
        <ele>1135.6</ele>
        <time>2022-08-02T12:14:00Z</time>
      </trkpt>
      <trkpt lat="46.5845" lon="6.09723">
        <ele>1135.5</ele>
        <time>2022-08-02T12:14:02Z</time>
      </trkpt>
      <trkpt lat="46.58443" lon="6.09707">
        <ele>1135.4</ele>
        <time>2022-08-02T12:14:04Z</time>
      </trkpt>
      <trkpt lat="46.58436" lon="6.09691">
        <ele>1135.2</ele>
        <time>2022-08-02T12:14:06Z</time>
      </trkpt>
      <trkpt lat="46.58428" lon="6.09674">
        <ele>1134.9</ele>
        <time>2022-08-02T12:14:08Z</time>
      </trkpt>
      <trkpt lat="46.58419" lon="6.09657">
        <ele>1134.5</ele>
        <time>2022-08-02T12:14:10Z</time>
      </trkpt>
      <trkpt lat="46.58409" lon="6.0964">
        <ele>1134.1</ele>
        <time>2022-08-02T12:14:12Z</time>
      </trkpt>
      <trkpt lat="46.58399" lon="6.09621">
        <ele>1133.6</ele>
        <time>2022-08-02T12:14:14Z</time>
      </trkpt>
      <trkpt lat="46.58388" lon="6.09603">
        <ele>1133.1</ele>
        <time>2022-08-02T12:14:16Z</time>
      </trkpt>
      <trkpt lat="46.58379" lon="6.09587">
        <ele>1132.4</ele>
        <time>2022-08-02T12:14:18Z</time>
      </trkpt>
      <trkpt lat="46.58375" lon="6.09569">
        <ele>1131.8</ele>
        <time>2022-08-02T12:14:20Z</time>
      </trkpt>
      <trkpt lat="46.58381" lon="6.09553">
        <ele>1131.2</ele>
        <time>2022-08-02T12:14:22Z</time>
      </trkpt>
      <trkpt lat="46.58389" lon="6.09539">
        <ele>1130.6</ele>
        <time>2022-08-02T12:14:24Z</time>
      </trkpt>
      <trkpt lat="46.58392" lon="6.09523">
        <ele>1130</ele>
        <time>2022-08-02T12:14:26Z</time>
      </trkpt>
      <trkpt lat="46.5839" lon="6.09507">
        <ele>1129.6</ele>
        <time>2022-08-02T12:14:28Z</time>
      </trkpt>
      <trkpt lat="46.58385" lon="6.09494">
        <ele>1129.1</ele>
        <time>2022-08-02T12:14:30Z</time>
      </trkpt>
      <trkpt lat="46.58378" lon="6.09482">
        <ele>1128.7</ele>
        <time>2022-08-02T12:14:32Z</time>
      </trkpt>
      <trkpt lat="46.58373" lon="6.09469">
        <ele>1128.3</ele>
        <time>2022-08-02T12:14:34Z</time>
      </trkpt>
      <trkpt lat="46.5837" lon="6.09454">
        <ele>1128</ele>
        <time>2022-08-02T12:14:36Z</time>
      </trkpt>
      <trkpt lat="46.5837" lon="6.0944">
        <ele>1127.7</ele>
        <time>2022-08-02T12:14:38Z</time>
      </trkpt>
      <trkpt lat="46.58371" lon="6.09426">
        <ele>1127.4</ele>
        <time>2022-08-02T12:14:40Z</time>
      </trkpt>
      <trkpt lat="46.58372" lon="6.09413">
        <ele>1127.2</ele>
        <time>2022-08-02T12:14:42Z</time>
      </trkpt>
      <trkpt lat="46.58374" lon="6.09394">
        <ele>1126.9</ele>
        <time>2022-08-02T12:14:45Z</time>
      </trkpt>
      <trkpt lat="46.58375" lon="6.09375">
        <ele>1126.7</ele>
        <time>2022-08-02T12:14:48Z</time>
      </trkpt>
      <trkpt lat="46.58376" lon="6.09356">
        <ele>1126.5</ele>
        <time>2022-08-02T12:14:51Z</time>
      </trkpt>
      <trkpt lat="46.58377" lon="6.09343">
        <ele>1126.4</ele>
        <time>2022-08-02T12:14:53Z</time>
      </trkpt>
      <trkpt lat="46.58379" lon="6.09324">
        <ele>1126.2</ele>
        <time>2022-08-02T12:14:56Z</time>
      </trkpt>
      <trkpt lat="46.5838" lon="6.09305">
        <ele>1126.1</ele>
        <time>2022-08-02T12:14:59Z</time>
      </trkpt>
      <trkpt lat="46.58381" lon="6.09287">
        <ele>1126</ele>
        <time>2022-08-02T12:15:02Z</time>
      </trkpt>
      <trkpt lat="46.58383" lon="6.09268">
        <ele>1125.9</ele>
        <time>2022-08-02T12:15:05Z</time>
      </trkpt>
      <trkpt lat="46.58385" lon="6.09249">
        <ele>1125.9</ele>
        <time>2022-08-02T12:15:08Z</time>
      </trkpt>
      <trkpt lat="46.58387" lon="6.09231">
        <ele>1125.8</ele>
        <time>2022-08-02T12:15:11Z</time>
      </trkpt>
      <trkpt lat="46.58388" lon="6.09212">
        <ele>1125.8</ele>
        <time>2022-08-02T12:15:14Z</time>
      </trkpt>
      <trkpt lat="46.58389" lon="6.09193">
        <ele>1125.7</ele>
        <time>2022-08-02T12:15:17Z</time>
      </trkpt>
      <trkpt lat="46.5839" lon="6.09179">
        <ele>1125.7</ele>
        <time>2022-08-02T12:15:19Z</time>
      </trkpt>
      <trkpt lat="46.58391" lon="6.09166">
        <ele>1125.7</ele>
        <time>2022-08-02T12:15:21Z</time>
      </trkpt>
      <trkpt lat="46.58393" lon="6.09149">
        <ele>1125.7</ele>
        <time>2022-08-02T12:15:24Z</time>
      </trkpt>
      <trkpt lat="46.58394" lon="6.09135">
        <ele>1125.6</ele>
        <time>2022-08-02T12:15:26Z</time>
      </trkpt>
      <trkpt lat="46.58396" lon="6.09116">
        <ele>1125.6</ele>
        <time>2022-08-02T12:15:29Z</time>
      </trkpt>
      <trkpt lat="46.58397" lon="6.09103">
        <ele>1125.6</ele>
        <time>2022-08-02T12:15:31Z</time>
      </trkpt>
      <trkpt lat="46.58397" lon="6.09089">
        <ele>1125.6</ele>
        <time>2022-08-02T12:15:33Z</time>
      </trkpt>
      <trkpt lat="46.58397" lon="6.0907">
        <ele>1125.6</ele>
        <time>2022-08-02T12:15:36Z</time>
      </trkpt>
      <trkpt lat="46.58398" lon="6.09056">
        <ele>1125.6</ele>
        <time>2022-08-02T12:15:38Z</time>
      </trkpt>
      <trkpt lat="46.58399" lon="6.09041">
        <ele>1125.6</ele>
        <time>2022-08-02T12:15:40Z</time>
      </trkpt>
      <trkpt lat="46.584" lon="6.09026">
        <ele>1125.6</ele>
        <time>2022-08-02T12:15:42Z</time>
      </trkpt>
      <trkpt lat="46.58401" lon="6.09013">
        <ele>1125.6</ele>
        <time>2022-08-02T12:15:44Z</time>
      </trkpt>
      <trkpt lat="46.58402" lon="6.08999">
        <ele>1125.6</ele>
        <time>2022-08-02T12:15:46Z</time>
      </trkpt>
      <trkpt lat="46.58403" lon="6.0898">
        <ele>1125.6</ele>
        <time>2022-08-02T12:15:49Z</time>
      </trkpt>
      <trkpt lat="46.58405" lon="6.08962">
        <ele>1125.6</ele>
        <time>2022-08-02T12:15:52Z</time>
      </trkpt>
      <trkpt lat="46.58407" lon="6.08943">
        <ele>1125.6</ele>
        <time>2022-08-02T12:15:55Z</time>
      </trkpt>
      <trkpt lat="46.58412" lon="6.08925">
        <ele>1125.6</ele>
        <time>2022-08-02T12:15:58Z</time>
      </trkpt>
      <trkpt lat="46.58415" lon="6.08913">
        <ele>1125.6</ele>
        <time>2022-08-02T12:16:00Z</time>
      </trkpt>
      <trkpt lat="46.58419" lon="6.089">
        <ele>1125.7</ele>
        <time>2022-08-02T12:16:02Z</time>
      </trkpt>
      <trkpt lat="46.58422" lon="6.08888">
        <ele>1125.8</ele>
        <time>2022-08-02T12:16:04Z</time>
      </trkpt>
      <trkpt lat="46.58426" lon="6.08875">
        <ele>1125.8</ele>
        <time>2022-08-02T12:16:06Z</time>
      </trkpt>
      <trkpt lat="46.5843" lon="6.08863">
        <ele>1125.9</ele>
        <time>2022-08-02T12:16:08Z</time>
      </trkpt>
      <trkpt lat="46.58435" lon="6.08851">
        <ele>1126</ele>
        <time>2022-08-02T12:16:10Z</time>
      </trkpt>
      <trkpt lat="46.58439" lon="6.08839">
        <ele>1126</ele>
        <time>2022-08-02T12:16:12Z</time>
      </trkpt>
      <trkpt lat="46.58443" lon="6.08826">
        <ele>1126.1</ele>
        <time>2022-08-02T12:16:14Z</time>
      </trkpt>
      <trkpt lat="46.58448" lon="6.08808">
        <ele>1126.1</ele>
        <time>2022-08-02T12:16:17Z</time>
      </trkpt>
      <trkpt lat="46.58452" lon="6.08796">
        <ele>1126.1</ele>
        <time>2022-08-02T12:16:19Z</time>
      </trkpt>
      <trkpt lat="46.58456" lon="6.08783">
        <ele>1126.2</ele>
        <time>2022-08-02T12:16:21Z</time>
      </trkpt>
      <trkpt lat="46.5846" lon="6.0877">
        <ele>1126.2</ele>
        <time>2022-08-02T12:16:23Z</time>
      </trkpt>
      <trkpt lat="46.58464" lon="6.08757">
        <ele>1126.2</ele>
        <time>2022-08-02T12:16:25Z</time>
      </trkpt>
      <trkpt lat="46.58468" lon="6.08744">
        <ele>1126.2</ele>
        <time>2022-08-02T12:16:27Z</time>
      </trkpt>
      <trkpt lat="46.5847" lon="6.0873">
        <ele>1126.2</ele>
        <time>2022-08-02T12:16:29Z</time>
      </trkpt>
      <trkpt lat="46.58472" lon="6.08717">
        <ele>1126.2</ele>
        <time>2022-08-02T12:16:31Z</time>
      </trkpt>
      <trkpt lat="46.58474" lon="6.08698">
        <ele>1126.2</ele>
        <time>2022-08-02T12:16:34Z</time>
      </trkpt>
      <trkpt lat="46.58481" lon="6.08684">
        <ele>1126.1</ele>
        <time>2022-08-02T12:16:37Z</time>
      </trkpt>
      <trkpt lat="46.58492" lon="6.08676">
        <ele>1126</ele>
        <time>2022-08-02T12:16:40Z</time>
      </trkpt>
      <trkpt lat="46.585" lon="6.08665">
        <ele>1126</ele>
        <time>2022-08-02T12:16:43Z</time>
      </trkpt>
      <trkpt lat="46.58507" lon="6.08657">
        <ele>1125.9</ele>
        <time>2022-08-02T12:16:46Z</time>
      </trkpt>
      <trkpt lat="46.58516" lon="6.08648">
        <ele>1126.1</ele>
        <time>2022-08-02T12:16:50Z</time>
      </trkpt>
      <trkpt lat="46.58523" lon="6.0864">
        <ele>1126.4</ele>
        <time>2022-08-02T12:16:54Z</time>
      </trkpt>
      <trkpt lat="46.58534" lon="6.08639">
        <ele>1126.8</ele>
        <time>2022-08-02T12:17:02Z</time>
      </trkpt>
      <trkpt lat="46.58542" lon="6.08648">
        <ele>1127.3</ele>
        <time>2022-08-02T12:17:06Z</time>
      </trkpt>
      <trkpt lat="46.58551" lon="6.08656">
        <ele>1127.9</ele>
        <time>2022-08-02T12:17:10Z</time>
      </trkpt>
      <trkpt lat="46.5856" lon="6.08664">
        <ele>1128.5</ele>
        <time>2022-08-02T12:17:14Z</time>
      </trkpt>
      <trkpt lat="46.58569" lon="6.08671">
        <ele>1129.1</ele>
        <time>2022-08-02T12:17:18Z</time>
      </trkpt>
      <trkpt lat="46.58579" lon="6.08673">
        <ele>1129.5</ele>
        <time>2022-08-02T12:17:22Z</time>
      </trkpt>
      <trkpt lat="46.5859" lon="6.08679">
        <ele>1129.9</ele>
        <time>2022-08-02T12:17:26Z</time>
      </trkpt>
      <trkpt lat="46.58601" lon="6.08678">
        <ele>1130.3</ele>
        <time>2022-08-02T12:17:30Z</time>
      </trkpt>
      <trkpt lat="46.58612" lon="6.08677">
        <ele>1130.8</ele>
        <time>2022-08-02T12:17:34Z</time>
      </trkpt>
      <trkpt lat="46.58621" lon="6.08676">
        <ele>1131.1</ele>
        <time>2022-08-02T12:17:37Z</time>
      </trkpt>
      <trkpt lat="46.58633" lon="6.08674">
        <ele>1131.4</ele>
        <time>2022-08-02T12:17:40Z</time>
      </trkpt>
      <trkpt lat="46.58646" lon="6.08672">
        <ele>1131.7</ele>
        <time>2022-08-02T12:17:43Z</time>
      </trkpt>
      <trkpt lat="46.58657" lon="6.0867">
        <ele>1131.9</ele>
        <time>2022-08-02T12:17:46Z</time>
      </trkpt>
      <trkpt lat="46.58667" lon="6.08669">
        <ele>1132.1</ele>
        <time>2022-08-02T12:17:49Z</time>
      </trkpt>
      <trkpt lat="46.58676" lon="6.0867">
        <ele>1132.3</ele>
        <time>2022-08-02T12:17:52Z</time>
      </trkpt>
      <trkpt lat="46.58689" lon="6.08669">
        <ele>1132.5</ele>
        <time>2022-08-02T12:17:55Z</time>
      </trkpt>
      <trkpt lat="46.58699" lon="6.08668">
        <ele>1132.6</ele>
        <time>2022-08-02T12:17:57Z</time>
      </trkpt>
      <trkpt lat="46.58708" lon="6.08668">
        <ele>1132.7</ele>
        <time>2022-08-02T12:17:59Z</time>
      </trkpt>
      <trkpt lat="46.58721" lon="6.08669">
        <ele>1132.9</ele>
        <time>2022-08-02T12:18:02Z</time>
      </trkpt>
      <trkpt lat="46.58733" lon="6.08674">
        <ele>1133</ele>
        <time>2022-08-02T12:18:05Z</time>
      </trkpt>
      <trkpt lat="46.58742" lon="6.08677">
        <ele>1133</ele>
        <time>2022-08-02T12:18:07Z</time>
      </trkpt>
      <trkpt lat="46.58754" lon="6.08683">
        <ele>1133.1</ele>
        <time>2022-08-02T12:18:10Z</time>
      </trkpt>
      <trkpt lat="46.58764" lon="6.08691">
        <ele>1133.2</ele>
        <time>2022-08-02T12:18:13Z</time>
      </trkpt>
      <trkpt lat="46.58772" lon="6.087">
        <ele>1133.2</ele>
        <time>2022-08-02T12:18:16Z</time>
      </trkpt>
      <trkpt lat="46.5878" lon="6.08711">
        <ele>1133.3</ele>
        <time>2022-08-02T12:18:19Z</time>
      </trkpt>
      <trkpt lat="46.58787" lon="6.08721">
        <ele>1133.3</ele>
        <time>2022-08-02T12:18:23Z</time>
      </trkpt>
      <trkpt lat="46.58799" lon="6.08724">
        <ele>1133.4</ele>
        <time>2022-08-02T12:18:27Z</time>
      </trkpt>
      <trkpt lat="46.58809" lon="6.08725">
        <ele>1133.4</ele>
        <time>2022-08-02T12:18:30Z</time>
      </trkpt>
      <trkpt lat="46.58818" lon="6.08728">
        <ele>1133.4</ele>
        <time>2022-08-02T12:18:33Z</time>
      </trkpt>
      <trkpt lat="46.58829" lon="6.08731">
        <ele>1133.4</ele>
        <time>2022-08-02T12:18:36Z</time>
      </trkpt>
      <trkpt lat="46.58842" lon="6.08732">
        <ele>1133.2</ele>
        <time>2022-08-02T12:18:39Z</time>
      </trkpt>
      <trkpt lat="46.58853" lon="6.08735">
        <ele>1132.9</ele>
        <time>2022-08-02T12:18:42Z</time>
      </trkpt>
      <trkpt lat="46.58865" lon="6.08737">
        <ele>1132.6</ele>
        <time>2022-08-02T12:18:45Z</time>
      </trkpt>
      <trkpt lat="46.58877" lon="6.08738">
        <ele>1132.3</ele>
        <time>2022-08-02T12:18:48Z</time>
      </trkpt>
      <trkpt lat="46.58888" lon="6.08735">
        <ele>1132</ele>
        <time>2022-08-02T12:18:51Z</time>
      </trkpt>
      <trkpt lat="46.58897" lon="6.0873">
        <ele>1131.4</ele>
        <time>2022-08-02T12:18:54Z</time>
      </trkpt>
      <trkpt lat="46.58908" lon="6.08722">
        <ele>1130.4</ele>
        <time>2022-08-02T12:18:58Z</time>
      </trkpt>
      <trkpt lat="46.58917" lon="6.08714">
        <ele>1129.8</ele>
        <time>2022-08-02T12:19:01Z</time>
      </trkpt>
      <trkpt lat="46.58928" lon="6.08705">
        <ele>1129.1</ele>
        <time>2022-08-02T12:19:04Z</time>
      </trkpt>
      <trkpt lat="46.58937" lon="6.08695">
        <ele>1128.1</ele>
        <time>2022-08-02T12:19:08Z</time>
      </trkpt>
      <trkpt lat="46.58946" lon="6.08691">
        <ele>1127.3</ele>
        <time>2022-08-02T12:19:12Z</time>
      </trkpt>
      <trkpt lat="46.58955" lon="6.08695">
        <ele>1126.5</ele>
        <time>2022-08-02T12:19:16Z</time>
      </trkpt>
      <trkpt lat="46.58965" lon="6.08701">
        <ele>1125.7</ele>
        <time>2022-08-02T12:19:21Z</time>
      </trkpt>
      <trkpt lat="46.58974" lon="6.08707">
        <ele>1125.3</ele>
        <time>2022-08-02T12:19:24Z</time>
      </trkpt>
      <trkpt lat="46.58983" lon="6.08716">
        <ele>1124.9</ele>
        <time>2022-08-02T12:19:27Z</time>
      </trkpt>
      <trkpt lat="46.58989" lon="6.08731">
        <ele>1124.3</ele>
        <time>2022-08-02T12:19:30Z</time>
      </trkpt>
      <trkpt lat="46.58995" lon="6.08744">
        <ele>1123.6</ele>
        <time>2022-08-02T12:19:33Z</time>
      </trkpt>
      <trkpt lat="46.59004" lon="6.08748">
        <ele>1119.1</ele>
        <time>2022-08-02T12:20:14Z</time>
      </trkpt>
      <trkpt lat="46.59013" lon="6.08755">
        <ele>1117.8</ele>
        <time>2022-08-02T12:20:26Z</time>
      </trkpt>
      <trkpt lat="46.59022" lon="6.08765">
        <ele>1115.9</ele>
        <time>2022-08-02T12:20:42Z</time>
      </trkpt>
      <trkpt lat="46.59026" lon="6.08779">
        <ele>1115.2</ele>
        <time>2022-08-02T12:20:51Z</time>
      </trkpt>
      <trkpt lat="46.59033" lon="6.08789">
        <ele>1114.6</ele>
        <time>2022-08-02T12:20:57Z</time>
      </trkpt>
      <trkpt lat="46.59042" lon="6.08782">
        <ele>1114.1</ele>
        <time>2022-08-02T12:21:01Z</time>
      </trkpt>
      <trkpt lat="46.5905" lon="6.08791">
        <ele>1113.5</ele>
        <time>2022-08-02T12:21:06Z</time>
      </trkpt>
      <trkpt lat="46.59062" lon="6.08792">
        <ele>1111.4</ele>
        <time>2022-08-02T12:21:43Z</time>
      </trkpt>
      <trkpt lat="46.5907" lon="6.08798">
        <ele>1111.4</ele>
        <time>2022-08-02T12:21:47Z</time>
      </trkpt>
      <trkpt lat="46.59077" lon="6.08806">
        <ele>1111.3</ele>
        <time>2022-08-02T12:21:52Z</time>
      </trkpt>
      <trkpt lat="46.59087" lon="6.08812">
        <ele>1111.1</ele>
        <time>2022-08-02T12:21:57Z</time>
      </trkpt>
      <trkpt lat="46.59096" lon="6.08822">
        <ele>1110.3</ele>
        <time>2022-08-02T12:22:02Z</time>
      </trkpt>
      <trkpt lat="46.59106" lon="6.08828">
        <ele>1109.4</ele>
        <time>2022-08-02T12:22:07Z</time>
      </trkpt>
      <trkpt lat="46.59116" lon="6.08831">
        <ele>1108.4</ele>
        <time>2022-08-02T12:22:12Z</time>
      </trkpt>
      <trkpt lat="46.59126" lon="6.08833">
        <ele>1107.2</ele>
        <time>2022-08-02T12:22:17Z</time>
      </trkpt>
      <trkpt lat="46.59129" lon="6.08848">
        <ele>1105.7</ele>
        <time>2022-08-02T12:22:23Z</time>
      </trkpt>
      <trkpt lat="46.5913" lon="6.08865">
        <ele>1104.7</ele>
        <time>2022-08-02T12:22:27Z</time>
      </trkpt>
      <trkpt lat="46.59136" lon="6.08876">
        <ele>1104</ele>
        <time>2022-08-02T12:22:30Z</time>
      </trkpt>
      <trkpt lat="46.59144" lon="6.08886">
        <ele>1103.4</ele>
        <time>2022-08-02T12:22:33Z</time>
      </trkpt>
      <trkpt lat="46.59151" lon="6.08898">
        <ele>1102.8</ele>
        <time>2022-08-02T12:22:36Z</time>
      </trkpt>
      <trkpt lat="46.59156" lon="6.0891">
        <ele>1101.8</ele>
        <time>2022-08-02T12:22:41Z</time>
      </trkpt>
      <trkpt lat="46.59158" lon="6.08925">
        <ele>1100.9</ele>
        <time>2022-08-02T12:22:47Z</time>
      </trkpt>
      <trkpt lat="46.59159" lon="6.0894">
        <ele>1100.4</ele>
        <time>2022-08-02T12:22:51Z</time>
      </trkpt>
      <trkpt lat="46.59164" lon="6.08951">
        <ele>1100.1</ele>
        <time>2022-08-02T12:22:54Z</time>
      </trkpt>
      <trkpt lat="46.59173" lon="6.08964">
        <ele>1099.8</ele>
        <time>2022-08-02T12:22:57Z</time>
      </trkpt>
      <trkpt lat="46.59183" lon="6.08974">
        <ele>1099.6</ele>
        <time>2022-08-02T12:23:00Z</time>
      </trkpt>
      <trkpt lat="46.59191" lon="6.08984">
        <ele>1099.2</ele>
        <time>2022-08-02T12:23:04Z</time>
      </trkpt>
      <trkpt lat="46.59196" lon="6.08995">
        <ele>1098.8</ele>
        <time>2022-08-02T12:23:08Z</time>
      </trkpt>
      <trkpt lat="46.59205" lon="6.09003">
        <ele>1098.6</ele>
        <time>2022-08-02T12:23:11Z</time>
      </trkpt>
      <trkpt lat="46.59215" lon="6.0901">
        <ele>1098.4</ele>
        <time>2022-08-02T12:23:14Z</time>
      </trkpt>
      <trkpt lat="46.59226" lon="6.09018">
        <ele>1095.5</ele>
        <time>2022-08-02T12:24:35Z</time>
      </trkpt>
      <trkpt lat="46.59238" lon="6.09026">
        <ele>1095.4</ele>
        <time>2022-08-02T12:24:38Z</time>
      </trkpt>
      <trkpt lat="46.59246" lon="6.09033">
        <ele>1095.3</ele>
        <time>2022-08-02T12:24:40Z</time>
      </trkpt>
      <trkpt lat="46.59255" lon="6.09046">
        <ele>1095.2</ele>
        <time>2022-08-02T12:24:43Z</time>
      </trkpt>
      <trkpt lat="46.59262" lon="6.09056">
        <ele>1095.2</ele>
        <time>2022-08-02T12:24:46Z</time>
      </trkpt>
      <trkpt lat="46.59268" lon="6.09067">
        <ele>1095.1</ele>
        <time>2022-08-02T12:24:49Z</time>
      </trkpt>
      <trkpt lat="46.59275" lon="6.09077">
        <ele>1095.1</ele>
        <time>2022-08-02T12:24:52Z</time>
      </trkpt>
      <trkpt lat="46.59283" lon="6.09086">
        <ele>1095.1</ele>
        <time>2022-08-02T12:24:55Z</time>
      </trkpt>
      <trkpt lat="46.59291" lon="6.09096">
        <ele>1095.2</ele>
        <time>2022-08-02T12:24:58Z</time>
      </trkpt>
      <trkpt lat="46.59298" lon="6.09105">
        <ele>1095.2</ele>
        <time>2022-08-02T12:25:02Z</time>
      </trkpt>
      <trkpt lat="46.59302" lon="6.09117">
        <ele>1095.2</ele>
        <time>2022-08-02T12:25:10Z</time>
      </trkpt>
      <trkpt lat="46.59308" lon="6.09131">
        <ele>1095.3</ele>
        <time>2022-08-02T12:25:19Z</time>
      </trkpt>
      <trkpt lat="46.59315" lon="6.09143">
        <ele>1095.4</ele>
        <time>2022-08-02T12:25:23Z</time>
      </trkpt>
      <trkpt lat="46.5932" lon="6.09154">
        <ele>1095.8</ele>
        <time>2022-08-02T12:25:27Z</time>
      </trkpt>
      <trkpt lat="46.59325" lon="6.09166">
        <ele>1096.2</ele>
        <time>2022-08-02T12:25:31Z</time>
      </trkpt>
      <trkpt lat="46.59327" lon="6.09179">
        <ele>1096.5</ele>
        <time>2022-08-02T12:25:35Z</time>
      </trkpt>
      <trkpt lat="46.59331" lon="6.09194">
        <ele>1096.8</ele>
        <time>2022-08-02T12:25:39Z</time>
      </trkpt>
      <trkpt lat="46.59333" lon="6.09209">
        <ele>1097</ele>
        <time>2022-08-02T12:25:43Z</time>
      </trkpt>
      <trkpt lat="46.59336" lon="6.09222">
        <ele>1097.4</ele>
        <time>2022-08-02T12:25:47Z</time>
      </trkpt>
      <trkpt lat="46.59338" lon="6.09238">
        <ele>1097.8</ele>
        <time>2022-08-02T12:25:51Z</time>
      </trkpt>
      <trkpt lat="46.5934" lon="6.09253">
        <ele>1098.1</ele>
        <time>2022-08-02T12:25:54Z</time>
      </trkpt>
      <trkpt lat="46.59342" lon="6.09271">
        <ele>1098.3</ele>
        <time>2022-08-02T12:25:57Z</time>
      </trkpt>
      <trkpt lat="46.59344" lon="6.09284">
        <ele>1098.5</ele>
        <time>2022-08-02T12:26:00Z</time>
      </trkpt>
      <trkpt lat="46.59345" lon="6.09299">
        <ele>1098.7</ele>
        <time>2022-08-02T12:26:04Z</time>
      </trkpt>
      <trkpt lat="46.59348" lon="6.09314">
        <ele>1098.8</ele>
        <time>2022-08-02T12:26:07Z</time>
      </trkpt>
      <trkpt lat="46.59347" lon="6.09331">
        <ele>1098.9</ele>
        <time>2022-08-02T12:26:10Z</time>
      </trkpt>
      <trkpt lat="46.59343" lon="6.09348">
        <ele>1099</ele>
        <time>2022-08-02T12:26:13Z</time>
      </trkpt>
      <trkpt lat="46.59339" lon="6.09366">
        <ele>1099.1</ele>
        <time>2022-08-02T12:26:16Z</time>
      </trkpt>
      <trkpt lat="46.59336" lon="6.09384">
        <ele>1099.1</ele>
        <time>2022-08-02T12:26:19Z</time>
      </trkpt>
      <trkpt lat="46.59333" lon="6.094">
        <ele>1099.3</ele>
        <time>2022-08-02T12:26:22Z</time>
      </trkpt>
      <trkpt lat="46.5933" lon="6.09417">
        <ele>1099.4</ele>
        <time>2022-08-02T12:26:25Z</time>
      </trkpt>
      <trkpt lat="46.59327" lon="6.09435">
        <ele>1099.5</ele>
        <time>2022-08-02T12:26:28Z</time>
      </trkpt>
      <trkpt lat="46.59323" lon="6.09451">
        <ele>1099.7</ele>
        <time>2022-08-02T12:26:31Z</time>
      </trkpt>
      <trkpt lat="46.59319" lon="6.09467">
        <ele>1099.8</ele>
        <time>2022-08-02T12:26:34Z</time>
      </trkpt>
      <trkpt lat="46.59315" lon="6.09484">
        <ele>1100</ele>
        <time>2022-08-02T12:26:37Z</time>
      </trkpt>
      <trkpt lat="46.5931" lon="6.09501">
        <ele>1100.2</ele>
        <time>2022-08-02T12:26:40Z</time>
      </trkpt>
      <trkpt lat="46.59306" lon="6.09516">
        <ele>1100.4</ele>
        <time>2022-08-02T12:26:43Z</time>
      </trkpt>
      <trkpt lat="46.59303" lon="6.09529">
        <ele>1100.6</ele>
        <time>2022-08-02T12:26:46Z</time>
      </trkpt>
      <trkpt lat="46.59305" lon="6.09542">
        <ele>1100.7</ele>
        <time>2022-08-02T12:26:50Z</time>
      </trkpt>
      <trkpt lat="46.59312" lon="6.09556">
        <ele>1101</ele>
        <time>2022-08-02T12:27:01Z</time>
      </trkpt>
      <trkpt lat="46.59318" lon="6.09567">
        <ele>1101.1</ele>
        <time>2022-08-02T12:27:04Z</time>
      </trkpt>
      <trkpt lat="46.59326" lon="6.09575">
        <ele>1101.1</ele>
        <time>2022-08-02T12:27:07Z</time>
      </trkpt>
      <trkpt lat="46.59337" lon="6.0958">
        <ele>1101.1</ele>
        <time>2022-08-02T12:27:11Z</time>
      </trkpt>
      <trkpt lat="46.59345" lon="6.09589">
        <ele>1101.2</ele>
        <time>2022-08-02T12:27:14Z</time>
      </trkpt>
      <trkpt lat="46.59351" lon="6.09601">
        <ele>1101.2</ele>
        <time>2022-08-02T12:27:17Z</time>
      </trkpt>
      <trkpt lat="46.59358" lon="6.09614">
        <ele>1101.2</ele>
        <time>2022-08-02T12:27:22Z</time>
      </trkpt>
      <trkpt lat="46.59357" lon="6.09628">
        <ele>1101.2</ele>
        <time>2022-08-02T12:27:27Z</time>
      </trkpt>
      <trkpt lat="46.59359" lon="6.09643">
        <ele>1101.3</ele>
        <time>2022-08-02T12:27:31Z</time>
      </trkpt>
      <trkpt lat="46.59363" lon="6.09656">
        <ele>1101.4</ele>
        <time>2022-08-02T12:27:36Z</time>
      </trkpt>
      <trkpt lat="46.59373" lon="6.09654">
        <ele>1101.9</ele>
        <time>2022-08-02T12:28:51Z</time>
      </trkpt>
      <trkpt lat="46.59385" lon="6.09652">
        <ele>1102</ele>
        <time>2022-08-02T12:28:55Z</time>
      </trkpt>
      <trkpt lat="46.59396" lon="6.09655">
        <ele>1102.3</ele>
        <time>2022-08-02T12:28:59Z</time>
      </trkpt>
      <trkpt lat="46.59406" lon="6.09658">
        <ele>1102.7</ele>
        <time>2022-08-02T12:29:03Z</time>
      </trkpt>
      <trkpt lat="46.59416" lon="6.09659">
        <ele>1103.2</ele>
        <time>2022-08-02T12:29:07Z</time>
      </trkpt>
      <trkpt lat="46.59425" lon="6.09659">
        <ele>1103.7</ele>
        <time>2022-08-02T12:29:12Z</time>
      </trkpt>
      <trkpt lat="46.59435" lon="6.09654">
        <ele>1104.1</ele>
        <time>2022-08-02T12:29:17Z</time>
      </trkpt>
      <trkpt lat="46.59443" lon="6.09642">
        <ele>1104.3</ele>
        <time>2022-08-02T12:29:21Z</time>
      </trkpt>
      <trkpt lat="46.59451" lon="6.09631">
        <ele>1104.5</ele>
        <time>2022-08-02T12:29:25Z</time>
      </trkpt>
      <trkpt lat="46.59457" lon="6.09619">
        <ele>1104.6</ele>
        <time>2022-08-02T12:29:28Z</time>
      </trkpt>
      <trkpt lat="46.59464" lon="6.0961">
        <ele>1104.7</ele>
        <time>2022-08-02T12:29:31Z</time>
      </trkpt>
      <trkpt lat="46.59474" lon="6.096">
        <ele>1104.8</ele>
        <time>2022-08-02T12:29:35Z</time>
      </trkpt>
      <trkpt lat="46.59484" lon="6.09591">
        <ele>1104.8</ele>
        <time>2022-08-02T12:29:39Z</time>
      </trkpt>
      <trkpt lat="46.59493" lon="6.09588">
        <ele>1104.7</ele>
        <time>2022-08-02T12:29:43Z</time>
      </trkpt>
      <trkpt lat="46.59504" lon="6.09588">
        <ele>1104.6</ele>
        <time>2022-08-02T12:29:49Z</time>
      </trkpt>
      <trkpt lat="46.59514" lon="6.09589">
        <ele>1104.5</ele>
        <time>2022-08-02T12:29:56Z</time>
      </trkpt>
      <trkpt lat="46.59522" lon="6.09593">
        <ele>1104.4</ele>
        <time>2022-08-02T12:30:13Z</time>
      </trkpt>
      <trkpt lat="46.59531" lon="6.09596">
        <ele>1104.4</ele>
        <time>2022-08-02T12:30:18Z</time>
      </trkpt>
      <trkpt lat="46.59541" lon="6.09599">
        <ele>1104.5</ele>
        <time>2022-08-02T12:30:22Z</time>
      </trkpt>
      <trkpt lat="46.59552" lon="6.09602">
        <ele>1104.6</ele>
        <time>2022-08-02T12:30:26Z</time>
      </trkpt>
      <trkpt lat="46.59562" lon="6.09604">
        <ele>1104.6</ele>
        <time>2022-08-02T12:30:30Z</time>
      </trkpt>
      <trkpt lat="46.59573" lon="6.09608">
        <ele>1104.7</ele>
        <time>2022-08-02T12:30:34Z</time>
      </trkpt>
      <trkpt lat="46.59584" lon="6.09609">
        <ele>1104.8</ele>
        <time>2022-08-02T12:30:38Z</time>
      </trkpt>
      <trkpt lat="46.59595" lon="6.09605">
        <ele>1104.9</ele>
        <time>2022-08-02T12:30:42Z</time>
      </trkpt>
      <trkpt lat="46.59604" lon="6.09598">
        <ele>1104.9</ele>
        <time>2022-08-02T12:30:45Z</time>
      </trkpt>
      <trkpt lat="46.59611" lon="6.09589">
        <ele>1104.9</ele>
        <time>2022-08-02T12:30:48Z</time>
      </trkpt>
      <trkpt lat="46.59618" lon="6.09575">
        <ele>1105</ele>
        <time>2022-08-02T12:30:52Z</time>
      </trkpt>
      <trkpt lat="46.59625" lon="6.09563">
        <ele>1105</ele>
        <time>2022-08-02T12:30:55Z</time>
      </trkpt>
      <trkpt lat="46.59633" lon="6.09551">
        <ele>1104.8</ele>
        <time>2022-08-02T12:30:58Z</time>
      </trkpt>
      <trkpt lat="46.59641" lon="6.09541">
        <ele>1104.6</ele>
        <time>2022-08-02T12:31:00Z</time>
      </trkpt>
      <trkpt lat="46.5965" lon="6.09531">
        <ele>1104.2</ele>
        <time>2022-08-02T12:31:02Z</time>
      </trkpt>
      <trkpt lat="46.5966" lon="6.09522">
        <ele>1103.6</ele>
        <time>2022-08-02T12:31:04Z</time>
      </trkpt>
      <trkpt lat="46.59671" lon="6.09513">
        <ele>1103.1</ele>
        <time>2022-08-02T12:31:06Z</time>
      </trkpt>
      <trkpt lat="46.59681" lon="6.09506">
        <ele>1102.5</ele>
        <time>2022-08-02T12:31:08Z</time>
      </trkpt>
      <trkpt lat="46.59693" lon="6.09499">
        <ele>1101.5</ele>
        <time>2022-08-02T12:31:11Z</time>
      </trkpt>
      <trkpt lat="46.59705" lon="6.09494">
        <ele>1100.7</ele>
        <time>2022-08-02T12:31:14Z</time>
      </trkpt>
      <trkpt lat="46.59715" lon="6.0949">
        <ele>1100</ele>
        <time>2022-08-02T12:31:16Z</time>
      </trkpt>
      <trkpt lat="46.59726" lon="6.09489">
        <ele>1099.3</ele>
        <time>2022-08-02T12:31:18Z</time>
      </trkpt>
      <trkpt lat="46.59739" lon="6.0949">
        <ele>1098.6</ele>
        <time>2022-08-02T12:31:20Z</time>
      </trkpt>
      <trkpt lat="46.59754" lon="6.09488">
        <ele>1097.9</ele>
        <time>2022-08-02T12:31:22Z</time>
      </trkpt>
      <trkpt lat="46.59769" lon="6.09484">
        <ele>1097.3</ele>
        <time>2022-08-02T12:31:24Z</time>
      </trkpt>
      <trkpt lat="46.59783" lon="6.09482">
        <ele>1096.6</ele>
        <time>2022-08-02T12:31:26Z</time>
      </trkpt>
      <trkpt lat="46.59794" lon="6.09482">
        <ele>1096</ele>
        <time>2022-08-02T12:31:28Z</time>
      </trkpt>
      <trkpt lat="46.59804" lon="6.09484">
        <ele>1095.2</ele>
        <time>2022-08-02T12:31:31Z</time>
      </trkpt>
      <trkpt lat="46.59814" lon="6.09487">
        <ele>1094</ele>
        <time>2022-08-02T12:31:36Z</time>
      </trkpt>
      <trkpt lat="46.59824" lon="6.09488">
        <ele>1091.2</ele>
        <time>2022-08-02T12:31:52Z</time>
      </trkpt>
      <trkpt lat="46.59835" lon="6.09487">
        <ele>1090.7</ele>
        <time>2022-08-02T12:31:56Z</time>
      </trkpt>
      <trkpt lat="46.59848" lon="6.09484">
        <ele>1090.5</ele>
        <time>2022-08-02T12:31:59Z</time>
      </trkpt>
      <trkpt lat="46.59858" lon="6.09482">
        <ele>1090.2</ele>
        <time>2022-08-02T12:32:01Z</time>
      </trkpt>
      <trkpt lat="46.59868" lon="6.09481">
        <ele>1089.9</ele>
        <time>2022-08-02T12:32:03Z</time>
      </trkpt>
      <trkpt lat="46.5988" lon="6.09482">
        <ele>1089.6</ele>
        <time>2022-08-02T12:32:05Z</time>
      </trkpt>
      <trkpt lat="46.59888" lon="6.09489">
        <ele>1089.3</ele>
        <time>2022-08-02T12:32:07Z</time>
      </trkpt>
      <trkpt lat="46.59894" lon="6.09501">
        <ele>1089</ele>
        <time>2022-08-02T12:32:09Z</time>
      </trkpt>
      <trkpt lat="46.59897" lon="6.09514">
        <ele>1088.7</ele>
        <time>2022-08-02T12:32:11Z</time>
      </trkpt>
      <trkpt lat="46.59901" lon="6.09532">
        <ele>1088.4</ele>
        <time>2022-08-02T12:32:14Z</time>
      </trkpt>
      <trkpt lat="46.59903" lon="6.09549">
        <ele>1088.1</ele>
        <time>2022-08-02T12:32:17Z</time>
      </trkpt>
      <trkpt lat="46.59905" lon="6.09565">
        <ele>1087.8</ele>
        <time>2022-08-02T12:32:20Z</time>
      </trkpt>
      <trkpt lat="46.59904" lon="6.09581">
        <ele>1087.6</ele>
        <time>2022-08-02T12:32:23Z</time>
      </trkpt>
      <trkpt lat="46.59904" lon="6.09599">
        <ele>1087.4</ele>
        <time>2022-08-02T12:32:26Z</time>
      </trkpt>
      <trkpt lat="46.59903" lon="6.09615">
        <ele>1087.2</ele>
        <time>2022-08-02T12:32:30Z</time>
      </trkpt>
      <trkpt lat="46.59898" lon="6.09626">
        <ele>1087</ele>
        <time>2022-08-02T12:32:35Z</time>
      </trkpt>
      <trkpt lat="46.59903" lon="6.09637">
        <ele>1087</ele>
        <time>2022-08-02T12:32:42Z</time>
      </trkpt>
      <trkpt lat="46.5991" lon="6.0965">
        <ele>1087.1</ele>
        <time>2022-08-02T12:33:00Z</time>
      </trkpt>
      <trkpt lat="46.59913" lon="6.09664">
        <ele>1087.1</ele>
        <time>2022-08-02T12:33:04Z</time>
      </trkpt>
      <trkpt lat="46.59916" lon="6.09677">
        <ele>1087.2</ele>
        <time>2022-08-02T12:33:08Z</time>
      </trkpt>
      <trkpt lat="46.59918" lon="6.0969">
        <ele>1087.4</ele>
        <time>2022-08-02T12:33:12Z</time>
      </trkpt>
      <trkpt lat="46.59921" lon="6.09707">
        <ele>1087.5</ele>
        <time>2022-08-02T12:33:16Z</time>
      </trkpt>
      <trkpt lat="46.59923" lon="6.09721">
        <ele>1087.6</ele>
        <time>2022-08-02T12:33:19Z</time>
      </trkpt>
      <trkpt lat="46.59927" lon="6.09737">
        <ele>1087.7</ele>
        <time>2022-08-02T12:33:22Z</time>
      </trkpt>
      <trkpt lat="46.5993" lon="6.09753">
        <ele>1087.8</ele>
        <time>2022-08-02T12:33:25Z</time>
      </trkpt>
      <trkpt lat="46.59934" lon="6.09769">
        <ele>1087.9</ele>
        <time>2022-08-02T12:33:28Z</time>
      </trkpt>
      <trkpt lat="46.59936" lon="6.09787">
        <ele>1087.9</ele>
        <time>2022-08-02T12:33:31Z</time>
      </trkpt>
      <trkpt lat="46.59936" lon="6.09805">
        <ele>1088</ele>
        <time>2022-08-02T12:33:34Z</time>
      </trkpt>
      <trkpt lat="46.59934" lon="6.09822">
        <ele>1088</ele>
        <time>2022-08-02T12:33:37Z</time>
      </trkpt>
      <trkpt lat="46.59935" lon="6.0984">
        <ele>1088.1</ele>
        <time>2022-08-02T12:33:40Z</time>
      </trkpt>
      <trkpt lat="46.59938" lon="6.09857">
        <ele>1088.1</ele>
        <time>2022-08-02T12:33:43Z</time>
      </trkpt>
      <trkpt lat="46.59941" lon="6.09873">
        <ele>1088.2</ele>
        <time>2022-08-02T12:33:46Z</time>
      </trkpt>
      <trkpt lat="46.59946" lon="6.09889">
        <ele>1088.3</ele>
        <time>2022-08-02T12:33:49Z</time>
      </trkpt>
      <trkpt lat="46.59949" lon="6.09906">
        <ele>1088.4</ele>
        <time>2022-08-02T12:33:52Z</time>
      </trkpt>
      <trkpt lat="46.59953" lon="6.09922">
        <ele>1088.5</ele>
        <time>2022-08-02T12:33:55Z</time>
      </trkpt>
      <trkpt lat="46.59957" lon="6.09938">
        <ele>1088.6</ele>
        <time>2022-08-02T12:33:58Z</time>
      </trkpt>
      <trkpt lat="46.59961" lon="6.09951">
        <ele>1088.7</ele>
        <time>2022-08-02T12:34:00Z</time>
      </trkpt>
      <trkpt lat="46.59965" lon="6.09967">
        <ele>1088.9</ele>
        <time>2022-08-02T12:34:03Z</time>
      </trkpt>
      <trkpt lat="46.59966" lon="6.09982">
        <ele>1089.1</ele>
        <time>2022-08-02T12:34:07Z</time>
      </trkpt>
      <trkpt lat="46.59974" lon="6.09992">
        <ele>1089.6</ele>
        <time>2022-08-02T12:34:23Z</time>
      </trkpt>
      <trkpt lat="46.59983" lon="6.10003">
        <ele>1089.7</ele>
        <time>2022-08-02T12:34:27Z</time>
      </trkpt>
      <trkpt lat="46.59992" lon="6.10015">
        <ele>1089.8</ele>
        <time>2022-08-02T12:34:30Z</time>
      </trkpt>
      <trkpt lat="46.59998" lon="6.10025">
        <ele>1089.9</ele>
        <time>2022-08-02T12:34:33Z</time>
      </trkpt>
      <trkpt lat="46.60005" lon="6.10036">
        <ele>1089.9</ele>
        <time>2022-08-02T12:34:36Z</time>
      </trkpt>
      <trkpt lat="46.60012" lon="6.10051">
        <ele>1090</ele>
        <time>2022-08-02T12:34:39Z</time>
      </trkpt>
      <trkpt lat="46.60019" lon="6.10065">
        <ele>1090</ele>
        <time>2022-08-02T12:34:42Z</time>
      </trkpt>
      <trkpt lat="46.60025" lon="6.1008">
        <ele>1090</ele>
        <time>2022-08-02T12:34:45Z</time>
      </trkpt>
      <trkpt lat="46.60031" lon="6.10094">
        <ele>1090.1</ele>
        <time>2022-08-02T12:34:48Z</time>
      </trkpt>
      <trkpt lat="46.60038" lon="6.10109">
        <ele>1090.2</ele>
        <time>2022-08-02T12:34:51Z</time>
      </trkpt>
      <trkpt lat="46.60046" lon="6.10123">
        <ele>1090.2</ele>
        <time>2022-08-02T12:34:54Z</time>
      </trkpt>
      <trkpt lat="46.60053" lon="6.10133">
        <ele>1090.3</ele>
        <time>2022-08-02T12:34:56Z</time>
      </trkpt>
      <trkpt lat="46.6006" lon="6.10141">
        <ele>1090.3</ele>
        <time>2022-08-02T12:34:58Z</time>
      </trkpt>
      <trkpt lat="46.60071" lon="6.1015">
        <ele>1090.4</ele>
        <time>2022-08-02T12:35:01Z</time>
      </trkpt>
      <trkpt lat="46.60081" lon="6.10158">
        <ele>1090.4</ele>
        <time>2022-08-02T12:35:04Z</time>
      </trkpt>
      <trkpt lat="46.60089" lon="6.10164">
        <ele>1090.7</ele>
        <time>2022-08-02T12:35:12Z</time>
      </trkpt>
      <trkpt lat="46.60099" lon="6.10171">
        <ele>1090.9</ele>
        <time>2022-08-02T12:35:25Z</time>
      </trkpt>
      <trkpt lat="46.60109" lon="6.10181">
        <ele>1091.1</ele>
        <time>2022-08-02T12:35:29Z</time>
      </trkpt>
      <trkpt lat="46.60117" lon="6.10189">
        <ele>1091.2</ele>
        <time>2022-08-02T12:35:32Z</time>
      </trkpt>
      <trkpt lat="46.60125" lon="6.10199">
        <ele>1091.4</ele>
        <time>2022-08-02T12:35:35Z</time>
      </trkpt>
      <trkpt lat="46.60132" lon="6.10212">
        <ele>1091.8</ele>
        <time>2022-08-02T12:35:38Z</time>
      </trkpt>
      <trkpt lat="46.60139" lon="6.10225">
        <ele>1092</ele>
        <time>2022-08-02T12:35:41Z</time>
      </trkpt>
      <trkpt lat="46.60148" lon="6.10238">
        <ele>1092.3</ele>
        <time>2022-08-02T12:35:44Z</time>
      </trkpt>
      <trkpt lat="46.60157" lon="6.10249">
        <ele>1092.5</ele>
        <time>2022-08-02T12:35:47Z</time>
      </trkpt>
      <trkpt lat="46.60164" lon="6.1026">
        <ele>1092.6</ele>
        <time>2022-08-02T12:35:50Z</time>
      </trkpt>
      <trkpt lat="46.60171" lon="6.10272">
        <ele>1092.8</ele>
        <time>2022-08-02T12:35:53Z</time>
      </trkpt>
      <trkpt lat="46.60173" lon="6.10288">
        <ele>1093</ele>
        <time>2022-08-02T12:35:56Z</time>
      </trkpt>
      <trkpt lat="46.60174" lon="6.10305">
        <ele>1093.2</ele>
        <time>2022-08-02T12:35:59Z</time>
      </trkpt>
      <trkpt lat="46.60176" lon="6.10324">
        <ele>1093.3</ele>
        <time>2022-08-02T12:36:02Z</time>
      </trkpt>
      <trkpt lat="46.60178" lon="6.10341">
        <ele>1093.4</ele>
        <time>2022-08-02T12:36:04Z</time>
      </trkpt>
      <trkpt lat="46.60177" lon="6.10356">
        <ele>1093.5</ele>
        <time>2022-08-02T12:36:06Z</time>
      </trkpt>
      <trkpt lat="46.6017" lon="6.10371">
        <ele>1093.7</ele>
        <time>2022-08-02T12:36:09Z</time>
      </trkpt>
      <trkpt lat="46.60159" lon="6.1038">
        <ele>1093.8</ele>
        <time>2022-08-02T12:36:12Z</time>
      </trkpt>
      <trkpt lat="46.60149" lon="6.10388">
        <ele>1094.1</ele>
        <time>2022-08-02T12:36:15Z</time>
      </trkpt>
      <trkpt lat="46.60139" lon="6.10397">
        <ele>1094.4</ele>
        <time>2022-08-02T12:36:18Z</time>
      </trkpt>
      <trkpt lat="46.60131" lon="6.10407">
        <ele>1094.8</ele>
        <time>2022-08-02T12:36:21Z</time>
      </trkpt>
      <trkpt lat="46.60123" lon="6.10416">
        <ele>1095</ele>
        <time>2022-08-02T12:36:24Z</time>
      </trkpt>
      <trkpt lat="46.60115" lon="6.10428">
        <ele>1095.2</ele>
        <time>2022-08-02T12:36:27Z</time>
      </trkpt>
      <trkpt lat="46.60108" lon="6.10441">
        <ele>1095.4</ele>
        <time>2022-08-02T12:36:30Z</time>
      </trkpt>
      <trkpt lat="46.60103" lon="6.10452">
        <ele>1095.5</ele>
        <time>2022-08-02T12:36:32Z</time>
      </trkpt>
      <trkpt lat="46.60096" lon="6.10466">
        <ele>1095.6</ele>
        <time>2022-08-02T12:36:34Z</time>
      </trkpt>
      <trkpt lat="46.60089" lon="6.10479">
        <ele>1095.6</ele>
        <time>2022-08-02T12:36:36Z</time>
      </trkpt>
      <trkpt lat="46.60081" lon="6.10489">
        <ele>1095.6</ele>
        <time>2022-08-02T12:36:38Z</time>
      </trkpt>
      <trkpt lat="46.60075" lon="6.10501">
        <ele>1095.7</ele>
        <time>2022-08-02T12:36:40Z</time>
      </trkpt>
      <trkpt lat="46.60065" lon="6.10514">
        <ele>1095.6</ele>
        <time>2022-08-02T12:36:43Z</time>
      </trkpt>
      <trkpt lat="46.60059" lon="6.10524">
        <ele>1095.3</ele>
        <time>2022-08-02T12:37:01Z</time>
      </trkpt>
      <trkpt lat="46.60051" lon="6.10534">
        <ele>1095.2</ele>
        <time>2022-08-02T12:37:10Z</time>
      </trkpt>
      <trkpt lat="46.60047" lon="6.10546">
        <ele>1095.2</ele>
        <time>2022-08-02T12:37:13Z</time>
      </trkpt>
      <trkpt lat="46.60044" lon="6.10559">
        <ele>1095.3</ele>
        <time>2022-08-02T12:37:16Z</time>
      </trkpt>
      <trkpt lat="46.60042" lon="6.10576">
        <ele>1095.3</ele>
        <time>2022-08-02T12:37:20Z</time>
      </trkpt>
      <trkpt lat="46.60044" lon="6.10593">
        <ele>1095.3</ele>
        <time>2022-08-02T12:37:24Z</time>
      </trkpt>
      <trkpt lat="46.60052" lon="6.1061">
        <ele>1095.3</ele>
        <time>2022-08-02T12:37:27Z</time>
      </trkpt>
      <trkpt lat="46.60057" lon="6.10627">
        <ele>1095.2</ele>
        <time>2022-08-02T12:37:29Z</time>
      </trkpt>
      <trkpt lat="46.60059" lon="6.10646">
        <ele>1095.1</ele>
        <time>2022-08-02T12:37:31Z</time>
      </trkpt>
      <trkpt lat="46.60063" lon="6.10665">
        <ele>1095</ele>
        <time>2022-08-02T12:37:33Z</time>
      </trkpt>
      <trkpt lat="46.60068" lon="6.10682">
        <ele>1094.8</ele>
        <time>2022-08-02T12:37:35Z</time>
      </trkpt>
      <trkpt lat="46.60073" lon="6.10699">
        <ele>1094.6</ele>
        <time>2022-08-02T12:37:37Z</time>
      </trkpt>
      <trkpt lat="46.60078" lon="6.10714">
        <ele>1094.4</ele>
        <time>2022-08-02T12:37:39Z</time>
      </trkpt>
      <trkpt lat="46.60079" lon="6.10729">
        <ele>1094.3</ele>
        <time>2022-08-02T12:37:41Z</time>
      </trkpt>
      <trkpt lat="46.6008" lon="6.10746">
        <ele>1094.1</ele>
        <time>2022-08-02T12:37:43Z</time>
      </trkpt>
      <trkpt lat="46.60079" lon="6.10762">
        <ele>1094</ele>
        <time>2022-08-02T12:37:45Z</time>
      </trkpt>
      <trkpt lat="46.60078" lon="6.10779">
        <ele>1093.9</ele>
        <time>2022-08-02T12:37:47Z</time>
      </trkpt>
      <trkpt lat="46.60077" lon="6.10797">
        <ele>1093.8</ele>
        <time>2022-08-02T12:37:49Z</time>
      </trkpt>
      <trkpt lat="46.60076" lon="6.10814">
        <ele>1093.8</ele>
        <time>2022-08-02T12:37:51Z</time>
      </trkpt>
      <trkpt lat="46.60074" lon="6.1083">
        <ele>1093.7</ele>
        <time>2022-08-02T12:37:53Z</time>
      </trkpt>
      <trkpt lat="46.60073" lon="6.10846">
        <ele>1093.6</ele>
        <time>2022-08-02T12:37:55Z</time>
      </trkpt>
      <trkpt lat="46.6007" lon="6.10862">
        <ele>1093.6</ele>
        <time>2022-08-02T12:37:57Z</time>
      </trkpt>
      <trkpt lat="46.60065" lon="6.10878">
        <ele>1093.5</ele>
        <time>2022-08-02T12:37:59Z</time>
      </trkpt>
      <trkpt lat="46.60058" lon="6.10892">
        <ele>1093.5</ele>
        <time>2022-08-02T12:38:01Z</time>
      </trkpt>
      <trkpt lat="46.60052" lon="6.10907">
        <ele>1093.5</ele>
        <time>2022-08-02T12:38:03Z</time>
      </trkpt>
      <trkpt lat="46.60047" lon="6.10922">
        <ele>1093.4</ele>
        <time>2022-08-02T12:38:05Z</time>
      </trkpt>
      <trkpt lat="46.60044" lon="6.10936">
        <ele>1093.4</ele>
        <time>2022-08-02T12:38:07Z</time>
      </trkpt>
      <trkpt lat="46.6004" lon="6.10951">
        <ele>1093.4</ele>
        <time>2022-08-02T12:38:09Z</time>
      </trkpt>
      <trkpt lat="46.60036" lon="6.10966">
        <ele>1093.4</ele>
        <time>2022-08-02T12:38:11Z</time>
      </trkpt>
      <trkpt lat="46.60032" lon="6.10981">
        <ele>1093.4</ele>
        <time>2022-08-02T12:38:13Z</time>
      </trkpt>
      <trkpt lat="46.60028" lon="6.10995">
        <ele>1093.3</ele>
        <time>2022-08-02T12:38:15Z</time>
      </trkpt>
      <trkpt lat="46.60025" lon="6.11009">
        <ele>1093.3</ele>
        <time>2022-08-02T12:38:17Z</time>
      </trkpt>
      <trkpt lat="46.60021" lon="6.11022">
        <ele>1093.3</ele>
        <time>2022-08-02T12:38:19Z</time>
      </trkpt>
      <trkpt lat="46.60017" lon="6.11041">
        <ele>1093.4</ele>
        <time>2022-08-02T12:38:22Z</time>
      </trkpt>
      <trkpt lat="46.60014" lon="6.11053">
        <ele>1093.5</ele>
        <time>2022-08-02T12:38:24Z</time>
      </trkpt>
      <trkpt lat="46.6001" lon="6.11065">
        <ele>1093.6</ele>
        <time>2022-08-02T12:38:26Z</time>
      </trkpt>
      <trkpt lat="46.60006" lon="6.11082">
        <ele>1093.9</ele>
        <time>2022-08-02T12:38:29Z</time>
      </trkpt>
      <trkpt lat="46.60003" lon="6.11097">
        <ele>1094.2</ele>
        <time>2022-08-02T12:38:32Z</time>
      </trkpt>
      <trkpt lat="46.59999" lon="6.11111">
        <ele>1094.6</ele>
        <time>2022-08-02T12:38:35Z</time>
      </trkpt>
      <trkpt lat="46.59994" lon="6.11125">
        <ele>1095.1</ele>
        <time>2022-08-02T12:38:38Z</time>
      </trkpt>
      <trkpt lat="46.5999" lon="6.1114">
        <ele>1095.8</ele>
        <time>2022-08-02T12:38:41Z</time>
      </trkpt>
      <trkpt lat="46.59986" lon="6.11155">
        <ele>1096.6</ele>
        <time>2022-08-02T12:38:44Z</time>
      </trkpt>
      <trkpt lat="46.59983" lon="6.11171">
        <ele>1097.3</ele>
        <time>2022-08-02T12:38:47Z</time>
      </trkpt>
      <trkpt lat="46.5998" lon="6.11187">
        <ele>1098.1</ele>
        <time>2022-08-02T12:38:50Z</time>
      </trkpt>
      <trkpt lat="46.59978" lon="6.11203">
        <ele>1099</ele>
        <time>2022-08-02T12:38:53Z</time>
      </trkpt>
      <trkpt lat="46.59975" lon="6.11219">
        <ele>1100</ele>
        <time>2022-08-02T12:38:56Z</time>
      </trkpt>
      <trkpt lat="46.59973" lon="6.11235">
        <ele>1101</ele>
        <time>2022-08-02T12:38:59Z</time>
      </trkpt>
      <trkpt lat="46.59971" lon="6.11251">
        <ele>1101.8</ele>
        <time>2022-08-02T12:39:02Z</time>
      </trkpt>
      <trkpt lat="46.59967" lon="6.11266">
        <ele>1102.7</ele>
        <time>2022-08-02T12:39:05Z</time>
      </trkpt>
      <trkpt lat="46.59964" lon="6.1128">
        <ele>1103.4</ele>
        <time>2022-08-02T12:39:08Z</time>
      </trkpt>
      <trkpt lat="46.5996" lon="6.11293">
        <ele>1104.2</ele>
        <time>2022-08-02T12:39:11Z</time>
      </trkpt>
      <trkpt lat="46.59956" lon="6.11306">
        <ele>1104.9</ele>
        <time>2022-08-02T12:39:14Z</time>
      </trkpt>
      <trkpt lat="46.59951" lon="6.1132">
        <ele>1105.6</ele>
        <time>2022-08-02T12:39:17Z</time>
      </trkpt>
      <trkpt lat="46.59946" lon="6.11334">
        <ele>1106.2</ele>
        <time>2022-08-02T12:39:20Z</time>
      </trkpt>
      <trkpt lat="46.59938" lon="6.11349">
        <ele>1106.8</ele>
        <time>2022-08-02T12:39:23Z</time>
      </trkpt>
      <trkpt lat="46.5993" lon="6.11361">
        <ele>1107.1</ele>
        <time>2022-08-02T12:39:25Z</time>
      </trkpt>
      <trkpt lat="46.59918" lon="6.11373">
        <ele>1107.3</ele>
        <time>2022-08-02T12:39:27Z</time>
      </trkpt>
      <trkpt lat="46.59909" lon="6.11382">
        <ele>1107.3</ele>
        <time>2022-08-02T12:39:29Z</time>
      </trkpt>
      <trkpt lat="46.5991" lon="6.11397">
        <ele>1107.2</ele>
        <time>2022-08-02T12:39:32Z</time>
      </trkpt>
      <trkpt lat="46.59919" lon="6.11404">
        <ele>1107.2</ele>
        <time>2022-08-02T12:39:35Z</time>
      </trkpt>
      <trkpt lat="46.59931" lon="6.1141">
        <ele>1107.1</ele>
        <time>2022-08-02T12:39:38Z</time>
      </trkpt>
      <trkpt lat="46.5994" lon="6.11416">
        <ele>1107.1</ele>
        <time>2022-08-02T12:39:40Z</time>
      </trkpt>
      <trkpt lat="46.59948" lon="6.11423">
        <ele>1107</ele>
        <time>2022-08-02T12:39:42Z</time>
      </trkpt>
      <trkpt lat="46.59958" lon="6.1143">
        <ele>1106.9</ele>
        <time>2022-08-02T12:39:45Z</time>
      </trkpt>
      <trkpt lat="46.5997" lon="6.11436">
        <ele>1106.9</ele>
        <time>2022-08-02T12:39:48Z</time>
      </trkpt>
      <trkpt lat="46.59979" lon="6.11439">
        <ele>1106.8</ele>
        <time>2022-08-02T12:39:50Z</time>
      </trkpt>
      <trkpt lat="46.59989" lon="6.11444">
        <ele>1106.7</ele>
        <time>2022-08-02T12:39:52Z</time>
      </trkpt>
      <trkpt lat="46.59999" lon="6.11447">
        <ele>1106.7</ele>
        <time>2022-08-02T12:39:54Z</time>
      </trkpt>
      <trkpt lat="46.6001" lon="6.11449">
        <ele>1106.6</ele>
        <time>2022-08-02T12:39:56Z</time>
      </trkpt>
      <trkpt lat="46.60022" lon="6.11453">
        <ele>1106.5</ele>
        <time>2022-08-02T12:39:58Z</time>
      </trkpt>
      <trkpt lat="46.60035" lon="6.11456">
        <ele>1106.3</ele>
        <time>2022-08-02T12:40:00Z</time>
      </trkpt>
      <trkpt lat="46.60048" lon="6.11458">
        <ele>1106.1</ele>
        <time>2022-08-02T12:40:02Z</time>
      </trkpt>
      <trkpt lat="46.60061" lon="6.11459">
        <ele>1105.9</ele>
        <time>2022-08-02T12:40:04Z</time>
      </trkpt>
      <trkpt lat="46.60072" lon="6.11459">
        <ele>1105.7</ele>
        <time>2022-08-02T12:40:06Z</time>
      </trkpt>
      <trkpt lat="46.60082" lon="6.11458">
        <ele>1105.6</ele>
        <time>2022-08-02T12:40:08Z</time>
      </trkpt>
      <trkpt lat="46.60091" lon="6.11454">
        <ele>1105.5</ele>
        <time>2022-08-02T12:40:10Z</time>
      </trkpt>
      <trkpt lat="46.60101" lon="6.1145">
        <ele>1105.3</ele>
        <time>2022-08-02T12:40:12Z</time>
      </trkpt>
      <trkpt lat="46.60109" lon="6.11445">
        <ele>1105.2</ele>
        <time>2022-08-02T12:40:14Z</time>
      </trkpt>
      <trkpt lat="46.60118" lon="6.1144">
        <ele>1105.3</ele>
        <time>2022-08-02T12:40:16Z</time>
      </trkpt>
      <trkpt lat="46.60127" lon="6.11435">
        <ele>1105.3</ele>
        <time>2022-08-02T12:40:18Z</time>
      </trkpt>
      <trkpt lat="46.60136" lon="6.1143">
        <ele>1105.4</ele>
        <time>2022-08-02T12:40:20Z</time>
      </trkpt>
      <trkpt lat="46.60146" lon="6.1142">
        <ele>1105.4</ele>
        <time>2022-08-02T12:40:23Z</time>
      </trkpt>
      <trkpt lat="46.60156" lon="6.11412">
        <ele>1105.6</ele>
        <time>2022-08-02T12:40:26Z</time>
      </trkpt>
      <trkpt lat="46.60166" lon="6.11404">
        <ele>1105.8</ele>
        <time>2022-08-02T12:40:29Z</time>
      </trkpt>
      <trkpt lat="46.60174" lon="6.11393">
        <ele>1106</ele>
        <time>2022-08-02T12:40:32Z</time>
      </trkpt>
      <trkpt lat="46.60182" lon="6.11383">
        <ele>1106.2</ele>
        <time>2022-08-02T12:40:35Z</time>
      </trkpt>
      <trkpt lat="46.6019" lon="6.11371">
        <ele>1106.3</ele>
        <time>2022-08-02T12:40:39Z</time>
      </trkpt>
      <trkpt lat="46.60196" lon="6.11357">
        <ele>1106.5</ele>
        <time>2022-08-02T12:40:43Z</time>
      </trkpt>
      <trkpt lat="46.60201" lon="6.11346">
        <ele>1106.5</ele>
        <time>2022-08-02T12:40:48Z</time>
      </trkpt>
      <trkpt lat="46.60205" lon="6.11334">
        <ele>1106.4</ele>
        <time>2022-08-02T12:40:53Z</time>
      </trkpt>
      <trkpt lat="46.60216" lon="6.1133">
        <ele>1106.1</ele>
        <time>2022-08-02T12:42:02Z</time>
      </trkpt>
      <trkpt lat="46.60227" lon="6.11325">
        <ele>1106.1</ele>
        <time>2022-08-02T12:42:06Z</time>
      </trkpt>
      <trkpt lat="46.60237" lon="6.11317">
        <ele>1106.1</ele>
        <time>2022-08-02T12:42:09Z</time>
      </trkpt>
      <trkpt lat="46.60248" lon="6.11309">
        <ele>1106.1</ele>
        <time>2022-08-02T12:42:12Z</time>
      </trkpt>
      <trkpt lat="46.60259" lon="6.113">
        <ele>1106.1</ele>
        <time>2022-08-02T12:42:15Z</time>
      </trkpt>
      <trkpt lat="46.60268" lon="6.11295">
        <ele>1106</ele>
        <time>2022-08-02T12:42:17Z</time>
      </trkpt>
      <trkpt lat="46.60277" lon="6.11295">
        <ele>1105.9</ele>
        <time>2022-08-02T12:42:19Z</time>
      </trkpt>
      <trkpt lat="46.6029" lon="6.11301">
        <ele>1105.8</ele>
        <time>2022-08-02T12:42:22Z</time>
      </trkpt>
      <trkpt lat="46.603" lon="6.11308">
        <ele>1105.7</ele>
        <time>2022-08-02T12:42:25Z</time>
      </trkpt>
      <trkpt lat="46.6031" lon="6.11317">
        <ele>1105.6</ele>
        <time>2022-08-02T12:42:29Z</time>
      </trkpt>
      <trkpt lat="46.60313" lon="6.1133">
        <ele>1105.5</ele>
        <time>2022-08-02T12:42:33Z</time>
      </trkpt>
      <trkpt lat="46.60314" lon="6.11344">
        <ele>1105.4</ele>
        <time>2022-08-02T12:42:38Z</time>
      </trkpt>
      <trkpt lat="46.60321" lon="6.11351">
        <ele>1105.8</ele>
        <time>2022-08-02T12:43:13Z</time>
      </trkpt>
      <trkpt lat="46.60317" lon="6.11358">
        <ele>1105.3</ele>
        <time>2022-08-02T12:43:43Z</time>
      </trkpt>
    </trkseg>
  </trk>
</gpx>